<?xml version="1.0" encoding="UTF-8" standalone="no" ?>
<gpx xmlns="http://www.topografix.com/GPX/1/1" xmlns:xsi="http://www.w3.org/2001/XMLSchema-instance" xsi:schemaLocation="http://www.topografix.com/GPX/1/1 http://www.topografix.com/GPX/1/1/gpx.xsd" version="1.1" creator="VisuGPX - https://www.visugpx.com">
  <metadata>
    <name>Far_West_Realisé</name>
  </metadata>
  <trk>
    <name><![CDATA[J7 - Far west - Oloron-Sainte-Marie - Pagolle - Pays basque 😎😍]]></name>
    <extensions>
      <line xmlns="http://www.topografix.com/GPX/gpx_style/0/2">
        <color>00FF00</color>
        <width>4</width>
      </line>
    </extensions>
    <trkseg>
      <trkpt lat="43.19413" lon="-0.61088">
        <ele>223</ele>
        <time>2022-09-10T08:08:40Z</time>
      </trkpt>
      <trkpt lat="43.19409" lon="-0.61091">
        <ele>223</ele>
        <time>2022-09-10T08:08:45Z</time>
      </trkpt>
      <trkpt lat="43.19408" lon="-0.61095">
        <ele>223</ele>
        <time>2022-09-10T08:08:47Z</time>
      </trkpt>
      <trkpt lat="43.19401" lon="-0.611">
        <ele>223.2</ele>
        <time>2022-09-10T08:08:53Z</time>
      </trkpt>
      <trkpt lat="43.19398" lon="-0.61106">
        <ele>223.2</ele>
        <time>2022-09-10T08:08:57Z</time>
      </trkpt>
      <trkpt lat="43.19396" lon="-0.61111">
        <ele>223.2</ele>
        <time>2022-09-10T08:09:00Z</time>
      </trkpt>
      <trkpt lat="43.19395" lon="-0.61112">
        <ele>223.2</ele>
        <time>2022-09-10T08:09:01Z</time>
      </trkpt>
      <trkpt lat="43.19392" lon="-0.61118">
        <ele>223.2</ele>
        <time>2022-09-10T08:09:06Z</time>
      </trkpt>
      <trkpt lat="43.19391" lon="-0.61123">
        <ele>223.2</ele>
        <time>2022-09-10T08:09:09Z</time>
      </trkpt>
      <trkpt lat="43.19395" lon="-0.61128">
        <ele>223</ele>
        <time>2022-09-10T08:09:12Z</time>
      </trkpt>
      <trkpt lat="43.19397" lon="-0.61129">
        <ele>223</ele>
        <time>2022-09-10T08:09:13Z</time>
      </trkpt>
      <trkpt lat="43.19413" lon="-0.61142">
        <ele>223</ele>
        <time>2022-09-10T08:09:22Z</time>
      </trkpt>
      <trkpt lat="43.19427" lon="-0.61151">
        <ele>223.2</ele>
        <time>2022-09-10T08:09:28Z</time>
      </trkpt>
      <trkpt lat="43.19442" lon="-0.61164">
        <ele>223.6</ele>
        <time>2022-09-10T08:09:34Z</time>
      </trkpt>
      <trkpt lat="43.19442" lon="-0.61182">
        <ele>224</ele>
        <time>2022-09-10T08:09:38Z</time>
      </trkpt>
      <trkpt lat="43.19434" lon="-0.61196">
        <ele>224.2</ele>
        <time>2022-09-10T08:09:42Z</time>
      </trkpt>
      <trkpt lat="43.19421" lon="-0.612">
        <ele>224.2</ele>
        <time>2022-09-10T08:09:46Z</time>
      </trkpt>
      <trkpt lat="43.19401" lon="-0.61201">
        <ele>223.8</ele>
        <time>2022-09-10T08:09:51Z</time>
      </trkpt>
      <trkpt lat="43.19385" lon="-0.61209">
        <ele>223.8</ele>
        <time>2022-09-10T08:09:56Z</time>
      </trkpt>
      <trkpt lat="43.19362" lon="-0.61225">
        <ele>223.8</ele>
        <time>2022-09-10T08:10:03Z</time>
      </trkpt>
      <trkpt lat="43.19344" lon="-0.61242">
        <ele>224</ele>
        <time>2022-09-10T08:10:09Z</time>
      </trkpt>
      <trkpt lat="43.19316" lon="-0.61266">
        <ele>224.2</ele>
        <time>2022-09-10T08:10:18Z</time>
      </trkpt>
      <trkpt lat="43.19285" lon="-0.61291">
        <ele>224.8</ele>
        <time>2022-09-10T08:10:28Z</time>
      </trkpt>
      <trkpt lat="43.19269" lon="-0.61304">
        <ele>225</ele>
        <time>2022-09-10T08:10:35Z</time>
      </trkpt>
      <trkpt lat="43.19267" lon="-0.61305">
        <ele>225</ele>
        <time>2022-09-10T08:10:37Z</time>
      </trkpt>
      <trkpt lat="43.19261" lon="-0.61314">
        <ele>225.4</ele>
        <time>2022-09-10T08:10:41Z</time>
      </trkpt>
      <trkpt lat="43.19247" lon="-0.6132">
        <ele>225.6</ele>
        <time>2022-09-10T08:10:46Z</time>
      </trkpt>
      <trkpt lat="43.19234" lon="-0.61332">
        <ele>226.2</ele>
        <time>2022-09-10T08:10:51Z</time>
      </trkpt>
      <trkpt lat="43.19222" lon="-0.61342">
        <ele>226.6</ele>
        <time>2022-09-10T08:10:55Z</time>
      </trkpt>
      <trkpt lat="43.19209" lon="-0.61356">
        <ele>227.4</ele>
        <time>2022-09-10T08:11:00Z</time>
      </trkpt>
      <trkpt lat="43.19204" lon="-0.61362">
        <ele>227.6</ele>
        <time>2022-09-10T08:11:02Z</time>
      </trkpt>
      <trkpt lat="43.19186" lon="-0.61384">
        <ele>228.4</ele>
        <time>2022-09-10T08:11:09Z</time>
      </trkpt>
      <trkpt lat="43.1918" lon="-0.61392">
        <ele>228.8</ele>
        <time>2022-09-10T08:11:12Z</time>
      </trkpt>
      <trkpt lat="43.19167" lon="-0.61412">
        <ele>229.6</ele>
        <time>2022-09-10T08:11:18Z</time>
      </trkpt>
      <trkpt lat="43.19162" lon="-0.61418">
        <ele>229.6</ele>
        <time>2022-09-10T08:11:20Z</time>
      </trkpt>
      <trkpt lat="43.19144" lon="-0.6145">
        <ele>229.6</ele>
        <time>2022-09-10T08:11:28Z</time>
      </trkpt>
      <trkpt lat="43.19125" lon="-0.61492">
        <ele>229.8</ele>
        <time>2022-09-10T08:11:37Z</time>
      </trkpt>
      <trkpt lat="43.1911" lon="-0.61529">
        <ele>230.6</ele>
        <time>2022-09-10T08:11:45Z</time>
      </trkpt>
      <trkpt lat="43.19094" lon="-0.61568">
        <ele>231.8</ele>
        <time>2022-09-10T08:11:54Z</time>
      </trkpt>
      <trkpt lat="43.19091" lon="-0.61577">
        <ele>232</ele>
        <time>2022-09-10T08:11:56Z</time>
      </trkpt>
      <trkpt lat="43.19081" lon="-0.61599">
        <ele>232.8</ele>
        <time>2022-09-10T08:12:02Z</time>
      </trkpt>
      <trkpt lat="43.19073" lon="-0.61618">
        <ele>233.6</ele>
        <time>2022-09-10T08:12:07Z</time>
      </trkpt>
      <trkpt lat="43.19068" lon="-0.6163">
        <ele>233.8</ele>
        <time>2022-09-10T08:12:10Z</time>
      </trkpt>
      <trkpt lat="43.19061" lon="-0.61648">
        <ele>234.6</ele>
        <time>2022-09-10T08:12:15Z</time>
      </trkpt>
      <trkpt lat="43.19057" lon="-0.61662">
        <ele>235</ele>
        <time>2022-09-10T08:12:19Z</time>
      </trkpt>
      <trkpt lat="43.19051" lon="-0.61678">
        <ele>235.4</ele>
        <time>2022-09-10T08:12:24Z</time>
      </trkpt>
      <trkpt lat="43.1904" lon="-0.61708">
        <ele>235.8</ele>
        <time>2022-09-10T08:12:33Z</time>
      </trkpt>
      <trkpt lat="43.1904" lon="-0.61712">
        <ele>235.8</ele>
        <time>2022-09-10T08:12:34Z</time>
      </trkpt>
      <trkpt lat="43.1904" lon="-0.61715">
        <ele>236</ele>
        <time>2022-09-10T08:12:35Z</time>
      </trkpt>
      <trkpt lat="43.19042" lon="-0.61723">
        <ele>236</ele>
        <time>2022-09-10T08:12:37Z</time>
      </trkpt>
      <trkpt lat="43.19046" lon="-0.61745">
        <ele>236</ele>
        <time>2022-09-10T08:12:43Z</time>
      </trkpt>
      <trkpt lat="43.1904" lon="-0.61759">
        <ele>236</ele>
        <time>2022-09-10T08:12:47Z</time>
      </trkpt>
      <trkpt lat="43.19023" lon="-0.61772">
        <ele>236.2</ele>
        <time>2022-09-10T08:12:53Z</time>
      </trkpt>
      <trkpt lat="43.19018" lon="-0.61783">
        <ele>236.2</ele>
        <time>2022-09-10T08:12:56Z</time>
      </trkpt>
      <trkpt lat="43.19017" lon="-0.61791">
        <ele>236.2</ele>
        <time>2022-09-10T08:12:58Z</time>
      </trkpt>
      <trkpt lat="43.19017" lon="-0.61797">
        <ele>236.2</ele>
        <time>2022-09-10T08:13:00Z</time>
      </trkpt>
      <trkpt lat="43.19015" lon="-0.618">
        <ele>236.2</ele>
        <time>2022-09-10T08:13:01Z</time>
      </trkpt>
      <trkpt lat="43.19012" lon="-0.61806">
        <ele>236.2</ele>
        <time>2022-09-10T08:13:03Z</time>
      </trkpt>
      <trkpt lat="43.19007" lon="-0.61823">
        <ele>236.4</ele>
        <time>2022-09-10T08:13:09Z</time>
      </trkpt>
      <trkpt lat="43.19003" lon="-0.61823">
        <ele>236.4</ele>
        <time>2022-09-10T08:13:55Z</time>
      </trkpt>
      <trkpt lat="43.18998" lon="-0.61825">
        <ele>236.2</ele>
        <time>2022-09-10T08:13:57Z</time>
      </trkpt>
      <trkpt lat="43.1899" lon="-0.61838">
        <ele>236.2</ele>
        <time>2022-09-10T08:14:01Z</time>
      </trkpt>
      <trkpt lat="43.18989" lon="-0.61842">
        <ele>236.2</ele>
        <time>2022-09-10T08:14:02Z</time>
      </trkpt>
      <trkpt lat="43.18975" lon="-0.61865">
        <ele>236.6</ele>
        <time>2022-09-10T08:14:08Z</time>
      </trkpt>
      <trkpt lat="43.18962" lon="-0.61892">
        <ele>236.6</ele>
        <time>2022-09-10T08:14:15Z</time>
      </trkpt>
      <trkpt lat="43.1896" lon="-0.61921">
        <ele>236.6</ele>
        <time>2022-09-10T08:14:21Z</time>
      </trkpt>
      <trkpt lat="43.18965" lon="-0.61969">
        <ele>236.4</ele>
        <time>2022-09-10T08:14:29Z</time>
      </trkpt>
      <trkpt lat="43.18969" lon="-0.6201">
        <ele>237</ele>
        <time>2022-09-10T08:14:36Z</time>
      </trkpt>
      <trkpt lat="43.18971" lon="-0.62028">
        <ele>237</ele>
        <time>2022-09-10T08:14:39Z</time>
      </trkpt>
      <trkpt lat="43.18972" lon="-0.62033">
        <ele>237.2</ele>
        <time>2022-09-10T08:14:40Z</time>
      </trkpt>
      <trkpt lat="43.18977" lon="-0.62062">
        <ele>237.4</ele>
        <time>2022-09-10T08:14:45Z</time>
      </trkpt>
      <trkpt lat="43.18989" lon="-0.6208">
        <ele>237.4</ele>
        <time>2022-09-10T08:14:49Z</time>
      </trkpt>
      <trkpt lat="43.19017" lon="-0.62112">
        <ele>237</ele>
        <time>2022-09-10T08:14:58Z</time>
      </trkpt>
      <trkpt lat="43.19021" lon="-0.62118">
        <ele>237</ele>
        <time>2022-09-10T08:15:02Z</time>
      </trkpt>
      <trkpt lat="43.1903" lon="-0.62124">
        <ele>237.2</ele>
        <time>2022-09-10T08:15:08Z</time>
      </trkpt>
      <trkpt lat="43.19036" lon="-0.62125">
        <ele>237.4</ele>
        <time>2022-09-10T08:15:23Z</time>
      </trkpt>
      <trkpt lat="43.19042" lon="-0.62127">
        <ele>237.2</ele>
        <time>2022-09-10T08:15:25Z</time>
      </trkpt>
      <trkpt lat="43.19051" lon="-0.62138">
        <ele>237.4</ele>
        <time>2022-09-10T08:15:28Z</time>
      </trkpt>
      <trkpt lat="43.19052" lon="-0.62144">
        <ele>237.4</ele>
        <time>2022-09-10T08:15:29Z</time>
      </trkpt>
      <trkpt lat="43.19055" lon="-0.62167">
        <ele>237.6</ele>
        <time>2022-09-10T08:15:33Z</time>
      </trkpt>
      <trkpt lat="43.19065" lon="-0.62182">
        <ele>237.4</ele>
        <time>2022-09-10T08:15:36Z</time>
      </trkpt>
      <trkpt lat="43.19068" lon="-0.62186">
        <ele>237.6</ele>
        <time>2022-09-10T08:15:37Z</time>
      </trkpt>
      <trkpt lat="43.19083" lon="-0.62204">
        <ele>237.2</ele>
        <time>2022-09-10T08:15:41Z</time>
      </trkpt>
      <trkpt lat="43.19094" lon="-0.62218">
        <ele>237.2</ele>
        <time>2022-09-10T08:15:44Z</time>
      </trkpt>
      <trkpt lat="43.19114" lon="-0.6225">
        <ele>236.6</ele>
        <time>2022-09-10T08:15:50Z</time>
      </trkpt>
      <trkpt lat="43.19117" lon="-0.62256">
        <ele>236.4</ele>
        <time>2022-09-10T08:15:51Z</time>
      </trkpt>
      <trkpt lat="43.19131" lon="-0.62298">
        <ele>236</ele>
        <time>2022-09-10T08:15:58Z</time>
      </trkpt>
      <trkpt lat="43.19148" lon="-0.62337">
        <ele>235.4</ele>
        <time>2022-09-10T08:16:05Z</time>
      </trkpt>
      <trkpt lat="43.1915" lon="-0.62343">
        <ele>235.4</ele>
        <time>2022-09-10T08:16:06Z</time>
      </trkpt>
      <trkpt lat="43.19148" lon="-0.62355">
        <ele>235.6</ele>
        <time>2022-09-10T08:16:08Z</time>
      </trkpt>
      <trkpt lat="43.19139" lon="-0.62377">
        <ele>235.2</ele>
        <time>2022-09-10T08:16:12Z</time>
      </trkpt>
      <trkpt lat="43.19138" lon="-0.62382">
        <ele>235.4</ele>
        <time>2022-09-10T08:16:13Z</time>
      </trkpt>
      <trkpt lat="43.19127" lon="-0.62414">
        <ele>235.6</ele>
        <time>2022-09-10T08:16:19Z</time>
      </trkpt>
      <trkpt lat="43.19113" lon="-0.62454">
        <ele>235.4</ele>
        <time>2022-09-10T08:16:27Z</time>
      </trkpt>
      <trkpt lat="43.19106" lon="-0.62474">
        <ele>235.2</ele>
        <time>2022-09-10T08:16:31Z</time>
      </trkpt>
      <trkpt lat="43.19105" lon="-0.62491">
        <ele>235.2</ele>
        <time>2022-09-10T08:16:34Z</time>
      </trkpt>
      <trkpt lat="43.19102" lon="-0.62533">
        <ele>235.4</ele>
        <time>2022-09-10T08:16:42Z</time>
      </trkpt>
      <trkpt lat="43.19099" lon="-0.62582">
        <ele>235.6</ele>
        <time>2022-09-10T08:16:51Z</time>
      </trkpt>
      <trkpt lat="43.19096" lon="-0.62621">
        <ele>235.6</ele>
        <time>2022-09-10T08:16:58Z</time>
      </trkpt>
      <trkpt lat="43.19093" lon="-0.62674">
        <ele>235.2</ele>
        <time>2022-09-10T08:17:07Z</time>
      </trkpt>
      <trkpt lat="43.19091" lon="-0.62697">
        <ele>234.8</ele>
        <time>2022-09-10T08:17:11Z</time>
      </trkpt>
      <trkpt lat="43.19088" lon="-0.62713">
        <ele>234.8</ele>
        <time>2022-09-10T08:17:14Z</time>
      </trkpt>
      <trkpt lat="43.19079" lon="-0.62746">
        <ele>235</ele>
        <time>2022-09-10T08:17:21Z</time>
      </trkpt>
      <trkpt lat="43.19061" lon="-0.62782">
        <ele>235.2</ele>
        <time>2022-09-10T08:17:29Z</time>
      </trkpt>
      <trkpt lat="43.19058" lon="-0.62786">
        <ele>235.4</ele>
        <time>2022-09-10T08:17:30Z</time>
      </trkpt>
      <trkpt lat="43.19042" lon="-0.62803">
        <ele>235.4</ele>
        <time>2022-09-10T08:17:35Z</time>
      </trkpt>
      <trkpt lat="43.19031" lon="-0.62825">
        <ele>235.2</ele>
        <time>2022-09-10T08:17:41Z</time>
      </trkpt>
      <trkpt lat="43.19038" lon="-0.62846">
        <ele>235.2</ele>
        <time>2022-09-10T08:17:45Z</time>
      </trkpt>
      <trkpt lat="43.19058" lon="-0.62888">
        <ele>234.8</ele>
        <time>2022-09-10T08:17:54Z</time>
      </trkpt>
      <trkpt lat="43.19063" lon="-0.62911">
        <ele>234.8</ele>
        <time>2022-09-10T08:17:59Z</time>
      </trkpt>
      <trkpt lat="43.19053" lon="-0.62929">
        <ele>235</ele>
        <time>2022-09-10T08:18:03Z</time>
      </trkpt>
      <trkpt lat="43.19036" lon="-0.62961">
        <ele>235</ele>
        <time>2022-09-10T08:18:11Z</time>
      </trkpt>
      <trkpt lat="43.19034" lon="-0.62978">
        <ele>234.8</ele>
        <time>2022-09-10T08:18:16Z</time>
      </trkpt>
      <trkpt lat="43.19044" lon="-0.62997">
        <ele>234.8</ele>
        <time>2022-09-10T08:18:21Z</time>
      </trkpt>
      <trkpt lat="43.19047" lon="-0.63001">
        <ele>234.8</ele>
        <time>2022-09-10T08:18:22Z</time>
      </trkpt>
      <trkpt lat="43.19064" lon="-0.63032">
        <ele>234.6</ele>
        <time>2022-09-10T08:18:29Z</time>
      </trkpt>
      <trkpt lat="43.19083" lon="-0.63062">
        <ele>234.2</ele>
        <time>2022-09-10T08:18:36Z</time>
      </trkpt>
      <trkpt lat="43.19104" lon="-0.63095">
        <ele>234</ele>
        <time>2022-09-10T08:18:44Z</time>
      </trkpt>
      <trkpt lat="43.19124" lon="-0.63124">
        <ele>233.8</ele>
        <time>2022-09-10T08:18:51Z</time>
      </trkpt>
      <trkpt lat="43.19127" lon="-0.63128">
        <ele>233.8</ele>
        <time>2022-09-10T08:18:52Z</time>
      </trkpt>
      <trkpt lat="43.19152" lon="-0.63163">
        <ele>233.4</ele>
        <time>2022-09-10T08:19:01Z</time>
      </trkpt>
      <trkpt lat="43.19169" lon="-0.6319">
        <ele>233.4</ele>
        <time>2022-09-10T08:19:08Z</time>
      </trkpt>
      <trkpt lat="43.19186" lon="-0.63212">
        <ele>233.4</ele>
        <time>2022-09-10T08:19:14Z</time>
      </trkpt>
      <trkpt lat="43.1921" lon="-0.63247">
        <ele>232.8</ele>
        <time>2022-09-10T08:19:21Z</time>
      </trkpt>
      <trkpt lat="43.19213" lon="-0.63251">
        <ele>232.8</ele>
        <time>2022-09-10T08:19:22Z</time>
      </trkpt>
      <trkpt lat="43.19243" lon="-0.63295">
        <ele>232.4</ele>
        <time>2022-09-10T08:19:31Z</time>
      </trkpt>
      <trkpt lat="43.19283" lon="-0.63354">
        <ele>232</ele>
        <time>2022-09-10T08:19:42Z</time>
      </trkpt>
      <trkpt lat="43.19315" lon="-0.634">
        <ele>232</ele>
        <time>2022-09-10T08:19:51Z</time>
      </trkpt>
      <trkpt lat="43.19331" lon="-0.6342">
        <ele>231.8</ele>
        <time>2022-09-10T08:19:55Z</time>
      </trkpt>
      <trkpt lat="43.19346" lon="-0.63439">
        <ele>231.4</ele>
        <time>2022-09-10T08:19:59Z</time>
      </trkpt>
      <trkpt lat="43.19385" lon="-0.6349">
        <ele>231</ele>
        <time>2022-09-10T08:20:09Z</time>
      </trkpt>
      <trkpt lat="43.19416" lon="-0.63531">
        <ele>230.8</ele>
        <time>2022-09-10T08:20:18Z</time>
      </trkpt>
      <trkpt lat="43.19433" lon="-0.63558">
        <ele>230.6</ele>
        <time>2022-09-10T08:20:24Z</time>
      </trkpt>
      <trkpt lat="43.19464" lon="-0.63606">
        <ele>230.4</ele>
        <time>2022-09-10T08:20:34Z</time>
      </trkpt>
      <trkpt lat="43.19477" lon="-0.63623">
        <ele>230.4</ele>
        <time>2022-09-10T08:20:38Z</time>
      </trkpt>
      <trkpt lat="43.19485" lon="-0.63629">
        <ele>230.2</ele>
        <time>2022-09-10T08:20:40Z</time>
      </trkpt>
      <trkpt lat="43.19515" lon="-0.63657">
        <ele>230.2</ele>
        <time>2022-09-10T08:20:47Z</time>
      </trkpt>
      <trkpt lat="43.1954" lon="-0.63692">
        <ele>230</ele>
        <time>2022-09-10T08:20:54Z</time>
      </trkpt>
      <trkpt lat="43.19547" lon="-0.63702">
        <ele>229.6</ele>
        <time>2022-09-10T08:20:56Z</time>
      </trkpt>
      <trkpt lat="43.19569" lon="-0.63731">
        <ele>229.4</ele>
        <time>2022-09-10T08:21:02Z</time>
      </trkpt>
      <trkpt lat="43.19601" lon="-0.63774">
        <ele>229</ele>
        <time>2022-09-10T08:21:11Z</time>
      </trkpt>
      <trkpt lat="43.19614" lon="-0.63789">
        <ele>228.8</ele>
        <time>2022-09-10T08:21:15Z</time>
      </trkpt>
      <trkpt lat="43.19621" lon="-0.63796">
        <ele>228.8</ele>
        <time>2022-09-10T08:21:17Z</time>
      </trkpt>
      <trkpt lat="43.19651" lon="-0.63825">
        <ele>228.8</ele>
        <time>2022-09-10T08:21:24Z</time>
      </trkpt>
      <trkpt lat="43.19688" lon="-0.63869">
        <ele>228.6</ele>
        <time>2022-09-10T08:21:33Z</time>
      </trkpt>
      <trkpt lat="43.19696" lon="-0.63879">
        <ele>228.6</ele>
        <time>2022-09-10T08:21:35Z</time>
      </trkpt>
      <trkpt lat="43.19728" lon="-0.63918">
        <ele>228.2</ele>
        <time>2022-09-10T08:21:43Z</time>
      </trkpt>
      <trkpt lat="43.19746" lon="-0.63946">
        <ele>228.2</ele>
        <time>2022-09-10T08:21:49Z</time>
      </trkpt>
      <trkpt lat="43.19766" lon="-0.63987">
        <ele>227.8</ele>
        <time>2022-09-10T08:21:56Z</time>
      </trkpt>
      <trkpt lat="43.19779" lon="-0.64007">
        <ele>227.4</ele>
        <time>2022-09-10T08:22:00Z</time>
      </trkpt>
      <trkpt lat="43.19787" lon="-0.64022">
        <ele>227.4</ele>
        <time>2022-09-10T08:22:03Z</time>
      </trkpt>
      <trkpt lat="43.19805" lon="-0.64066">
        <ele>227.2</ele>
        <time>2022-09-10T08:22:11Z</time>
      </trkpt>
      <trkpt lat="43.19831" lon="-0.64107">
        <ele>226.8</ele>
        <time>2022-09-10T08:22:19Z</time>
      </trkpt>
      <trkpt lat="43.19865" lon="-0.64153">
        <ele>226.4</ele>
        <time>2022-09-10T08:22:28Z</time>
      </trkpt>
      <trkpt lat="43.1987" lon="-0.64158">
        <ele>226.4</ele>
        <time>2022-09-10T08:22:29Z</time>
      </trkpt>
      <trkpt lat="43.19901" lon="-0.64188">
        <ele>226</ele>
        <time>2022-09-10T08:22:36Z</time>
      </trkpt>
      <trkpt lat="43.19926" lon="-0.64209">
        <ele>225.8</ele>
        <time>2022-09-10T08:22:42Z</time>
      </trkpt>
      <trkpt lat="43.19944" lon="-0.64223">
        <ele>225.6</ele>
        <time>2022-09-10T08:22:47Z</time>
      </trkpt>
      <trkpt lat="43.19948" lon="-0.64227">
        <ele>225.6</ele>
        <time>2022-09-10T08:22:48Z</time>
      </trkpt>
      <trkpt lat="43.19977" lon="-0.64252">
        <ele>225.4</ele>
        <time>2022-09-10T08:22:55Z</time>
      </trkpt>
      <trkpt lat="43.19987" lon="-0.64259">
        <ele>225</ele>
        <time>2022-09-10T08:22:57Z</time>
      </trkpt>
      <trkpt lat="43.2003" lon="-0.64289">
        <ele>225</ele>
        <time>2022-09-10T08:23:06Z</time>
      </trkpt>
      <trkpt lat="43.20071" lon="-0.64322">
        <ele>224.4</ele>
        <time>2022-09-10T08:23:15Z</time>
      </trkpt>
      <trkpt lat="43.20115" lon="-0.64365">
        <ele>224</ele>
        <time>2022-09-10T08:23:25Z</time>
      </trkpt>
      <trkpt lat="43.2015" lon="-0.64403">
        <ele>223.8</ele>
        <time>2022-09-10T08:23:33Z</time>
      </trkpt>
      <trkpt lat="43.20168" lon="-0.64421">
        <ele>223.4</ele>
        <time>2022-09-10T08:23:37Z</time>
      </trkpt>
      <trkpt lat="43.20172" lon="-0.64426">
        <ele>223.4</ele>
        <time>2022-09-10T08:23:38Z</time>
      </trkpt>
      <trkpt lat="43.20215" lon="-0.64473">
        <ele>223.2</ele>
        <time>2022-09-10T08:23:48Z</time>
      </trkpt>
      <trkpt lat="43.20258" lon="-0.64517">
        <ele>222.8</ele>
        <time>2022-09-10T08:23:58Z</time>
      </trkpt>
      <trkpt lat="43.20296" lon="-0.64556">
        <ele>222.4</ele>
        <time>2022-09-10T08:24:07Z</time>
      </trkpt>
      <trkpt lat="43.203" lon="-0.64561">
        <ele>222.2</ele>
        <time>2022-09-10T08:24:08Z</time>
      </trkpt>
      <trkpt lat="43.20333" lon="-0.64593">
        <ele>222</ele>
        <time>2022-09-10T08:24:15Z</time>
      </trkpt>
      <trkpt lat="43.20375" lon="-0.64635">
        <ele>221.4</ele>
        <time>2022-09-10T08:24:24Z</time>
      </trkpt>
      <trkpt lat="43.2038" lon="-0.6464">
        <ele>221.2</ele>
        <time>2022-09-10T08:24:25Z</time>
      </trkpt>
      <trkpt lat="43.20409" lon="-0.64673">
        <ele>220.8</ele>
        <time>2022-09-10T08:24:32Z</time>
      </trkpt>
      <trkpt lat="43.20439" lon="-0.64709">
        <ele>220.6</ele>
        <time>2022-09-10T08:24:39Z</time>
      </trkpt>
      <trkpt lat="43.20474" lon="-0.64755">
        <ele>220.2</ele>
        <time>2022-09-10T08:24:48Z</time>
      </trkpt>
      <trkpt lat="43.20503" lon="-0.64796">
        <ele>219.6</ele>
        <time>2022-09-10T08:24:56Z</time>
      </trkpt>
      <trkpt lat="43.2051" lon="-0.64806">
        <ele>219.6</ele>
        <time>2022-09-10T08:24:58Z</time>
      </trkpt>
      <trkpt lat="43.20525" lon="-0.64823">
        <ele>219.6</ele>
        <time>2022-09-10T08:25:02Z</time>
      </trkpt>
      <trkpt lat="43.20556" lon="-0.64847">
        <ele>219.6</ele>
        <time>2022-09-10T08:25:09Z</time>
      </trkpt>
      <trkpt lat="43.20593" lon="-0.64869">
        <ele>219.6</ele>
        <time>2022-09-10T08:25:17Z</time>
      </trkpt>
      <trkpt lat="43.20645" lon="-0.64887">
        <ele>219.2</ele>
        <time>2022-09-10T08:25:27Z</time>
      </trkpt>
      <trkpt lat="43.20656" lon="-0.6489">
        <ele>219.2</ele>
        <time>2022-09-10T08:25:29Z</time>
      </trkpt>
      <trkpt lat="43.2071" lon="-0.64908">
        <ele>218.8</ele>
        <time>2022-09-10T08:25:39Z</time>
      </trkpt>
      <trkpt lat="43.20721" lon="-0.6491">
        <ele>218.8</ele>
        <time>2022-09-10T08:25:41Z</time>
      </trkpt>
      <trkpt lat="43.20731" lon="-0.64915">
        <ele>218.8</ele>
        <time>2022-09-10T08:25:43Z</time>
      </trkpt>
      <trkpt lat="43.2075" lon="-0.64926">
        <ele>218.6</ele>
        <time>2022-09-10T08:25:47Z</time>
      </trkpt>
      <trkpt lat="43.20789" lon="-0.64959">
        <ele>218.2</ele>
        <time>2022-09-10T08:25:56Z</time>
      </trkpt>
      <trkpt lat="43.20805" lon="-0.64974">
        <ele>218.2</ele>
        <time>2022-09-10T08:26:00Z</time>
      </trkpt>
      <trkpt lat="43.2083" lon="-0.64998">
        <ele>218.2</ele>
        <time>2022-09-10T08:26:06Z</time>
      </trkpt>
      <trkpt lat="43.20856" lon="-0.65026">
        <ele>218</ele>
        <time>2022-09-10T08:26:13Z</time>
      </trkpt>
      <trkpt lat="43.20877" lon="-0.65057">
        <ele>218</ele>
        <time>2022-09-10T08:26:19Z</time>
      </trkpt>
      <trkpt lat="43.20911" lon="-0.65092">
        <ele>217.4</ele>
        <time>2022-09-10T08:26:27Z</time>
      </trkpt>
      <trkpt lat="43.20932" lon="-0.65107">
        <ele>217</ele>
        <time>2022-09-10T08:26:32Z</time>
      </trkpt>
      <trkpt lat="43.2094" lon="-0.65112">
        <ele>217.2</ele>
        <time>2022-09-10T08:26:34Z</time>
      </trkpt>
      <trkpt lat="43.20949" lon="-0.65126">
        <ele>217.2</ele>
        <time>2022-09-10T08:26:38Z</time>
      </trkpt>
      <trkpt lat="43.20949" lon="-0.6514">
        <ele>217</ele>
        <time>2022-09-10T08:26:43Z</time>
      </trkpt>
      <trkpt lat="43.20945" lon="-0.6516">
        <ele>216.8</ele>
        <time>2022-09-10T08:26:47Z</time>
      </trkpt>
      <trkpt lat="43.20942" lon="-0.65173">
        <ele>216.2</ele>
        <time>2022-09-10T08:26:52Z</time>
      </trkpt>
      <trkpt lat="43.20942" lon="-0.65169">
        <ele>216.2</ele>
        <time>2022-09-10T08:26:56Z</time>
      </trkpt>
      <trkpt lat="43.20946" lon="-0.65152">
        <ele>216.4</ele>
        <time>2022-09-10T08:27:01Z</time>
      </trkpt>
      <trkpt lat="43.20952" lon="-0.6514">
        <ele>216.6</ele>
        <time>2022-09-10T08:27:05Z</time>
      </trkpt>
      <trkpt lat="43.20956" lon="-0.65139">
        <ele>216.6</ele>
        <time>2022-09-10T08:27:06Z</time>
      </trkpt>
      <trkpt lat="43.20967" lon="-0.65139">
        <ele>216.8</ele>
        <time>2022-09-10T08:27:09Z</time>
      </trkpt>
      <trkpt lat="43.20975" lon="-0.65138">
        <ele>217</ele>
        <time>2022-09-10T08:27:11Z</time>
      </trkpt>
      <trkpt lat="43.2098" lon="-0.65139">
        <ele>217</ele>
        <time>2022-09-10T08:27:12Z</time>
      </trkpt>
      <trkpt lat="43.21002" lon="-0.65144">
        <ele>216.8</ele>
        <time>2022-09-10T08:27:17Z</time>
      </trkpt>
      <trkpt lat="43.21027" lon="-0.65149">
        <ele>216.6</ele>
        <time>2022-09-10T08:27:23Z</time>
      </trkpt>
      <trkpt lat="43.21035" lon="-0.65152">
        <ele>216.4</ele>
        <time>2022-09-10T08:27:25Z</time>
      </trkpt>
      <trkpt lat="43.21062" lon="-0.65162">
        <ele>216.6</ele>
        <time>2022-09-10T08:27:32Z</time>
      </trkpt>
      <trkpt lat="43.21089" lon="-0.65176">
        <ele>216.2</ele>
        <time>2022-09-10T08:27:39Z</time>
      </trkpt>
      <trkpt lat="43.21096" lon="-0.65184">
        <ele>216</ele>
        <time>2022-09-10T08:27:41Z</time>
      </trkpt>
      <trkpt lat="43.21103" lon="-0.65194">
        <ele>215.6</ele>
        <time>2022-09-10T08:27:43Z</time>
      </trkpt>
      <trkpt lat="43.21107" lon="-0.65199">
        <ele>215.6</ele>
        <time>2022-09-10T08:27:44Z</time>
      </trkpt>
      <trkpt lat="43.21141" lon="-0.65254">
        <ele>215.4</ele>
        <time>2022-09-10T08:27:54Z</time>
      </trkpt>
      <trkpt lat="43.21157" lon="-0.65283">
        <ele>215</ele>
        <time>2022-09-10T08:27:59Z</time>
      </trkpt>
      <trkpt lat="43.21167" lon="-0.65299">
        <ele>214.8</ele>
        <time>2022-09-10T08:28:02Z</time>
      </trkpt>
      <trkpt lat="43.21178" lon="-0.65314">
        <ele>214.8</ele>
        <time>2022-09-10T08:28:05Z</time>
      </trkpt>
      <trkpt lat="43.21193" lon="-0.65334">
        <ele>214.6</ele>
        <time>2022-09-10T08:28:09Z</time>
      </trkpt>
      <trkpt lat="43.21216" lon="-0.65377">
        <ele>214</ele>
        <time>2022-09-10T08:28:17Z</time>
      </trkpt>
      <trkpt lat="43.2122" lon="-0.65382">
        <ele>214</ele>
        <time>2022-09-10T08:28:18Z</time>
      </trkpt>
      <trkpt lat="43.21226" lon="-0.65392">
        <ele>214</ele>
        <time>2022-09-10T08:28:20Z</time>
      </trkpt>
      <trkpt lat="43.21231" lon="-0.65403">
        <ele>214</ele>
        <time>2022-09-10T08:28:22Z</time>
      </trkpt>
      <trkpt lat="43.21236" lon="-0.65414">
        <ele>213.8</ele>
        <time>2022-09-10T08:28:24Z</time>
      </trkpt>
      <trkpt lat="43.2124" lon="-0.65425">
        <ele>213.8</ele>
        <time>2022-09-10T08:28:26Z</time>
      </trkpt>
      <trkpt lat="43.21247" lon="-0.65433">
        <ele>213.4</ele>
        <time>2022-09-10T08:28:28Z</time>
      </trkpt>
      <trkpt lat="43.21272" lon="-0.6546">
        <ele>213.2</ele>
        <time>2022-09-10T08:28:36Z</time>
      </trkpt>
      <trkpt lat="43.21279" lon="-0.6545">
        <ele>213.2</ele>
        <time>2022-09-10T08:28:39Z</time>
      </trkpt>
      <trkpt lat="43.2128" lon="-0.65447">
        <ele>213.2</ele>
        <time>2022-09-10T08:28:40Z</time>
      </trkpt>
      <trkpt lat="43.2129" lon="-0.65432">
        <ele>213.2</ele>
        <time>2022-09-10T08:28:46Z</time>
      </trkpt>
      <trkpt lat="43.21293" lon="-0.65428">
        <ele>213</ele>
        <time>2022-09-10T08:28:48Z</time>
      </trkpt>
      <trkpt lat="43.21299" lon="-0.65433">
        <ele>213.2</ele>
        <time>2022-09-10T08:28:50Z</time>
      </trkpt>
      <trkpt lat="43.21309" lon="-0.6544">
        <ele>213</ele>
        <time>2022-09-10T08:28:53Z</time>
      </trkpt>
      <trkpt lat="43.21316" lon="-0.65446">
        <ele>213</ele>
        <time>2022-09-10T08:28:55Z</time>
      </trkpt>
      <trkpt lat="43.2132" lon="-0.65449">
        <ele>213</ele>
        <time>2022-09-10T08:28:56Z</time>
      </trkpt>
      <trkpt lat="43.21331" lon="-0.65459">
        <ele>212.6</ele>
        <time>2022-09-10T08:28:59Z</time>
      </trkpt>
      <trkpt lat="43.21337" lon="-0.65463">
        <ele>212</ele>
        <time>2022-09-10T08:29:01Z</time>
      </trkpt>
      <trkpt lat="43.2134" lon="-0.65465">
        <ele>211.6</ele>
        <time>2022-09-10T08:29:02Z</time>
      </trkpt>
      <trkpt lat="43.21358" lon="-0.65472">
        <ele>210.8</ele>
        <time>2022-09-10T08:29:07Z</time>
      </trkpt>
      <trkpt lat="43.21371" lon="-0.65485">
        <ele>211</ele>
        <time>2022-09-10T08:29:12Z</time>
      </trkpt>
      <trkpt lat="43.21378" lon="-0.65492">
        <ele>210.8</ele>
        <time>2022-09-10T08:29:18Z</time>
      </trkpt>
      <trkpt lat="43.21373" lon="-0.65489">
        <ele>210.2</ele>
        <time>2022-09-10T08:31:30Z</time>
      </trkpt>
      <trkpt lat="43.2137" lon="-0.65486">
        <ele>210.2</ele>
        <time>2022-09-10T08:31:32Z</time>
      </trkpt>
      <trkpt lat="43.21364" lon="-0.65479">
        <ele>210.2</ele>
        <time>2022-09-10T08:31:35Z</time>
      </trkpt>
      <trkpt lat="43.21355" lon="-0.65474">
        <ele>210</ele>
        <time>2022-09-10T08:31:39Z</time>
      </trkpt>
      <trkpt lat="43.21352" lon="-0.65472">
        <ele>210</ele>
        <time>2022-09-10T08:31:41Z</time>
      </trkpt>
      <trkpt lat="43.2135" lon="-0.65474">
        <ele>209.8</ele>
        <time>2022-09-10T08:31:43Z</time>
      </trkpt>
      <trkpt lat="43.21355" lon="-0.65478">
        <ele>209.2</ele>
        <time>2022-09-10T08:31:46Z</time>
      </trkpt>
      <trkpt lat="43.21358" lon="-0.65479">
        <ele>209</ele>
        <time>2022-09-10T08:31:47Z</time>
      </trkpt>
      <trkpt lat="43.2136" lon="-0.65483">
        <ele>208.8</ele>
        <time>2022-09-10T08:31:48Z</time>
      </trkpt>
      <trkpt lat="43.21364" lon="-0.65493">
        <ele>207.6</ele>
        <time>2022-09-10T08:31:50Z</time>
      </trkpt>
      <trkpt lat="43.21366" lon="-0.65507">
        <ele>205.8</ele>
        <time>2022-09-10T08:31:52Z</time>
      </trkpt>
      <trkpt lat="43.21369" lon="-0.65522">
        <ele>204.6</ele>
        <time>2022-09-10T08:31:54Z</time>
      </trkpt>
      <trkpt lat="43.2137" lon="-0.6553">
        <ele>204.2</ele>
        <time>2022-09-10T08:31:55Z</time>
      </trkpt>
      <trkpt lat="43.21372" lon="-0.65539">
        <ele>203.6</ele>
        <time>2022-09-10T08:31:56Z</time>
      </trkpt>
      <trkpt lat="43.21374" lon="-0.65547">
        <ele>203</ele>
        <time>2022-09-10T08:31:57Z</time>
      </trkpt>
      <trkpt lat="43.21376" lon="-0.65555">
        <ele>202.4</ele>
        <time>2022-09-10T08:31:58Z</time>
      </trkpt>
      <trkpt lat="43.21378" lon="-0.65565">
        <ele>201.6</ele>
        <time>2022-09-10T08:31:59Z</time>
      </trkpt>
      <trkpt lat="43.21378" lon="-0.65573">
        <ele>200.8</ele>
        <time>2022-09-10T08:32:00Z</time>
      </trkpt>
      <trkpt lat="43.21379" lon="-0.65588">
        <ele>199</ele>
        <time>2022-09-10T08:32:02Z</time>
      </trkpt>
      <trkpt lat="43.21379" lon="-0.65599">
        <ele>197.8</ele>
        <time>2022-09-10T08:32:04Z</time>
      </trkpt>
      <trkpt lat="43.21378" lon="-0.65605">
        <ele>197.4</ele>
        <time>2022-09-10T08:32:05Z</time>
      </trkpt>
      <trkpt lat="43.21371" lon="-0.65624">
        <ele>195.8</ele>
        <time>2022-09-10T08:32:08Z</time>
      </trkpt>
      <trkpt lat="43.21362" lon="-0.65647">
        <ele>194.6</ele>
        <time>2022-09-10T08:32:11Z</time>
      </trkpt>
      <trkpt lat="43.21359" lon="-0.65662">
        <ele>194.4</ele>
        <time>2022-09-10T08:32:13Z</time>
      </trkpt>
      <trkpt lat="43.21356" lon="-0.65681">
        <ele>194.4</ele>
        <time>2022-09-10T08:32:16Z</time>
      </trkpt>
      <trkpt lat="43.21353" lon="-0.65686">
        <ele>194.2</ele>
        <time>2022-09-10T08:32:17Z</time>
      </trkpt>
      <trkpt lat="43.21341" lon="-0.65696">
        <ele>193.8</ele>
        <time>2022-09-10T08:32:20Z</time>
      </trkpt>
      <trkpt lat="43.21329" lon="-0.65711">
        <ele>193.4</ele>
        <time>2022-09-10T08:32:24Z</time>
      </trkpt>
      <trkpt lat="43.21324" lon="-0.65719">
        <ele>193.6</ele>
        <time>2022-09-10T08:32:26Z</time>
      </trkpt>
      <trkpt lat="43.21307" lon="-0.6575">
        <ele>193.8</ele>
        <time>2022-09-10T08:32:34Z</time>
      </trkpt>
      <trkpt lat="43.21297" lon="-0.65769">
        <ele>194.2</ele>
        <time>2022-09-10T08:32:39Z</time>
      </trkpt>
      <trkpt lat="43.2129" lon="-0.65785">
        <ele>194.6</ele>
        <time>2022-09-10T08:32:43Z</time>
      </trkpt>
      <trkpt lat="43.21283" lon="-0.65797">
        <ele>194.6</ele>
        <time>2022-09-10T08:32:46Z</time>
      </trkpt>
      <trkpt lat="43.21265" lon="-0.65819">
        <ele>194.8</ele>
        <time>2022-09-10T08:32:53Z</time>
      </trkpt>
      <trkpt lat="43.21244" lon="-0.65847">
        <ele>195.4</ele>
        <time>2022-09-10T08:33:01Z</time>
      </trkpt>
      <trkpt lat="43.21236" lon="-0.65857">
        <ele>195.6</ele>
        <time>2022-09-10T08:33:04Z</time>
      </trkpt>
      <trkpt lat="43.21222" lon="-0.65876">
        <ele>195.4</ele>
        <time>2022-09-10T08:33:09Z</time>
      </trkpt>
      <trkpt lat="43.21196" lon="-0.65913">
        <ele>195.4</ele>
        <time>2022-09-10T08:33:18Z</time>
      </trkpt>
      <trkpt lat="43.21179" lon="-0.65937">
        <ele>195.4</ele>
        <time>2022-09-10T08:33:24Z</time>
      </trkpt>
      <trkpt lat="43.2115" lon="-0.65966">
        <ele>196</ele>
        <time>2022-09-10T08:33:33Z</time>
      </trkpt>
      <trkpt lat="43.21133" lon="-0.65983">
        <ele>196.2</ele>
        <time>2022-09-10T08:33:39Z</time>
      </trkpt>
      <trkpt lat="43.21114" lon="-0.65998">
        <ele>196</ele>
        <time>2022-09-10T08:33:46Z</time>
      </trkpt>
      <trkpt lat="43.21112" lon="-0.66001">
        <ele>196</ele>
        <time>2022-09-10T08:33:47Z</time>
      </trkpt>
      <trkpt lat="43.2111" lon="-0.66015">
        <ele>196</ele>
        <time>2022-09-10T08:33:50Z</time>
      </trkpt>
      <trkpt lat="43.21112" lon="-0.66032">
        <ele>195.4</ele>
        <time>2022-09-10T08:33:53Z</time>
      </trkpt>
      <trkpt lat="43.21114" lon="-0.66043">
        <ele>195.4</ele>
        <time>2022-09-10T08:33:55Z</time>
      </trkpt>
      <trkpt lat="43.21121" lon="-0.66065">
        <ele>196</ele>
        <time>2022-09-10T08:34:00Z</time>
      </trkpt>
      <trkpt lat="43.21131" lon="-0.66093">
        <ele>195.8</ele>
        <time>2022-09-10T08:34:08Z</time>
      </trkpt>
      <trkpt lat="43.21141" lon="-0.66103">
        <ele>195.8</ele>
        <time>2022-09-10T08:34:12Z</time>
      </trkpt>
      <trkpt lat="43.21156" lon="-0.66104">
        <ele>195.6</ele>
        <time>2022-09-10T08:34:16Z</time>
      </trkpt>
      <trkpt lat="43.21165" lon="-0.66106">
        <ele>195.4</ele>
        <time>2022-09-10T08:34:18Z</time>
      </trkpt>
      <trkpt lat="43.21173" lon="-0.66118">
        <ele>195.2</ele>
        <time>2022-09-10T08:34:21Z</time>
      </trkpt>
      <trkpt lat="43.21176" lon="-0.6614">
        <ele>195.6</ele>
        <time>2022-09-10T08:34:25Z</time>
      </trkpt>
      <trkpt lat="43.21176" lon="-0.66146">
        <ele>195.6</ele>
        <time>2022-09-10T08:34:26Z</time>
      </trkpt>
      <trkpt lat="43.21172" lon="-0.66188">
        <ele>196.2</ele>
        <time>2022-09-10T08:34:34Z</time>
      </trkpt>
      <trkpt lat="43.21168" lon="-0.66213">
        <ele>196.6</ele>
        <time>2022-09-10T08:34:39Z</time>
      </trkpt>
      <trkpt lat="43.21169" lon="-0.66217">
        <ele>196.8</ele>
        <time>2022-09-10T08:34:40Z</time>
      </trkpt>
      <trkpt lat="43.21173" lon="-0.66236">
        <ele>197.6</ele>
        <time>2022-09-10T08:34:45Z</time>
      </trkpt>
      <trkpt lat="43.21174" lon="-0.66239">
        <ele>197.8</ele>
        <time>2022-09-10T08:34:46Z</time>
      </trkpt>
      <trkpt lat="43.2118" lon="-0.66249">
        <ele>198.8</ele>
        <time>2022-09-10T08:34:51Z</time>
      </trkpt>
      <trkpt lat="43.21182" lon="-0.66252">
        <ele>199.2</ele>
        <time>2022-09-10T08:34:53Z</time>
      </trkpt>
      <trkpt lat="43.21187" lon="-0.66258">
        <ele>200</ele>
        <time>2022-09-10T08:34:57Z</time>
      </trkpt>
      <trkpt lat="43.21191" lon="-0.66265">
        <ele>200.6</ele>
        <time>2022-09-10T08:35:01Z</time>
      </trkpt>
      <trkpt lat="43.21195" lon="-0.6627">
        <ele>201.2</ele>
        <time>2022-09-10T08:35:04Z</time>
      </trkpt>
      <trkpt lat="43.21199" lon="-0.66279">
        <ele>201.8</ele>
        <time>2022-09-10T08:35:09Z</time>
      </trkpt>
      <trkpt lat="43.212" lon="-0.66285">
        <ele>202.2</ele>
        <time>2022-09-10T08:35:12Z</time>
      </trkpt>
      <trkpt lat="43.21199" lon="-0.66297">
        <ele>203.2</ele>
        <time>2022-09-10T08:35:18Z</time>
      </trkpt>
      <trkpt lat="43.21195" lon="-0.66306">
        <ele>204.4</ele>
        <time>2022-09-10T08:35:23Z</time>
      </trkpt>
      <trkpt lat="43.21194" lon="-0.66307">
        <ele>204.6</ele>
        <time>2022-09-10T08:35:24Z</time>
      </trkpt>
      <trkpt lat="43.21188" lon="-0.66313">
        <ele>205.4</ele>
        <time>2022-09-10T08:35:29Z</time>
      </trkpt>
      <trkpt lat="43.21187" lon="-0.66314">
        <ele>205.6</ele>
        <time>2022-09-10T08:35:30Z</time>
      </trkpt>
      <trkpt lat="43.21181" lon="-0.66321">
        <ele>206.4</ele>
        <time>2022-09-10T08:35:35Z</time>
      </trkpt>
      <trkpt lat="43.2118" lon="-0.66322">
        <ele>206.6</ele>
        <time>2022-09-10T08:35:36Z</time>
      </trkpt>
      <trkpt lat="43.21177" lon="-0.66325">
        <ele>206.8</ele>
        <time>2022-09-10T08:35:38Z</time>
      </trkpt>
      <trkpt lat="43.21172" lon="-0.66328">
        <ele>207.6</ele>
        <time>2022-09-10T08:35:42Z</time>
      </trkpt>
      <trkpt lat="43.21171" lon="-0.66329">
        <ele>207.6</ele>
        <time>2022-09-10T08:35:43Z</time>
      </trkpt>
      <trkpt lat="43.21164" lon="-0.66336">
        <ele>208.6</ele>
        <time>2022-09-10T08:35:49Z</time>
      </trkpt>
      <trkpt lat="43.21163" lon="-0.66337">
        <ele>208.8</ele>
        <time>2022-09-10T08:35:50Z</time>
      </trkpt>
      <trkpt lat="43.21155" lon="-0.66343">
        <ele>209.8</ele>
        <time>2022-09-10T08:35:56Z</time>
      </trkpt>
      <trkpt lat="43.21151" lon="-0.66346">
        <ele>210.2</ele>
        <time>2022-09-10T08:35:59Z</time>
      </trkpt>
      <trkpt lat="43.21146" lon="-0.66353">
        <ele>210.8</ele>
        <time>2022-09-10T08:36:04Z</time>
      </trkpt>
      <trkpt lat="43.21144" lon="-0.66356">
        <ele>211</ele>
        <time>2022-09-10T08:36:06Z</time>
      </trkpt>
      <trkpt lat="43.21144" lon="-0.6636">
        <ele>211.4</ele>
        <time>2022-09-10T08:36:08Z</time>
      </trkpt>
      <trkpt lat="43.21145" lon="-0.66364">
        <ele>212</ele>
        <time>2022-09-10T08:36:10Z</time>
      </trkpt>
      <trkpt lat="43.21146" lon="-0.66366">
        <ele>212</ele>
        <time>2022-09-10T08:36:11Z</time>
      </trkpt>
      <trkpt lat="43.21157" lon="-0.6637">
        <ele>212.8</ele>
        <time>2022-09-10T08:36:18Z</time>
      </trkpt>
      <trkpt lat="43.21164" lon="-0.66369">
        <ele>213</ele>
        <time>2022-09-10T08:36:21Z</time>
      </trkpt>
      <trkpt lat="43.21173" lon="-0.66367">
        <ele>213.2</ele>
        <time>2022-09-10T08:36:25Z</time>
      </trkpt>
      <trkpt lat="43.2119" lon="-0.66361">
        <ele>213.6</ele>
        <time>2022-09-10T08:36:32Z</time>
      </trkpt>
      <trkpt lat="43.21199" lon="-0.66357">
        <ele>214</ele>
        <time>2022-09-10T08:36:36Z</time>
      </trkpt>
      <trkpt lat="43.21204" lon="-0.66358">
        <ele>214.2</ele>
        <time>2022-09-10T08:36:38Z</time>
      </trkpt>
      <trkpt lat="43.21215" lon="-0.66367">
        <ele>215</ele>
        <time>2022-09-10T08:36:44Z</time>
      </trkpt>
      <trkpt lat="43.21222" lon="-0.66374">
        <ele>215.2</ele>
        <time>2022-09-10T08:36:48Z</time>
      </trkpt>
      <trkpt lat="43.21227" lon="-0.66379">
        <ele>215.6</ele>
        <time>2022-09-10T08:36:51Z</time>
      </trkpt>
      <trkpt lat="43.21235" lon="-0.66384">
        <ele>216.2</ele>
        <time>2022-09-10T08:36:55Z</time>
      </trkpt>
      <trkpt lat="43.21238" lon="-0.66385">
        <ele>216.8</ele>
        <time>2022-09-10T08:36:57Z</time>
      </trkpt>
      <trkpt lat="43.21245" lon="-0.66388">
        <ele>217.4</ele>
        <time>2022-09-10T08:37:02Z</time>
      </trkpt>
      <trkpt lat="43.21248" lon="-0.66389">
        <ele>217.6</ele>
        <time>2022-09-10T08:37:04Z</time>
      </trkpt>
      <trkpt lat="43.21259" lon="-0.66391">
        <ele>218.2</ele>
        <time>2022-09-10T08:37:11Z</time>
      </trkpt>
      <trkpt lat="43.2126" lon="-0.66392">
        <ele>218.4</ele>
        <time>2022-09-10T08:37:12Z</time>
      </trkpt>
      <trkpt lat="43.21271" lon="-0.66393">
        <ele>219.6</ele>
        <time>2022-09-10T08:37:18Z</time>
      </trkpt>
      <trkpt lat="43.21273" lon="-0.66393">
        <ele>219.8</ele>
        <time>2022-09-10T08:37:19Z</time>
      </trkpt>
      <trkpt lat="43.2128" lon="-0.66395">
        <ele>220.8</ele>
        <time>2022-09-10T08:37:23Z</time>
      </trkpt>
      <trkpt lat="43.21287" lon="-0.66396">
        <ele>221.2</ele>
        <time>2022-09-10T08:37:27Z</time>
      </trkpt>
      <trkpt lat="43.21296" lon="-0.66399">
        <ele>221.8</ele>
        <time>2022-09-10T08:37:32Z</time>
      </trkpt>
      <trkpt lat="43.21299" lon="-0.664">
        <ele>222.2</ele>
        <time>2022-09-10T08:37:34Z</time>
      </trkpt>
      <trkpt lat="43.21311" lon="-0.66404">
        <ele>222.8</ele>
        <time>2022-09-10T08:37:41Z</time>
      </trkpt>
      <trkpt lat="43.21313" lon="-0.66405">
        <ele>223</ele>
        <time>2022-09-10T08:37:42Z</time>
      </trkpt>
      <trkpt lat="43.21319" lon="-0.66406">
        <ele>224</ele>
        <time>2022-09-10T08:37:46Z</time>
      </trkpt>
      <trkpt lat="43.21325" lon="-0.66406">
        <ele>225</ele>
        <time>2022-09-10T08:37:50Z</time>
      </trkpt>
      <trkpt lat="43.21331" lon="-0.66405">
        <ele>226.2</ele>
        <time>2022-09-10T08:37:54Z</time>
      </trkpt>
      <trkpt lat="43.21335" lon="-0.66406">
        <ele>226.8</ele>
        <time>2022-09-10T08:37:57Z</time>
      </trkpt>
      <trkpt lat="43.21337" lon="-0.66406">
        <ele>227.2</ele>
        <time>2022-09-10T08:37:59Z</time>
      </trkpt>
      <trkpt lat="43.21345" lon="-0.66408">
        <ele>228.2</ele>
        <time>2022-09-10T08:38:04Z</time>
      </trkpt>
      <trkpt lat="43.21346" lon="-0.66409">
        <ele>228.4</ele>
        <time>2022-09-10T08:38:05Z</time>
      </trkpt>
      <trkpt lat="43.21354" lon="-0.66416">
        <ele>229.2</ele>
        <time>2022-09-10T08:38:11Z</time>
      </trkpt>
      <trkpt lat="43.21355" lon="-0.66418">
        <ele>229.4</ele>
        <time>2022-09-10T08:38:12Z</time>
      </trkpt>
      <trkpt lat="43.2136" lon="-0.66426">
        <ele>229.8</ele>
        <time>2022-09-10T08:38:17Z</time>
      </trkpt>
      <trkpt lat="43.21366" lon="-0.66434">
        <ele>230.4</ele>
        <time>2022-09-10T08:38:22Z</time>
      </trkpt>
      <trkpt lat="43.2137" lon="-0.66439">
        <ele>231.2</ele>
        <time>2022-09-10T08:38:25Z</time>
      </trkpt>
      <trkpt lat="43.21373" lon="-0.66444">
        <ele>231.6</ele>
        <time>2022-09-10T08:38:28Z</time>
      </trkpt>
      <trkpt lat="43.21377" lon="-0.66448">
        <ele>232.2</ele>
        <time>2022-09-10T08:38:31Z</time>
      </trkpt>
      <trkpt lat="43.21378" lon="-0.66449">
        <ele>232.2</ele>
        <time>2022-09-10T08:38:32Z</time>
      </trkpt>
      <trkpt lat="43.21385" lon="-0.66459">
        <ele>232.2</ele>
        <time>2022-09-10T08:38:38Z</time>
      </trkpt>
      <trkpt lat="43.21398" lon="-0.66466">
        <ele>231.4</ele>
        <time>2022-09-10T08:38:43Z</time>
      </trkpt>
      <trkpt lat="43.21412" lon="-0.66456">
        <ele>231</ele>
        <time>2022-09-10T08:38:47Z</time>
      </trkpt>
      <trkpt lat="43.2143" lon="-0.66437">
        <ele>230.8</ele>
        <time>2022-09-10T08:38:54Z</time>
      </trkpt>
      <trkpt lat="43.2145" lon="-0.6642">
        <ele>231</ele>
        <time>2022-09-10T08:39:01Z</time>
      </trkpt>
      <trkpt lat="43.21471" lon="-0.66405">
        <ele>231.8</ele>
        <time>2022-09-10T08:39:09Z</time>
      </trkpt>
      <trkpt lat="43.21481" lon="-0.66399">
        <ele>232.6</ele>
        <time>2022-09-10T08:39:14Z</time>
      </trkpt>
      <trkpt lat="43.21485" lon="-0.66397">
        <ele>233</ele>
        <time>2022-09-10T08:39:16Z</time>
      </trkpt>
      <trkpt lat="43.21494" lon="-0.66393">
        <ele>233.8</ele>
        <time>2022-09-10T08:39:20Z</time>
      </trkpt>
      <trkpt lat="43.21507" lon="-0.66391">
        <ele>234.8</ele>
        <time>2022-09-10T08:39:26Z</time>
      </trkpt>
      <trkpt lat="43.21523" lon="-0.66391">
        <ele>235.6</ele>
        <time>2022-09-10T08:39:34Z</time>
      </trkpt>
      <trkpt lat="43.21537" lon="-0.66388">
        <ele>235.4</ele>
        <time>2022-09-10T08:39:40Z</time>
      </trkpt>
      <trkpt lat="43.21545" lon="-0.66383">
        <ele>235</ele>
        <time>2022-09-10T08:39:42Z</time>
      </trkpt>
      <trkpt lat="43.21552" lon="-0.66375">
        <ele>234.6</ele>
        <time>2022-09-10T08:39:44Z</time>
      </trkpt>
      <trkpt lat="43.21563" lon="-0.66355">
        <ele>234.4</ele>
        <time>2022-09-10T08:39:48Z</time>
      </trkpt>
      <trkpt lat="43.21566" lon="-0.6635">
        <ele>234.2</ele>
        <time>2022-09-10T08:39:49Z</time>
      </trkpt>
      <trkpt lat="43.21573" lon="-0.66341">
        <ele>234.2</ele>
        <time>2022-09-10T08:39:51Z</time>
      </trkpt>
      <trkpt lat="43.21586" lon="-0.66327">
        <ele>234</ele>
        <time>2022-09-10T08:39:55Z</time>
      </trkpt>
      <trkpt lat="43.21596" lon="-0.66315">
        <ele>234.2</ele>
        <time>2022-09-10T08:39:58Z</time>
      </trkpt>
      <trkpt lat="43.21609" lon="-0.66307">
        <ele>234.8</ele>
        <time>2022-09-10T08:40:02Z</time>
      </trkpt>
      <trkpt lat="43.21615" lon="-0.66304">
        <ele>235</ele>
        <time>2022-09-10T08:40:04Z</time>
      </trkpt>
      <trkpt lat="43.2163" lon="-0.66298">
        <ele>234.8</ele>
        <time>2022-09-10T08:40:09Z</time>
      </trkpt>
      <trkpt lat="43.21646" lon="-0.66286">
        <ele>233.6</ele>
        <time>2022-09-10T08:40:14Z</time>
      </trkpt>
      <trkpt lat="43.21669" lon="-0.66265">
        <ele>233</ele>
        <time>2022-09-10T08:40:19Z</time>
      </trkpt>
      <trkpt lat="43.21674" lon="-0.66262">
        <ele>232.6</ele>
        <time>2022-09-10T08:40:20Z</time>
      </trkpt>
      <trkpt lat="43.21683" lon="-0.66255">
        <ele>232.2</ele>
        <time>2022-09-10T08:40:22Z</time>
      </trkpt>
      <trkpt lat="43.21696" lon="-0.66245">
        <ele>232.2</ele>
        <time>2022-09-10T08:40:25Z</time>
      </trkpt>
      <trkpt lat="43.21711" lon="-0.66228">
        <ele>232.4</ele>
        <time>2022-09-10T08:40:29Z</time>
      </trkpt>
      <trkpt lat="43.21718" lon="-0.66219">
        <ele>232</ele>
        <time>2022-09-10T08:40:31Z</time>
      </trkpt>
      <trkpt lat="43.21721" lon="-0.66214">
        <ele>232</ele>
        <time>2022-09-10T08:40:32Z</time>
      </trkpt>
      <trkpt lat="43.21725" lon="-0.66209">
        <ele>231.4</ele>
        <time>2022-09-10T08:40:33Z</time>
      </trkpt>
      <trkpt lat="43.21738" lon="-0.66192">
        <ele>230.6</ele>
        <time>2022-09-10T08:40:36Z</time>
      </trkpt>
      <trkpt lat="43.21743" lon="-0.66187">
        <ele>230.4</ele>
        <time>2022-09-10T08:40:37Z</time>
      </trkpt>
      <trkpt lat="43.21763" lon="-0.66162">
        <ele>229.8</ele>
        <time>2022-09-10T08:40:42Z</time>
      </trkpt>
      <trkpt lat="43.21783" lon="-0.66135">
        <ele>229.8</ele>
        <time>2022-09-10T08:40:48Z</time>
      </trkpt>
      <trkpt lat="43.21804" lon="-0.6611">
        <ele>230.2</ele>
        <time>2022-09-10T08:40:54Z</time>
      </trkpt>
      <trkpt lat="43.21832" lon="-0.66082">
        <ele>230.6</ele>
        <time>2022-09-10T08:41:02Z</time>
      </trkpt>
      <trkpt lat="43.21848" lon="-0.66068">
        <ele>230.6</ele>
        <time>2022-09-10T08:41:07Z</time>
      </trkpt>
      <trkpt lat="43.2187" lon="-0.66057">
        <ele>230.8</ele>
        <time>2022-09-10T08:41:13Z</time>
      </trkpt>
      <trkpt lat="43.21895" lon="-0.6605">
        <ele>230.8</ele>
        <time>2022-09-10T08:41:20Z</time>
      </trkpt>
      <trkpt lat="43.21909" lon="-0.66049">
        <ele>231</ele>
        <time>2022-09-10T08:41:25Z</time>
      </trkpt>
      <trkpt lat="43.21917" lon="-0.66058">
        <ele>230.4</ele>
        <time>2022-09-10T08:41:30Z</time>
      </trkpt>
      <trkpt lat="43.21923" lon="-0.66075">
        <ele>229.8</ele>
        <time>2022-09-10T08:41:34Z</time>
      </trkpt>
      <trkpt lat="43.21925" lon="-0.66081">
        <ele>229.6</ele>
        <time>2022-09-10T08:41:35Z</time>
      </trkpt>
      <trkpt lat="43.21934" lon="-0.66105">
        <ele>229.2</ele>
        <time>2022-09-10T08:41:39Z</time>
      </trkpt>
      <trkpt lat="43.21947" lon="-0.66133">
        <ele>228.4</ele>
        <time>2022-09-10T08:41:44Z</time>
      </trkpt>
      <trkpt lat="43.21949" lon="-0.66139">
        <ele>228.2</ele>
        <time>2022-09-10T08:41:45Z</time>
      </trkpt>
      <trkpt lat="43.21951" lon="-0.66145">
        <ele>228</ele>
        <time>2022-09-10T08:41:46Z</time>
      </trkpt>
      <trkpt lat="43.21959" lon="-0.6617">
        <ele>227.4</ele>
        <time>2022-09-10T08:41:50Z</time>
      </trkpt>
      <trkpt lat="43.21965" lon="-0.66187">
        <ele>227.2</ele>
        <time>2022-09-10T08:41:53Z</time>
      </trkpt>
      <trkpt lat="43.21973" lon="-0.66209">
        <ele>226.8</ele>
        <time>2022-09-10T08:41:57Z</time>
      </trkpt>
      <trkpt lat="43.21984" lon="-0.66238">
        <ele>226.2</ele>
        <time>2022-09-10T08:42:03Z</time>
      </trkpt>
      <trkpt lat="43.21986" lon="-0.66242">
        <ele>226.2</ele>
        <time>2022-09-10T08:42:04Z</time>
      </trkpt>
      <trkpt lat="43.21999" lon="-0.66269">
        <ele>225.8</ele>
        <time>2022-09-10T08:42:10Z</time>
      </trkpt>
      <trkpt lat="43.22012" lon="-0.66298">
        <ele>225.6</ele>
        <time>2022-09-10T08:42:17Z</time>
      </trkpt>
      <trkpt lat="43.2202" lon="-0.66314">
        <ele>225.8</ele>
        <time>2022-09-10T08:42:22Z</time>
      </trkpt>
      <trkpt lat="43.22029" lon="-0.66337">
        <ele>225.8</ele>
        <time>2022-09-10T08:42:28Z</time>
      </trkpt>
      <trkpt lat="43.22042" lon="-0.66375">
        <ele>225.6</ele>
        <time>2022-09-10T08:42:36Z</time>
      </trkpt>
      <trkpt lat="43.22048" lon="-0.6639">
        <ele>225.2</ele>
        <time>2022-09-10T08:42:39Z</time>
      </trkpt>
      <trkpt lat="43.22053" lon="-0.66406">
        <ele>225</ele>
        <time>2022-09-10T08:42:42Z</time>
      </trkpt>
      <trkpt lat="43.22062" lon="-0.66432">
        <ele>224.6</ele>
        <time>2022-09-10T08:42:47Z</time>
      </trkpt>
      <trkpt lat="43.22067" lon="-0.66443">
        <ele>224.6</ele>
        <time>2022-09-10T08:42:49Z</time>
      </trkpt>
      <trkpt lat="43.22077" lon="-0.66479">
        <ele>224.2</ele>
        <time>2022-09-10T08:42:56Z</time>
      </trkpt>
      <trkpt lat="43.22078" lon="-0.66485">
        <ele>224</ele>
        <time>2022-09-10T08:42:57Z</time>
      </trkpt>
      <trkpt lat="43.22083" lon="-0.66506">
        <ele>223.6</ele>
        <time>2022-09-10T08:43:01Z</time>
      </trkpt>
      <trkpt lat="43.2209" lon="-0.6653">
        <ele>223.2</ele>
        <time>2022-09-10T08:43:08Z</time>
      </trkpt>
      <trkpt lat="43.22096" lon="-0.66545">
        <ele>222.8</ele>
        <time>2022-09-10T08:43:13Z</time>
      </trkpt>
      <trkpt lat="43.22102" lon="-0.66564">
        <ele>222.6</ele>
        <time>2022-09-10T08:43:18Z</time>
      </trkpt>
      <trkpt lat="43.22112" lon="-0.66589">
        <ele>222.2</ele>
        <time>2022-09-10T08:43:24Z</time>
      </trkpt>
      <trkpt lat="43.22117" lon="-0.666">
        <ele>221.8</ele>
        <time>2022-09-10T08:43:27Z</time>
      </trkpt>
      <trkpt lat="43.22123" lon="-0.66613">
        <ele>221.6</ele>
        <time>2022-09-10T08:43:30Z</time>
      </trkpt>
      <trkpt lat="43.22131" lon="-0.66638">
        <ele>221</ele>
        <time>2022-09-10T08:43:36Z</time>
      </trkpt>
      <trkpt lat="43.22133" lon="-0.66642">
        <ele>220.6</ele>
        <time>2022-09-10T08:43:37Z</time>
      </trkpt>
      <trkpt lat="43.22145" lon="-0.66672">
        <ele>220</ele>
        <time>2022-09-10T08:43:43Z</time>
      </trkpt>
      <trkpt lat="43.22151" lon="-0.66691">
        <ele>219.6</ele>
        <time>2022-09-10T08:43:47Z</time>
      </trkpt>
      <trkpt lat="43.22155" lon="-0.66701">
        <ele>219.4</ele>
        <time>2022-09-10T08:43:49Z</time>
      </trkpt>
      <trkpt lat="43.22164" lon="-0.66725">
        <ele>219.2</ele>
        <time>2022-09-10T08:43:54Z</time>
      </trkpt>
      <trkpt lat="43.22172" lon="-0.66745">
        <ele>219</ele>
        <time>2022-09-10T08:43:59Z</time>
      </trkpt>
      <trkpt lat="43.22183" lon="-0.66758">
        <ele>218.8</ele>
        <time>2022-09-10T08:44:04Z</time>
      </trkpt>
      <trkpt lat="43.22185" lon="-0.66759">
        <ele>218.6</ele>
        <time>2022-09-10T08:44:05Z</time>
      </trkpt>
      <trkpt lat="43.22198" lon="-0.66772">
        <ele>218</ele>
        <time>2022-09-10T08:44:10Z</time>
      </trkpt>
      <trkpt lat="43.22209" lon="-0.66785">
        <ele>217.4</ele>
        <time>2022-09-10T08:44:14Z</time>
      </trkpt>
      <trkpt lat="43.22216" lon="-0.66794">
        <ele>217</ele>
        <time>2022-09-10T08:44:16Z</time>
      </trkpt>
      <trkpt lat="43.22226" lon="-0.66809">
        <ele>216.4</ele>
        <time>2022-09-10T08:44:19Z</time>
      </trkpt>
      <trkpt lat="43.22232" lon="-0.6682">
        <ele>216.4</ele>
        <time>2022-09-10T08:44:21Z</time>
      </trkpt>
      <trkpt lat="43.22244" lon="-0.66842">
        <ele>215.8</ele>
        <time>2022-09-10T08:44:26Z</time>
      </trkpt>
      <trkpt lat="43.22258" lon="-0.66859">
        <ele>215.8</ele>
        <time>2022-09-10T08:44:32Z</time>
      </trkpt>
      <trkpt lat="43.22273" lon="-0.66871">
        <ele>215.8</ele>
        <time>2022-09-10T08:44:37Z</time>
      </trkpt>
      <trkpt lat="43.22283" lon="-0.6688">
        <ele>215.2</ele>
        <time>2022-09-10T08:44:41Z</time>
      </trkpt>
      <trkpt lat="43.22285" lon="-0.66882">
        <ele>215.2</ele>
        <time>2022-09-10T08:44:42Z</time>
      </trkpt>
      <trkpt lat="43.22296" lon="-0.66892">
        <ele>214.6</ele>
        <time>2022-09-10T08:44:47Z</time>
      </trkpt>
      <trkpt lat="43.22311" lon="-0.66901">
        <ele>214.6</ele>
        <time>2022-09-10T08:44:52Z</time>
      </trkpt>
      <trkpt lat="43.22318" lon="-0.66905">
        <ele>214.4</ele>
        <time>2022-09-10T08:44:54Z</time>
      </trkpt>
      <trkpt lat="43.22325" lon="-0.66909">
        <ele>214.2</ele>
        <time>2022-09-10T08:44:56Z</time>
      </trkpt>
      <trkpt lat="43.22337" lon="-0.66915">
        <ele>213.6</ele>
        <time>2022-09-10T08:44:59Z</time>
      </trkpt>
      <trkpt lat="43.22345" lon="-0.6692">
        <ele>213.2</ele>
        <time>2022-09-10T08:45:01Z</time>
      </trkpt>
      <trkpt lat="43.22359" lon="-0.66928">
        <ele>212.4</ele>
        <time>2022-09-10T08:45:04Z</time>
      </trkpt>
      <trkpt lat="43.22369" lon="-0.66936">
        <ele>212</ele>
        <time>2022-09-10T08:45:06Z</time>
      </trkpt>
      <trkpt lat="43.22383" lon="-0.66946">
        <ele>211</ele>
        <time>2022-09-10T08:45:09Z</time>
      </trkpt>
      <trkpt lat="43.22388" lon="-0.66949">
        <ele>210.6</ele>
        <time>2022-09-10T08:45:10Z</time>
      </trkpt>
      <trkpt lat="43.22403" lon="-0.66957">
        <ele>209.8</ele>
        <time>2022-09-10T08:45:13Z</time>
      </trkpt>
      <trkpt lat="43.22407" lon="-0.6696">
        <ele>209.6</ele>
        <time>2022-09-10T08:45:14Z</time>
      </trkpt>
      <trkpt lat="43.22412" lon="-0.66961">
        <ele>209.2</ele>
        <time>2022-09-10T08:45:15Z</time>
      </trkpt>
      <trkpt lat="43.2242" lon="-0.6696">
        <ele>208.6</ele>
        <time>2022-09-10T08:45:17Z</time>
      </trkpt>
      <trkpt lat="43.22423" lon="-0.66957">
        <ele>208.4</ele>
        <time>2022-09-10T08:45:18Z</time>
      </trkpt>
      <trkpt lat="43.22432" lon="-0.6695">
        <ele>208</ele>
        <time>2022-09-10T08:45:21Z</time>
      </trkpt>
      <trkpt lat="43.22436" lon="-0.66948">
        <ele>207.6</ele>
        <time>2022-09-10T08:45:23Z</time>
      </trkpt>
      <trkpt lat="43.22441" lon="-0.66946">
        <ele>207</ele>
        <time>2022-09-10T08:45:26Z</time>
      </trkpt>
      <trkpt lat="43.22445" lon="-0.66946">
        <ele>206.8</ele>
        <time>2022-09-10T08:45:28Z</time>
      </trkpt>
      <trkpt lat="43.22453" lon="-0.66955">
        <ele>206.6</ele>
        <time>2022-09-10T08:45:33Z</time>
      </trkpt>
      <trkpt lat="43.2246" lon="-0.66977">
        <ele>206.2</ele>
        <time>2022-09-10T08:45:39Z</time>
      </trkpt>
      <trkpt lat="43.22461" lon="-0.66988">
        <ele>205.8</ele>
        <time>2022-09-10T08:45:41Z</time>
      </trkpt>
      <trkpt lat="43.22461" lon="-0.67002">
        <ele>205</ele>
        <time>2022-09-10T08:45:43Z</time>
      </trkpt>
      <trkpt lat="43.22459" lon="-0.6701">
        <ele>204.4</ele>
        <time>2022-09-10T08:45:44Z</time>
      </trkpt>
      <trkpt lat="43.22455" lon="-0.67025">
        <ele>203</ele>
        <time>2022-09-10T08:45:46Z</time>
      </trkpt>
      <trkpt lat="43.22452" lon="-0.6704">
        <ele>202.2</ele>
        <time>2022-09-10T08:45:48Z</time>
      </trkpt>
      <trkpt lat="43.22452" lon="-0.67055">
        <ele>201.8</ele>
        <time>2022-09-10T08:45:50Z</time>
      </trkpt>
      <trkpt lat="43.22458" lon="-0.67071">
        <ele>201</ele>
        <time>2022-09-10T08:45:53Z</time>
      </trkpt>
      <trkpt lat="43.22468" lon="-0.67078">
        <ele>201.2</ele>
        <time>2022-09-10T08:45:57Z</time>
      </trkpt>
      <trkpt lat="43.22471" lon="-0.67078">
        <ele>201.4</ele>
        <time>2022-09-10T08:45:58Z</time>
      </trkpt>
      <trkpt lat="43.22488" lon="-0.67077">
        <ele>201.6</ele>
        <time>2022-09-10T08:46:05Z</time>
      </trkpt>
      <trkpt lat="43.22513" lon="-0.67074">
        <ele>201.2</ele>
        <time>2022-09-10T08:46:13Z</time>
      </trkpt>
      <trkpt lat="43.22538" lon="-0.67073">
        <ele>200.6</ele>
        <time>2022-09-10T08:46:18Z</time>
      </trkpt>
      <trkpt lat="43.22543" lon="-0.67073">
        <ele>200.4</ele>
        <time>2022-09-10T08:46:19Z</time>
      </trkpt>
      <trkpt lat="43.2257" lon="-0.67069">
        <ele>200.4</ele>
        <time>2022-09-10T08:46:25Z</time>
      </trkpt>
      <trkpt lat="43.22596" lon="-0.67064">
        <ele>201</ele>
        <time>2022-09-10T08:46:32Z</time>
      </trkpt>
      <trkpt lat="43.22619" lon="-0.67066">
        <ele>200.8</ele>
        <time>2022-09-10T08:46:38Z</time>
      </trkpt>
      <trkpt lat="43.22627" lon="-0.67069">
        <ele>200.2</ele>
        <time>2022-09-10T08:46:40Z</time>
      </trkpt>
      <trkpt lat="43.22636" lon="-0.67075">
        <ele>199.8</ele>
        <time>2022-09-10T08:46:42Z</time>
      </trkpt>
      <trkpt lat="43.22641" lon="-0.67078">
        <ele>199.6</ele>
        <time>2022-09-10T08:46:43Z</time>
      </trkpt>
      <trkpt lat="43.22646" lon="-0.67081">
        <ele>199.4</ele>
        <time>2022-09-10T08:46:44Z</time>
      </trkpt>
      <trkpt lat="43.22656" lon="-0.67086">
        <ele>199.4</ele>
        <time>2022-09-10T08:46:46Z</time>
      </trkpt>
      <trkpt lat="43.22669" lon="-0.67088">
        <ele>199.4</ele>
        <time>2022-09-10T08:46:49Z</time>
      </trkpt>
      <trkpt lat="43.22673" lon="-0.6709">
        <ele>199.4</ele>
        <time>2022-09-10T08:46:50Z</time>
      </trkpt>
      <trkpt lat="43.22692" lon="-0.671">
        <ele>199.2</ele>
        <time>2022-09-10T08:46:54Z</time>
      </trkpt>
      <trkpt lat="43.2273" lon="-0.67122">
        <ele>199.6</ele>
        <time>2022-09-10T08:47:02Z</time>
      </trkpt>
      <trkpt lat="43.22768" lon="-0.67138">
        <ele>199.8</ele>
        <time>2022-09-10T08:47:10Z</time>
      </trkpt>
      <trkpt lat="43.22784" lon="-0.67152">
        <ele>199.8</ele>
        <time>2022-09-10T08:47:14Z</time>
      </trkpt>
      <trkpt lat="43.22787" lon="-0.67156">
        <ele>199.8</ele>
        <time>2022-09-10T08:47:15Z</time>
      </trkpt>
      <trkpt lat="43.22808" lon="-0.67188">
        <ele>200</ele>
        <time>2022-09-10T08:47:22Z</time>
      </trkpt>
      <trkpt lat="43.22814" lon="-0.67199">
        <ele>199.6</ele>
        <time>2022-09-10T08:47:24Z</time>
      </trkpt>
      <trkpt lat="43.22825" lon="-0.67218">
        <ele>199.4</ele>
        <time>2022-09-10T08:47:28Z</time>
      </trkpt>
      <trkpt lat="43.22854" lon="-0.67256">
        <ele>199.4</ele>
        <time>2022-09-10T08:47:37Z</time>
      </trkpt>
      <trkpt lat="43.22879" lon="-0.67277">
        <ele>198.8</ele>
        <time>2022-09-10T08:47:43Z</time>
      </trkpt>
      <trkpt lat="43.22909" lon="-0.67289">
        <ele>198.8</ele>
        <time>2022-09-10T08:47:49Z</time>
      </trkpt>
      <trkpt lat="43.22932" lon="-0.67284">
        <ele>199</ele>
        <time>2022-09-10T08:47:54Z</time>
      </trkpt>
      <trkpt lat="43.22946" lon="-0.67279">
        <ele>199.8</ele>
        <time>2022-09-10T08:47:59Z</time>
      </trkpt>
      <trkpt lat="43.22952" lon="-0.67277">
        <ele>200.6</ele>
        <time>2022-09-10T08:48:02Z</time>
      </trkpt>
      <trkpt lat="43.2296" lon="-0.67274">
        <ele>201.4</ele>
        <time>2022-09-10T08:48:06Z</time>
      </trkpt>
      <trkpt lat="43.22962" lon="-0.67273">
        <ele>201.6</ele>
        <time>2022-09-10T08:48:07Z</time>
      </trkpt>
      <trkpt lat="43.22974" lon="-0.67269">
        <ele>202.6</ele>
        <time>2022-09-10T08:48:12Z</time>
      </trkpt>
      <trkpt lat="43.22978" lon="-0.67267">
        <ele>202.8</ele>
        <time>2022-09-10T08:48:14Z</time>
      </trkpt>
      <trkpt lat="43.22994" lon="-0.67268">
        <ele>203.4</ele>
        <time>2022-09-10T08:48:21Z</time>
      </trkpt>
      <trkpt lat="43.23004" lon="-0.6728">
        <ele>203.2</ele>
        <time>2022-09-10T08:48:26Z</time>
      </trkpt>
      <trkpt lat="43.2302" lon="-0.67306">
        <ele>202.4</ele>
        <time>2022-09-10T08:48:32Z</time>
      </trkpt>
      <trkpt lat="43.23027" lon="-0.67319">
        <ele>201.4</ele>
        <time>2022-09-10T08:48:34Z</time>
      </trkpt>
      <trkpt lat="43.23035" lon="-0.67336">
        <ele>200.4</ele>
        <time>2022-09-10T08:48:36Z</time>
      </trkpt>
      <trkpt lat="43.23053" lon="-0.67368">
        <ele>199</ele>
        <time>2022-09-10T08:48:40Z</time>
      </trkpt>
      <trkpt lat="43.23063" lon="-0.6738">
        <ele>198.4</ele>
        <time>2022-09-10T08:48:42Z</time>
      </trkpt>
      <trkpt lat="43.23072" lon="-0.67393">
        <ele>198</ele>
        <time>2022-09-10T08:48:45Z</time>
      </trkpt>
      <trkpt lat="43.23074" lon="-0.67396">
        <ele>197.8</ele>
        <time>2022-09-10T08:48:46Z</time>
      </trkpt>
      <trkpt lat="43.23089" lon="-0.67412">
        <ele>197.2</ele>
        <time>2022-09-10T08:48:53Z</time>
      </trkpt>
      <trkpt lat="43.23102" lon="-0.67427">
        <ele>197.2</ele>
        <time>2022-09-10T08:49:00Z</time>
      </trkpt>
      <trkpt lat="43.23118" lon="-0.67432">
        <ele>197</ele>
        <time>2022-09-10T08:49:06Z</time>
      </trkpt>
      <trkpt lat="43.23143" lon="-0.67434">
        <ele>196.4</ele>
        <time>2022-09-10T08:49:12Z</time>
      </trkpt>
      <trkpt lat="43.23164" lon="-0.67424">
        <ele>196.8</ele>
        <time>2022-09-10T08:49:18Z</time>
      </trkpt>
      <trkpt lat="43.23189" lon="-0.67401">
        <ele>197</ele>
        <time>2022-09-10T08:49:26Z</time>
      </trkpt>
      <trkpt lat="43.23212" lon="-0.67376">
        <ele>196.8</ele>
        <time>2022-09-10T08:49:34Z</time>
      </trkpt>
      <trkpt lat="43.23227" lon="-0.67362">
        <ele>196.2</ele>
        <time>2022-09-10T08:49:39Z</time>
      </trkpt>
      <trkpt lat="43.23234" lon="-0.67362">
        <ele>195.8</ele>
        <time>2022-09-10T08:49:41Z</time>
      </trkpt>
      <trkpt lat="43.23238" lon="-0.67364">
        <ele>195.6</ele>
        <time>2022-09-10T08:49:42Z</time>
      </trkpt>
      <trkpt lat="43.23242" lon="-0.67366">
        <ele>195.2</ele>
        <time>2022-09-10T08:49:43Z</time>
      </trkpt>
      <trkpt lat="43.23247" lon="-0.67367">
        <ele>194.6</ele>
        <time>2022-09-10T08:49:44Z</time>
      </trkpt>
      <trkpt lat="43.23257" lon="-0.6737">
        <ele>193.2</ele>
        <time>2022-09-10T08:49:46Z</time>
      </trkpt>
      <trkpt lat="43.23265" lon="-0.67373">
        <ele>192.4</ele>
        <time>2022-09-10T08:49:48Z</time>
      </trkpt>
      <trkpt lat="43.23268" lon="-0.67375">
        <ele>192.2</ele>
        <time>2022-09-10T08:49:49Z</time>
      </trkpt>
      <trkpt lat="43.23277" lon="-0.67387">
        <ele>192</ele>
        <time>2022-09-10T08:49:53Z</time>
      </trkpt>
      <trkpt lat="43.23293" lon="-0.67402">
        <ele>191.6</ele>
        <time>2022-09-10T08:50:00Z</time>
      </trkpt>
      <trkpt lat="43.23301" lon="-0.67403">
        <ele>191.4</ele>
        <time>2022-09-10T08:50:02Z</time>
      </trkpt>
      <trkpt lat="43.23306" lon="-0.67403">
        <ele>191.2</ele>
        <time>2022-09-10T08:50:03Z</time>
      </trkpt>
      <trkpt lat="43.2331" lon="-0.67402">
        <ele>191</ele>
        <time>2022-09-10T08:50:04Z</time>
      </trkpt>
      <trkpt lat="43.2332" lon="-0.67398">
        <ele>190.6</ele>
        <time>2022-09-10T08:50:06Z</time>
      </trkpt>
      <trkpt lat="43.23331" lon="-0.67395">
        <ele>190.2</ele>
        <time>2022-09-10T08:50:08Z</time>
      </trkpt>
      <trkpt lat="43.23341" lon="-0.6739">
        <ele>190.2</ele>
        <time>2022-09-10T08:50:10Z</time>
      </trkpt>
      <trkpt lat="43.23361" lon="-0.67381">
        <ele>190</ele>
        <time>2022-09-10T08:50:14Z</time>
      </trkpt>
      <trkpt lat="43.2337" lon="-0.67381">
        <ele>190</ele>
        <time>2022-09-10T08:50:16Z</time>
      </trkpt>
      <trkpt lat="43.23387" lon="-0.67388">
        <ele>189.8</ele>
        <time>2022-09-10T08:50:20Z</time>
      </trkpt>
      <trkpt lat="43.23396" lon="-0.67392">
        <ele>189.4</ele>
        <time>2022-09-10T08:50:22Z</time>
      </trkpt>
      <trkpt lat="43.23417" lon="-0.67396">
        <ele>189</ele>
        <time>2022-09-10T08:50:26Z</time>
      </trkpt>
      <trkpt lat="43.23429" lon="-0.67398">
        <ele>188</ele>
        <time>2022-09-10T08:50:28Z</time>
      </trkpt>
      <trkpt lat="43.23466" lon="-0.67404">
        <ele>186.8</ele>
        <time>2022-09-10T08:50:34Z</time>
      </trkpt>
      <trkpt lat="43.23473" lon="-0.67405">
        <ele>186.6</ele>
        <time>2022-09-10T08:50:35Z</time>
      </trkpt>
      <trkpt lat="43.23514" lon="-0.67412">
        <ele>186</ele>
        <time>2022-09-10T08:50:42Z</time>
      </trkpt>
      <trkpt lat="43.23524" lon="-0.67412">
        <ele>186</ele>
        <time>2022-09-10T08:50:44Z</time>
      </trkpt>
      <trkpt lat="43.23548" lon="-0.67413">
        <ele>185.8</ele>
        <time>2022-09-10T08:50:48Z</time>
      </trkpt>
      <trkpt lat="43.2357" lon="-0.67414">
        <ele>185.6</ele>
        <time>2022-09-10T08:50:52Z</time>
      </trkpt>
      <trkpt lat="43.23602" lon="-0.67424">
        <ele>185</ele>
        <time>2022-09-10T08:50:58Z</time>
      </trkpt>
      <trkpt lat="43.23652" lon="-0.6744">
        <ele>185</ele>
        <time>2022-09-10T08:51:08Z</time>
      </trkpt>
      <trkpt lat="43.23677" lon="-0.6745">
        <ele>184.6</ele>
        <time>2022-09-10T08:51:13Z</time>
      </trkpt>
      <trkpt lat="43.23701" lon="-0.67462">
        <ele>184.4</ele>
        <time>2022-09-10T08:51:18Z</time>
      </trkpt>
      <trkpt lat="43.23748" lon="-0.67485">
        <ele>184</ele>
        <time>2022-09-10T08:51:28Z</time>
      </trkpt>
      <trkpt lat="43.23762" lon="-0.67487">
        <ele>183.6</ele>
        <time>2022-09-10T08:51:31Z</time>
      </trkpt>
      <trkpt lat="43.23785" lon="-0.67487">
        <ele>183.8</ele>
        <time>2022-09-10T08:51:36Z</time>
      </trkpt>
      <trkpt lat="43.23824" lon="-0.67492">
        <ele>183.2</ele>
        <time>2022-09-10T08:51:44Z</time>
      </trkpt>
      <trkpt lat="43.23872" lon="-0.67509">
        <ele>182.6</ele>
        <time>2022-09-10T08:51:53Z</time>
      </trkpt>
      <trkpt lat="43.23876" lon="-0.67512">
        <ele>182.6</ele>
        <time>2022-09-10T08:51:54Z</time>
      </trkpt>
      <trkpt lat="43.23893" lon="-0.67528">
        <ele>182.4</ele>
        <time>2022-09-10T08:51:58Z</time>
      </trkpt>
      <trkpt lat="43.23925" lon="-0.67559">
        <ele>181.8</ele>
        <time>2022-09-10T08:52:06Z</time>
      </trkpt>
      <trkpt lat="43.23941" lon="-0.67576">
        <ele>181.2</ele>
        <time>2022-09-10T08:52:10Z</time>
      </trkpt>
      <trkpt lat="43.23951" lon="-0.67584">
        <ele>181</ele>
        <time>2022-09-10T08:52:12Z</time>
      </trkpt>
      <trkpt lat="43.23956" lon="-0.67588">
        <ele>180.8</ele>
        <time>2022-09-10T08:52:13Z</time>
      </trkpt>
      <trkpt lat="43.23977" lon="-0.67602">
        <ele>180.2</ele>
        <time>2022-09-10T08:52:17Z</time>
      </trkpt>
      <trkpt lat="43.24005" lon="-0.67621">
        <ele>179.2</ele>
        <time>2022-09-10T08:52:22Z</time>
      </trkpt>
      <trkpt lat="43.24011" lon="-0.67624">
        <ele>179</ele>
        <time>2022-09-10T08:52:23Z</time>
      </trkpt>
      <trkpt lat="43.24052" lon="-0.67646">
        <ele>178.2</ele>
        <time>2022-09-10T08:52:30Z</time>
      </trkpt>
      <trkpt lat="43.24057" lon="-0.6765">
        <ele>178</ele>
        <time>2022-09-10T08:52:31Z</time>
      </trkpt>
      <trkpt lat="43.24073" lon="-0.67667">
        <ele>177.2</ele>
        <time>2022-09-10T08:52:34Z</time>
      </trkpt>
      <trkpt lat="43.24078" lon="-0.67673">
        <ele>176.8</ele>
        <time>2022-09-10T08:52:35Z</time>
      </trkpt>
      <trkpt lat="43.2409" lon="-0.67687">
        <ele>176.4</ele>
        <time>2022-09-10T08:52:37Z</time>
      </trkpt>
      <trkpt lat="43.24093" lon="-0.67695">
        <ele>176.4</ele>
        <time>2022-09-10T08:52:38Z</time>
      </trkpt>
      <trkpt lat="43.24103" lon="-0.67723">
        <ele>176.4</ele>
        <time>2022-09-10T08:52:42Z</time>
      </trkpt>
      <trkpt lat="43.24106" lon="-0.67729">
        <ele>176.4</ele>
        <time>2022-09-10T08:52:43Z</time>
      </trkpt>
      <trkpt lat="43.24112" lon="-0.67741">
        <ele>176.2</ele>
        <time>2022-09-10T08:52:45Z</time>
      </trkpt>
      <trkpt lat="43.24121" lon="-0.67751">
        <ele>176.2</ele>
        <time>2022-09-10T08:52:47Z</time>
      </trkpt>
      <trkpt lat="43.24146" lon="-0.67777">
        <ele>176.2</ele>
        <time>2022-09-10T08:52:53Z</time>
      </trkpt>
      <trkpt lat="43.24169" lon="-0.67812">
        <ele>176.2</ele>
        <time>2022-09-10T08:53:00Z</time>
      </trkpt>
      <trkpt lat="43.2418" lon="-0.67827">
        <ele>175.8</ele>
        <time>2022-09-10T08:53:03Z</time>
      </trkpt>
      <trkpt lat="43.24196" lon="-0.67853">
        <ele>175.6</ele>
        <time>2022-09-10T08:53:08Z</time>
      </trkpt>
      <trkpt lat="43.24224" lon="-0.67893">
        <ele>175</ele>
        <time>2022-09-10T08:53:16Z</time>
      </trkpt>
      <trkpt lat="43.24238" lon="-0.67911">
        <ele>174.8</ele>
        <time>2022-09-10T08:53:20Z</time>
      </trkpt>
      <trkpt lat="43.2425" lon="-0.67924">
        <ele>174.2</ele>
        <time>2022-09-10T08:53:23Z</time>
      </trkpt>
      <trkpt lat="43.24262" lon="-0.67935">
        <ele>174.2</ele>
        <time>2022-09-10T08:53:26Z</time>
      </trkpt>
      <trkpt lat="43.24272" lon="-0.6794">
        <ele>174.2</ele>
        <time>2022-09-10T08:53:28Z</time>
      </trkpt>
      <trkpt lat="43.24305" lon="-0.6795">
        <ele>174.2</ele>
        <time>2022-09-10T08:53:35Z</time>
      </trkpt>
      <trkpt lat="43.24342" lon="-0.67964">
        <ele>174</ele>
        <time>2022-09-10T08:53:43Z</time>
      </trkpt>
      <trkpt lat="43.24378" lon="-0.67976">
        <ele>174.4</ele>
        <time>2022-09-10T08:53:51Z</time>
      </trkpt>
      <trkpt lat="43.24395" lon="-0.67982">
        <ele>174.2</ele>
        <time>2022-09-10T08:53:55Z</time>
      </trkpt>
      <trkpt lat="43.24407" lon="-0.67986">
        <ele>174.2</ele>
        <time>2022-09-10T08:53:58Z</time>
      </trkpt>
      <trkpt lat="43.24435" lon="-0.67997">
        <ele>174</ele>
        <time>2022-09-10T08:54:05Z</time>
      </trkpt>
      <trkpt lat="43.2444" lon="-0.67997">
        <ele>174</ele>
        <time>2022-09-10T08:54:06Z</time>
      </trkpt>
      <trkpt lat="43.24448" lon="-0.67997">
        <ele>173.6</ele>
        <time>2022-09-10T08:54:08Z</time>
      </trkpt>
      <trkpt lat="43.24452" lon="-0.67998">
        <ele>173.6</ele>
        <time>2022-09-10T08:54:09Z</time>
      </trkpt>
      <trkpt lat="43.24456" lon="-0.68001">
        <ele>173.4</ele>
        <time>2022-09-10T08:54:10Z</time>
      </trkpt>
      <trkpt lat="43.24461" lon="-0.68015">
        <ele>173.6</ele>
        <time>2022-09-10T08:54:13Z</time>
      </trkpt>
      <trkpt lat="43.24458" lon="-0.68033">
        <ele>173.8</ele>
        <time>2022-09-10T08:54:17Z</time>
      </trkpt>
      <trkpt lat="43.24457" lon="-0.68039">
        <ele>173.8</ele>
        <time>2022-09-10T08:54:18Z</time>
      </trkpt>
      <trkpt lat="43.24457" lon="-0.68044">
        <ele>174</ele>
        <time>2022-09-10T08:54:19Z</time>
      </trkpt>
      <trkpt lat="43.24457" lon="-0.68069">
        <ele>173.6</ele>
        <time>2022-09-10T08:54:23Z</time>
      </trkpt>
      <trkpt lat="43.24459" lon="-0.68095">
        <ele>173.2</ele>
        <time>2022-09-10T08:54:27Z</time>
      </trkpt>
      <trkpt lat="43.24458" lon="-0.68108">
        <ele>173.2</ele>
        <time>2022-09-10T08:54:29Z</time>
      </trkpt>
      <trkpt lat="43.24459" lon="-0.6812">
        <ele>172.8</ele>
        <time>2022-09-10T08:54:31Z</time>
      </trkpt>
      <trkpt lat="43.2446" lon="-0.68126">
        <ele>172.8</ele>
        <time>2022-09-10T08:54:32Z</time>
      </trkpt>
      <trkpt lat="43.24463" lon="-0.68137">
        <ele>172.8</ele>
        <time>2022-09-10T08:54:34Z</time>
      </trkpt>
      <trkpt lat="43.24466" lon="-0.68143">
        <ele>173</ele>
        <time>2022-09-10T08:54:35Z</time>
      </trkpt>
      <trkpt lat="43.24476" lon="-0.68151">
        <ele>173.2</ele>
        <time>2022-09-10T08:54:39Z</time>
      </trkpt>
      <trkpt lat="43.24483" lon="-0.68152">
        <ele>173.4</ele>
        <time>2022-09-10T08:54:41Z</time>
      </trkpt>
      <trkpt lat="43.24496" lon="-0.68153">
        <ele>173.4</ele>
        <time>2022-09-10T08:54:44Z</time>
      </trkpt>
      <trkpt lat="43.24509" lon="-0.68154">
        <ele>173.4</ele>
        <time>2022-09-10T08:54:47Z</time>
      </trkpt>
      <trkpt lat="43.24521" lon="-0.68162">
        <ele>173.6</ele>
        <time>2022-09-10T08:54:50Z</time>
      </trkpt>
      <trkpt lat="43.24524" lon="-0.68164">
        <ele>173.6</ele>
        <time>2022-09-10T08:54:51Z</time>
      </trkpt>
      <trkpt lat="43.24536" lon="-0.68172">
        <ele>174</ele>
        <time>2022-09-10T08:54:55Z</time>
      </trkpt>
      <trkpt lat="43.24554" lon="-0.68169">
        <ele>174.4</ele>
        <time>2022-09-10T08:55:00Z</time>
      </trkpt>
      <trkpt lat="43.24565" lon="-0.68152">
        <ele>174.2</ele>
        <time>2022-09-10T08:55:04Z</time>
      </trkpt>
      <trkpt lat="43.2457" lon="-0.68141">
        <ele>173.8</ele>
        <time>2022-09-10T08:55:06Z</time>
      </trkpt>
      <trkpt lat="43.24581" lon="-0.68129">
        <ele>173.2</ele>
        <time>2022-09-10T08:55:09Z</time>
      </trkpt>
      <trkpt lat="43.24585" lon="-0.68125">
        <ele>173</ele>
        <time>2022-09-10T08:55:10Z</time>
      </trkpt>
      <trkpt lat="43.24599" lon="-0.68116">
        <ele>173</ele>
        <time>2022-09-10T08:55:13Z</time>
      </trkpt>
      <trkpt lat="43.24609" lon="-0.68111">
        <ele>172.8</ele>
        <time>2022-09-10T08:55:15Z</time>
      </trkpt>
      <trkpt lat="43.24613" lon="-0.68108">
        <ele>172.8</ele>
        <time>2022-09-10T08:55:16Z</time>
      </trkpt>
      <trkpt lat="43.24628" lon="-0.68093">
        <ele>172.8</ele>
        <time>2022-09-10T08:55:20Z</time>
      </trkpt>
      <trkpt lat="43.24656" lon="-0.68077">
        <ele>172.6</ele>
        <time>2022-09-10T08:55:26Z</time>
      </trkpt>
      <trkpt lat="43.24661" lon="-0.68074">
        <ele>172.4</ele>
        <time>2022-09-10T08:55:27Z</time>
      </trkpt>
      <trkpt lat="43.24678" lon="-0.68063">
        <ele>172.4</ele>
        <time>2022-09-10T08:55:31Z</time>
      </trkpt>
      <trkpt lat="43.24686" lon="-0.68057">
        <ele>172.2</ele>
        <time>2022-09-10T08:55:33Z</time>
      </trkpt>
      <trkpt lat="43.24703" lon="-0.68056">
        <ele>172.2</ele>
        <time>2022-09-10T08:55:37Z</time>
      </trkpt>
      <trkpt lat="43.2474" lon="-0.68062">
        <ele>172.6</ele>
        <time>2022-09-10T08:55:45Z</time>
      </trkpt>
      <trkpt lat="43.24772" lon="-0.68062">
        <ele>172</ele>
        <time>2022-09-10T08:55:52Z</time>
      </trkpt>
      <trkpt lat="43.24776" lon="-0.68062">
        <ele>172.2</ele>
        <time>2022-09-10T08:55:53Z</time>
      </trkpt>
      <trkpt lat="43.2479" lon="-0.68061">
        <ele>172</ele>
        <time>2022-09-10T08:55:56Z</time>
      </trkpt>
      <trkpt lat="43.24794" lon="-0.68061">
        <ele>171.8</ele>
        <time>2022-09-10T08:55:57Z</time>
      </trkpt>
      <trkpt lat="43.24823" lon="-0.68064">
        <ele>172.2</ele>
        <time>2022-09-10T08:56:03Z</time>
      </trkpt>
      <trkpt lat="43.24827" lon="-0.68064">
        <ele>172.2</ele>
        <time>2022-09-10T08:56:04Z</time>
      </trkpt>
      <trkpt lat="43.24846" lon="-0.68064">
        <ele>172.4</ele>
        <time>2022-09-10T08:56:08Z</time>
      </trkpt>
      <trkpt lat="43.24854" lon="-0.68064">
        <ele>172.4</ele>
        <time>2022-09-10T08:56:10Z</time>
      </trkpt>
      <trkpt lat="43.24868" lon="-0.68069">
        <ele>172.6</ele>
        <time>2022-09-10T08:56:14Z</time>
      </trkpt>
      <trkpt lat="43.24875" lon="-0.6807">
        <ele>172.8</ele>
        <time>2022-09-10T08:56:16Z</time>
      </trkpt>
      <trkpt lat="43.24889" lon="-0.68071">
        <ele>172.6</ele>
        <time>2022-09-10T08:56:20Z</time>
      </trkpt>
      <trkpt lat="43.24917" lon="-0.68072">
        <ele>172.8</ele>
        <time>2022-09-10T08:56:27Z</time>
      </trkpt>
      <trkpt lat="43.24934" lon="-0.68072">
        <ele>173.2</ele>
        <time>2022-09-10T08:56:31Z</time>
      </trkpt>
      <trkpt lat="43.2495" lon="-0.68076">
        <ele>173.2</ele>
        <time>2022-09-10T08:56:35Z</time>
      </trkpt>
      <trkpt lat="43.2497" lon="-0.68079">
        <ele>173.6</ele>
        <time>2022-09-10T08:56:40Z</time>
      </trkpt>
      <trkpt lat="43.24974" lon="-0.68079">
        <ele>173.6</ele>
        <time>2022-09-10T08:56:41Z</time>
      </trkpt>
      <trkpt lat="43.25012" lon="-0.68084">
        <ele>173.2</ele>
        <time>2022-09-10T08:56:50Z</time>
      </trkpt>
      <trkpt lat="43.25045" lon="-0.68087">
        <ele>172.8</ele>
        <time>2022-09-10T08:56:58Z</time>
      </trkpt>
      <trkpt lat="43.2508" lon="-0.68091">
        <ele>172.6</ele>
        <time>2022-09-10T08:57:06Z</time>
      </trkpt>
      <trkpt lat="43.25084" lon="-0.68092">
        <ele>172.4</ele>
        <time>2022-09-10T08:57:07Z</time>
      </trkpt>
      <trkpt lat="43.25115" lon="-0.68104">
        <ele>171.8</ele>
        <time>2022-09-10T08:57:14Z</time>
      </trkpt>
      <trkpt lat="43.25132" lon="-0.68115">
        <ele>171.4</ele>
        <time>2022-09-10T08:57:18Z</time>
      </trkpt>
      <trkpt lat="43.25137" lon="-0.68118">
        <ele>171.4</ele>
        <time>2022-09-10T08:57:19Z</time>
      </trkpt>
      <trkpt lat="43.2516" lon="-0.68133">
        <ele>171.4</ele>
        <time>2022-09-10T08:57:24Z</time>
      </trkpt>
      <trkpt lat="43.25202" lon="-0.68156">
        <ele>171.4</ele>
        <time>2022-09-10T08:57:33Z</time>
      </trkpt>
      <trkpt lat="43.25245" lon="-0.68185">
        <ele>170.8</ele>
        <time>2022-09-10T08:57:42Z</time>
      </trkpt>
      <trkpt lat="43.25281" lon="-0.68211">
        <ele>171</ele>
        <time>2022-09-10T08:57:50Z</time>
      </trkpt>
      <trkpt lat="43.25323" lon="-0.68252">
        <ele>170.6</ele>
        <time>2022-09-10T08:58:00Z</time>
      </trkpt>
      <trkpt lat="43.25341" lon="-0.68269">
        <ele>170.4</ele>
        <time>2022-09-10T08:58:04Z</time>
      </trkpt>
      <trkpt lat="43.25379" lon="-0.68307">
        <ele>170.6</ele>
        <time>2022-09-10T08:58:13Z</time>
      </trkpt>
      <trkpt lat="43.25406" lon="-0.68331">
        <ele>171.6</ele>
        <time>2022-09-10T08:58:20Z</time>
      </trkpt>
      <trkpt lat="43.2541" lon="-0.68333">
        <ele>171.8</ele>
        <time>2022-09-10T08:58:21Z</time>
      </trkpt>
      <trkpt lat="43.25444" lon="-0.68353">
        <ele>171.4</ele>
        <time>2022-09-10T08:58:29Z</time>
      </trkpt>
      <trkpt lat="43.25483" lon="-0.6837">
        <ele>171</ele>
        <time>2022-09-10T08:58:37Z</time>
      </trkpt>
      <trkpt lat="43.25528" lon="-0.68391">
        <ele>171</ele>
        <time>2022-09-10T08:58:46Z</time>
      </trkpt>
      <trkpt lat="43.25547" lon="-0.68397">
        <ele>171.2</ele>
        <time>2022-09-10T08:58:50Z</time>
      </trkpt>
      <trkpt lat="43.2556" lon="-0.68398">
        <ele>171.6</ele>
        <time>2022-09-10T08:58:53Z</time>
      </trkpt>
      <trkpt lat="43.25573" lon="-0.68399">
        <ele>172.8</ele>
        <time>2022-09-10T08:58:57Z</time>
      </trkpt>
      <trkpt lat="43.25577" lon="-0.68399">
        <ele>173.6</ele>
        <time>2022-09-10T08:58:59Z</time>
      </trkpt>
      <trkpt lat="43.25579" lon="-0.684">
        <ele>173.8</ele>
        <time>2022-09-10T08:59:00Z</time>
      </trkpt>
      <trkpt lat="43.25586" lon="-0.684">
        <ele>174.8</ele>
        <time>2022-09-10T08:59:04Z</time>
      </trkpt>
      <trkpt lat="43.25588" lon="-0.684">
        <ele>175</ele>
        <time>2022-09-10T08:59:05Z</time>
      </trkpt>
      <trkpt lat="43.25595" lon="-0.68402">
        <ele>175.8</ele>
        <time>2022-09-10T08:59:09Z</time>
      </trkpt>
      <trkpt lat="43.25605" lon="-0.68405">
        <ele>177</ele>
        <time>2022-09-10T08:59:14Z</time>
      </trkpt>
      <trkpt lat="43.25607" lon="-0.68405">
        <ele>177.2</ele>
        <time>2022-09-10T08:59:15Z</time>
      </trkpt>
      <trkpt lat="43.25617" lon="-0.68409">
        <ele>178</ele>
        <time>2022-09-10T08:59:20Z</time>
      </trkpt>
      <trkpt lat="43.25619" lon="-0.6841">
        <ele>178.2</ele>
        <time>2022-09-10T08:59:21Z</time>
      </trkpt>
      <trkpt lat="43.25639" lon="-0.68421">
        <ele>178.6</ele>
        <time>2022-09-10T08:59:29Z</time>
      </trkpt>
      <trkpt lat="43.25659" lon="-0.68436">
        <ele>178.6</ele>
        <time>2022-09-10T08:59:37Z</time>
      </trkpt>
      <trkpt lat="43.25683" lon="-0.6845">
        <ele>179</ele>
        <time>2022-09-10T08:59:45Z</time>
      </trkpt>
      <trkpt lat="43.25718" lon="-0.6846">
        <ele>179</ele>
        <time>2022-09-10T08:59:55Z</time>
      </trkpt>
      <trkpt lat="43.25736" lon="-0.68474">
        <ele>180</ele>
        <time>2022-09-10T09:00:01Z</time>
      </trkpt>
      <trkpt lat="43.25738" lon="-0.68477">
        <ele>180.4</ele>
        <time>2022-09-10T09:00:02Z</time>
      </trkpt>
      <trkpt lat="43.25747" lon="-0.68488">
        <ele>181.6</ele>
        <time>2022-09-10T09:00:07Z</time>
      </trkpt>
      <trkpt lat="43.25755" lon="-0.68498">
        <ele>182</ele>
        <time>2022-09-10T09:00:11Z</time>
      </trkpt>
      <trkpt lat="43.2577" lon="-0.68516">
        <ele>182.4</ele>
        <time>2022-09-10T09:00:18Z</time>
      </trkpt>
      <trkpt lat="43.25782" lon="-0.68527">
        <ele>182.4</ele>
        <time>2022-09-10T09:00:24Z</time>
      </trkpt>
      <trkpt lat="43.25803" lon="-0.68538">
        <ele>182.4</ele>
        <time>2022-09-10T09:00:31Z</time>
      </trkpt>
      <trkpt lat="43.25829" lon="-0.68552">
        <ele>182.4</ele>
        <time>2022-09-10T09:00:38Z</time>
      </trkpt>
      <trkpt lat="43.25837" lon="-0.68557">
        <ele>182.6</ele>
        <time>2022-09-10T09:00:40Z</time>
      </trkpt>
      <trkpt lat="43.25862" lon="-0.68571">
        <ele>182.4</ele>
        <time>2022-09-10T09:00:46Z</time>
      </trkpt>
      <trkpt lat="43.25892" lon="-0.68587">
        <ele>182</ele>
        <time>2022-09-10T09:00:54Z</time>
      </trkpt>
      <trkpt lat="43.25928" lon="-0.68602">
        <ele>181.6</ele>
        <time>2022-09-10T09:01:04Z</time>
      </trkpt>
      <trkpt lat="43.25931" lon="-0.68603">
        <ele>181.6</ele>
        <time>2022-09-10T09:01:05Z</time>
      </trkpt>
      <trkpt lat="43.25957" lon="-0.68611">
        <ele>181.6</ele>
        <time>2022-09-10T09:01:12Z</time>
      </trkpt>
      <trkpt lat="43.25973" lon="-0.68618">
        <ele>181.2</ele>
        <time>2022-09-10T09:01:16Z</time>
      </trkpt>
      <trkpt lat="43.25982" lon="-0.68622">
        <ele>181.4</ele>
        <time>2022-09-10T09:01:18Z</time>
      </trkpt>
      <trkpt lat="43.26023" lon="-0.68642">
        <ele>181.4</ele>
        <time>2022-09-10T09:01:28Z</time>
      </trkpt>
      <trkpt lat="43.26042" lon="-0.68659">
        <ele>181.2</ele>
        <time>2022-09-10T09:01:34Z</time>
      </trkpt>
      <trkpt lat="43.26064" lon="-0.68682">
        <ele>180.8</ele>
        <time>2022-09-10T09:01:41Z</time>
      </trkpt>
      <trkpt lat="43.26091" lon="-0.68709">
        <ele>180.6</ele>
        <time>2022-09-10T09:01:50Z</time>
      </trkpt>
      <trkpt lat="43.26094" lon="-0.68712">
        <ele>180.6</ele>
        <time>2022-09-10T09:01:51Z</time>
      </trkpt>
      <trkpt lat="43.26103" lon="-0.68734">
        <ele>180.4</ele>
        <time>2022-09-10T09:01:56Z</time>
      </trkpt>
      <trkpt lat="43.26103" lon="-0.68761">
        <ele>180.6</ele>
        <time>2022-09-10T09:02:02Z</time>
      </trkpt>
      <trkpt lat="43.26097" lon="-0.6879">
        <ele>180.4</ele>
        <time>2022-09-10T09:02:08Z</time>
      </trkpt>
      <trkpt lat="43.26092" lon="-0.68824">
        <ele>180.4</ele>
        <time>2022-09-10T09:02:15Z</time>
      </trkpt>
      <trkpt lat="43.26088" lon="-0.68846">
        <ele>180.4</ele>
        <time>2022-09-10T09:02:21Z</time>
      </trkpt>
      <trkpt lat="43.26082" lon="-0.68864">
        <ele>180.2</ele>
        <time>2022-09-10T09:02:27Z</time>
      </trkpt>
      <trkpt lat="43.26077" lon="-0.68875">
        <ele>180.2</ele>
        <time>2022-09-10T09:02:32Z</time>
      </trkpt>
      <trkpt lat="43.26072" lon="-0.68879">
        <ele>180.4</ele>
        <time>2022-09-10T09:02:36Z</time>
      </trkpt>
      <trkpt lat="43.26068" lon="-0.68881">
        <ele>180.2</ele>
        <time>2022-09-10T09:02:39Z</time>
      </trkpt>
      <trkpt lat="43.26078" lon="-0.68869">
        <ele>179.6</ele>
        <time>2022-09-10T09:07:17Z</time>
      </trkpt>
      <trkpt lat="43.26079" lon="-0.68867">
        <ele>179.6</ele>
        <time>2022-09-10T09:07:18Z</time>
      </trkpt>
      <trkpt lat="43.26079" lon="-0.68865">
        <ele>179.6</ele>
        <time>2022-09-10T09:07:19Z</time>
      </trkpt>
      <trkpt lat="43.26085" lon="-0.6886">
        <ele>179.4</ele>
        <time>2022-09-10T09:07:23Z</time>
      </trkpt>
      <trkpt lat="43.26085" lon="-0.68866">
        <ele>179.6</ele>
        <time>2022-09-10T09:07:26Z</time>
      </trkpt>
      <trkpt lat="43.26083" lon="-0.68869">
        <ele>179.6</ele>
        <time>2022-09-10T09:07:28Z</time>
      </trkpt>
      <trkpt lat="43.26082" lon="-0.68878">
        <ele>179.6</ele>
        <time>2022-09-10T09:07:32Z</time>
      </trkpt>
      <trkpt lat="43.26082" lon="-0.68891">
        <ele>179.4</ele>
        <time>2022-09-10T09:07:38Z</time>
      </trkpt>
      <trkpt lat="43.26086" lon="-0.68912">
        <ele>179.4</ele>
        <time>2022-09-10T09:07:46Z</time>
      </trkpt>
      <trkpt lat="43.26091" lon="-0.68931">
        <ele>179.2</ele>
        <time>2022-09-10T09:07:55Z</time>
      </trkpt>
      <trkpt lat="43.26098" lon="-0.6895">
        <ele>179.2</ele>
        <time>2022-09-10T09:08:03Z</time>
      </trkpt>
      <trkpt lat="43.26104" lon="-0.68962">
        <ele>179</ele>
        <time>2022-09-10T09:08:09Z</time>
      </trkpt>
      <trkpt lat="43.26117" lon="-0.68975">
        <ele>179</ele>
        <time>2022-09-10T09:08:17Z</time>
      </trkpt>
      <trkpt lat="43.26135" lon="-0.68989">
        <ele>179</ele>
        <time>2022-09-10T09:08:25Z</time>
      </trkpt>
      <trkpt lat="43.26145" lon="-0.69005">
        <ele>179.2</ele>
        <time>2022-09-10T09:08:31Z</time>
      </trkpt>
      <trkpt lat="43.26162" lon="-0.69031">
        <ele>179.2</ele>
        <time>2022-09-10T09:08:39Z</time>
      </trkpt>
      <trkpt lat="43.26179" lon="-0.69058">
        <ele>179</ele>
        <time>2022-09-10T09:08:47Z</time>
      </trkpt>
      <trkpt lat="43.26192" lon="-0.69091">
        <ele>179.4</ele>
        <time>2022-09-10T09:08:54Z</time>
      </trkpt>
      <trkpt lat="43.2621" lon="-0.69134">
        <ele>179.2</ele>
        <time>2022-09-10T09:09:02Z</time>
      </trkpt>
      <trkpt lat="43.26233" lon="-0.69181">
        <ele>179.2</ele>
        <time>2022-09-10T09:09:11Z</time>
      </trkpt>
      <trkpt lat="43.26253" lon="-0.69219">
        <ele>179.2</ele>
        <time>2022-09-10T09:09:18Z</time>
      </trkpt>
      <trkpt lat="43.26258" lon="-0.69231">
        <ele>179</ele>
        <time>2022-09-10T09:09:20Z</time>
      </trkpt>
      <trkpt lat="43.26277" lon="-0.69278">
        <ele>179</ele>
        <time>2022-09-10T09:09:28Z</time>
      </trkpt>
      <trkpt lat="43.26297" lon="-0.69325">
        <ele>178.6</ele>
        <time>2022-09-10T09:09:36Z</time>
      </trkpt>
      <trkpt lat="43.26311" lon="-0.69359">
        <ele>178.4</ele>
        <time>2022-09-10T09:09:42Z</time>
      </trkpt>
      <trkpt lat="43.26317" lon="-0.69375">
        <ele>178.6</ele>
        <time>2022-09-10T09:09:45Z</time>
      </trkpt>
      <trkpt lat="43.26321" lon="-0.69404">
        <ele>178.6</ele>
        <time>2022-09-10T09:09:50Z</time>
      </trkpt>
      <trkpt lat="43.26321" lon="-0.6941">
        <ele>178.6</ele>
        <time>2022-09-10T09:09:51Z</time>
      </trkpt>
      <trkpt lat="43.26321" lon="-0.69459">
        <ele>178.6</ele>
        <time>2022-09-10T09:09:59Z</time>
      </trkpt>
      <trkpt lat="43.2632" lon="-0.6951">
        <ele>178.8</ele>
        <time>2022-09-10T09:10:07Z</time>
      </trkpt>
      <trkpt lat="43.26319" lon="-0.6959">
        <ele>179</ele>
        <time>2022-09-10T09:10:18Z</time>
      </trkpt>
      <trkpt lat="43.26318" lon="-0.69597">
        <ele>178.8</ele>
        <time>2022-09-10T09:10:19Z</time>
      </trkpt>
      <trkpt lat="43.26312" lon="-0.69673">
        <ele>178.4</ele>
        <time>2022-09-10T09:10:29Z</time>
      </trkpt>
      <trkpt lat="43.26306" lon="-0.69754">
        <ele>178</ele>
        <time>2022-09-10T09:10:39Z</time>
      </trkpt>
      <trkpt lat="43.26305" lon="-0.69762">
        <ele>178</ele>
        <time>2022-09-10T09:10:40Z</time>
      </trkpt>
      <trkpt lat="43.26295" lon="-0.69833">
        <ele>178</ele>
        <time>2022-09-10T09:10:49Z</time>
      </trkpt>
      <trkpt lat="43.26287" lon="-0.6989">
        <ele>177.4</ele>
        <time>2022-09-10T09:10:56Z</time>
      </trkpt>
      <trkpt lat="43.2628" lon="-0.6993">
        <ele>177.2</ele>
        <time>2022-09-10T09:11:01Z</time>
      </trkpt>
      <trkpt lat="43.2627" lon="-0.69988">
        <ele>177.6</ele>
        <time>2022-09-10T09:11:09Z</time>
      </trkpt>
      <trkpt lat="43.26254" lon="-0.70049">
        <ele>178</ele>
        <time>2022-09-10T09:11:18Z</time>
      </trkpt>
      <trkpt lat="43.26241" lon="-0.70109">
        <ele>178</ele>
        <time>2022-09-10T09:11:27Z</time>
      </trkpt>
      <trkpt lat="43.2624" lon="-0.70163">
        <ele>177.2</ele>
        <time>2022-09-10T09:11:35Z</time>
      </trkpt>
      <trkpt lat="43.26243" lon="-0.70235">
        <ele>177.4</ele>
        <time>2022-09-10T09:11:45Z</time>
      </trkpt>
      <trkpt lat="43.26247" lon="-0.70294">
        <ele>177.8</ele>
        <time>2022-09-10T09:11:53Z</time>
      </trkpt>
      <trkpt lat="43.26259" lon="-0.70352">
        <ele>178.4</ele>
        <time>2022-09-10T09:12:01Z</time>
      </trkpt>
      <trkpt lat="43.26264" lon="-0.70374">
        <ele>178.4</ele>
        <time>2022-09-10T09:12:04Z</time>
      </trkpt>
      <trkpt lat="43.26272" lon="-0.70419">
        <ele>178.2</ele>
        <time>2022-09-10T09:12:10Z</time>
      </trkpt>
      <trkpt lat="43.26273" lon="-0.70481">
        <ele>178</ele>
        <time>2022-09-10T09:12:18Z</time>
      </trkpt>
      <trkpt lat="43.26273" lon="-0.70523">
        <ele>177.4</ele>
        <time>2022-09-10T09:12:24Z</time>
      </trkpt>
      <trkpt lat="43.26273" lon="-0.70538">
        <ele>177.2</ele>
        <time>2022-09-10T09:12:26Z</time>
      </trkpt>
      <trkpt lat="43.26276" lon="-0.70596">
        <ele>177.6</ele>
        <time>2022-09-10T09:12:34Z</time>
      </trkpt>
      <trkpt lat="43.26286" lon="-0.70648">
        <ele>177.2</ele>
        <time>2022-09-10T09:12:41Z</time>
      </trkpt>
      <trkpt lat="43.26302" lon="-0.70703">
        <ele>176.8</ele>
        <time>2022-09-10T09:12:49Z</time>
      </trkpt>
      <trkpt lat="43.26318" lon="-0.70769">
        <ele>176.6</ele>
        <time>2022-09-10T09:12:58Z</time>
      </trkpt>
      <trkpt lat="43.26326" lon="-0.70807">
        <ele>176.4</ele>
        <time>2022-09-10T09:13:03Z</time>
      </trkpt>
      <trkpt lat="43.26335" lon="-0.70844">
        <ele>176</ele>
        <time>2022-09-10T09:13:08Z</time>
      </trkpt>
      <trkpt lat="43.26346" lon="-0.70897">
        <ele>176</ele>
        <time>2022-09-10T09:13:16Z</time>
      </trkpt>
      <trkpt lat="43.26357" lon="-0.70952">
        <ele>175.8</ele>
        <time>2022-09-10T09:13:25Z</time>
      </trkpt>
      <trkpt lat="43.26365" lon="-0.70994">
        <ele>175.4</ele>
        <time>2022-09-10T09:13:32Z</time>
      </trkpt>
      <trkpt lat="43.26366" lon="-0.71">
        <ele>175.2</ele>
        <time>2022-09-10T09:13:33Z</time>
      </trkpt>
      <trkpt lat="43.26371" lon="-0.71022">
        <ele>175</ele>
        <time>2022-09-10T09:13:38Z</time>
      </trkpt>
      <trkpt lat="43.26372" lon="-0.71052">
        <ele>175</ele>
        <time>2022-09-10T09:13:45Z</time>
      </trkpt>
      <trkpt lat="43.26374" lon="-0.71077">
        <ele>174.8</ele>
        <time>2022-09-10T09:13:50Z</time>
      </trkpt>
      <trkpt lat="43.26385" lon="-0.71096">
        <ele>174.8</ele>
        <time>2022-09-10T09:13:55Z</time>
      </trkpt>
      <trkpt lat="43.26405" lon="-0.71109">
        <ele>174.6</ele>
        <time>2022-09-10T09:14:01Z</time>
      </trkpt>
      <trkpt lat="43.26419" lon="-0.71125">
        <ele>174.6</ele>
        <time>2022-09-10T09:14:06Z</time>
      </trkpt>
      <trkpt lat="43.26419" lon="-0.71131">
        <ele>174.4</ele>
        <time>2022-09-10T09:14:07Z</time>
      </trkpt>
      <trkpt lat="43.26418" lon="-0.71142">
        <ele>174.4</ele>
        <time>2022-09-10T09:14:09Z</time>
      </trkpt>
      <trkpt lat="43.26413" lon="-0.71188">
        <ele>174.4</ele>
        <time>2022-09-10T09:14:17Z</time>
      </trkpt>
      <trkpt lat="43.26413" lon="-0.71194">
        <ele>174.4</ele>
        <time>2022-09-10T09:14:18Z</time>
      </trkpt>
      <trkpt lat="43.26414" lon="-0.71201">
        <ele>174.4</ele>
        <time>2022-09-10T09:14:19Z</time>
      </trkpt>
      <trkpt lat="43.26417" lon="-0.71225">
        <ele>174.4</ele>
        <time>2022-09-10T09:14:23Z</time>
      </trkpt>
      <trkpt lat="43.26418" lon="-0.71231">
        <ele>174.4</ele>
        <time>2022-09-10T09:14:24Z</time>
      </trkpt>
      <trkpt lat="43.2642" lon="-0.71236">
        <ele>174.4</ele>
        <time>2022-09-10T09:14:25Z</time>
      </trkpt>
      <trkpt lat="43.26423" lon="-0.71247">
        <ele>174.2</ele>
        <time>2022-09-10T09:14:27Z</time>
      </trkpt>
      <trkpt lat="43.26424" lon="-0.71264">
        <ele>174</ele>
        <time>2022-09-10T09:14:30Z</time>
      </trkpt>
      <trkpt lat="43.26425" lon="-0.71299">
        <ele>173.6</ele>
        <time>2022-09-10T09:14:37Z</time>
      </trkpt>
      <trkpt lat="43.26414" lon="-0.71318">
        <ele>173.6</ele>
        <time>2022-09-10T09:14:42Z</time>
      </trkpt>
      <trkpt lat="43.26403" lon="-0.71334">
        <ele>173.2</ele>
        <time>2022-09-10T09:14:46Z</time>
      </trkpt>
      <trkpt lat="43.26399" lon="-0.71337">
        <ele>173.4</ele>
        <time>2022-09-10T09:14:47Z</time>
      </trkpt>
      <trkpt lat="43.26395" lon="-0.71339">
        <ele>173.4</ele>
        <time>2022-09-10T09:14:48Z</time>
      </trkpt>
      <trkpt lat="43.26359" lon="-0.7136">
        <ele>173.6</ele>
        <time>2022-09-10T09:14:57Z</time>
      </trkpt>
      <trkpt lat="43.26332" lon="-0.71379">
        <ele>173.6</ele>
        <time>2022-09-10T09:15:04Z</time>
      </trkpt>
      <trkpt lat="43.26313" lon="-0.71397">
        <ele>172.8</ele>
        <time>2022-09-10T09:15:09Z</time>
      </trkpt>
      <trkpt lat="43.26308" lon="-0.71404">
        <ele>172.2</ele>
        <time>2022-09-10T09:15:10Z</time>
      </trkpt>
      <trkpt lat="43.26298" lon="-0.7142">
        <ele>170.6</ele>
        <time>2022-09-10T09:15:12Z</time>
      </trkpt>
      <trkpt lat="43.26286" lon="-0.7144">
        <ele>169</ele>
        <time>2022-09-10T09:15:14Z</time>
      </trkpt>
      <trkpt lat="43.26279" lon="-0.71451">
        <ele>167.6</ele>
        <time>2022-09-10T09:15:15Z</time>
      </trkpt>
      <trkpt lat="43.26272" lon="-0.71464">
        <ele>166</ele>
        <time>2022-09-10T09:15:16Z</time>
      </trkpt>
      <trkpt lat="43.26264" lon="-0.71476">
        <ele>165</ele>
        <time>2022-09-10T09:15:17Z</time>
      </trkpt>
      <trkpt lat="43.26256" lon="-0.71487">
        <ele>163.2</ele>
        <time>2022-09-10T09:15:18Z</time>
      </trkpt>
      <trkpt lat="43.26248" lon="-0.71497">
        <ele>162.2</ele>
        <time>2022-09-10T09:15:19Z</time>
      </trkpt>
      <trkpt lat="43.26239" lon="-0.71505">
        <ele>161.2</ele>
        <time>2022-09-10T09:15:20Z</time>
      </trkpt>
      <trkpt lat="43.26224" lon="-0.71517">
        <ele>160.2</ele>
        <time>2022-09-10T09:15:22Z</time>
      </trkpt>
      <trkpt lat="43.26218" lon="-0.71521">
        <ele>160.2</ele>
        <time>2022-09-10T09:15:23Z</time>
      </trkpt>
      <trkpt lat="43.26209" lon="-0.71531">
        <ele>159.8</ele>
        <time>2022-09-10T09:15:25Z</time>
      </trkpt>
      <trkpt lat="43.26207" lon="-0.71552">
        <ele>159</ele>
        <time>2022-09-10T09:15:27Z</time>
      </trkpt>
      <trkpt lat="43.26208" lon="-0.71569">
        <ele>159</ele>
        <time>2022-09-10T09:15:29Z</time>
      </trkpt>
      <trkpt lat="43.26207" lon="-0.71578">
        <ele>159.4</ele>
        <time>2022-09-10T09:15:30Z</time>
      </trkpt>
      <trkpt lat="43.26194" lon="-0.71588">
        <ele>160.2</ele>
        <time>2022-09-10T09:15:33Z</time>
      </trkpt>
      <trkpt lat="43.2619" lon="-0.7159">
        <ele>160.4</ele>
        <time>2022-09-10T09:15:34Z</time>
      </trkpt>
      <trkpt lat="43.2618" lon="-0.71593">
        <ele>161.4</ele>
        <time>2022-09-10T09:15:37Z</time>
      </trkpt>
      <trkpt lat="43.26178" lon="-0.71594">
        <ele>161.8</ele>
        <time>2022-09-10T09:15:38Z</time>
      </trkpt>
      <trkpt lat="43.26174" lon="-0.71596">
        <ele>162.4</ele>
        <time>2022-09-10T09:15:40Z</time>
      </trkpt>
      <trkpt lat="43.26167" lon="-0.71598">
        <ele>163.4</ele>
        <time>2022-09-10T09:15:44Z</time>
      </trkpt>
      <trkpt lat="43.26166" lon="-0.71599">
        <ele>163.6</ele>
        <time>2022-09-10T09:15:45Z</time>
      </trkpt>
      <trkpt lat="43.2616" lon="-0.71601">
        <ele>165</ele>
        <time>2022-09-10T09:15:49Z</time>
      </trkpt>
      <trkpt lat="43.26156" lon="-0.71602">
        <ele>165.6</ele>
        <time>2022-09-10T09:15:52Z</time>
      </trkpt>
      <trkpt lat="43.26153" lon="-0.71603">
        <ele>166</ele>
        <time>2022-09-10T09:15:54Z</time>
      </trkpt>
      <trkpt lat="43.26147" lon="-0.71606">
        <ele>167</ele>
        <time>2022-09-10T09:15:59Z</time>
      </trkpt>
      <trkpt lat="43.26146" lon="-0.71606">
        <ele>167.2</ele>
        <time>2022-09-10T09:16:00Z</time>
      </trkpt>
      <trkpt lat="43.26138" lon="-0.7161">
        <ele>168.2</ele>
        <time>2022-09-10T09:16:06Z</time>
      </trkpt>
      <trkpt lat="43.26135" lon="-0.7161">
        <ele>168.6</ele>
        <time>2022-09-10T09:16:08Z</time>
      </trkpt>
      <trkpt lat="43.26132" lon="-0.7161">
        <ele>168.8</ele>
        <time>2022-09-10T09:16:10Z</time>
      </trkpt>
      <trkpt lat="43.26129" lon="-0.71612">
        <ele>169.4</ele>
        <time>2022-09-10T09:16:12Z</time>
      </trkpt>
      <trkpt lat="43.26127" lon="-0.71613">
        <ele>169.8</ele>
        <time>2022-09-10T09:16:13Z</time>
      </trkpt>
      <trkpt lat="43.26126" lon="-0.71614">
        <ele>170</ele>
        <time>2022-09-10T09:16:14Z</time>
      </trkpt>
      <trkpt lat="43.26121" lon="-0.71617">
        <ele>170.6</ele>
        <time>2022-09-10T09:16:17Z</time>
      </trkpt>
      <trkpt lat="43.26114" lon="-0.7162">
        <ele>171.2</ele>
        <time>2022-09-10T09:16:22Z</time>
      </trkpt>
      <trkpt lat="43.26111" lon="-0.71623">
        <ele>171.6</ele>
        <time>2022-09-10T09:16:24Z</time>
      </trkpt>
      <trkpt lat="43.26102" lon="-0.71628">
        <ele>172.2</ele>
        <time>2022-09-10T09:16:29Z</time>
      </trkpt>
      <trkpt lat="43.26095" lon="-0.71633">
        <ele>172.6</ele>
        <time>2022-09-10T09:16:33Z</time>
      </trkpt>
      <trkpt lat="43.26086" lon="-0.71638">
        <ele>173</ele>
        <time>2022-09-10T09:16:37Z</time>
      </trkpt>
      <trkpt lat="43.26072" lon="-0.71644">
        <ele>173.6</ele>
        <time>2022-09-10T09:16:43Z</time>
      </trkpt>
      <trkpt lat="43.26069" lon="-0.71645">
        <ele>173.6</ele>
        <time>2022-09-10T09:16:44Z</time>
      </trkpt>
      <trkpt lat="43.2605" lon="-0.71651">
        <ele>174</ele>
        <time>2022-09-10T09:16:51Z</time>
      </trkpt>
      <trkpt lat="43.26023" lon="-0.71668">
        <ele>174.2</ele>
        <time>2022-09-10T09:17:00Z</time>
      </trkpt>
      <trkpt lat="43.2602" lon="-0.71668">
        <ele>174.2</ele>
        <time>2022-09-10T09:17:01Z</time>
      </trkpt>
      <trkpt lat="43.26012" lon="-0.71673">
        <ele>174.2</ele>
        <time>2022-09-10T09:17:04Z</time>
      </trkpt>
      <trkpt lat="43.26002" lon="-0.7168">
        <ele>174.4</ele>
        <time>2022-09-10T09:17:07Z</time>
      </trkpt>
      <trkpt lat="43.25989" lon="-0.71687">
        <ele>174.2</ele>
        <time>2022-09-10T09:17:11Z</time>
      </trkpt>
      <trkpt lat="43.25964" lon="-0.71702">
        <ele>174.4</ele>
        <time>2022-09-10T09:17:19Z</time>
      </trkpt>
      <trkpt lat="43.25931" lon="-0.71719">
        <ele>173.6</ele>
        <time>2022-09-10T09:17:28Z</time>
      </trkpt>
      <trkpt lat="43.25893" lon="-0.71746">
        <ele>172.8</ele>
        <time>2022-09-10T09:17:37Z</time>
      </trkpt>
      <trkpt lat="43.25882" lon="-0.71759">
        <ele>172.8</ele>
        <time>2022-09-10T09:17:40Z</time>
      </trkpt>
      <trkpt lat="43.25877" lon="-0.71768">
        <ele>172.8</ele>
        <time>2022-09-10T09:17:42Z</time>
      </trkpt>
      <trkpt lat="43.25867" lon="-0.71789">
        <ele>174.2</ele>
        <time>2022-09-10T09:17:48Z</time>
      </trkpt>
      <trkpt lat="43.25865" lon="-0.71796">
        <ele>174.8</ele>
        <time>2022-09-10T09:17:50Z</time>
      </trkpt>
      <trkpt lat="43.25862" lon="-0.71817">
        <ele>175.6</ele>
        <time>2022-09-10T09:17:56Z</time>
      </trkpt>
      <trkpt lat="43.25862" lon="-0.7182">
        <ele>175.8</ele>
        <time>2022-09-10T09:17:57Z</time>
      </trkpt>
      <trkpt lat="43.25866" lon="-0.71837">
        <ele>176</ele>
        <time>2022-09-10T09:18:03Z</time>
      </trkpt>
      <trkpt lat="43.25861" lon="-0.7185">
        <ele>176.2</ele>
        <time>2022-09-10T09:18:07Z</time>
      </trkpt>
      <trkpt lat="43.25857" lon="-0.71854">
        <ele>176</ele>
        <time>2022-09-10T09:18:08Z</time>
      </trkpt>
      <trkpt lat="43.25854" lon="-0.71858">
        <ele>175.6</ele>
        <time>2022-09-10T09:18:10Z</time>
      </trkpt>
      <trkpt lat="43.25849" lon="-0.71861">
        <ele>175.2</ele>
        <time>2022-09-10T09:18:11Z</time>
      </trkpt>
      <trkpt lat="43.25846" lon="-0.7187">
        <ele>175</ele>
        <time>2022-09-10T09:18:13Z</time>
      </trkpt>
      <trkpt lat="43.2585" lon="-0.71882">
        <ele>176</ele>
        <time>2022-09-10T09:18:17Z</time>
      </trkpt>
      <trkpt lat="43.25854" lon="-0.71896">
        <ele>176.8</ele>
        <time>2022-09-10T09:18:23Z</time>
      </trkpt>
      <trkpt lat="43.25855" lon="-0.71898">
        <ele>177</ele>
        <time>2022-09-10T09:18:24Z</time>
      </trkpt>
      <trkpt lat="43.25857" lon="-0.71907">
        <ele>178</ele>
        <time>2022-09-10T09:18:28Z</time>
      </trkpt>
      <trkpt lat="43.25861" lon="-0.71915">
        <ele>178.6</ele>
        <time>2022-09-10T09:18:32Z</time>
      </trkpt>
      <trkpt lat="43.25862" lon="-0.71919">
        <ele>179</ele>
        <time>2022-09-10T09:18:34Z</time>
      </trkpt>
      <trkpt lat="43.25865" lon="-0.71927">
        <ele>180.2</ele>
        <time>2022-09-10T09:18:39Z</time>
      </trkpt>
      <trkpt lat="43.2587" lon="-0.7194">
        <ele>181.4</ele>
        <time>2022-09-10T09:18:46Z</time>
      </trkpt>
      <trkpt lat="43.25871" lon="-0.71944">
        <ele>181.8</ele>
        <time>2022-09-10T09:18:48Z</time>
      </trkpt>
      <trkpt lat="43.25874" lon="-0.71951">
        <ele>182.4</ele>
        <time>2022-09-10T09:18:52Z</time>
      </trkpt>
      <trkpt lat="43.25876" lon="-0.71959">
        <ele>183</ele>
        <time>2022-09-10T09:18:56Z</time>
      </trkpt>
      <trkpt lat="43.25878" lon="-0.71965">
        <ele>183.6</ele>
        <time>2022-09-10T09:18:59Z</time>
      </trkpt>
      <trkpt lat="43.25879" lon="-0.71975">
        <ele>184.6</ele>
        <time>2022-09-10T09:19:04Z</time>
      </trkpt>
      <trkpt lat="43.25879" lon="-0.71977">
        <ele>184.8</ele>
        <time>2022-09-10T09:19:05Z</time>
      </trkpt>
      <trkpt lat="43.25878" lon="-0.71989">
        <ele>185.8</ele>
        <time>2022-09-10T09:19:11Z</time>
      </trkpt>
      <trkpt lat="43.25877" lon="-0.71995">
        <ele>186.4</ele>
        <time>2022-09-10T09:19:14Z</time>
      </trkpt>
      <trkpt lat="43.25875" lon="-0.72001">
        <ele>187</ele>
        <time>2022-09-10T09:19:17Z</time>
      </trkpt>
      <trkpt lat="43.25873" lon="-0.72003">
        <ele>187.2</ele>
        <time>2022-09-10T09:19:19Z</time>
      </trkpt>
      <trkpt lat="43.25871" lon="-0.72006">
        <ele>187.6</ele>
        <time>2022-09-10T09:19:21Z</time>
      </trkpt>
      <trkpt lat="43.25868" lon="-0.7201">
        <ele>188</ele>
        <time>2022-09-10T09:19:24Z</time>
      </trkpt>
      <trkpt lat="43.25862" lon="-0.72016">
        <ele>189.2</ele>
        <time>2022-09-10T09:19:30Z</time>
      </trkpt>
      <trkpt lat="43.25858" lon="-0.7202">
        <ele>190.2</ele>
        <time>2022-09-10T09:19:36Z</time>
      </trkpt>
      <trkpt lat="43.25855" lon="-0.72022">
        <ele>190.8</ele>
        <time>2022-09-10T09:19:39Z</time>
      </trkpt>
      <trkpt lat="43.25851" lon="-0.72024">
        <ele>191.4</ele>
        <time>2022-09-10T09:19:42Z</time>
      </trkpt>
      <trkpt lat="43.2585" lon="-0.72025">
        <ele>191.6</ele>
        <time>2022-09-10T09:19:43Z</time>
      </trkpt>
      <trkpt lat="43.25844" lon="-0.72029">
        <ele>192.6</ele>
        <time>2022-09-10T09:19:48Z</time>
      </trkpt>
      <trkpt lat="43.2584" lon="-0.72032">
        <ele>193.6</ele>
        <time>2022-09-10T09:19:51Z</time>
      </trkpt>
      <trkpt lat="43.25839" lon="-0.72033">
        <ele>193.6</ele>
        <time>2022-09-10T09:19:52Z</time>
      </trkpt>
      <trkpt lat="43.25835" lon="-0.7204">
        <ele>194.6</ele>
        <time>2022-09-10T09:19:57Z</time>
      </trkpt>
      <trkpt lat="43.25834" lon="-0.72041">
        <ele>194.8</ele>
        <time>2022-09-10T09:19:58Z</time>
      </trkpt>
      <trkpt lat="43.25833" lon="-0.72042">
        <ele>195</ele>
        <time>2022-09-10T09:19:59Z</time>
      </trkpt>
      <trkpt lat="43.25829" lon="-0.72051">
        <ele>195.8</ele>
        <time>2022-09-10T09:20:04Z</time>
      </trkpt>
      <trkpt lat="43.25827" lon="-0.72052">
        <ele>196</ele>
        <time>2022-09-10T09:20:05Z</time>
      </trkpt>
      <trkpt lat="43.25821" lon="-0.72066">
        <ele>196.8</ele>
        <time>2022-09-10T09:20:12Z</time>
      </trkpt>
      <trkpt lat="43.25815" lon="-0.72086">
        <ele>197.6</ele>
        <time>2022-09-10T09:20:20Z</time>
      </trkpt>
      <trkpt lat="43.25811" lon="-0.72097">
        <ele>197.8</ele>
        <time>2022-09-10T09:20:24Z</time>
      </trkpt>
      <trkpt lat="43.25807" lon="-0.72112">
        <ele>198.4</ele>
        <time>2022-09-10T09:20:29Z</time>
      </trkpt>
      <trkpt lat="43.25798" lon="-0.72141">
        <ele>198.8</ele>
        <time>2022-09-10T09:20:38Z</time>
      </trkpt>
      <trkpt lat="43.25797" lon="-0.72144">
        <ele>199</ele>
        <time>2022-09-10T09:20:39Z</time>
      </trkpt>
      <trkpt lat="43.25789" lon="-0.72168">
        <ele>199.2</ele>
        <time>2022-09-10T09:20:46Z</time>
      </trkpt>
      <trkpt lat="43.25783" lon="-0.72186">
        <ele>199</ele>
        <time>2022-09-10T09:20:51Z</time>
      </trkpt>
      <trkpt lat="43.25778" lon="-0.72206">
        <ele>198.6</ele>
        <time>2022-09-10T09:20:55Z</time>
      </trkpt>
      <trkpt lat="43.25777" lon="-0.72211">
        <ele>198.4</ele>
        <time>2022-09-10T09:20:56Z</time>
      </trkpt>
      <trkpt lat="43.25769" lon="-0.72233">
        <ele>197.6</ele>
        <time>2022-09-10T09:21:01Z</time>
      </trkpt>
      <trkpt lat="43.25766" lon="-0.72242">
        <ele>197</ele>
        <time>2022-09-10T09:21:03Z</time>
      </trkpt>
      <trkpt lat="43.25761" lon="-0.72253">
        <ele>196.6</ele>
        <time>2022-09-10T09:21:05Z</time>
      </trkpt>
      <trkpt lat="43.25758" lon="-0.72259">
        <ele>196.2</ele>
        <time>2022-09-10T09:21:06Z</time>
      </trkpt>
      <trkpt lat="43.25751" lon="-0.72271">
        <ele>195.4</ele>
        <time>2022-09-10T09:21:08Z</time>
      </trkpt>
      <trkpt lat="43.25748" lon="-0.72277">
        <ele>195.2</ele>
        <time>2022-09-10T09:21:09Z</time>
      </trkpt>
      <trkpt lat="43.25743" lon="-0.72292">
        <ele>194.6</ele>
        <time>2022-09-10T09:21:11Z</time>
      </trkpt>
      <trkpt lat="43.25739" lon="-0.72317">
        <ele>194.4</ele>
        <time>2022-09-10T09:21:14Z</time>
      </trkpt>
      <trkpt lat="43.25738" lon="-0.72334">
        <ele>194</ele>
        <time>2022-09-10T09:21:16Z</time>
      </trkpt>
      <trkpt lat="43.25738" lon="-0.72342">
        <ele>193.8</ele>
        <time>2022-09-10T09:21:17Z</time>
      </trkpt>
      <trkpt lat="43.25738" lon="-0.72358">
        <ele>193.6</ele>
        <time>2022-09-10T09:21:19Z</time>
      </trkpt>
      <trkpt lat="43.2573" lon="-0.72391">
        <ele>193.6</ele>
        <time>2022-09-10T09:21:24Z</time>
      </trkpt>
      <trkpt lat="43.25713" lon="-0.72428">
        <ele>193.6</ele>
        <time>2022-09-10T09:21:31Z</time>
      </trkpt>
      <trkpt lat="43.25694" lon="-0.72467">
        <ele>194.4</ele>
        <time>2022-09-10T09:21:40Z</time>
      </trkpt>
      <trkpt lat="43.25684" lon="-0.72489">
        <ele>195.2</ele>
        <time>2022-09-10T09:21:46Z</time>
      </trkpt>
      <trkpt lat="43.25682" lon="-0.72493">
        <ele>195.2</ele>
        <time>2022-09-10T09:21:47Z</time>
      </trkpt>
      <trkpt lat="43.25671" lon="-0.72513">
        <ele>196.2</ele>
        <time>2022-09-10T09:21:53Z</time>
      </trkpt>
      <trkpt lat="43.25669" lon="-0.72517">
        <ele>196.4</ele>
        <time>2022-09-10T09:21:54Z</time>
      </trkpt>
      <trkpt lat="43.25659" lon="-0.7254">
        <ele>197.2</ele>
        <time>2022-09-10T09:22:00Z</time>
      </trkpt>
      <trkpt lat="43.25657" lon="-0.72545">
        <ele>197.4</ele>
        <time>2022-09-10T09:22:01Z</time>
      </trkpt>
      <trkpt lat="43.2565" lon="-0.72569">
        <ele>198.2</ele>
        <time>2022-09-10T09:22:07Z</time>
      </trkpt>
      <trkpt lat="43.25648" lon="-0.72573">
        <ele>198.4</ele>
        <time>2022-09-10T09:22:08Z</time>
      </trkpt>
      <trkpt lat="43.25636" lon="-0.72609">
        <ele>199.2</ele>
        <time>2022-09-10T09:22:17Z</time>
      </trkpt>
      <trkpt lat="43.25635" lon="-0.72613">
        <ele>199.4</ele>
        <time>2022-09-10T09:22:18Z</time>
      </trkpt>
      <trkpt lat="43.25621" lon="-0.72648">
        <ele>200.2</ele>
        <time>2022-09-10T09:22:27Z</time>
      </trkpt>
      <trkpt lat="43.25614" lon="-0.72662">
        <ele>200.6</ele>
        <time>2022-09-10T09:22:31Z</time>
      </trkpt>
      <trkpt lat="43.25611" lon="-0.72671">
        <ele>200.8</ele>
        <time>2022-09-10T09:22:34Z</time>
      </trkpt>
      <trkpt lat="43.25602" lon="-0.7269">
        <ele>201.2</ele>
        <time>2022-09-10T09:22:40Z</time>
      </trkpt>
      <trkpt lat="43.25597" lon="-0.72704">
        <ele>201.6</ele>
        <time>2022-09-10T09:22:44Z</time>
      </trkpt>
      <trkpt lat="43.25587" lon="-0.72725">
        <ele>202.2</ele>
        <time>2022-09-10T09:22:50Z</time>
      </trkpt>
      <trkpt lat="43.25579" lon="-0.72745">
        <ele>202.8</ele>
        <time>2022-09-10T09:22:56Z</time>
      </trkpt>
      <trkpt lat="43.25574" lon="-0.72756">
        <ele>203</ele>
        <time>2022-09-10T09:22:59Z</time>
      </trkpt>
      <trkpt lat="43.25566" lon="-0.72785">
        <ele>203.8</ele>
        <time>2022-09-10T09:23:07Z</time>
      </trkpt>
      <trkpt lat="43.25567" lon="-0.72792">
        <ele>203.8</ele>
        <time>2022-09-10T09:23:09Z</time>
      </trkpt>
      <trkpt lat="43.25572" lon="-0.72802">
        <ele>204.2</ele>
        <time>2022-09-10T09:23:12Z</time>
      </trkpt>
      <trkpt lat="43.25583" lon="-0.72818">
        <ele>204.4</ele>
        <time>2022-09-10T09:23:18Z</time>
      </trkpt>
      <trkpt lat="43.25584" lon="-0.72825">
        <ele>204.4</ele>
        <time>2022-09-10T09:23:21Z</time>
      </trkpt>
      <trkpt lat="43.25583" lon="-0.72828">
        <ele>204.4</ele>
        <time>2022-09-10T09:23:23Z</time>
      </trkpt>
      <trkpt lat="43.25581" lon="-0.7283">
        <ele>204.8</ele>
        <time>2022-09-10T09:24:40Z</time>
      </trkpt>
      <trkpt lat="43.25577" lon="-0.72833">
        <ele>204.8</ele>
        <time>2022-09-10T09:24:42Z</time>
      </trkpt>
      <trkpt lat="43.25576" lon="-0.72835">
        <ele>205</ele>
        <time>2022-09-10T09:24:43Z</time>
      </trkpt>
      <trkpt lat="43.25564" lon="-0.72849">
        <ele>205.6</ele>
        <time>2022-09-10T09:24:50Z</time>
      </trkpt>
      <trkpt lat="43.2556" lon="-0.72853">
        <ele>206.2</ele>
        <time>2022-09-10T09:24:52Z</time>
      </trkpt>
      <trkpt lat="43.2555" lon="-0.72865">
        <ele>206.8</ele>
        <time>2022-09-10T09:24:58Z</time>
      </trkpt>
      <trkpt lat="43.25545" lon="-0.72871">
        <ele>207.2</ele>
        <time>2022-09-10T09:25:01Z</time>
      </trkpt>
      <trkpt lat="43.25537" lon="-0.72881">
        <ele>207.6</ele>
        <time>2022-09-10T09:25:06Z</time>
      </trkpt>
      <trkpt lat="43.25529" lon="-0.72891">
        <ele>207.8</ele>
        <time>2022-09-10T09:25:12Z</time>
      </trkpt>
      <trkpt lat="43.25517" lon="-0.729">
        <ele>207</ele>
        <time>2022-09-10T09:25:17Z</time>
      </trkpt>
      <trkpt lat="43.25506" lon="-0.72903">
        <ele>206</ele>
        <time>2022-09-10T09:25:20Z</time>
      </trkpt>
      <trkpt lat="43.25499" lon="-0.72904">
        <ele>205.2</ele>
        <time>2022-09-10T09:25:22Z</time>
      </trkpt>
      <trkpt lat="43.25495" lon="-0.72904">
        <ele>204.8</ele>
        <time>2022-09-10T09:25:23Z</time>
      </trkpt>
      <trkpt lat="43.25489" lon="-0.72903">
        <ele>203.6</ele>
        <time>2022-09-10T09:25:25Z</time>
      </trkpt>
      <trkpt lat="43.25486" lon="-0.72903">
        <ele>202.6</ele>
        <time>2022-09-10T09:25:26Z</time>
      </trkpt>
      <trkpt lat="43.25483" lon="-0.72903">
        <ele>202.2</ele>
        <time>2022-09-10T09:25:27Z</time>
      </trkpt>
      <trkpt lat="43.25475" lon="-0.72905">
        <ele>201.2</ele>
        <time>2022-09-10T09:25:30Z</time>
      </trkpt>
      <trkpt lat="43.25469" lon="-0.72905">
        <ele>200.8</ele>
        <time>2022-09-10T09:25:32Z</time>
      </trkpt>
      <trkpt lat="43.25461" lon="-0.72917">
        <ele>200.4</ele>
        <time>2022-09-10T09:25:41Z</time>
      </trkpt>
      <trkpt lat="43.25459" lon="-0.72919">
        <ele>200.2</ele>
        <time>2022-09-10T09:25:42Z</time>
      </trkpt>
      <trkpt lat="43.25452" lon="-0.7293">
        <ele>198.8</ele>
        <time>2022-09-10T09:25:46Z</time>
      </trkpt>
      <trkpt lat="43.25446" lon="-0.72937">
        <ele>197.8</ele>
        <time>2022-09-10T09:25:50Z</time>
      </trkpt>
      <trkpt lat="43.25405" lon="-0.73013">
        <ele>186.4</ele>
        <time>2022-09-10T09:26:26Z</time>
      </trkpt>
      <trkpt lat="43.25403" lon="-0.73019">
        <ele>185.6</ele>
        <time>2022-09-10T09:26:28Z</time>
      </trkpt>
      <trkpt lat="43.25402" lon="-0.73026">
        <ele>185</ele>
        <time>2022-09-10T09:26:30Z</time>
      </trkpt>
      <trkpt lat="43.254" lon="-0.73038">
        <ele>184</ele>
        <time>2022-09-10T09:26:33Z</time>
      </trkpt>
      <trkpt lat="43.25402" lon="-0.73051">
        <ele>182.8</ele>
        <time>2022-09-10T09:26:37Z</time>
      </trkpt>
      <trkpt lat="43.25403" lon="-0.73055">
        <ele>182.2</ele>
        <time>2022-09-10T09:26:38Z</time>
      </trkpt>
      <trkpt lat="43.25403" lon="-0.73059">
        <ele>181.8</ele>
        <time>2022-09-10T09:26:39Z</time>
      </trkpt>
      <trkpt lat="43.25405" lon="-0.73073">
        <ele>180.8</ele>
        <time>2022-09-10T09:26:43Z</time>
      </trkpt>
      <trkpt lat="43.25405" lon="-0.73076">
        <ele>180.4</ele>
        <time>2022-09-10T09:26:44Z</time>
      </trkpt>
      <trkpt lat="43.25406" lon="-0.73078">
        <ele>180.2</ele>
        <time>2022-09-10T09:26:45Z</time>
      </trkpt>
      <trkpt lat="43.25407" lon="-0.73084">
        <ele>179.6</ele>
        <time>2022-09-10T09:26:47Z</time>
      </trkpt>
      <trkpt lat="43.25408" lon="-0.73093">
        <ele>179</ele>
        <time>2022-09-10T09:26:51Z</time>
      </trkpt>
      <trkpt lat="43.25408" lon="-0.73096">
        <ele>178.6</ele>
        <time>2022-09-10T09:26:52Z</time>
      </trkpt>
      <trkpt lat="43.25409" lon="-0.73098">
        <ele>178.4</ele>
        <time>2022-09-10T09:26:53Z</time>
      </trkpt>
      <trkpt lat="43.25411" lon="-0.73105">
        <ele>177.4</ele>
        <time>2022-09-10T09:26:56Z</time>
      </trkpt>
      <trkpt lat="43.25411" lon="-0.73107">
        <ele>177.2</ele>
        <time>2022-09-10T09:26:57Z</time>
      </trkpt>
      <trkpt lat="43.25413" lon="-0.73114">
        <ele>176.2</ele>
        <time>2022-09-10T09:27:00Z</time>
      </trkpt>
      <trkpt lat="43.25415" lon="-0.73122">
        <ele>175</ele>
        <time>2022-09-10T09:27:03Z</time>
      </trkpt>
      <trkpt lat="43.25418" lon="-0.73133">
        <ele>173.8</ele>
        <time>2022-09-10T09:27:08Z</time>
      </trkpt>
      <trkpt lat="43.2542" lon="-0.73139">
        <ele>173.2</ele>
        <time>2022-09-10T09:27:10Z</time>
      </trkpt>
      <trkpt lat="43.2542" lon="-0.73141">
        <ele>172.8</ele>
        <time>2022-09-10T09:27:12Z</time>
      </trkpt>
      <trkpt lat="43.2542" lon="-0.73151">
        <ele>172</ele>
        <time>2022-09-10T09:27:15Z</time>
      </trkpt>
      <trkpt lat="43.25414" lon="-0.7316">
        <ele>167.8</ele>
        <time>2022-09-10T09:28:17Z</time>
      </trkpt>
      <trkpt lat="43.254" lon="-0.73175">
        <ele>167.2</ele>
        <time>2022-09-10T09:28:22Z</time>
      </trkpt>
      <trkpt lat="43.25388" lon="-0.73184">
        <ele>167.4</ele>
        <time>2022-09-10T09:28:27Z</time>
      </trkpt>
      <trkpt lat="43.25386" lon="-0.73187">
        <ele>167.6</ele>
        <time>2022-09-10T09:28:28Z</time>
      </trkpt>
      <trkpt lat="43.25374" lon="-0.73202">
        <ele>168.4</ele>
        <time>2022-09-10T09:28:35Z</time>
      </trkpt>
      <trkpt lat="43.25374" lon="-0.73204">
        <ele>168.6</ele>
        <time>2022-09-10T09:28:36Z</time>
      </trkpt>
      <trkpt lat="43.25373" lon="-0.73205">
        <ele>169</ele>
        <time>2022-09-10T09:28:38Z</time>
      </trkpt>
      <trkpt lat="43.25342" lon="-0.73352">
        <ele>187</ele>
        <time>2022-09-10T09:32:41Z</time>
      </trkpt>
      <trkpt lat="43.25332" lon="-0.7336">
        <ele>188.2</ele>
        <time>2022-09-10T09:32:48Z</time>
      </trkpt>
      <trkpt lat="43.25331" lon="-0.73361">
        <ele>188.4</ele>
        <time>2022-09-10T09:32:49Z</time>
      </trkpt>
      <trkpt lat="43.25326" lon="-0.73364">
        <ele>189.2</ele>
        <time>2022-09-10T09:32:53Z</time>
      </trkpt>
      <trkpt lat="43.25324" lon="-0.73367">
        <ele>189.6</ele>
        <time>2022-09-10T09:32:55Z</time>
      </trkpt>
      <trkpt lat="43.25318" lon="-0.73373">
        <ele>190.2</ele>
        <time>2022-09-10T09:32:59Z</time>
      </trkpt>
      <trkpt lat="43.25312" lon="-0.7338">
        <ele>190.8</ele>
        <time>2022-09-10T09:33:03Z</time>
      </trkpt>
      <trkpt lat="43.25303" lon="-0.73391">
        <ele>191.4</ele>
        <time>2022-09-10T09:33:09Z</time>
      </trkpt>
      <trkpt lat="43.25294" lon="-0.73406">
        <ele>192.2</ele>
        <time>2022-09-10T09:33:16Z</time>
      </trkpt>
      <trkpt lat="43.25293" lon="-0.73408">
        <ele>192.4</ele>
        <time>2022-09-10T09:33:17Z</time>
      </trkpt>
      <trkpt lat="43.25285" lon="-0.7342">
        <ele>193.4</ele>
        <time>2022-09-10T09:33:23Z</time>
      </trkpt>
      <trkpt lat="43.25284" lon="-0.73422">
        <ele>193.6</ele>
        <time>2022-09-10T09:33:24Z</time>
      </trkpt>
      <trkpt lat="43.25277" lon="-0.73434">
        <ele>194.6</ele>
        <time>2022-09-10T09:33:30Z</time>
      </trkpt>
      <trkpt lat="43.25276" lon="-0.73436">
        <ele>194.8</ele>
        <time>2022-09-10T09:33:31Z</time>
      </trkpt>
      <trkpt lat="43.25272" lon="-0.73442">
        <ele>195</ele>
        <time>2022-09-10T09:33:34Z</time>
      </trkpt>
      <trkpt lat="43.25269" lon="-0.73449">
        <ele>195.4</ele>
        <time>2022-09-10T09:33:37Z</time>
      </trkpt>
      <trkpt lat="43.25267" lon="-0.73453">
        <ele>195.4</ele>
        <time>2022-09-10T09:33:39Z</time>
      </trkpt>
      <trkpt lat="43.25265" lon="-0.73458">
        <ele>195.6</ele>
        <time>2022-09-10T09:33:41Z</time>
      </trkpt>
      <trkpt lat="43.25262" lon="-0.73464">
        <ele>195.8</ele>
        <time>2022-09-10T09:33:43Z</time>
      </trkpt>
      <trkpt lat="43.25252" lon="-0.73478">
        <ele>196.8</ele>
        <time>2022-09-10T09:33:49Z</time>
      </trkpt>
      <trkpt lat="43.25249" lon="-0.73482">
        <ele>197</ele>
        <time>2022-09-10T09:33:51Z</time>
      </trkpt>
      <trkpt lat="43.25237" lon="-0.73502">
        <ele>197.2</ele>
        <time>2022-09-10T09:33:59Z</time>
      </trkpt>
      <trkpt lat="43.25222" lon="-0.73528">
        <ele>197.4</ele>
        <time>2022-09-10T09:34:08Z</time>
      </trkpt>
      <trkpt lat="43.25217" lon="-0.73536">
        <ele>197.8</ele>
        <time>2022-09-10T09:34:11Z</time>
      </trkpt>
      <trkpt lat="43.25213" lon="-0.73545">
        <ele>198.2</ele>
        <time>2022-09-10T09:34:14Z</time>
      </trkpt>
      <trkpt lat="43.252" lon="-0.73568">
        <ele>199</ele>
        <time>2022-09-10T09:34:22Z</time>
      </trkpt>
      <trkpt lat="43.25188" lon="-0.7359">
        <ele>199.6</ele>
        <time>2022-09-10T09:34:29Z</time>
      </trkpt>
      <trkpt lat="43.25173" lon="-0.73617">
        <ele>199.8</ele>
        <time>2022-09-10T09:34:37Z</time>
      </trkpt>
      <trkpt lat="43.25168" lon="-0.73627">
        <ele>200</ele>
        <time>2022-09-10T09:34:40Z</time>
      </trkpt>
      <trkpt lat="43.25164" lon="-0.73635">
        <ele>200.4</ele>
        <time>2022-09-10T09:34:43Z</time>
      </trkpt>
      <trkpt lat="43.2515" lon="-0.73657">
        <ele>201</ele>
        <time>2022-09-10T09:34:51Z</time>
      </trkpt>
      <trkpt lat="43.25133" lon="-0.73684">
        <ele>202</ele>
        <time>2022-09-10T09:35:00Z</time>
      </trkpt>
      <trkpt lat="43.2512" lon="-0.73704">
        <ele>202.6</ele>
        <time>2022-09-10T09:35:08Z</time>
      </trkpt>
      <trkpt lat="43.25107" lon="-0.73727">
        <ele>203</ele>
        <time>2022-09-10T09:35:15Z</time>
      </trkpt>
      <trkpt lat="43.25105" lon="-0.7373">
        <ele>203</ele>
        <time>2022-09-10T09:35:16Z</time>
      </trkpt>
      <trkpt lat="43.25097" lon="-0.73752">
        <ele>203.4</ele>
        <time>2022-09-10T09:35:22Z</time>
      </trkpt>
      <trkpt lat="43.25087" lon="-0.73775">
        <ele>204</ele>
        <time>2022-09-10T09:35:28Z</time>
      </trkpt>
      <trkpt lat="43.25084" lon="-0.73782">
        <ele>204.2</ele>
        <time>2022-09-10T09:35:30Z</time>
      </trkpt>
      <trkpt lat="43.25078" lon="-0.73796">
        <ele>204.6</ele>
        <time>2022-09-10T09:35:34Z</time>
      </trkpt>
      <trkpt lat="43.25071" lon="-0.73811">
        <ele>205.2</ele>
        <time>2022-09-10T09:35:38Z</time>
      </trkpt>
      <trkpt lat="43.25064" lon="-0.73833">
        <ele>206</ele>
        <time>2022-09-10T09:35:44Z</time>
      </trkpt>
      <trkpt lat="43.25061" lon="-0.73843">
        <ele>206.4</ele>
        <time>2022-09-10T09:35:47Z</time>
      </trkpt>
      <trkpt lat="43.25058" lon="-0.73854">
        <ele>206.2</ele>
        <time>2022-09-10T09:35:51Z</time>
      </trkpt>
      <trkpt lat="43.25052" lon="-0.73871">
        <ele>206</ele>
        <time>2022-09-10T09:35:57Z</time>
      </trkpt>
      <trkpt lat="43.2505" lon="-0.73877">
        <ele>206.2</ele>
        <time>2022-09-10T09:35:59Z</time>
      </trkpt>
      <trkpt lat="43.25045" lon="-0.73894">
        <ele>205.8</ele>
        <time>2022-09-10T09:36:04Z</time>
      </trkpt>
      <trkpt lat="43.25041" lon="-0.73903">
        <ele>206.4</ele>
        <time>2022-09-10T09:42:44Z</time>
      </trkpt>
      <trkpt lat="43.25038" lon="-0.73916">
        <ele>206.6</ele>
        <time>2022-09-10T09:42:49Z</time>
      </trkpt>
      <trkpt lat="43.25037" lon="-0.73922">
        <ele>206.8</ele>
        <time>2022-09-10T09:42:51Z</time>
      </trkpt>
      <trkpt lat="43.25036" lon="-0.73924">
        <ele>207</ele>
        <time>2022-09-10T09:42:52Z</time>
      </trkpt>
      <trkpt lat="43.25035" lon="-0.73933">
        <ele>207.4</ele>
        <time>2022-09-10T09:42:55Z</time>
      </trkpt>
      <trkpt lat="43.25033" lon="-0.73935">
        <ele>207.6</ele>
        <time>2022-09-10T09:42:56Z</time>
      </trkpt>
      <trkpt lat="43.25031" lon="-0.7394">
        <ele>207.8</ele>
        <time>2022-09-10T09:42:58Z</time>
      </trkpt>
      <trkpt lat="43.25029" lon="-0.73951">
        <ele>208.6</ele>
        <time>2022-09-10T09:43:02Z</time>
      </trkpt>
      <trkpt lat="43.25028" lon="-0.73953">
        <ele>209</ele>
        <time>2022-09-10T09:43:03Z</time>
      </trkpt>
      <trkpt lat="43.25023" lon="-0.73967">
        <ele>209.6</ele>
        <time>2022-09-10T09:43:09Z</time>
      </trkpt>
      <trkpt lat="43.25023" lon="-0.7397">
        <ele>209.8</ele>
        <time>2022-09-10T09:43:10Z</time>
      </trkpt>
      <trkpt lat="43.25018" lon="-0.73983">
        <ele>210.8</ele>
        <time>2022-09-10T09:43:16Z</time>
      </trkpt>
      <trkpt lat="43.25015" lon="-0.73989">
        <ele>211.2</ele>
        <time>2022-09-10T09:43:19Z</time>
      </trkpt>
      <trkpt lat="43.25012" lon="-0.73998">
        <ele>211.8</ele>
        <time>2022-09-10T09:43:23Z</time>
      </trkpt>
      <trkpt lat="43.2501" lon="-0.74007">
        <ele>212.2</ele>
        <time>2022-09-10T09:43:26Z</time>
      </trkpt>
      <trkpt lat="43.25009" lon="-0.74013">
        <ele>212.8</ele>
        <time>2022-09-10T09:43:29Z</time>
      </trkpt>
      <trkpt lat="43.25008" lon="-0.74019">
        <ele>213.2</ele>
        <time>2022-09-10T09:43:32Z</time>
      </trkpt>
      <trkpt lat="43.25004" lon="-0.74037">
        <ele>213.8</ele>
        <time>2022-09-10T09:43:39Z</time>
      </trkpt>
      <trkpt lat="43.25003" lon="-0.74043">
        <ele>214</ele>
        <time>2022-09-10T09:43:41Z</time>
      </trkpt>
      <trkpt lat="43.25" lon="-0.74055">
        <ele>214.6</ele>
        <time>2022-09-10T09:43:45Z</time>
      </trkpt>
      <trkpt lat="43.24996" lon="-0.74066">
        <ele>215</ele>
        <time>2022-09-10T09:43:49Z</time>
      </trkpt>
      <trkpt lat="43.24995" lon="-0.74071">
        <ele>215.4</ele>
        <time>2022-09-10T09:43:51Z</time>
      </trkpt>
      <trkpt lat="43.24991" lon="-0.74086">
        <ele>216</ele>
        <time>2022-09-10T09:43:56Z</time>
      </trkpt>
      <trkpt lat="43.24989" lon="-0.74093">
        <ele>216.4</ele>
        <time>2022-09-10T09:43:58Z</time>
      </trkpt>
      <trkpt lat="43.24985" lon="-0.74111">
        <ele>217.2</ele>
        <time>2022-09-10T09:44:04Z</time>
      </trkpt>
      <trkpt lat="43.24984" lon="-0.74113">
        <ele>217.2</ele>
        <time>2022-09-10T09:44:05Z</time>
      </trkpt>
      <trkpt lat="43.24985" lon="-0.74127">
        <ele>217.8</ele>
        <time>2022-09-10T09:44:11Z</time>
      </trkpt>
      <trkpt lat="43.24983" lon="-0.74141">
        <ele>218.2</ele>
        <time>2022-09-10T09:44:17Z</time>
      </trkpt>
      <trkpt lat="43.24982" lon="-0.74143">
        <ele>218.2</ele>
        <time>2022-09-10T09:44:18Z</time>
      </trkpt>
      <trkpt lat="43.24976" lon="-0.74158">
        <ele>218.8</ele>
        <time>2022-09-10T09:44:24Z</time>
      </trkpt>
      <trkpt lat="43.24973" lon="-0.74165">
        <ele>219.2</ele>
        <time>2022-09-10T09:44:28Z</time>
      </trkpt>
      <trkpt lat="43.2497" lon="-0.74172">
        <ele>219.8</ele>
        <time>2022-09-10T09:44:31Z</time>
      </trkpt>
      <trkpt lat="43.24964" lon="-0.74189">
        <ele>220.4</ele>
        <time>2022-09-10T09:44:37Z</time>
      </trkpt>
      <trkpt lat="43.24958" lon="-0.74207">
        <ele>221.4</ele>
        <time>2022-09-10T09:44:44Z</time>
      </trkpt>
      <trkpt lat="43.24957" lon="-0.74211">
        <ele>221.6</ele>
        <time>2022-09-10T09:44:45Z</time>
      </trkpt>
      <trkpt lat="43.24953" lon="-0.74229">
        <ele>222.4</ele>
        <time>2022-09-10T09:44:51Z</time>
      </trkpt>
      <trkpt lat="43.24952" lon="-0.7424">
        <ele>223</ele>
        <time>2022-09-10T09:44:55Z</time>
      </trkpt>
      <trkpt lat="43.24951" lon="-0.74242">
        <ele>222.8</ele>
        <time>2022-09-10T09:44:56Z</time>
      </trkpt>
      <trkpt lat="43.24948" lon="-0.74253">
        <ele>223.2</ele>
        <time>2022-09-10T09:45:00Z</time>
      </trkpt>
      <trkpt lat="43.24944" lon="-0.74268">
        <ele>223.2</ele>
        <time>2022-09-10T09:45:05Z</time>
      </trkpt>
      <trkpt lat="43.24943" lon="-0.74276">
        <ele>223</ele>
        <time>2022-09-10T09:45:08Z</time>
      </trkpt>
      <trkpt lat="43.24942" lon="-0.74284">
        <ele>223</ele>
        <time>2022-09-10T09:45:11Z</time>
      </trkpt>
      <trkpt lat="43.24938" lon="-0.74298">
        <ele>223.6</ele>
        <time>2022-09-10T09:45:16Z</time>
      </trkpt>
      <trkpt lat="43.24935" lon="-0.74306">
        <ele>224</ele>
        <time>2022-09-10T09:45:19Z</time>
      </trkpt>
      <trkpt lat="43.24933" lon="-0.74312">
        <ele>224.2</ele>
        <time>2022-09-10T09:45:21Z</time>
      </trkpt>
      <trkpt lat="43.24932" lon="-0.74318">
        <ele>224.6</ele>
        <time>2022-09-10T09:45:23Z</time>
      </trkpt>
      <trkpt lat="43.24931" lon="-0.74324">
        <ele>224.8</ele>
        <time>2022-09-10T09:45:25Z</time>
      </trkpt>
      <trkpt lat="43.24929" lon="-0.74332">
        <ele>225</ele>
        <time>2022-09-10T09:45:28Z</time>
      </trkpt>
      <trkpt lat="43.24927" lon="-0.74338">
        <ele>225.2</ele>
        <time>2022-09-10T09:45:30Z</time>
      </trkpt>
      <trkpt lat="43.24924" lon="-0.74347">
        <ele>225.4</ele>
        <time>2022-09-10T09:45:33Z</time>
      </trkpt>
      <trkpt lat="43.24921" lon="-0.74358">
        <ele>225.6</ele>
        <time>2022-09-10T09:45:36Z</time>
      </trkpt>
      <trkpt lat="43.24917" lon="-0.74367">
        <ele>225.8</ele>
        <time>2022-09-10T09:45:39Z</time>
      </trkpt>
      <trkpt lat="43.24909" lon="-0.7439">
        <ele>226.8</ele>
        <time>2022-09-10T09:45:47Z</time>
      </trkpt>
      <trkpt lat="43.24903" lon="-0.7441">
        <ele>227.8</ele>
        <time>2022-09-10T09:45:53Z</time>
      </trkpt>
      <trkpt lat="43.24902" lon="-0.74413">
        <ele>228</ele>
        <time>2022-09-10T09:45:54Z</time>
      </trkpt>
      <trkpt lat="43.24889" lon="-0.74426">
        <ele>228.8</ele>
        <time>2022-09-10T09:46:00Z</time>
      </trkpt>
      <trkpt lat="43.24883" lon="-0.74431">
        <ele>229</ele>
        <time>2022-09-10T09:46:03Z</time>
      </trkpt>
      <trkpt lat="43.24874" lon="-0.74437">
        <ele>229.4</ele>
        <time>2022-09-10T09:46:07Z</time>
      </trkpt>
      <trkpt lat="43.24866" lon="-0.74441">
        <ele>230</ele>
        <time>2022-09-10T09:46:11Z</time>
      </trkpt>
      <trkpt lat="43.2486" lon="-0.74445">
        <ele>230.2</ele>
        <time>2022-09-10T09:46:14Z</time>
      </trkpt>
      <trkpt lat="43.24846" lon="-0.74459">
        <ele>231</ele>
        <time>2022-09-10T09:46:22Z</time>
      </trkpt>
      <trkpt lat="43.24845" lon="-0.7446">
        <ele>231</ele>
        <time>2022-09-10T09:46:23Z</time>
      </trkpt>
      <trkpt lat="43.24832" lon="-0.74473">
        <ele>232</ele>
        <time>2022-09-10T09:46:31Z</time>
      </trkpt>
      <trkpt lat="43.2483" lon="-0.74474">
        <ele>232</ele>
        <time>2022-09-10T09:46:32Z</time>
      </trkpt>
      <trkpt lat="43.24818" lon="-0.74487">
        <ele>232.4</ele>
        <time>2022-09-10T09:46:39Z</time>
      </trkpt>
      <trkpt lat="43.24805" lon="-0.74498">
        <ele>233.2</ele>
        <time>2022-09-10T09:46:46Z</time>
      </trkpt>
      <trkpt lat="43.24803" lon="-0.74499">
        <ele>233.4</ele>
        <time>2022-09-10T09:46:47Z</time>
      </trkpt>
      <trkpt lat="43.24793" lon="-0.74507">
        <ele>234.4</ele>
        <time>2022-09-10T09:46:53Z</time>
      </trkpt>
      <trkpt lat="43.24792" lon="-0.74508">
        <ele>234.6</ele>
        <time>2022-09-10T09:46:54Z</time>
      </trkpt>
      <trkpt lat="43.24786" lon="-0.74513">
        <ele>235.6</ele>
        <time>2022-09-10T09:46:59Z</time>
      </trkpt>
      <trkpt lat="43.24784" lon="-0.74514">
        <ele>235.8</ele>
        <time>2022-09-10T09:47:00Z</time>
      </trkpt>
      <trkpt lat="43.24779" lon="-0.74519">
        <ele>236.6</ele>
        <time>2022-09-10T09:47:04Z</time>
      </trkpt>
      <trkpt lat="43.24774" lon="-0.74524">
        <ele>237.6</ele>
        <time>2022-09-10T09:47:08Z</time>
      </trkpt>
      <trkpt lat="43.24765" lon="-0.74533">
        <ele>238.8</ele>
        <time>2022-09-10T09:47:15Z</time>
      </trkpt>
      <trkpt lat="43.24763" lon="-0.74534">
        <ele>239.2</ele>
        <time>2022-09-10T09:47:17Z</time>
      </trkpt>
      <trkpt lat="43.24759" lon="-0.74538">
        <ele>240</ele>
        <time>2022-09-10T09:47:21Z</time>
      </trkpt>
      <trkpt lat="43.24755" lon="-0.74543">
        <ele>240.6</ele>
        <time>2022-09-10T09:47:25Z</time>
      </trkpt>
      <trkpt lat="43.24752" lon="-0.74546">
        <ele>241.2</ele>
        <time>2022-09-10T09:47:28Z</time>
      </trkpt>
      <trkpt lat="43.24748" lon="-0.7455">
        <ele>242</ele>
        <time>2022-09-10T09:47:33Z</time>
      </trkpt>
      <trkpt lat="43.24747" lon="-0.74551">
        <ele>242.2</ele>
        <time>2022-09-10T09:47:34Z</time>
      </trkpt>
      <trkpt lat="43.24746" lon="-0.74552">
        <ele>242.2</ele>
        <time>2022-09-10T09:47:35Z</time>
      </trkpt>
      <trkpt lat="43.24739" lon="-0.74556">
        <ele>243</ele>
        <time>2022-09-10T09:47:40Z</time>
      </trkpt>
      <trkpt lat="43.24738" lon="-0.74557">
        <ele>243.2</ele>
        <time>2022-09-10T09:47:41Z</time>
      </trkpt>
      <trkpt lat="43.24728" lon="-0.74567">
        <ele>243.8</ele>
        <time>2022-09-10T09:47:49Z</time>
      </trkpt>
      <trkpt lat="43.24722" lon="-0.74572">
        <ele>244.2</ele>
        <time>2022-09-10T09:47:53Z</time>
      </trkpt>
      <trkpt lat="43.24712" lon="-0.74578">
        <ele>244.4</ele>
        <time>2022-09-10T09:47:57Z</time>
      </trkpt>
      <trkpt lat="43.247" lon="-0.74574">
        <ele>245</ele>
        <time>2022-09-10T09:48:02Z</time>
      </trkpt>
      <trkpt lat="43.24696" lon="-0.7457">
        <ele>245.2</ele>
        <time>2022-09-10T09:48:04Z</time>
      </trkpt>
      <trkpt lat="43.2469" lon="-0.74562">
        <ele>245.2</ele>
        <time>2022-09-10T09:48:08Z</time>
      </trkpt>
      <trkpt lat="43.24679" lon="-0.74563">
        <ele>244.6</ele>
        <time>2022-09-10T09:48:51Z</time>
      </trkpt>
      <trkpt lat="43.24671" lon="-0.74565">
        <ele>244.4</ele>
        <time>2022-09-10T09:48:54Z</time>
      </trkpt>
      <trkpt lat="43.24664" lon="-0.74568">
        <ele>244.2</ele>
        <time>2022-09-10T09:48:56Z</time>
      </trkpt>
      <trkpt lat="43.24659" lon="-0.74572">
        <ele>244</ele>
        <time>2022-09-10T09:48:58Z</time>
      </trkpt>
      <trkpt lat="43.24649" lon="-0.74582">
        <ele>243.2</ele>
        <time>2022-09-10T09:49:03Z</time>
      </trkpt>
      <trkpt lat="43.24646" lon="-0.74584">
        <ele>243</ele>
        <time>2022-09-10T09:49:04Z</time>
      </trkpt>
      <trkpt lat="43.24637" lon="-0.74598">
        <ele>242.2</ele>
        <time>2022-09-10T09:49:08Z</time>
      </trkpt>
      <trkpt lat="43.24635" lon="-0.74602">
        <ele>242</ele>
        <time>2022-09-10T09:49:09Z</time>
      </trkpt>
      <trkpt lat="43.24626" lon="-0.74621">
        <ele>241.4</ele>
        <time>2022-09-10T09:49:13Z</time>
      </trkpt>
      <trkpt lat="43.24624" lon="-0.74631">
        <ele>241</ele>
        <time>2022-09-10T09:49:15Z</time>
      </trkpt>
      <trkpt lat="43.2462" lon="-0.74645">
        <ele>241</ele>
        <time>2022-09-10T09:49:18Z</time>
      </trkpt>
      <trkpt lat="43.24618" lon="-0.74659">
        <ele>241</ele>
        <time>2022-09-10T09:49:21Z</time>
      </trkpt>
      <trkpt lat="43.24618" lon="-0.74668">
        <ele>241.2</ele>
        <time>2022-09-10T09:49:23Z</time>
      </trkpt>
      <trkpt lat="43.24615" lon="-0.74698">
        <ele>241.6</ele>
        <time>2022-09-10T09:49:30Z</time>
      </trkpt>
      <trkpt lat="43.24604" lon="-0.74718">
        <ele>241.8</ele>
        <time>2022-09-10T09:49:35Z</time>
      </trkpt>
      <trkpt lat="43.24593" lon="-0.74732">
        <ele>242</ele>
        <time>2022-09-10T09:49:40Z</time>
      </trkpt>
      <trkpt lat="43.24587" lon="-0.74736">
        <ele>242.2</ele>
        <time>2022-09-10T09:49:42Z</time>
      </trkpt>
      <trkpt lat="43.24561" lon="-0.74745">
        <ele>242</ele>
        <time>2022-09-10T09:49:50Z</time>
      </trkpt>
      <trkpt lat="43.2454" lon="-0.74757">
        <ele>241</ele>
        <time>2022-09-10T09:49:55Z</time>
      </trkpt>
      <trkpt lat="43.24536" lon="-0.74761">
        <ele>241</ele>
        <time>2022-09-10T09:49:56Z</time>
      </trkpt>
      <trkpt lat="43.24529" lon="-0.7477">
        <ele>240.4</ele>
        <time>2022-09-10T09:49:58Z</time>
      </trkpt>
      <trkpt lat="43.24523" lon="-0.74782">
        <ele>239.6</ele>
        <time>2022-09-10T09:50:00Z</time>
      </trkpt>
      <trkpt lat="43.2452" lon="-0.74786">
        <ele>239.2</ele>
        <time>2022-09-10T09:50:01Z</time>
      </trkpt>
      <trkpt lat="43.24515" lon="-0.74797">
        <ele>238.6</ele>
        <time>2022-09-10T09:50:04Z</time>
      </trkpt>
      <trkpt lat="43.24511" lon="-0.74804">
        <ele>238.6</ele>
        <time>2022-09-10T09:50:06Z</time>
      </trkpt>
      <trkpt lat="43.245" lon="-0.74814">
        <ele>238.4</ele>
        <time>2022-09-10T09:50:10Z</time>
      </trkpt>
      <trkpt lat="43.24481" lon="-0.74827">
        <ele>237.8</ele>
        <time>2022-09-10T09:50:16Z</time>
      </trkpt>
      <trkpt lat="43.24463" lon="-0.74839">
        <ele>238.2</ele>
        <time>2022-09-10T09:50:23Z</time>
      </trkpt>
      <trkpt lat="43.24452" lon="-0.74851">
        <ele>238.2</ele>
        <time>2022-09-10T09:50:29Z</time>
      </trkpt>
      <trkpt lat="43.24445" lon="-0.74856">
        <ele>238.2</ele>
        <time>2022-09-10T09:50:34Z</time>
      </trkpt>
      <trkpt lat="43.24433" lon="-0.74856">
        <ele>238.8</ele>
        <time>2022-09-10T09:50:40Z</time>
      </trkpt>
      <trkpt lat="43.24419" lon="-0.74851">
        <ele>239.2</ele>
        <time>2022-09-10T09:50:47Z</time>
      </trkpt>
      <trkpt lat="43.24413" lon="-0.74849">
        <ele>239.8</ele>
        <time>2022-09-10T09:50:50Z</time>
      </trkpt>
      <trkpt lat="43.24409" lon="-0.74846">
        <ele>240</ele>
        <time>2022-09-10T09:50:52Z</time>
      </trkpt>
      <trkpt lat="43.24402" lon="-0.7483">
        <ele>240.8</ele>
        <time>2022-09-10T09:50:59Z</time>
      </trkpt>
      <trkpt lat="43.24398" lon="-0.74816">
        <ele>241.6</ele>
        <time>2022-09-10T09:51:05Z</time>
      </trkpt>
      <trkpt lat="43.24394" lon="-0.74806">
        <ele>241.8</ele>
        <time>2022-09-10T09:51:09Z</time>
      </trkpt>
      <trkpt lat="43.24394" lon="-0.748">
        <ele>242.4</ele>
        <time>2022-09-10T09:51:12Z</time>
      </trkpt>
      <trkpt lat="43.24393" lon="-0.74795">
        <ele>243</ele>
        <time>2022-09-10T09:51:15Z</time>
      </trkpt>
      <trkpt lat="43.24392" lon="-0.74791">
        <ele>243.2</ele>
        <time>2022-09-10T09:51:17Z</time>
      </trkpt>
      <trkpt lat="43.24386" lon="-0.74779">
        <ele>244</ele>
        <time>2022-09-10T09:51:24Z</time>
      </trkpt>
      <trkpt lat="43.24385" lon="-0.74778">
        <ele>244.2</ele>
        <time>2022-09-10T09:51:25Z</time>
      </trkpt>
      <trkpt lat="43.24381" lon="-0.74768">
        <ele>245.2</ele>
        <time>2022-09-10T09:51:30Z</time>
      </trkpt>
      <trkpt lat="43.24372" lon="-0.74752">
        <ele>245.8</ele>
        <time>2022-09-10T09:51:37Z</time>
      </trkpt>
      <trkpt lat="43.24365" lon="-0.74741">
        <ele>246.2</ele>
        <time>2022-09-10T09:51:42Z</time>
      </trkpt>
      <trkpt lat="43.24364" lon="-0.74739">
        <ele>246.4</ele>
        <time>2022-09-10T09:51:43Z</time>
      </trkpt>
      <trkpt lat="43.24355" lon="-0.74732">
        <ele>247.4</ele>
        <time>2022-09-10T09:51:49Z</time>
      </trkpt>
      <trkpt lat="43.24353" lon="-0.74732">
        <ele>247.4</ele>
        <time>2022-09-10T09:51:50Z</time>
      </trkpt>
      <trkpt lat="43.2435" lon="-0.74731">
        <ele>247.6</ele>
        <time>2022-09-10T09:51:52Z</time>
      </trkpt>
      <trkpt lat="43.24344" lon="-0.74729">
        <ele>248</ele>
        <time>2022-09-10T09:51:55Z</time>
      </trkpt>
      <trkpt lat="43.2434" lon="-0.7473">
        <ele>248.6</ele>
        <time>2022-09-10T09:51:57Z</time>
      </trkpt>
      <trkpt lat="43.24335" lon="-0.7473">
        <ele>249</ele>
        <time>2022-09-10T09:52:00Z</time>
      </trkpt>
      <trkpt lat="43.24333" lon="-0.7473">
        <ele>249.2</ele>
        <time>2022-09-10T09:52:01Z</time>
      </trkpt>
      <trkpt lat="43.24327" lon="-0.74727">
        <ele>249.6</ele>
        <time>2022-09-10T09:52:04Z</time>
      </trkpt>
      <trkpt lat="43.24323" lon="-0.74723">
        <ele>250</ele>
        <time>2022-09-10T09:52:07Z</time>
      </trkpt>
      <trkpt lat="43.24317" lon="-0.74718">
        <ele>250.4</ele>
        <time>2022-09-10T09:52:11Z</time>
      </trkpt>
      <trkpt lat="43.24314" lon="-0.74716">
        <ele>250.6</ele>
        <time>2022-09-10T09:52:13Z</time>
      </trkpt>
      <trkpt lat="43.24312" lon="-0.74714">
        <ele>250.6</ele>
        <time>2022-09-10T09:52:14Z</time>
      </trkpt>
      <trkpt lat="43.24303" lon="-0.74712">
        <ele>251.2</ele>
        <time>2022-09-10T09:52:19Z</time>
      </trkpt>
      <trkpt lat="43.24296" lon="-0.74715">
        <ele>251.8</ele>
        <time>2022-09-10T09:52:23Z</time>
      </trkpt>
      <trkpt lat="43.2429" lon="-0.74717">
        <ele>252</ele>
        <time>2022-09-10T09:52:26Z</time>
      </trkpt>
      <trkpt lat="43.24276" lon="-0.74723">
        <ele>252.4</ele>
        <time>2022-09-10T09:52:32Z</time>
      </trkpt>
      <trkpt lat="43.24272" lon="-0.74724">
        <ele>251.4</ele>
        <time>2022-09-10T09:53:16Z</time>
      </trkpt>
      <trkpt lat="43.24268" lon="-0.74725">
        <ele>251.2</ele>
        <time>2022-09-10T09:53:17Z</time>
      </trkpt>
      <trkpt lat="43.24254" lon="-0.74726">
        <ele>250.6</ele>
        <time>2022-09-10T09:53:20Z</time>
      </trkpt>
      <trkpt lat="43.24244" lon="-0.74722">
        <ele>250.2</ele>
        <time>2022-09-10T09:53:22Z</time>
      </trkpt>
      <trkpt lat="43.2424" lon="-0.74719">
        <ele>249.6</ele>
        <time>2022-09-10T09:53:23Z</time>
      </trkpt>
      <trkpt lat="43.24231" lon="-0.74715">
        <ele>248.6</ele>
        <time>2022-09-10T09:53:25Z</time>
      </trkpt>
      <trkpt lat="43.24226" lon="-0.74713">
        <ele>248.2</ele>
        <time>2022-09-10T09:53:26Z</time>
      </trkpt>
      <trkpt lat="43.24216" lon="-0.74717">
        <ele>247.2</ele>
        <time>2022-09-10T09:53:29Z</time>
      </trkpt>
      <trkpt lat="43.24206" lon="-0.74731">
        <ele>246.8</ele>
        <time>2022-09-10T09:53:33Z</time>
      </trkpt>
      <trkpt lat="43.24203" lon="-0.74735">
        <ele>246.6</ele>
        <time>2022-09-10T09:53:34Z</time>
      </trkpt>
      <trkpt lat="43.24193" lon="-0.74741">
        <ele>246.4</ele>
        <time>2022-09-10T09:53:37Z</time>
      </trkpt>
      <trkpt lat="43.24181" lon="-0.74748">
        <ele>246</ele>
        <time>2022-09-10T09:53:41Z</time>
      </trkpt>
      <trkpt lat="43.24179" lon="-0.74749">
        <ele>246</ele>
        <time>2022-09-10T09:53:42Z</time>
      </trkpt>
      <trkpt lat="43.24176" lon="-0.74759">
        <ele>246.2</ele>
        <time>2022-09-10T09:53:47Z</time>
      </trkpt>
      <trkpt lat="43.24177" lon="-0.7476">
        <ele>246.2</ele>
        <time>2022-09-10T09:53:48Z</time>
      </trkpt>
      <trkpt lat="43.24182" lon="-0.74765">
        <ele>246</ele>
        <time>2022-09-10T09:53:51Z</time>
      </trkpt>
      <trkpt lat="43.24184" lon="-0.74766">
        <ele>245.8</ele>
        <time>2022-09-10T09:53:52Z</time>
      </trkpt>
      <trkpt lat="43.24193" lon="-0.74773">
        <ele>245.8</ele>
        <time>2022-09-10T09:53:56Z</time>
      </trkpt>
      <trkpt lat="43.24204" lon="-0.74786">
        <ele>246.2</ele>
        <time>2022-09-10T09:54:01Z</time>
      </trkpt>
      <trkpt lat="43.24209" lon="-0.74794">
        <ele>247</ele>
        <time>2022-09-10T09:54:04Z</time>
      </trkpt>
      <trkpt lat="43.24213" lon="-0.74803">
        <ele>248</ele>
        <time>2022-09-10T09:54:07Z</time>
      </trkpt>
      <trkpt lat="43.24214" lon="-0.74806">
        <ele>248.2</ele>
        <time>2022-09-10T09:54:08Z</time>
      </trkpt>
      <trkpt lat="43.24219" lon="-0.74815">
        <ele>249.4</ele>
        <time>2022-09-10T09:54:12Z</time>
      </trkpt>
      <trkpt lat="43.24221" lon="-0.7482">
        <ele>250</ele>
        <time>2022-09-10T09:54:14Z</time>
      </trkpt>
      <trkpt lat="43.24223" lon="-0.74827">
        <ele>250.2</ele>
        <time>2022-09-10T09:54:17Z</time>
      </trkpt>
      <trkpt lat="43.24226" lon="-0.74834">
        <ele>250.2</ele>
        <time>2022-09-10T09:54:20Z</time>
      </trkpt>
      <trkpt lat="43.24227" lon="-0.74836">
        <ele>250.2</ele>
        <time>2022-09-10T09:54:21Z</time>
      </trkpt>
      <trkpt lat="43.2423" lon="-0.7485">
        <ele>249.6</ele>
        <time>2022-09-10T09:54:25Z</time>
      </trkpt>
      <trkpt lat="43.24238" lon="-0.74872">
        <ele>248.4</ele>
        <time>2022-09-10T09:54:31Z</time>
      </trkpt>
      <trkpt lat="43.24241" lon="-0.74889">
        <ele>247.4</ele>
        <time>2022-09-10T09:54:35Z</time>
      </trkpt>
      <trkpt lat="43.24241" lon="-0.74893">
        <ele>247</ele>
        <time>2022-09-10T09:54:36Z</time>
      </trkpt>
      <trkpt lat="43.24239" lon="-0.74902">
        <ele>246</ele>
        <time>2022-09-10T09:54:38Z</time>
      </trkpt>
      <trkpt lat="43.24237" lon="-0.74908">
        <ele>245.4</ele>
        <time>2022-09-10T09:54:39Z</time>
      </trkpt>
      <trkpt lat="43.24234" lon="-0.74915">
        <ele>244.8</ele>
        <time>2022-09-10T09:54:40Z</time>
      </trkpt>
      <trkpt lat="43.24232" lon="-0.7492">
        <ele>243.8</ele>
        <time>2022-09-10T09:54:41Z</time>
      </trkpt>
      <trkpt lat="43.24229" lon="-0.74934">
        <ele>242.6</ele>
        <time>2022-09-10T09:54:43Z</time>
      </trkpt>
      <trkpt lat="43.24224" lon="-0.74952">
        <ele>241.8</ele>
        <time>2022-09-10T09:54:45Z</time>
      </trkpt>
      <trkpt lat="43.24224" lon="-0.74959">
        <ele>241.2</ele>
        <time>2022-09-10T09:54:46Z</time>
      </trkpt>
      <trkpt lat="43.24223" lon="-0.74968">
        <ele>240.6</ele>
        <time>2022-09-10T09:54:47Z</time>
      </trkpt>
      <trkpt lat="43.24223" lon="-0.74976">
        <ele>240</ele>
        <time>2022-09-10T09:54:48Z</time>
      </trkpt>
      <trkpt lat="43.24223" lon="-0.74983">
        <ele>239.6</ele>
        <time>2022-09-10T09:54:49Z</time>
      </trkpt>
      <trkpt lat="43.24222" lon="-0.75003">
        <ele>238.6</ele>
        <time>2022-09-10T09:54:52Z</time>
      </trkpt>
      <trkpt lat="43.24222" lon="-0.75015">
        <ele>237.4</ele>
        <time>2022-09-10T09:54:54Z</time>
      </trkpt>
      <trkpt lat="43.2422" lon="-0.75022">
        <ele>236.8</ele>
        <time>2022-09-10T09:54:55Z</time>
      </trkpt>
      <trkpt lat="43.24217" lon="-0.7503">
        <ele>236.2</ele>
        <time>2022-09-10T09:54:56Z</time>
      </trkpt>
      <trkpt lat="43.24211" lon="-0.75045">
        <ele>235.2</ele>
        <time>2022-09-10T09:54:58Z</time>
      </trkpt>
      <trkpt lat="43.24208" lon="-0.75049">
        <ele>234.6</ele>
        <time>2022-09-10T09:54:59Z</time>
      </trkpt>
      <trkpt lat="43.24206" lon="-0.75052">
        <ele>234.2</ele>
        <time>2022-09-10T09:55:00Z</time>
      </trkpt>
      <trkpt lat="43.24203" lon="-0.75056">
        <ele>233.6</ele>
        <time>2022-09-10T09:55:01Z</time>
      </trkpt>
      <trkpt lat="43.24195" lon="-0.75067">
        <ele>232.4</ele>
        <time>2022-09-10T09:55:03Z</time>
      </trkpt>
      <trkpt lat="43.24189" lon="-0.75076">
        <ele>231</ele>
        <time>2022-09-10T09:55:05Z</time>
      </trkpt>
      <trkpt lat="43.24186" lon="-0.75081">
        <ele>230</ele>
        <time>2022-09-10T09:55:06Z</time>
      </trkpt>
      <trkpt lat="43.24184" lon="-0.75084">
        <ele>229.6</ele>
        <time>2022-09-10T09:55:07Z</time>
      </trkpt>
      <trkpt lat="43.24178" lon="-0.75093">
        <ele>228.2</ele>
        <time>2022-09-10T09:55:09Z</time>
      </trkpt>
      <trkpt lat="43.24172" lon="-0.75102">
        <ele>226.8</ele>
        <time>2022-09-10T09:55:11Z</time>
      </trkpt>
      <trkpt lat="43.2417" lon="-0.75107">
        <ele>226.2</ele>
        <time>2022-09-10T09:55:12Z</time>
      </trkpt>
      <trkpt lat="43.24168" lon="-0.75111">
        <ele>225.6</ele>
        <time>2022-09-10T09:55:13Z</time>
      </trkpt>
      <trkpt lat="43.24165" lon="-0.75119">
        <ele>224.4</ele>
        <time>2022-09-10T09:55:15Z</time>
      </trkpt>
      <trkpt lat="43.24161" lon="-0.75126">
        <ele>223</ele>
        <time>2022-09-10T09:55:17Z</time>
      </trkpt>
      <trkpt lat="43.24154" lon="-0.75133">
        <ele>221.6</ele>
        <time>2022-09-10T09:55:20Z</time>
      </trkpt>
      <trkpt lat="43.24148" lon="-0.75138">
        <ele>220.6</ele>
        <time>2022-09-10T09:55:22Z</time>
      </trkpt>
      <trkpt lat="43.24142" lon="-0.75144">
        <ele>219.4</ele>
        <time>2022-09-10T09:55:24Z</time>
      </trkpt>
      <trkpt lat="43.24136" lon="-0.7515">
        <ele>218.2</ele>
        <time>2022-09-10T09:55:26Z</time>
      </trkpt>
      <trkpt lat="43.24129" lon="-0.75158">
        <ele>217.2</ele>
        <time>2022-09-10T09:55:28Z</time>
      </trkpt>
      <trkpt lat="43.24124" lon="-0.75168">
        <ele>216</ele>
        <time>2022-09-10T09:55:30Z</time>
      </trkpt>
      <trkpt lat="43.24123" lon="-0.75178">
        <ele>215.2</ele>
        <time>2022-09-10T09:55:32Z</time>
      </trkpt>
      <trkpt lat="43.2412" lon="-0.75187">
        <ele>214.6</ele>
        <time>2022-09-10T09:55:34Z</time>
      </trkpt>
      <trkpt lat="43.24115" lon="-0.75196">
        <ele>214.2</ele>
        <time>2022-09-10T09:55:36Z</time>
      </trkpt>
      <trkpt lat="43.24106" lon="-0.7521">
        <ele>213.4</ele>
        <time>2022-09-10T09:55:39Z</time>
      </trkpt>
      <trkpt lat="43.24102" lon="-0.75218">
        <ele>212.8</ele>
        <time>2022-09-10T09:55:41Z</time>
      </trkpt>
      <trkpt lat="43.241" lon="-0.75221">
        <ele>212.4</ele>
        <time>2022-09-10T09:55:42Z</time>
      </trkpt>
      <trkpt lat="43.24097" lon="-0.75227">
        <ele>211.2</ele>
        <time>2022-09-10T09:55:44Z</time>
      </trkpt>
      <trkpt lat="43.24095" lon="-0.75231">
        <ele>210.2</ele>
        <time>2022-09-10T09:55:46Z</time>
      </trkpt>
      <trkpt lat="43.24092" lon="-0.75235">
        <ele>209.2</ele>
        <time>2022-09-10T09:55:48Z</time>
      </trkpt>
      <trkpt lat="43.2409" lon="-0.75237">
        <ele>208.6</ele>
        <time>2022-09-10T09:55:49Z</time>
      </trkpt>
      <trkpt lat="43.24089" lon="-0.7524">
        <ele>207.8</ele>
        <time>2022-09-10T09:55:50Z</time>
      </trkpt>
      <trkpt lat="43.24086" lon="-0.75245">
        <ele>206.6</ele>
        <time>2022-09-10T09:55:52Z</time>
      </trkpt>
      <trkpt lat="43.24085" lon="-0.75248">
        <ele>205.2</ele>
        <time>2022-09-10T09:55:53Z</time>
      </trkpt>
      <trkpt lat="43.24083" lon="-0.75253">
        <ele>204</ele>
        <time>2022-09-10T09:55:55Z</time>
      </trkpt>
      <trkpt lat="43.24081" lon="-0.7526">
        <ele>202.8</ele>
        <time>2022-09-10T09:55:57Z</time>
      </trkpt>
      <trkpt lat="43.24078" lon="-0.75267">
        <ele>201.4</ele>
        <time>2022-09-10T09:55:59Z</time>
      </trkpt>
      <trkpt lat="43.24078" lon="-0.75271">
        <ele>200.2</ele>
        <time>2022-09-10T09:56:01Z</time>
      </trkpt>
      <trkpt lat="43.24078" lon="-0.75273">
        <ele>199.8</ele>
        <time>2022-09-10T09:56:02Z</time>
      </trkpt>
      <trkpt lat="43.24078" lon="-0.75276">
        <ele>199.2</ele>
        <time>2022-09-10T09:56:03Z</time>
      </trkpt>
      <trkpt lat="43.24079" lon="-0.7528">
        <ele>198.2</ele>
        <time>2022-09-10T09:56:05Z</time>
      </trkpt>
      <trkpt lat="43.24079" lon="-0.75283">
        <ele>197.6</ele>
        <time>2022-09-10T09:56:06Z</time>
      </trkpt>
      <trkpt lat="43.24078" lon="-0.75286">
        <ele>197</ele>
        <time>2022-09-10T09:56:07Z</time>
      </trkpt>
      <trkpt lat="43.24081" lon="-0.75296">
        <ele>195.4</ele>
        <time>2022-09-10T09:56:12Z</time>
      </trkpt>
      <trkpt lat="43.24086" lon="-0.75303">
        <ele>194.2</ele>
        <time>2022-09-10T09:56:15Z</time>
      </trkpt>
      <trkpt lat="43.24089" lon="-0.75305">
        <ele>193.8</ele>
        <time>2022-09-10T09:56:16Z</time>
      </trkpt>
      <trkpt lat="43.2409" lon="-0.7531">
        <ele>192.8</ele>
        <time>2022-09-10T09:56:17Z</time>
      </trkpt>
      <trkpt lat="43.24094" lon="-0.75319">
        <ele>191.4</ele>
        <time>2022-09-10T09:56:20Z</time>
      </trkpt>
      <trkpt lat="43.24098" lon="-0.75321">
        <ele>190.4</ele>
        <time>2022-09-10T09:56:22Z</time>
      </trkpt>
      <trkpt lat="43.24102" lon="-0.75325">
        <ele>189.2</ele>
        <time>2022-09-10T09:56:24Z</time>
      </trkpt>
      <trkpt lat="43.24105" lon="-0.75326">
        <ele>189</ele>
        <time>2022-09-10T09:56:25Z</time>
      </trkpt>
      <trkpt lat="43.24109" lon="-0.7533">
        <ele>188.2</ele>
        <time>2022-09-10T09:56:28Z</time>
      </trkpt>
      <trkpt lat="43.2411" lon="-0.75332">
        <ele>187.8</ele>
        <time>2022-09-10T09:56:29Z</time>
      </trkpt>
      <trkpt lat="43.2411" lon="-0.75335">
        <ele>187</ele>
        <time>2022-09-10T09:56:31Z</time>
      </trkpt>
      <trkpt lat="43.2411" lon="-0.7534">
        <ele>185.8</ele>
        <time>2022-09-10T09:56:34Z</time>
      </trkpt>
      <trkpt lat="43.24109" lon="-0.75343">
        <ele>185.4</ele>
        <time>2022-09-10T09:56:35Z</time>
      </trkpt>
      <trkpt lat="43.24108" lon="-0.75349">
        <ele>184.6</ele>
        <time>2022-09-10T09:56:37Z</time>
      </trkpt>
      <trkpt lat="43.24108" lon="-0.75356">
        <ele>183.4</ele>
        <time>2022-09-10T09:56:39Z</time>
      </trkpt>
      <trkpt lat="43.24108" lon="-0.75359">
        <ele>182.8</ele>
        <time>2022-09-10T09:56:40Z</time>
      </trkpt>
      <trkpt lat="43.24107" lon="-0.75361">
        <ele>181.8</ele>
        <time>2022-09-10T09:56:41Z</time>
      </trkpt>
      <trkpt lat="43.24107" lon="-0.75364">
        <ele>181.2</ele>
        <time>2022-09-10T09:56:42Z</time>
      </trkpt>
      <trkpt lat="43.24105" lon="-0.7537">
        <ele>180.4</ele>
        <time>2022-09-10T09:56:44Z</time>
      </trkpt>
      <trkpt lat="43.24099" lon="-0.75374">
        <ele>178.8</ele>
        <time>2022-09-10T09:56:47Z</time>
      </trkpt>
      <trkpt lat="43.24098" lon="-0.75376">
        <ele>178.2</ele>
        <time>2022-09-10T09:56:48Z</time>
      </trkpt>
      <trkpt lat="43.24096" lon="-0.75377">
        <ele>177.6</ele>
        <time>2022-09-10T09:56:49Z</time>
      </trkpt>
      <trkpt lat="43.24092" lon="-0.7538">
        <ele>176.6</ele>
        <time>2022-09-10T09:56:52Z</time>
      </trkpt>
      <trkpt lat="43.2409" lon="-0.75379">
        <ele>176.4</ele>
        <time>2022-09-10T09:56:53Z</time>
      </trkpt>
      <trkpt lat="43.24087" lon="-0.75378">
        <ele>176.2</ele>
        <time>2022-09-10T09:56:54Z</time>
      </trkpt>
      <trkpt lat="43.24085" lon="-0.75379">
        <ele>176</ele>
        <time>2022-09-10T09:56:55Z</time>
      </trkpt>
      <trkpt lat="43.24078" lon="-0.7538">
        <ele>175.4</ele>
        <time>2022-09-10T09:56:58Z</time>
      </trkpt>
      <trkpt lat="43.24077" lon="-0.75381">
        <ele>175.2</ele>
        <time>2022-09-10T09:56:59Z</time>
      </trkpt>
      <trkpt lat="43.24063" lon="-0.75386">
        <ele>171.6</ele>
        <time>2022-09-10T09:57:07Z</time>
      </trkpt>
      <trkpt lat="43.24059" lon="-0.7539">
        <ele>170.4</ele>
        <time>2022-09-10T09:57:09Z</time>
      </trkpt>
      <trkpt lat="43.24053" lon="-0.75396">
        <ele>169</ele>
        <time>2022-09-10T09:57:12Z</time>
      </trkpt>
      <trkpt lat="43.24053" lon="-0.75398">
        <ele>168.6</ele>
        <time>2022-09-10T09:57:13Z</time>
      </trkpt>
      <trkpt lat="43.24052" lon="-0.75402">
        <ele>168</ele>
        <time>2022-09-10T09:57:15Z</time>
      </trkpt>
      <trkpt lat="43.24053" lon="-0.75404">
        <ele>167.6</ele>
        <time>2022-09-10T09:57:16Z</time>
      </trkpt>
      <trkpt lat="43.2405" lon="-0.75415">
        <ele>166.4</ele>
        <time>2022-09-10T09:57:20Z</time>
      </trkpt>
      <trkpt lat="43.24048" lon="-0.75427">
        <ele>165.4</ele>
        <time>2022-09-10T09:57:24Z</time>
      </trkpt>
      <trkpt lat="43.24048" lon="-0.7543">
        <ele>165.2</ele>
        <time>2022-09-10T09:57:25Z</time>
      </trkpt>
      <trkpt lat="43.24047" lon="-0.75432">
        <ele>165</ele>
        <time>2022-09-10T09:57:26Z</time>
      </trkpt>
      <trkpt lat="43.24044" lon="-0.7544">
        <ele>164.2</ele>
        <time>2022-09-10T09:57:30Z</time>
      </trkpt>
      <trkpt lat="43.24026" lon="-0.7552">
        <ele>162.8</ele>
        <time>2022-09-10T09:59:12Z</time>
      </trkpt>
      <trkpt lat="43.24029" lon="-0.75521">
        <ele>162.8</ele>
        <time>2022-09-10T09:59:14Z</time>
      </trkpt>
      <trkpt lat="43.24038" lon="-0.75519">
        <ele>162.8</ele>
        <time>2022-09-10T09:59:20Z</time>
      </trkpt>
      <trkpt lat="43.24047" lon="-0.75518">
        <ele>162.4</ele>
        <time>2022-09-10T09:59:25Z</time>
      </trkpt>
      <trkpt lat="43.24055" lon="-0.75522">
        <ele>162.4</ele>
        <time>2022-09-10T09:59:29Z</time>
      </trkpt>
      <trkpt lat="43.24057" lon="-0.75526">
        <ele>162.6</ele>
        <time>2022-09-10T09:59:31Z</time>
      </trkpt>
      <trkpt lat="43.24063" lon="-0.7553">
        <ele>163.8</ele>
        <time>2022-09-10T09:59:35Z</time>
      </trkpt>
      <trkpt lat="43.24071" lon="-0.75535">
        <ele>164</ele>
        <time>2022-09-10T09:59:37Z</time>
      </trkpt>
      <trkpt lat="43.24079" lon="-0.75541">
        <ele>164.8</ele>
        <time>2022-09-10T09:59:43Z</time>
      </trkpt>
      <trkpt lat="43.24081" lon="-0.75542">
        <ele>164.8</ele>
        <time>2022-09-10T09:59:44Z</time>
      </trkpt>
      <trkpt lat="43.24088" lon="-0.75546">
        <ele>165.4</ele>
        <time>2022-09-10T09:59:49Z</time>
      </trkpt>
      <trkpt lat="43.24098" lon="-0.75549">
        <ele>165.2</ele>
        <time>2022-09-10T09:59:53Z</time>
      </trkpt>
      <trkpt lat="43.24104" lon="-0.75549">
        <ele>165</ele>
        <time>2022-09-10T09:59:55Z</time>
      </trkpt>
      <trkpt lat="43.24124" lon="-0.75542">
        <ele>164</ele>
        <time>2022-09-10T10:00:01Z</time>
      </trkpt>
      <trkpt lat="43.24131" lon="-0.75539">
        <ele>163.6</ele>
        <time>2022-09-10T10:00:03Z</time>
      </trkpt>
      <trkpt lat="43.24139" lon="-0.75533">
        <ele>162.8</ele>
        <time>2022-09-10T10:00:07Z</time>
      </trkpt>
      <trkpt lat="43.24141" lon="-0.75531">
        <ele>162.4</ele>
        <time>2022-09-10T10:00:08Z</time>
      </trkpt>
      <trkpt lat="43.24146" lon="-0.75526">
        <ele>161.4</ele>
        <time>2022-09-10T10:00:11Z</time>
      </trkpt>
      <trkpt lat="43.24148" lon="-0.75525">
        <ele>161.2</ele>
        <time>2022-09-10T10:00:12Z</time>
      </trkpt>
      <trkpt lat="43.2415" lon="-0.75524">
        <ele>161</ele>
        <time>2022-09-10T10:00:13Z</time>
      </trkpt>
      <trkpt lat="43.24155" lon="-0.75522">
        <ele>161.2</ele>
        <time>2022-09-10T10:00:16Z</time>
      </trkpt>
      <trkpt lat="43.24158" lon="-0.7552">
        <ele>161.6</ele>
        <time>2022-09-10T10:00:18Z</time>
      </trkpt>
      <trkpt lat="43.24162" lon="-0.75519">
        <ele>162.2</ele>
        <time>2022-09-10T10:00:20Z</time>
      </trkpt>
      <trkpt lat="43.2417" lon="-0.75517">
        <ele>163.2</ele>
        <time>2022-09-10T10:00:24Z</time>
      </trkpt>
      <trkpt lat="43.24172" lon="-0.75517">
        <ele>163.4</ele>
        <time>2022-09-10T10:00:25Z</time>
      </trkpt>
      <trkpt lat="43.24182" lon="-0.75516">
        <ele>164.4</ele>
        <time>2022-09-10T10:00:29Z</time>
      </trkpt>
      <trkpt lat="43.24185" lon="-0.75516">
        <ele>165</ele>
        <time>2022-09-10T10:00:31Z</time>
      </trkpt>
      <trkpt lat="43.24188" lon="-0.75515">
        <ele>165.2</ele>
        <time>2022-09-10T10:00:32Z</time>
      </trkpt>
      <trkpt lat="43.24206" lon="-0.75517">
        <ele>166</ele>
        <time>2022-09-10T10:04:13Z</time>
      </trkpt>
      <trkpt lat="43.2422" lon="-0.75517">
        <ele>166</ele>
        <time>2022-09-10T10:04:18Z</time>
      </trkpt>
      <trkpt lat="43.24235" lon="-0.75514">
        <ele>166.2</ele>
        <time>2022-09-10T10:04:24Z</time>
      </trkpt>
      <trkpt lat="43.24244" lon="-0.75518">
        <ele>166.4</ele>
        <time>2022-09-10T10:04:28Z</time>
      </trkpt>
      <trkpt lat="43.24245" lon="-0.7552">
        <ele>166.6</ele>
        <time>2022-09-10T10:04:29Z</time>
      </trkpt>
      <trkpt lat="43.24254" lon="-0.75532">
        <ele>166.6</ele>
        <time>2022-09-10T10:04:33Z</time>
      </trkpt>
      <trkpt lat="43.24268" lon="-0.75555">
        <ele>167</ele>
        <time>2022-09-10T10:04:39Z</time>
      </trkpt>
      <trkpt lat="43.24274" lon="-0.75563">
        <ele>167.6</ele>
        <time>2022-09-10T10:04:42Z</time>
      </trkpt>
      <trkpt lat="43.24277" lon="-0.75564">
        <ele>167.6</ele>
        <time>2022-09-10T10:04:44Z</time>
      </trkpt>
      <trkpt lat="43.2428" lon="-0.75562">
        <ele>167.6</ele>
        <time>2022-09-10T10:04:46Z</time>
      </trkpt>
      <trkpt lat="43.24282" lon="-0.75558">
        <ele>167.4</ele>
        <time>2022-09-10T10:04:48Z</time>
      </trkpt>
      <trkpt lat="43.24285" lon="-0.75552">
        <ele>167.2</ele>
        <time>2022-09-10T10:04:50Z</time>
      </trkpt>
      <trkpt lat="43.24288" lon="-0.7555">
        <ele>166.8</ele>
        <time>2022-09-10T10:04:52Z</time>
      </trkpt>
      <trkpt lat="43.2429" lon="-0.75551">
        <ele>166.8</ele>
        <time>2022-09-10T10:04:53Z</time>
      </trkpt>
      <trkpt lat="43.24291" lon="-0.75552">
        <ele>166.6</ele>
        <time>2022-09-10T10:04:54Z</time>
      </trkpt>
      <trkpt lat="43.24294" lon="-0.75554">
        <ele>166.2</ele>
        <time>2022-09-10T10:04:56Z</time>
      </trkpt>
      <trkpt lat="43.24297" lon="-0.75555">
        <ele>166</ele>
        <time>2022-09-10T10:04:58Z</time>
      </trkpt>
      <trkpt lat="43.24298" lon="-0.75556">
        <ele>166</ele>
        <time>2022-09-10T10:04:59Z</time>
      </trkpt>
      <trkpt lat="43.24302" lon="-0.7556">
        <ele>166.6</ele>
        <time>2022-09-10T10:05:02Z</time>
      </trkpt>
      <trkpt lat="43.24307" lon="-0.75562">
        <ele>166.8</ele>
        <time>2022-09-10T10:05:04Z</time>
      </trkpt>
      <trkpt lat="43.2431" lon="-0.75562">
        <ele>166.8</ele>
        <time>2022-09-10T10:05:05Z</time>
      </trkpt>
      <trkpt lat="43.24321" lon="-0.75563">
        <ele>167.2</ele>
        <time>2022-09-10T10:05:09Z</time>
      </trkpt>
      <trkpt lat="43.24322" lon="-0.75562">
        <ele>167.2</ele>
        <time>2022-09-10T10:05:10Z</time>
      </trkpt>
      <trkpt lat="43.24351" lon="-0.75544">
        <ele>168.4</ele>
        <time>2022-09-10T10:05:45Z</time>
      </trkpt>
      <trkpt lat="43.24356" lon="-0.75546">
        <ele>168.8</ele>
        <time>2022-09-10T10:05:48Z</time>
      </trkpt>
      <trkpt lat="43.24358" lon="-0.75547">
        <ele>169.2</ele>
        <time>2022-09-10T10:05:50Z</time>
      </trkpt>
      <trkpt lat="43.24358" lon="-0.75548">
        <ele>169.4</ele>
        <time>2022-09-10T10:05:51Z</time>
      </trkpt>
      <trkpt lat="43.24361" lon="-0.75553">
        <ele>170.6</ele>
        <time>2022-09-10T10:05:56Z</time>
      </trkpt>
      <trkpt lat="43.24405" lon="-0.75565">
        <ele>181.4</ele>
        <time>2022-09-10T10:06:45Z</time>
      </trkpt>
      <trkpt lat="43.24407" lon="-0.75563">
        <ele>181.8</ele>
        <time>2022-09-10T10:06:47Z</time>
      </trkpt>
      <trkpt lat="43.24417" lon="-0.75557">
        <ele>182.2</ele>
        <time>2022-09-10T10:06:54Z</time>
      </trkpt>
      <trkpt lat="43.24422" lon="-0.75556">
        <ele>182.4</ele>
        <time>2022-09-10T10:06:58Z</time>
      </trkpt>
      <trkpt lat="43.24429" lon="-0.75554">
        <ele>182.4</ele>
        <time>2022-09-10T10:07:02Z</time>
      </trkpt>
      <trkpt lat="43.24435" lon="-0.75553">
        <ele>182.2</ele>
        <time>2022-09-10T10:07:05Z</time>
      </trkpt>
      <trkpt lat="43.24441" lon="-0.75556">
        <ele>182</ele>
        <time>2022-09-10T10:07:08Z</time>
      </trkpt>
      <trkpt lat="43.2445" lon="-0.75563">
        <ele>182</ele>
        <time>2022-09-10T10:07:13Z</time>
      </trkpt>
      <trkpt lat="43.24453" lon="-0.75567">
        <ele>182.6</ele>
        <time>2022-09-10T10:07:15Z</time>
      </trkpt>
      <trkpt lat="43.24458" lon="-0.75571">
        <ele>183.4</ele>
        <time>2022-09-10T10:07:18Z</time>
      </trkpt>
      <trkpt lat="43.24461" lon="-0.75574">
        <ele>183.6</ele>
        <time>2022-09-10T10:07:20Z</time>
      </trkpt>
      <trkpt lat="43.24469" lon="-0.75578">
        <ele>184.2</ele>
        <time>2022-09-10T10:07:25Z</time>
      </trkpt>
      <trkpt lat="43.24471" lon="-0.75579">
        <ele>184.4</ele>
        <time>2022-09-10T10:07:26Z</time>
      </trkpt>
      <trkpt lat="43.24476" lon="-0.75581">
        <ele>184.6</ele>
        <time>2022-09-10T10:07:30Z</time>
      </trkpt>
      <trkpt lat="43.24477" lon="-0.75582">
        <ele>184.6</ele>
        <time>2022-09-10T10:07:31Z</time>
      </trkpt>
      <trkpt lat="43.24488" lon="-0.75587">
        <ele>184.8</ele>
        <time>2022-09-10T10:07:37Z</time>
      </trkpt>
      <trkpt lat="43.24499" lon="-0.75601">
        <ele>185</ele>
        <time>2022-09-10T10:07:44Z</time>
      </trkpt>
      <trkpt lat="43.24518" lon="-0.75615">
        <ele>185.4</ele>
        <time>2022-09-10T10:07:50Z</time>
      </trkpt>
      <trkpt lat="43.24529" lon="-0.75626">
        <ele>185.6</ele>
        <time>2022-09-10T10:07:56Z</time>
      </trkpt>
      <trkpt lat="43.24532" lon="-0.75631">
        <ele>185.8</ele>
        <time>2022-09-10T10:07:58Z</time>
      </trkpt>
      <trkpt lat="43.2454" lon="-0.75646">
        <ele>185.8</ele>
        <time>2022-09-10T10:08:02Z</time>
      </trkpt>
      <trkpt lat="43.2454" lon="-0.75662">
        <ele>185.8</ele>
        <time>2022-09-10T10:08:06Z</time>
      </trkpt>
      <trkpt lat="43.24545" lon="-0.75677">
        <ele>185.8</ele>
        <time>2022-09-10T10:08:10Z</time>
      </trkpt>
      <trkpt lat="43.24546" lon="-0.75681">
        <ele>185.8</ele>
        <time>2022-09-10T10:08:11Z</time>
      </trkpt>
      <trkpt lat="43.24551" lon="-0.75691">
        <ele>185.8</ele>
        <time>2022-09-10T10:08:15Z</time>
      </trkpt>
      <trkpt lat="43.24558" lon="-0.75696">
        <ele>186</ele>
        <time>2022-09-10T10:08:20Z</time>
      </trkpt>
      <trkpt lat="43.2456" lon="-0.75706">
        <ele>186.4</ele>
        <time>2022-09-10T10:08:24Z</time>
      </trkpt>
      <trkpt lat="43.24561" lon="-0.75708">
        <ele>186.4</ele>
        <time>2022-09-10T10:08:25Z</time>
      </trkpt>
      <trkpt lat="43.24565" lon="-0.75715">
        <ele>186.4</ele>
        <time>2022-09-10T10:08:28Z</time>
      </trkpt>
      <trkpt lat="43.24569" lon="-0.75719">
        <ele>186.4</ele>
        <time>2022-09-10T10:08:30Z</time>
      </trkpt>
      <trkpt lat="43.24572" lon="-0.75723">
        <ele>186.4</ele>
        <time>2022-09-10T10:08:32Z</time>
      </trkpt>
      <trkpt lat="43.24581" lon="-0.75732">
        <ele>185.8</ele>
        <time>2022-09-10T10:09:36Z</time>
      </trkpt>
      <trkpt lat="43.24594" lon="-0.75743">
        <ele>185.4</ele>
        <time>2022-09-10T10:09:41Z</time>
      </trkpt>
      <trkpt lat="43.24603" lon="-0.75751">
        <ele>185.4</ele>
        <time>2022-09-10T10:09:45Z</time>
      </trkpt>
      <trkpt lat="43.24611" lon="-0.75762">
        <ele>186.6</ele>
        <time>2022-09-10T10:09:51Z</time>
      </trkpt>
      <trkpt lat="43.24612" lon="-0.75764">
        <ele>186.8</ele>
        <time>2022-09-10T10:09:52Z</time>
      </trkpt>
      <trkpt lat="43.24619" lon="-0.75772">
        <ele>188</ele>
        <time>2022-09-10T10:09:57Z</time>
      </trkpt>
      <trkpt lat="43.24621" lon="-0.75774">
        <ele>188.2</ele>
        <time>2022-09-10T10:09:58Z</time>
      </trkpt>
      <trkpt lat="43.24679" lon="-0.75828">
        <ele>193.6</ele>
        <time>2022-09-10T10:10:39Z</time>
      </trkpt>
      <trkpt lat="43.24688" lon="-0.75837">
        <ele>193.8</ele>
        <time>2022-09-10T10:10:45Z</time>
      </trkpt>
      <trkpt lat="43.24702" lon="-0.75856">
        <ele>194.6</ele>
        <time>2022-09-10T10:10:53Z</time>
      </trkpt>
      <trkpt lat="43.24704" lon="-0.75858">
        <ele>194.8</ele>
        <time>2022-09-10T10:10:54Z</time>
      </trkpt>
      <trkpt lat="43.24716" lon="-0.75872">
        <ele>194.8</ele>
        <time>2022-09-10T10:11:00Z</time>
      </trkpt>
      <trkpt lat="43.24724" lon="-0.75886">
        <ele>195.6</ele>
        <time>2022-09-10T10:11:06Z</time>
      </trkpt>
      <trkpt lat="43.24726" lon="-0.75888">
        <ele>195.8</ele>
        <time>2022-09-10T10:11:07Z</time>
      </trkpt>
      <trkpt lat="43.24734" lon="-0.75898">
        <ele>196.8</ele>
        <time>2022-09-10T10:11:13Z</time>
      </trkpt>
      <trkpt lat="43.2474" lon="-0.75902">
        <ele>197.8</ele>
        <time>2022-09-10T10:11:17Z</time>
      </trkpt>
      <trkpt lat="43.24744" lon="-0.75908">
        <ele>198.8</ele>
        <time>2022-09-10T10:11:21Z</time>
      </trkpt>
      <trkpt lat="43.24745" lon="-0.7591">
        <ele>199</ele>
        <time>2022-09-10T10:11:22Z</time>
      </trkpt>
      <trkpt lat="43.24748" lon="-0.75917">
        <ele>200</ele>
        <time>2022-09-10T10:11:26Z</time>
      </trkpt>
      <trkpt lat="43.24749" lon="-0.7592">
        <ele>200.4</ele>
        <time>2022-09-10T10:11:28Z</time>
      </trkpt>
      <trkpt lat="43.2475" lon="-0.75921">
        <ele>200.6</ele>
        <time>2022-09-10T10:11:29Z</time>
      </trkpt>
      <trkpt lat="43.24755" lon="-0.75933">
        <ele>200.6</ele>
        <time>2022-09-10T10:11:35Z</time>
      </trkpt>
      <trkpt lat="43.24758" lon="-0.75939">
        <ele>201</ele>
        <time>2022-09-10T10:11:38Z</time>
      </trkpt>
      <trkpt lat="43.24763" lon="-0.75952">
        <ele>201.2</ele>
        <time>2022-09-10T10:11:43Z</time>
      </trkpt>
      <trkpt lat="43.24773" lon="-0.75973">
        <ele>201.4</ele>
        <time>2022-09-10T10:11:51Z</time>
      </trkpt>
      <trkpt lat="43.24781" lon="-0.75985">
        <ele>200.2</ele>
        <time>2022-09-10T10:11:56Z</time>
      </trkpt>
      <trkpt lat="43.24783" lon="-0.75986">
        <ele>200</ele>
        <time>2022-09-10T10:11:57Z</time>
      </trkpt>
      <trkpt lat="43.24791" lon="-0.75991">
        <ele>199</ele>
        <time>2022-09-10T10:12:00Z</time>
      </trkpt>
      <trkpt lat="43.24793" lon="-0.75993">
        <ele>198.4</ele>
        <time>2022-09-10T10:12:01Z</time>
      </trkpt>
      <trkpt lat="43.24798" lon="-0.75995">
        <ele>197.4</ele>
        <time>2022-09-10T10:12:03Z</time>
      </trkpt>
      <trkpt lat="43.24802" lon="-0.75999">
        <ele>196</ele>
        <time>2022-09-10T10:12:06Z</time>
      </trkpt>
      <trkpt lat="43.24809" lon="-0.76007">
        <ele>194.8</ele>
        <time>2022-09-10T10:12:10Z</time>
      </trkpt>
      <trkpt lat="43.24811" lon="-0.76011">
        <ele>194.6</ele>
        <time>2022-09-10T10:12:11Z</time>
      </trkpt>
      <trkpt lat="43.24813" lon="-0.76013">
        <ele>194</ele>
        <time>2022-09-10T10:12:12Z</time>
      </trkpt>
      <trkpt lat="43.24816" lon="-0.76015">
        <ele>193.6</ele>
        <time>2022-09-10T10:12:13Z</time>
      </trkpt>
      <trkpt lat="43.24819" lon="-0.7602">
        <ele>192.6</ele>
        <time>2022-09-10T10:12:15Z</time>
      </trkpt>
      <trkpt lat="43.24824" lon="-0.76027">
        <ele>191.4</ele>
        <time>2022-09-10T10:12:18Z</time>
      </trkpt>
      <trkpt lat="43.24831" lon="-0.76038">
        <ele>190</ele>
        <time>2022-09-10T10:12:22Z</time>
      </trkpt>
      <trkpt lat="43.24836" lon="-0.76043">
        <ele>188.8</ele>
        <time>2022-09-10T10:12:24Z</time>
      </trkpt>
      <trkpt lat="43.24843" lon="-0.76053">
        <ele>187.6</ele>
        <time>2022-09-10T10:12:27Z</time>
      </trkpt>
      <trkpt lat="43.24847" lon="-0.76059">
        <ele>186.8</ele>
        <time>2022-09-10T10:12:29Z</time>
      </trkpt>
      <trkpt lat="43.24848" lon="-0.76062">
        <ele>186.6</ele>
        <time>2022-09-10T10:12:30Z</time>
      </trkpt>
      <trkpt lat="43.24854" lon="-0.76073">
        <ele>184.8</ele>
        <time>2022-09-10T10:12:52Z</time>
      </trkpt>
      <trkpt lat="43.24857" lon="-0.76077">
        <ele>183.6</ele>
        <time>2022-09-10T10:12:54Z</time>
      </trkpt>
      <trkpt lat="43.24862" lon="-0.76084">
        <ele>182.4</ele>
        <time>2022-09-10T10:12:56Z</time>
      </trkpt>
      <trkpt lat="43.24867" lon="-0.7609">
        <ele>181.2</ele>
        <time>2022-09-10T10:12:58Z</time>
      </trkpt>
      <trkpt lat="43.24868" lon="-0.76093">
        <ele>180.8</ele>
        <time>2022-09-10T10:12:59Z</time>
      </trkpt>
      <trkpt lat="43.24875" lon="-0.76103">
        <ele>179.8</ele>
        <time>2022-09-10T10:13:02Z</time>
      </trkpt>
      <trkpt lat="43.24878" lon="-0.76105">
        <ele>179.2</ele>
        <time>2022-09-10T10:13:03Z</time>
      </trkpt>
      <trkpt lat="43.2488" lon="-0.76107">
        <ele>178.6</ele>
        <time>2022-09-10T10:13:04Z</time>
      </trkpt>
      <trkpt lat="43.24885" lon="-0.76111">
        <ele>177.4</ele>
        <time>2022-09-10T10:13:06Z</time>
      </trkpt>
      <trkpt lat="43.24888" lon="-0.76114">
        <ele>176</ele>
        <time>2022-09-10T10:13:07Z</time>
      </trkpt>
      <trkpt lat="43.24896" lon="-0.76123">
        <ele>174.4</ele>
        <time>2022-09-10T10:13:10Z</time>
      </trkpt>
      <trkpt lat="43.24899" lon="-0.76127">
        <ele>173.6</ele>
        <time>2022-09-10T10:13:12Z</time>
      </trkpt>
      <trkpt lat="43.24901" lon="-0.76128">
        <ele>173.2</ele>
        <time>2022-09-10T10:13:13Z</time>
      </trkpt>
      <trkpt lat="43.24905" lon="-0.76133">
        <ele>172.2</ele>
        <time>2022-09-10T10:13:16Z</time>
      </trkpt>
      <trkpt lat="43.24907" lon="-0.76134">
        <ele>171.8</ele>
        <time>2022-09-10T10:13:17Z</time>
      </trkpt>
      <trkpt lat="43.24909" lon="-0.76137">
        <ele>170.8</ele>
        <time>2022-09-10T10:13:19Z</time>
      </trkpt>
      <trkpt lat="43.24916" lon="-0.76153">
        <ele>162</ele>
        <time>2022-09-10T10:14:05Z</time>
      </trkpt>
      <trkpt lat="43.24934" lon="-0.76202">
        <ele>164.4</ele>
        <time>2022-09-10T10:14:40Z</time>
      </trkpt>
      <trkpt lat="43.24933" lon="-0.76212">
        <ele>164.6</ele>
        <time>2022-09-10T10:14:43Z</time>
      </trkpt>
      <trkpt lat="43.24933" lon="-0.76214">
        <ele>164.4</ele>
        <time>2022-09-10T10:14:44Z</time>
      </trkpt>
      <trkpt lat="43.24931" lon="-0.76219">
        <ele>164.6</ele>
        <time>2022-09-10T10:14:46Z</time>
      </trkpt>
      <trkpt lat="43.24928" lon="-0.76223">
        <ele>164.8</ele>
        <time>2022-09-10T10:14:48Z</time>
      </trkpt>
      <trkpt lat="43.24921" lon="-0.76235">
        <ele>165.4</ele>
        <time>2022-09-10T10:14:55Z</time>
      </trkpt>
      <trkpt lat="43.24921" lon="-0.76235">
        <ele>165.6</ele>
        <time>2022-09-10T10:14:56Z</time>
      </trkpt>
      <trkpt lat="43.24913" lon="-0.76244">
        <ele>166.6</ele>
        <time>2022-09-10T10:15:00Z</time>
      </trkpt>
      <trkpt lat="43.2491" lon="-0.76264">
        <ele>167</ele>
        <time>2022-09-10T10:16:04Z</time>
      </trkpt>
      <trkpt lat="43.24909" lon="-0.76268">
        <ele>167</ele>
        <time>2022-09-10T10:16:05Z</time>
      </trkpt>
      <trkpt lat="43.24902" lon="-0.76287">
        <ele>166.6</ele>
        <time>2022-09-10T10:16:16Z</time>
      </trkpt>
      <trkpt lat="43.24901" lon="-0.76291">
        <ele>166.2</ele>
        <time>2022-09-10T10:16:17Z</time>
      </trkpt>
      <trkpt lat="43.24899" lon="-0.76296">
        <ele>165.4</ele>
        <time>2022-09-10T10:16:19Z</time>
      </trkpt>
      <trkpt lat="43.24895" lon="-0.763">
        <ele>165</ele>
        <time>2022-09-10T10:16:21Z</time>
      </trkpt>
      <trkpt lat="43.24888" lon="-0.76307">
        <ele>165.2</ele>
        <time>2022-09-10T10:16:25Z</time>
      </trkpt>
      <trkpt lat="43.24884" lon="-0.76312">
        <ele>165.6</ele>
        <time>2022-09-10T10:16:27Z</time>
      </trkpt>
      <trkpt lat="43.2488" lon="-0.76319">
        <ele>165.8</ele>
        <time>2022-09-10T10:16:29Z</time>
      </trkpt>
      <trkpt lat="43.24878" lon="-0.76328">
        <ele>165.4</ele>
        <time>2022-09-10T10:16:31Z</time>
      </trkpt>
      <trkpt lat="43.24874" lon="-0.76344">
        <ele>164.2</ele>
        <time>2022-09-10T10:16:36Z</time>
      </trkpt>
      <trkpt lat="43.24874" lon="-0.76344">
        <ele>163.8</ele>
        <time>2022-09-10T10:16:37Z</time>
      </trkpt>
      <trkpt lat="43.24867" lon="-0.76359">
        <ele>163.4</ele>
        <time>2022-09-10T10:16:42Z</time>
      </trkpt>
      <trkpt lat="43.24867" lon="-0.76361">
        <ele>163</ele>
        <time>2022-09-10T10:16:43Z</time>
      </trkpt>
      <trkpt lat="43.24866" lon="-0.76365">
        <ele>163</ele>
        <time>2022-09-10T10:16:44Z</time>
      </trkpt>
      <trkpt lat="43.24865" lon="-0.76368">
        <ele>163.2</ele>
        <time>2022-09-10T10:16:45Z</time>
      </trkpt>
      <trkpt lat="43.24869" lon="-0.7637">
        <ele>164.2</ele>
        <time>2022-09-10T10:16:54Z</time>
      </trkpt>
      <trkpt lat="43.2487" lon="-0.76369">
        <ele>164.2</ele>
        <time>2022-09-10T10:16:55Z</time>
      </trkpt>
      <trkpt lat="43.24876" lon="-0.76362">
        <ele>163.8</ele>
        <time>2022-09-10T10:17:00Z</time>
      </trkpt>
      <trkpt lat="43.24877" lon="-0.7636">
        <ele>163.8</ele>
        <time>2022-09-10T10:17:01Z</time>
      </trkpt>
      <trkpt lat="43.24887" lon="-0.76352">
        <ele>164.2</ele>
        <time>2022-09-10T10:17:07Z</time>
      </trkpt>
      <trkpt lat="43.24901" lon="-0.76344">
        <ele>164.8</ele>
        <time>2022-09-10T10:17:13Z</time>
      </trkpt>
      <trkpt lat="43.24909" lon="-0.76339">
        <ele>165.4</ele>
        <time>2022-09-10T10:17:17Z</time>
      </trkpt>
      <trkpt lat="43.2491" lon="-0.76338">
        <ele>165.4</ele>
        <time>2022-09-10T10:17:18Z</time>
      </trkpt>
      <trkpt lat="43.24921" lon="-0.76332">
        <ele>166.4</ele>
        <time>2022-09-10T10:17:23Z</time>
      </trkpt>
      <trkpt lat="43.24923" lon="-0.7633">
        <ele>166.6</ele>
        <time>2022-09-10T10:17:24Z</time>
      </trkpt>
      <trkpt lat="43.24934" lon="-0.76321">
        <ele>167.6</ele>
        <time>2022-09-10T10:17:30Z</time>
      </trkpt>
      <trkpt lat="43.24945" lon="-0.76317">
        <ele>167.4</ele>
        <time>2022-09-10T10:17:35Z</time>
      </trkpt>
      <trkpt lat="43.24946" lon="-0.76315">
        <ele>167.2</ele>
        <time>2022-09-10T10:17:36Z</time>
      </trkpt>
      <trkpt lat="43.24955" lon="-0.76304">
        <ele>166.2</ele>
        <time>2022-09-10T10:17:40Z</time>
      </trkpt>
      <trkpt lat="43.24958" lon="-0.76302">
        <ele>165.8</ele>
        <time>2022-09-10T10:17:41Z</time>
      </trkpt>
      <trkpt lat="43.24961" lon="-0.76301">
        <ele>165.4</ele>
        <time>2022-09-10T10:17:42Z</time>
      </trkpt>
      <trkpt lat="43.24967" lon="-0.76299">
        <ele>164.8</ele>
        <time>2022-09-10T10:17:44Z</time>
      </trkpt>
      <trkpt lat="43.24973" lon="-0.763">
        <ele>164</ele>
        <time>2022-09-10T10:17:46Z</time>
      </trkpt>
      <trkpt lat="43.24978" lon="-0.76305">
        <ele>163.8</ele>
        <time>2022-09-10T10:17:48Z</time>
      </trkpt>
      <trkpt lat="43.24985" lon="-0.76312">
        <ele>163.2</ele>
        <time>2022-09-10T10:17:51Z</time>
      </trkpt>
      <trkpt lat="43.24995" lon="-0.76322">
        <ele>162.8</ele>
        <time>2022-09-10T10:17:57Z</time>
      </trkpt>
      <trkpt lat="43.24997" lon="-0.76324">
        <ele>162.6</ele>
        <time>2022-09-10T10:17:58Z</time>
      </trkpt>
      <trkpt lat="43.25003" lon="-0.76335">
        <ele>162.8</ele>
        <time>2022-09-10T10:18:02Z</time>
      </trkpt>
      <trkpt lat="43.25013" lon="-0.76352">
        <ele>162.4</ele>
        <time>2022-09-10T10:18:08Z</time>
      </trkpt>
      <trkpt lat="43.25021" lon="-0.76366">
        <ele>161.8</ele>
        <time>2022-09-10T10:18:13Z</time>
      </trkpt>
      <trkpt lat="43.25023" lon="-0.76369">
        <ele>161.6</ele>
        <time>2022-09-10T10:18:14Z</time>
      </trkpt>
      <trkpt lat="43.25031" lon="-0.76385">
        <ele>161</ele>
        <time>2022-09-10T10:18:18Z</time>
      </trkpt>
      <trkpt lat="43.25033" lon="-0.76391">
        <ele>160.2</ele>
        <time>2022-09-10T10:18:19Z</time>
      </trkpt>
      <trkpt lat="43.25035" lon="-0.76406">
        <ele>159.6</ele>
        <time>2022-09-10T10:18:22Z</time>
      </trkpt>
      <trkpt lat="43.25035" lon="-0.76435">
        <ele>160.8</ele>
        <time>2022-09-10T10:18:28Z</time>
      </trkpt>
      <trkpt lat="43.25037" lon="-0.76446">
        <ele>160.6</ele>
        <time>2022-09-10T10:18:32Z</time>
      </trkpt>
      <trkpt lat="43.2504" lon="-0.76454">
        <ele>160</ele>
        <time>2022-09-10T10:18:37Z</time>
      </trkpt>
      <trkpt lat="43.25045" lon="-0.76459">
        <ele>159</ele>
        <time>2022-09-10T10:18:55Z</time>
      </trkpt>
      <trkpt lat="43.25048" lon="-0.76458">
        <ele>159</ele>
        <time>2022-09-10T10:18:56Z</time>
      </trkpt>
      <trkpt lat="43.25074" lon="-0.76442">
        <ele>158.2</ele>
        <time>2022-09-10T10:19:02Z</time>
      </trkpt>
      <trkpt lat="43.25078" lon="-0.76438">
        <ele>158</ele>
        <time>2022-09-10T10:19:03Z</time>
      </trkpt>
      <trkpt lat="43.25092" lon="-0.76427">
        <ele>158.8</ele>
        <time>2022-09-10T10:19:07Z</time>
      </trkpt>
      <trkpt lat="43.25109" lon="-0.76415">
        <ele>159</ele>
        <time>2022-09-10T10:19:12Z</time>
      </trkpt>
      <trkpt lat="43.25115" lon="-0.76411">
        <ele>159.4</ele>
        <time>2022-09-10T10:19:14Z</time>
      </trkpt>
      <trkpt lat="43.25122" lon="-0.76409">
        <ele>160.2</ele>
        <time>2022-09-10T10:19:17Z</time>
      </trkpt>
      <trkpt lat="43.25124" lon="-0.7641">
        <ele>160.6</ele>
        <time>2022-09-10T10:19:18Z</time>
      </trkpt>
      <trkpt lat="43.25132" lon="-0.7642">
        <ele>161.2</ele>
        <time>2022-09-10T10:19:23Z</time>
      </trkpt>
      <trkpt lat="43.25133" lon="-0.76424">
        <ele>161.4</ele>
        <time>2022-09-10T10:19:24Z</time>
      </trkpt>
      <trkpt lat="43.25138" lon="-0.76448">
        <ele>161.8</ele>
        <time>2022-09-10T10:19:29Z</time>
      </trkpt>
      <trkpt lat="43.25142" lon="-0.76495">
        <ele>161.8</ele>
        <time>2022-09-10T10:19:37Z</time>
      </trkpt>
      <trkpt lat="43.25143" lon="-0.76543">
        <ele>162.2</ele>
        <time>2022-09-10T10:19:44Z</time>
      </trkpt>
      <trkpt lat="43.25142" lon="-0.76557">
        <ele>162.4</ele>
        <time>2022-09-10T10:19:46Z</time>
      </trkpt>
      <trkpt lat="43.2514" lon="-0.766">
        <ele>162.6</ele>
        <time>2022-09-10T10:19:52Z</time>
      </trkpt>
      <trkpt lat="43.25137" lon="-0.76664">
        <ele>162.4</ele>
        <time>2022-09-10T10:20:01Z</time>
      </trkpt>
      <trkpt lat="43.25141" lon="-0.76722">
        <ele>162.4</ele>
        <time>2022-09-10T10:20:09Z</time>
      </trkpt>
      <trkpt lat="43.25154" lon="-0.76774">
        <ele>162.8</ele>
        <time>2022-09-10T10:20:17Z</time>
      </trkpt>
      <trkpt lat="43.25163" lon="-0.76818">
        <ele>163</ele>
        <time>2022-09-10T10:20:24Z</time>
      </trkpt>
      <trkpt lat="43.25164" lon="-0.76831">
        <ele>162.8</ele>
        <time>2022-09-10T10:20:26Z</time>
      </trkpt>
      <trkpt lat="43.25167" lon="-0.76863">
        <ele>162.8</ele>
        <time>2022-09-10T10:20:31Z</time>
      </trkpt>
      <trkpt lat="43.2517" lon="-0.76913">
        <ele>163</ele>
        <time>2022-09-10T10:20:39Z</time>
      </trkpt>
      <trkpt lat="43.2518" lon="-0.76962">
        <ele>162.8</ele>
        <time>2022-09-10T10:20:47Z</time>
      </trkpt>
      <trkpt lat="43.25185" lon="-0.76978">
        <ele>162.8</ele>
        <time>2022-09-10T10:20:50Z</time>
      </trkpt>
      <trkpt lat="43.25191" lon="-0.7699">
        <ele>162.8</ele>
        <time>2022-09-10T10:20:53Z</time>
      </trkpt>
      <trkpt lat="43.25192" lon="-0.77">
        <ele>162.6</ele>
        <time>2022-09-10T10:20:57Z</time>
      </trkpt>
      <trkpt lat="43.25196" lon="-0.76997">
        <ele>162.6</ele>
        <time>2022-09-10T10:21:05Z</time>
      </trkpt>
      <trkpt lat="43.25198" lon="-0.76996">
        <ele>162.6</ele>
        <time>2022-09-10T10:21:06Z</time>
      </trkpt>
      <trkpt lat="43.25207" lon="-0.7699">
        <ele>163.6</ele>
        <time>2022-09-10T10:21:12Z</time>
      </trkpt>
      <trkpt lat="43.25215" lon="-0.76982">
        <ele>164.4</ele>
        <time>2022-09-10T10:21:18Z</time>
      </trkpt>
      <trkpt lat="43.25218" lon="-0.76981">
        <ele>164.6</ele>
        <time>2022-09-10T10:21:20Z</time>
      </trkpt>
      <trkpt lat="43.25219" lon="-0.76981">
        <ele>164.6</ele>
        <time>2022-09-10T10:21:21Z</time>
      </trkpt>
      <trkpt lat="43.25221" lon="-0.76982">
        <ele>164.8</ele>
        <time>2022-09-10T10:21:23Z</time>
      </trkpt>
      <trkpt lat="43.25225" lon="-0.7699">
        <ele>165.2</ele>
        <time>2022-09-10T10:22:18Z</time>
      </trkpt>
      <trkpt lat="43.25227" lon="-0.76991">
        <ele>165.2</ele>
        <time>2022-09-10T10:22:19Z</time>
      </trkpt>
      <trkpt lat="43.25231" lon="-0.76996">
        <ele>165.6</ele>
        <time>2022-09-10T10:22:23Z</time>
      </trkpt>
      <trkpt lat="43.25233" lon="-0.76997">
        <ele>165.6</ele>
        <time>2022-09-10T10:22:25Z</time>
      </trkpt>
      <trkpt lat="43.25235" lon="-0.76997">
        <ele>165.6</ele>
        <time>2022-09-10T10:22:26Z</time>
      </trkpt>
      <trkpt lat="43.2524" lon="-0.76999">
        <ele>165.6</ele>
        <time>2022-09-10T10:22:31Z</time>
      </trkpt>
      <trkpt lat="43.25243" lon="-0.77004">
        <ele>165.8</ele>
        <time>2022-09-10T10:22:36Z</time>
      </trkpt>
      <trkpt lat="43.25245" lon="-0.77004">
        <ele>165.8</ele>
        <time>2022-09-10T10:22:38Z</time>
      </trkpt>
      <trkpt lat="43.25245" lon="-0.77007">
        <ele>165.8</ele>
        <time>2022-09-10T10:22:40Z</time>
      </trkpt>
      <trkpt lat="43.2524" lon="-0.77004">
        <ele>165.8</ele>
        <time>2022-09-10T10:23:22Z</time>
      </trkpt>
      <trkpt lat="43.25239" lon="-0.77004">
        <ele>165.8</ele>
        <time>2022-09-10T10:23:23Z</time>
      </trkpt>
      <trkpt lat="43.25233" lon="-0.77">
        <ele>165.6</ele>
        <time>2022-09-10T10:23:27Z</time>
      </trkpt>
      <trkpt lat="43.25232" lon="-0.76999">
        <ele>165.6</ele>
        <time>2022-09-10T10:23:28Z</time>
      </trkpt>
      <trkpt lat="43.25226" lon="-0.76995">
        <ele>165.4</ele>
        <time>2022-09-10T10:23:33Z</time>
      </trkpt>
      <trkpt lat="43.25225" lon="-0.76994">
        <ele>165.4</ele>
        <time>2022-09-10T10:23:34Z</time>
      </trkpt>
      <trkpt lat="43.25221" lon="-0.76984">
        <ele>165</ele>
        <time>2022-09-10T10:23:39Z</time>
      </trkpt>
      <trkpt lat="43.2522" lon="-0.76983">
        <ele>164.4</ele>
        <time>2022-09-10T10:23:41Z</time>
      </trkpt>
      <trkpt lat="43.25214" lon="-0.76983">
        <ele>164.2</ele>
        <time>2022-09-10T10:24:41Z</time>
      </trkpt>
      <trkpt lat="43.252" lon="-0.76991">
        <ele>163.4</ele>
        <time>2022-09-10T10:24:47Z</time>
      </trkpt>
      <trkpt lat="43.25194" lon="-0.77008">
        <ele>162.6</ele>
        <time>2022-09-10T10:24:53Z</time>
      </trkpt>
      <trkpt lat="43.25195" lon="-0.77022">
        <ele>162.6</ele>
        <time>2022-09-10T10:24:57Z</time>
      </trkpt>
      <trkpt lat="43.25198" lon="-0.77033">
        <ele>162.6</ele>
        <time>2022-09-10T10:25:00Z</time>
      </trkpt>
      <trkpt lat="43.25209" lon="-0.77057">
        <ele>162.6</ele>
        <time>2022-09-10T10:25:07Z</time>
      </trkpt>
      <trkpt lat="43.25229" lon="-0.77089">
        <ele>163</ele>
        <time>2022-09-10T10:25:15Z</time>
      </trkpt>
      <trkpt lat="43.25242" lon="-0.77107">
        <ele>163.2</ele>
        <time>2022-09-10T10:25:19Z</time>
      </trkpt>
      <trkpt lat="43.25254" lon="-0.77121">
        <ele>163.4</ele>
        <time>2022-09-10T10:25:22Z</time>
      </trkpt>
      <trkpt lat="43.25267" lon="-0.77133">
        <ele>163.2</ele>
        <time>2022-09-10T10:25:25Z</time>
      </trkpt>
      <trkpt lat="43.25281" lon="-0.77142">
        <ele>163.2</ele>
        <time>2022-09-10T10:25:28Z</time>
      </trkpt>
      <trkpt lat="43.25314" lon="-0.77162">
        <ele>163.6</ele>
        <time>2022-09-10T10:25:35Z</time>
      </trkpt>
      <trkpt lat="43.25319" lon="-0.77164">
        <ele>163.6</ele>
        <time>2022-09-10T10:25:36Z</time>
      </trkpt>
      <trkpt lat="43.25348" lon="-0.7718">
        <ele>163.6</ele>
        <time>2022-09-10T10:25:42Z</time>
      </trkpt>
      <trkpt lat="43.2538" lon="-0.77199">
        <ele>164</ele>
        <time>2022-09-10T10:25:48Z</time>
      </trkpt>
      <trkpt lat="43.25385" lon="-0.77203">
        <ele>164</ele>
        <time>2022-09-10T10:25:49Z</time>
      </trkpt>
      <trkpt lat="43.25404" lon="-0.77224">
        <ele>164.2</ele>
        <time>2022-09-10T10:25:53Z</time>
      </trkpt>
      <trkpt lat="43.25413" lon="-0.77237">
        <ele>164.2</ele>
        <time>2022-09-10T10:25:55Z</time>
      </trkpt>
      <trkpt lat="43.25416" lon="-0.77244">
        <ele>164.6</ele>
        <time>2022-09-10T10:25:56Z</time>
      </trkpt>
      <trkpt lat="43.25428" lon="-0.77285">
        <ele>164.4</ele>
        <time>2022-09-10T10:26:01Z</time>
      </trkpt>
      <trkpt lat="43.25442" lon="-0.77365">
        <ele>165</ele>
        <time>2022-09-10T10:26:10Z</time>
      </trkpt>
      <trkpt lat="43.25438" lon="-0.7741">
        <ele>165.2</ele>
        <time>2022-09-10T10:26:15Z</time>
      </trkpt>
      <trkpt lat="43.25422" lon="-0.77464">
        <ele>164.8</ele>
        <time>2022-09-10T10:26:21Z</time>
      </trkpt>
      <trkpt lat="43.25405" lon="-0.77515">
        <ele>164.4</ele>
        <time>2022-09-10T10:26:27Z</time>
      </trkpt>
      <trkpt lat="43.25382" lon="-0.77584">
        <ele>164.4</ele>
        <time>2022-09-10T10:26:35Z</time>
      </trkpt>
      <trkpt lat="43.25359" lon="-0.77652">
        <ele>164.2</ele>
        <time>2022-09-10T10:26:43Z</time>
      </trkpt>
      <trkpt lat="43.25336" lon="-0.77717">
        <ele>165</ele>
        <time>2022-09-10T10:26:51Z</time>
      </trkpt>
      <trkpt lat="43.25312" lon="-0.77791">
        <ele>165.4</ele>
        <time>2022-09-10T10:27:00Z</time>
      </trkpt>
      <trkpt lat="43.25307" lon="-0.77806">
        <ele>165.2</ele>
        <time>2022-09-10T10:27:02Z</time>
      </trkpt>
      <trkpt lat="43.25282" lon="-0.77869">
        <ele>165.4</ele>
        <time>2022-09-10T10:27:10Z</time>
      </trkpt>
      <trkpt lat="43.25258" lon="-0.779">
        <ele>165.2</ele>
        <time>2022-09-10T10:27:15Z</time>
      </trkpt>
      <trkpt lat="43.25233" lon="-0.77941">
        <ele>165</ele>
        <time>2022-09-10T10:27:21Z</time>
      </trkpt>
      <trkpt lat="43.25216" lon="-0.77987">
        <ele>165.4</ele>
        <time>2022-09-10T10:27:27Z</time>
      </trkpt>
      <trkpt lat="43.25196" lon="-0.7805">
        <ele>165.4</ele>
        <time>2022-09-10T10:27:35Z</time>
      </trkpt>
      <trkpt lat="43.25187" lon="-0.78071">
        <ele>165.8</ele>
        <time>2022-09-10T10:27:38Z</time>
      </trkpt>
      <trkpt lat="43.25175" lon="-0.78091">
        <ele>165.6</ele>
        <time>2022-09-10T10:27:41Z</time>
      </trkpt>
      <trkpt lat="43.25161" lon="-0.78108">
        <ele>165.8</ele>
        <time>2022-09-10T10:27:44Z</time>
      </trkpt>
      <trkpt lat="43.2515" lon="-0.78116">
        <ele>165.6</ele>
        <time>2022-09-10T10:27:46Z</time>
      </trkpt>
      <trkpt lat="43.25102" lon="-0.78142">
        <ele>165.6</ele>
        <time>2022-09-10T10:27:54Z</time>
      </trkpt>
      <trkpt lat="43.25048" lon="-0.78166">
        <ele>166</ele>
        <time>2022-09-10T10:28:03Z</time>
      </trkpt>
      <trkpt lat="43.24995" lon="-0.7819">
        <ele>166.4</ele>
        <time>2022-09-10T10:28:12Z</time>
      </trkpt>
      <trkpt lat="43.24989" lon="-0.78193">
        <ele>166.4</ele>
        <time>2022-09-10T10:28:13Z</time>
      </trkpt>
      <trkpt lat="43.24949" lon="-0.78212">
        <ele>166.8</ele>
        <time>2022-09-10T10:28:20Z</time>
      </trkpt>
      <trkpt lat="43.24937" lon="-0.78218">
        <ele>166.8</ele>
        <time>2022-09-10T10:28:22Z</time>
      </trkpt>
      <trkpt lat="43.24885" lon="-0.78242">
        <ele>167.4</ele>
        <time>2022-09-10T10:28:31Z</time>
      </trkpt>
      <trkpt lat="43.24879" lon="-0.78245">
        <ele>167.6</ele>
        <time>2022-09-10T10:28:32Z</time>
      </trkpt>
      <trkpt lat="43.24845" lon="-0.7827">
        <ele>167.4</ele>
        <time>2022-09-10T10:28:38Z</time>
      </trkpt>
      <trkpt lat="43.24817" lon="-0.78309">
        <ele>167.2</ele>
        <time>2022-09-10T10:28:44Z</time>
      </trkpt>
      <trkpt lat="43.24811" lon="-0.78326">
        <ele>167.2</ele>
        <time>2022-09-10T10:28:46Z</time>
      </trkpt>
      <trkpt lat="43.24804" lon="-0.78351">
        <ele>167.4</ele>
        <time>2022-09-10T10:28:49Z</time>
      </trkpt>
      <trkpt lat="43.248" lon="-0.78386">
        <ele>167.6</ele>
        <time>2022-09-10T10:28:53Z</time>
      </trkpt>
      <trkpt lat="43.24797" lon="-0.78411">
        <ele>167.6</ele>
        <time>2022-09-10T10:28:56Z</time>
      </trkpt>
      <trkpt lat="43.24787" lon="-0.78486">
        <ele>167.8</ele>
        <time>2022-09-10T10:29:05Z</time>
      </trkpt>
      <trkpt lat="43.24778" lon="-0.78561">
        <ele>168</ele>
        <time>2022-09-10T10:29:14Z</time>
      </trkpt>
      <trkpt lat="43.24776" lon="-0.78577">
        <ele>167.8</ele>
        <time>2022-09-10T10:29:16Z</time>
      </trkpt>
      <trkpt lat="43.24769" lon="-0.78632">
        <ele>167.8</ele>
        <time>2022-09-10T10:29:23Z</time>
      </trkpt>
      <trkpt lat="43.24766" lon="-0.78685">
        <ele>167.8</ele>
        <time>2022-09-10T10:29:29Z</time>
      </trkpt>
      <trkpt lat="43.2477" lon="-0.78748">
        <ele>168</ele>
        <time>2022-09-10T10:29:36Z</time>
      </trkpt>
      <trkpt lat="43.24776" lon="-0.78809">
        <ele>168.4</ele>
        <time>2022-09-10T10:29:43Z</time>
      </trkpt>
      <trkpt lat="43.24781" lon="-0.78848">
        <ele>168.4</ele>
        <time>2022-09-10T10:29:48Z</time>
      </trkpt>
      <trkpt lat="43.24782" lon="-0.78856">
        <ele>168.2</ele>
        <time>2022-09-10T10:29:49Z</time>
      </trkpt>
      <trkpt lat="43.24785" lon="-0.78889">
        <ele>168.6</ele>
        <time>2022-09-10T10:29:53Z</time>
      </trkpt>
      <trkpt lat="43.24789" lon="-0.7893">
        <ele>168.8</ele>
        <time>2022-09-10T10:29:58Z</time>
      </trkpt>
      <trkpt lat="43.2479" lon="-0.78937">
        <ele>168.8</ele>
        <time>2022-09-10T10:29:59Z</time>
      </trkpt>
      <trkpt lat="43.24793" lon="-0.78958">
        <ele>169.2</ele>
        <time>2022-09-10T10:30:02Z</time>
      </trkpt>
      <trkpt lat="43.24796" lon="-0.78987">
        <ele>169.2</ele>
        <time>2022-09-10T10:30:06Z</time>
      </trkpt>
      <trkpt lat="43.24797" lon="-0.78994">
        <ele>169.2</ele>
        <time>2022-09-10T10:30:07Z</time>
      </trkpt>
      <trkpt lat="43.24798" lon="-0.79008">
        <ele>169.2</ele>
        <time>2022-09-10T10:30:09Z</time>
      </trkpt>
      <trkpt lat="43.24797" lon="-0.7903">
        <ele>169.4</ele>
        <time>2022-09-10T10:30:12Z</time>
      </trkpt>
      <trkpt lat="43.24796" lon="-0.79061">
        <ele>169.8</ele>
        <time>2022-09-10T10:30:16Z</time>
      </trkpt>
      <trkpt lat="43.24795" lon="-0.79069">
        <ele>169.6</ele>
        <time>2022-09-10T10:30:17Z</time>
      </trkpt>
      <trkpt lat="43.24787" lon="-0.79119">
        <ele>169.8</ele>
        <time>2022-09-10T10:30:23Z</time>
      </trkpt>
      <trkpt lat="43.2478" lon="-0.79149">
        <ele>170.2</ele>
        <time>2022-09-10T10:30:26Z</time>
      </trkpt>
      <trkpt lat="43.2477" lon="-0.79174">
        <ele>170.4</ele>
        <time>2022-09-10T10:30:29Z</time>
      </trkpt>
      <trkpt lat="43.24746" lon="-0.79217">
        <ele>170.8</ele>
        <time>2022-09-10T10:30:35Z</time>
      </trkpt>
      <trkpt lat="43.24715" lon="-0.79252">
        <ele>170.4</ele>
        <time>2022-09-10T10:30:41Z</time>
      </trkpt>
      <trkpt lat="43.24709" lon="-0.79256">
        <ele>170.6</ele>
        <time>2022-09-10T10:30:42Z</time>
      </trkpt>
      <trkpt lat="43.24679" lon="-0.79278">
        <ele>170.4</ele>
        <time>2022-09-10T10:30:47Z</time>
      </trkpt>
      <trkpt lat="43.24634" lon="-0.79299">
        <ele>170.6</ele>
        <time>2022-09-10T10:30:54Z</time>
      </trkpt>
      <trkpt lat="43.2458" lon="-0.79316">
        <ele>170.4</ele>
        <time>2022-09-10T10:31:02Z</time>
      </trkpt>
      <trkpt lat="43.24574" lon="-0.79318">
        <ele>170.4</ele>
        <time>2022-09-10T10:31:03Z</time>
      </trkpt>
      <trkpt lat="43.24521" lon="-0.79334">
        <ele>171</ele>
        <time>2022-09-10T10:31:11Z</time>
      </trkpt>
      <trkpt lat="43.24478" lon="-0.7935">
        <ele>171.4</ele>
        <time>2022-09-10T10:31:18Z</time>
      </trkpt>
      <trkpt lat="43.24472" lon="-0.79354">
        <ele>171.4</ele>
        <time>2022-09-10T10:31:19Z</time>
      </trkpt>
      <trkpt lat="43.24453" lon="-0.79377">
        <ele>171.6</ele>
        <time>2022-09-10T10:31:23Z</time>
      </trkpt>
      <trkpt lat="43.2444" lon="-0.79408">
        <ele>171.8</ele>
        <time>2022-09-10T10:31:27Z</time>
      </trkpt>
      <trkpt lat="43.24437" lon="-0.79444">
        <ele>171.6</ele>
        <time>2022-09-10T10:31:31Z</time>
      </trkpt>
      <trkpt lat="43.24444" lon="-0.79479">
        <ele>172.2</ele>
        <time>2022-09-10T10:31:35Z</time>
      </trkpt>
      <trkpt lat="43.24447" lon="-0.79487">
        <ele>172.6</ele>
        <time>2022-09-10T10:31:36Z</time>
      </trkpt>
      <trkpt lat="43.24464" lon="-0.79516">
        <ele>172.8</ele>
        <time>2022-09-10T10:31:40Z</time>
      </trkpt>
      <trkpt lat="43.24505" lon="-0.79574">
        <ele>172.8</ele>
        <time>2022-09-10T10:31:49Z</time>
      </trkpt>
      <trkpt lat="43.24542" lon="-0.79632">
        <ele>173.2</ele>
        <time>2022-09-10T10:31:58Z</time>
      </trkpt>
      <trkpt lat="43.24577" lon="-0.79685">
        <ele>172.8</ele>
        <time>2022-09-10T10:32:06Z</time>
      </trkpt>
      <trkpt lat="43.24603" lon="-0.79733">
        <ele>173.2</ele>
        <time>2022-09-10T10:32:13Z</time>
      </trkpt>
      <trkpt lat="43.24624" lon="-0.79786">
        <ele>173.8</ele>
        <time>2022-09-10T10:32:20Z</time>
      </trkpt>
      <trkpt lat="43.2464" lon="-0.79854">
        <ele>174.4</ele>
        <time>2022-09-10T10:32:28Z</time>
      </trkpt>
      <trkpt lat="43.24644" lon="-0.79914">
        <ele>174.2</ele>
        <time>2022-09-10T10:32:35Z</time>
      </trkpt>
      <trkpt lat="43.24641" lon="-0.79949">
        <ele>174.8</ele>
        <time>2022-09-10T10:32:39Z</time>
      </trkpt>
      <trkpt lat="43.24639" lon="-0.79975">
        <ele>174.6</ele>
        <time>2022-09-10T10:32:42Z</time>
      </trkpt>
      <trkpt lat="43.24623" lon="-0.80041">
        <ele>174</ele>
        <time>2022-09-10T10:32:50Z</time>
      </trkpt>
      <trkpt lat="43.2462" lon="-0.80049">
        <ele>173.6</ele>
        <time>2022-09-10T10:32:51Z</time>
      </trkpt>
      <trkpt lat="43.24606" lon="-0.80086">
        <ele>174.2</ele>
        <time>2022-09-10T10:32:56Z</time>
      </trkpt>
      <trkpt lat="43.24576" lon="-0.80143">
        <ele>174</ele>
        <time>2022-09-10T10:33:04Z</time>
      </trkpt>
      <trkpt lat="43.24549" lon="-0.80191">
        <ele>174.4</ele>
        <time>2022-09-10T10:33:11Z</time>
      </trkpt>
      <trkpt lat="43.24534" lon="-0.80219">
        <ele>174.6</ele>
        <time>2022-09-10T10:33:15Z</time>
      </trkpt>
      <trkpt lat="43.24518" lon="-0.80247">
        <ele>174.6</ele>
        <time>2022-09-10T10:33:19Z</time>
      </trkpt>
      <trkpt lat="43.2449" lon="-0.80297">
        <ele>174.8</ele>
        <time>2022-09-10T10:33:26Z</time>
      </trkpt>
      <trkpt lat="43.24459" lon="-0.80355">
        <ele>175.2</ele>
        <time>2022-09-10T10:33:34Z</time>
      </trkpt>
      <trkpt lat="43.24426" lon="-0.80415">
        <ele>174.8</ele>
        <time>2022-09-10T10:33:42Z</time>
      </trkpt>
      <trkpt lat="43.24405" lon="-0.80463">
        <ele>175</ele>
        <time>2022-09-10T10:33:48Z</time>
      </trkpt>
      <trkpt lat="43.24402" lon="-0.80472">
        <ele>175</ele>
        <time>2022-09-10T10:33:49Z</time>
      </trkpt>
      <trkpt lat="43.24398" lon="-0.80502">
        <ele>175</ele>
        <time>2022-09-10T10:33:52Z</time>
      </trkpt>
      <trkpt lat="43.24397" lon="-0.80522">
        <ele>175.2</ele>
        <time>2022-09-10T10:33:54Z</time>
      </trkpt>
      <trkpt lat="43.244" lon="-0.80583">
        <ele>175.4</ele>
        <time>2022-09-10T10:34:00Z</time>
      </trkpt>
      <trkpt lat="43.24401" lon="-0.80643">
        <ele>175.2</ele>
        <time>2022-09-10T10:34:06Z</time>
      </trkpt>
      <trkpt lat="43.24396" lon="-0.80694">
        <ele>175</ele>
        <time>2022-09-10T10:34:11Z</time>
      </trkpt>
      <trkpt lat="43.24394" lon="-0.80705">
        <ele>175</ele>
        <time>2022-09-10T10:34:12Z</time>
      </trkpt>
      <trkpt lat="43.24385" lon="-0.80746">
        <ele>176</ele>
        <time>2022-09-10T10:34:16Z</time>
      </trkpt>
      <trkpt lat="43.24378" lon="-0.80777">
        <ele>175.6</ele>
        <time>2022-09-10T10:34:19Z</time>
      </trkpt>
      <trkpt lat="43.24361" lon="-0.80838">
        <ele>174.8</ele>
        <time>2022-09-10T10:34:25Z</time>
      </trkpt>
      <trkpt lat="43.24352" lon="-0.80869">
        <ele>174.4</ele>
        <time>2022-09-10T10:34:28Z</time>
      </trkpt>
      <trkpt lat="43.24333" lon="-0.80939">
        <ele>174.4</ele>
        <time>2022-09-10T10:34:35Z</time>
      </trkpt>
      <trkpt lat="43.2433" lon="-0.80948">
        <ele>174.4</ele>
        <time>2022-09-10T10:34:36Z</time>
      </trkpt>
      <trkpt lat="43.24306" lon="-0.81001">
        <ele>175.2</ele>
        <time>2022-09-10T10:34:42Z</time>
      </trkpt>
      <trkpt lat="43.2427" lon="-0.81068">
        <ele>174.2</ele>
        <time>2022-09-10T10:34:50Z</time>
      </trkpt>
      <trkpt lat="43.24263" lon="-0.81086">
        <ele>174.6</ele>
        <time>2022-09-10T10:34:52Z</time>
      </trkpt>
      <trkpt lat="43.24256" lon="-0.81114">
        <ele>174.6</ele>
        <time>2022-09-10T10:34:55Z</time>
      </trkpt>
      <trkpt lat="43.24243" lon="-0.81167">
        <ele>175.6</ele>
        <time>2022-09-10T10:35:01Z</time>
      </trkpt>
      <trkpt lat="43.24234" lon="-0.81199">
        <ele>175.8</ele>
        <time>2022-09-10T10:35:05Z</time>
      </trkpt>
      <trkpt lat="43.24232" lon="-0.81207">
        <ele>175.8</ele>
        <time>2022-09-10T10:35:06Z</time>
      </trkpt>
      <trkpt lat="43.24222" lon="-0.81238">
        <ele>177</ele>
        <time>2022-09-10T10:35:10Z</time>
      </trkpt>
      <trkpt lat="43.24212" lon="-0.8126">
        <ele>177</ele>
        <time>2022-09-10T10:35:13Z</time>
      </trkpt>
      <trkpt lat="43.24188" lon="-0.81302">
        <ele>177</ele>
        <time>2022-09-10T10:35:19Z</time>
      </trkpt>
      <trkpt lat="43.2415" lon="-0.81359">
        <ele>177</ele>
        <time>2022-09-10T10:35:27Z</time>
      </trkpt>
      <trkpt lat="43.24125" lon="-0.81402">
        <ele>176.8</ele>
        <time>2022-09-10T10:35:34Z</time>
      </trkpt>
      <trkpt lat="43.24115" lon="-0.81424">
        <ele>176.6</ele>
        <time>2022-09-10T10:35:37Z</time>
      </trkpt>
      <trkpt lat="43.24103" lon="-0.81456">
        <ele>177</ele>
        <time>2022-09-10T10:35:41Z</time>
      </trkpt>
      <trkpt lat="43.2408" lon="-0.81527">
        <ele>177.4</ele>
        <time>2022-09-10T10:35:50Z</time>
      </trkpt>
      <trkpt lat="43.24054" lon="-0.81601">
        <ele>178</ele>
        <time>2022-09-10T10:35:59Z</time>
      </trkpt>
      <trkpt lat="43.2403" lon="-0.81636">
        <ele>178.4</ele>
        <time>2022-09-10T10:36:04Z</time>
      </trkpt>
      <trkpt lat="43.24002" lon="-0.81671">
        <ele>178.8</ele>
        <time>2022-09-10T10:36:10Z</time>
      </trkpt>
      <trkpt lat="43.23979" lon="-0.81698">
        <ele>178.8</ele>
        <time>2022-09-10T10:36:15Z</time>
      </trkpt>
      <trkpt lat="43.2396" lon="-0.81721">
        <ele>179</ele>
        <time>2022-09-10T10:36:19Z</time>
      </trkpt>
      <trkpt lat="43.23947" lon="-0.81738">
        <ele>178.8</ele>
        <time>2022-09-10T10:36:22Z</time>
      </trkpt>
      <trkpt lat="43.23943" lon="-0.81744">
        <ele>178.8</ele>
        <time>2022-09-10T10:36:23Z</time>
      </trkpt>
      <trkpt lat="43.23931" lon="-0.81763">
        <ele>179.6</ele>
        <time>2022-09-10T10:36:26Z</time>
      </trkpt>
      <trkpt lat="43.23907" lon="-0.81801">
        <ele>179.4</ele>
        <time>2022-09-10T10:36:32Z</time>
      </trkpt>
      <trkpt lat="43.23874" lon="-0.81856">
        <ele>180</ele>
        <time>2022-09-10T10:36:40Z</time>
      </trkpt>
      <trkpt lat="43.23862" lon="-0.81876">
        <ele>180.2</ele>
        <time>2022-09-10T10:36:43Z</time>
      </trkpt>
      <trkpt lat="43.23846" lon="-0.81903">
        <ele>180</ele>
        <time>2022-09-10T10:36:47Z</time>
      </trkpt>
      <trkpt lat="43.23819" lon="-0.8194">
        <ele>180.4</ele>
        <time>2022-09-10T10:36:53Z</time>
      </trkpt>
      <trkpt lat="43.23794" lon="-0.81969">
        <ele>181.4</ele>
        <time>2022-09-10T10:36:58Z</time>
      </trkpt>
      <trkpt lat="43.23778" lon="-0.81985">
        <ele>181.4</ele>
        <time>2022-09-10T10:37:01Z</time>
      </trkpt>
      <trkpt lat="43.23735" lon="-0.82022">
        <ele>181.8</ele>
        <time>2022-09-10T10:37:09Z</time>
      </trkpt>
      <trkpt lat="43.23706" lon="-0.82048">
        <ele>182.2</ele>
        <time>2022-09-10T10:37:15Z</time>
      </trkpt>
      <trkpt lat="43.23701" lon="-0.82052">
        <ele>182.4</ele>
        <time>2022-09-10T10:37:16Z</time>
      </trkpt>
      <trkpt lat="43.23672" lon="-0.82078">
        <ele>183.2</ele>
        <time>2022-09-10T10:37:22Z</time>
      </trkpt>
      <trkpt lat="43.23653" lon="-0.82097">
        <ele>183.4</ele>
        <time>2022-09-10T10:37:26Z</time>
      </trkpt>
      <trkpt lat="43.23631" lon="-0.82126">
        <ele>184</ele>
        <time>2022-09-10T10:37:31Z</time>
      </trkpt>
      <trkpt lat="43.23615" lon="-0.8215">
        <ele>184.4</ele>
        <time>2022-09-10T10:37:35Z</time>
      </trkpt>
      <trkpt lat="43.23604" lon="-0.82168">
        <ele>184.4</ele>
        <time>2022-09-10T10:37:38Z</time>
      </trkpt>
      <trkpt lat="43.23576" lon="-0.82221">
        <ele>184.2</ele>
        <time>2022-09-10T10:37:46Z</time>
      </trkpt>
      <trkpt lat="43.23547" lon="-0.82282">
        <ele>183.4</ele>
        <time>2022-09-10T10:37:54Z</time>
      </trkpt>
      <trkpt lat="43.23524" lon="-0.82346">
        <ele>183</ele>
        <time>2022-09-10T10:38:01Z</time>
      </trkpt>
      <trkpt lat="43.23511" lon="-0.82407">
        <ele>182.8</ele>
        <time>2022-09-10T10:38:07Z</time>
      </trkpt>
      <trkpt lat="43.23499" lon="-0.82486">
        <ele>182.6</ele>
        <time>2022-09-10T10:38:15Z</time>
      </trkpt>
      <trkpt lat="43.23497" lon="-0.82496">
        <ele>182.6</ele>
        <time>2022-09-10T10:38:16Z</time>
      </trkpt>
      <trkpt lat="43.23492" lon="-0.82525">
        <ele>182.4</ele>
        <time>2022-09-10T10:38:19Z</time>
      </trkpt>
      <trkpt lat="43.23489" lon="-0.82535">
        <ele>182.2</ele>
        <time>2022-09-10T10:38:20Z</time>
      </trkpt>
      <trkpt lat="43.23482" lon="-0.82552">
        <ele>182.6</ele>
        <time>2022-09-10T10:38:22Z</time>
      </trkpt>
      <trkpt lat="43.2347" lon="-0.82577">
        <ele>183</ele>
        <time>2022-09-10T10:38:25Z</time>
      </trkpt>
      <trkpt lat="43.2346" lon="-0.82591">
        <ele>183</ele>
        <time>2022-09-10T10:38:27Z</time>
      </trkpt>
      <trkpt lat="43.23448" lon="-0.82603">
        <ele>183.2</ele>
        <time>2022-09-10T10:38:29Z</time>
      </trkpt>
      <trkpt lat="43.2343" lon="-0.82618">
        <ele>183.2</ele>
        <time>2022-09-10T10:38:32Z</time>
      </trkpt>
      <trkpt lat="43.23423" lon="-0.82621">
        <ele>183.4</ele>
        <time>2022-09-10T10:38:33Z</time>
      </trkpt>
      <trkpt lat="43.23409" lon="-0.82628">
        <ele>183.4</ele>
        <time>2022-09-10T10:38:35Z</time>
      </trkpt>
      <trkpt lat="43.23395" lon="-0.82631">
        <ele>183.4</ele>
        <time>2022-09-10T10:38:37Z</time>
      </trkpt>
      <trkpt lat="43.23349" lon="-0.82639">
        <ele>184</ele>
        <time>2022-09-10T10:38:44Z</time>
      </trkpt>
      <trkpt lat="43.23337" lon="-0.82644">
        <ele>184.4</ele>
        <time>2022-09-10T10:38:46Z</time>
      </trkpt>
      <trkpt lat="43.23331" lon="-0.82648">
        <ele>184.6</ele>
        <time>2022-09-10T10:38:47Z</time>
      </trkpt>
      <trkpt lat="43.2332" lon="-0.82657">
        <ele>185</ele>
        <time>2022-09-10T10:38:49Z</time>
      </trkpt>
      <trkpt lat="43.2331" lon="-0.82667">
        <ele>185.4</ele>
        <time>2022-09-10T10:38:51Z</time>
      </trkpt>
      <trkpt lat="43.23292" lon="-0.82688">
        <ele>186</ele>
        <time>2022-09-10T10:38:55Z</time>
      </trkpt>
      <trkpt lat="43.23276" lon="-0.82707">
        <ele>186.4</ele>
        <time>2022-09-10T10:38:59Z</time>
      </trkpt>
      <trkpt lat="43.23265" lon="-0.82721">
        <ele>186.8</ele>
        <time>2022-09-10T10:39:02Z</time>
      </trkpt>
      <trkpt lat="43.23244" lon="-0.82747">
        <ele>187.6</ele>
        <time>2022-09-10T10:39:08Z</time>
      </trkpt>
      <trkpt lat="43.23238" lon="-0.82754">
        <ele>188</ele>
        <time>2022-09-10T10:39:10Z</time>
      </trkpt>
      <trkpt lat="43.23229" lon="-0.82769">
        <ele>188.6</ele>
        <time>2022-09-10T10:39:14Z</time>
      </trkpt>
      <trkpt lat="43.23221" lon="-0.82779">
        <ele>189.2</ele>
        <time>2022-09-10T10:39:17Z</time>
      </trkpt>
      <trkpt lat="43.23217" lon="-0.82786">
        <ele>189.6</ele>
        <time>2022-09-10T10:39:19Z</time>
      </trkpt>
      <trkpt lat="43.23205" lon="-0.82803">
        <ele>190.8</ele>
        <time>2022-09-10T10:39:25Z</time>
      </trkpt>
      <trkpt lat="43.23203" lon="-0.82805">
        <ele>191</ele>
        <time>2022-09-10T10:39:26Z</time>
      </trkpt>
      <trkpt lat="43.23194" lon="-0.82819">
        <ele>191.8</ele>
        <time>2022-09-10T10:39:31Z</time>
      </trkpt>
      <trkpt lat="43.23188" lon="-0.82828">
        <ele>192.8</ele>
        <time>2022-09-10T10:39:34Z</time>
      </trkpt>
      <trkpt lat="43.23186" lon="-0.8283">
        <ele>193</ele>
        <time>2022-09-10T10:39:35Z</time>
      </trkpt>
      <trkpt lat="43.23177" lon="-0.82846">
        <ele>194</ele>
        <time>2022-09-10T10:39:41Z</time>
      </trkpt>
      <trkpt lat="43.23175" lon="-0.82848">
        <ele>194</ele>
        <time>2022-09-10T10:39:42Z</time>
      </trkpt>
      <trkpt lat="43.23167" lon="-0.82858">
        <ele>195</ele>
        <time>2022-09-10T10:39:47Z</time>
      </trkpt>
      <trkpt lat="43.23164" lon="-0.82863">
        <ele>195.2</ele>
        <time>2022-09-10T10:39:49Z</time>
      </trkpt>
      <trkpt lat="43.23158" lon="-0.82873">
        <ele>195.8</ele>
        <time>2022-09-10T10:39:53Z</time>
      </trkpt>
      <trkpt lat="43.23153" lon="-0.82879">
        <ele>196.2</ele>
        <time>2022-09-10T10:39:56Z</time>
      </trkpt>
      <trkpt lat="43.23146" lon="-0.82889">
        <ele>197.4</ele>
        <time>2022-09-10T10:40:01Z</time>
      </trkpt>
      <trkpt lat="43.23142" lon="-0.82894">
        <ele>197.6</ele>
        <time>2022-09-10T10:40:03Z</time>
      </trkpt>
      <trkpt lat="43.23131" lon="-0.82905">
        <ele>198.4</ele>
        <time>2022-09-10T10:40:09Z</time>
      </trkpt>
      <trkpt lat="43.23129" lon="-0.82907">
        <ele>198.4</ele>
        <time>2022-09-10T10:40:10Z</time>
      </trkpt>
      <trkpt lat="43.23113" lon="-0.82922">
        <ele>199</ele>
        <time>2022-09-10T10:40:17Z</time>
      </trkpt>
      <trkpt lat="43.23101" lon="-0.8293">
        <ele>199.6</ele>
        <time>2022-09-10T10:40:22Z</time>
      </trkpt>
      <trkpt lat="43.23097" lon="-0.82935">
        <ele>199.6</ele>
        <time>2022-09-10T10:40:24Z</time>
      </trkpt>
      <trkpt lat="43.23076" lon="-0.82954">
        <ele>200.2</ele>
        <time>2022-09-10T10:40:32Z</time>
      </trkpt>
      <trkpt lat="43.23056" lon="-0.82971">
        <ele>200.6</ele>
        <time>2022-09-10T10:40:39Z</time>
      </trkpt>
      <trkpt lat="43.23053" lon="-0.82973">
        <ele>200.8</ele>
        <time>2022-09-10T10:40:40Z</time>
      </trkpt>
      <trkpt lat="43.2303" lon="-0.82994">
        <ele>201.6</ele>
        <time>2022-09-10T10:40:48Z</time>
      </trkpt>
      <trkpt lat="43.23028" lon="-0.82997">
        <ele>201.8</ele>
        <time>2022-09-10T10:40:49Z</time>
      </trkpt>
      <trkpt lat="43.23007" lon="-0.8302">
        <ele>202.2</ele>
        <time>2022-09-10T10:40:57Z</time>
      </trkpt>
      <trkpt lat="43.22999" lon="-0.83026">
        <ele>202.6</ele>
        <time>2022-09-10T10:41:00Z</time>
      </trkpt>
      <trkpt lat="43.22995" lon="-0.83027">
        <ele>202.8</ele>
        <time>2022-09-10T10:41:01Z</time>
      </trkpt>
      <trkpt lat="43.22984" lon="-0.83039">
        <ele>203</ele>
        <time>2022-09-10T10:41:06Z</time>
      </trkpt>
      <trkpt lat="43.22977" lon="-0.83055">
        <ele>203.4</ele>
        <time>2022-09-10T10:41:13Z</time>
      </trkpt>
      <trkpt lat="43.22971" lon="-0.83063">
        <ele>203.8</ele>
        <time>2022-09-10T10:41:44Z</time>
      </trkpt>
      <trkpt lat="43.22966" lon="-0.83069">
        <ele>203.8</ele>
        <time>2022-09-10T10:42:14Z</time>
      </trkpt>
      <trkpt lat="43.22964" lon="-0.83071">
        <ele>203.6</ele>
        <time>2022-09-10T10:42:15Z</time>
      </trkpt>
      <trkpt lat="43.22956" lon="-0.83083">
        <ele>203.6</ele>
        <time>2022-09-10T10:42:21Z</time>
      </trkpt>
      <trkpt lat="43.22971" lon="-0.83061">
        <ele>204.4</ele>
        <time>2022-09-10T10:50:34Z</time>
      </trkpt>
      <trkpt lat="43.2297" lon="-0.83062">
        <ele>204.2</ele>
        <time>2022-09-10T10:50:35Z</time>
      </trkpt>
      <trkpt lat="43.22971" lon="-0.83063">
        <ele>204.4</ele>
        <time>2022-09-10T10:50:39Z</time>
      </trkpt>
      <trkpt lat="43.22972" lon="-0.83061">
        <ele>204.4</ele>
        <time>2022-09-10T10:50:40Z</time>
      </trkpt>
      <trkpt lat="43.22982" lon="-0.83049">
        <ele>204.2</ele>
        <time>2022-09-10T10:50:47Z</time>
      </trkpt>
      <trkpt lat="43.2298" lon="-0.83046">
        <ele>204</ele>
        <time>2022-09-10T10:50:48Z</time>
      </trkpt>
      <trkpt lat="43.22975" lon="-0.83047">
        <ele>203.4</ele>
        <time>2022-09-10T10:50:50Z</time>
      </trkpt>
      <trkpt lat="43.22969" lon="-0.83054">
        <ele>202.8</ele>
        <time>2022-09-10T10:50:52Z</time>
      </trkpt>
      <trkpt lat="43.22961" lon="-0.83061">
        <ele>202.2</ele>
        <time>2022-09-10T10:50:54Z</time>
      </trkpt>
      <trkpt lat="43.22946" lon="-0.83072">
        <ele>201.8</ele>
        <time>2022-09-10T10:50:57Z</time>
      </trkpt>
      <trkpt lat="43.22935" lon="-0.83081">
        <ele>201.2</ele>
        <time>2022-09-10T10:50:59Z</time>
      </trkpt>
      <trkpt lat="43.22924" lon="-0.8309">
        <ele>200.6</ele>
        <time>2022-09-10T10:51:01Z</time>
      </trkpt>
      <trkpt lat="43.2291" lon="-0.83106">
        <ele>200</ele>
        <time>2022-09-10T10:51:04Z</time>
      </trkpt>
      <trkpt lat="43.22905" lon="-0.83113">
        <ele>199.8</ele>
        <time>2022-09-10T10:51:05Z</time>
      </trkpt>
      <trkpt lat="43.22896" lon="-0.83127">
        <ele>199.6</ele>
        <time>2022-09-10T10:51:07Z</time>
      </trkpt>
      <trkpt lat="43.22882" lon="-0.83146">
        <ele>199.2</ele>
        <time>2022-09-10T10:51:10Z</time>
      </trkpt>
      <trkpt lat="43.22877" lon="-0.8315">
        <ele>199</ele>
        <time>2022-09-10T10:51:11Z</time>
      </trkpt>
      <trkpt lat="43.22863" lon="-0.83147">
        <ele>199.2</ele>
        <time>2022-09-10T10:51:14Z</time>
      </trkpt>
      <trkpt lat="43.22854" lon="-0.83134">
        <ele>199</ele>
        <time>2022-09-10T10:51:17Z</time>
      </trkpt>
      <trkpt lat="43.22852" lon="-0.8313">
        <ele>199</ele>
        <time>2022-09-10T10:51:18Z</time>
      </trkpt>
      <trkpt lat="43.2283" lon="-0.831">
        <ele>200</ele>
        <time>2022-09-10T10:51:26Z</time>
      </trkpt>
      <trkpt lat="43.22824" lon="-0.83096">
        <ele>200.6</ele>
        <time>2022-09-10T10:51:29Z</time>
      </trkpt>
      <trkpt lat="43.22819" lon="-0.83094">
        <ele>201.2</ele>
        <time>2022-09-10T10:51:31Z</time>
      </trkpt>
      <trkpt lat="43.22815" lon="-0.83091">
        <ele>201.8</ele>
        <time>2022-09-10T10:51:33Z</time>
      </trkpt>
      <trkpt lat="43.22809" lon="-0.83089">
        <ele>202.8</ele>
        <time>2022-09-10T10:51:36Z</time>
      </trkpt>
      <trkpt lat="43.22806" lon="-0.83087">
        <ele>203.2</ele>
        <time>2022-09-10T10:51:38Z</time>
      </trkpt>
      <trkpt lat="43.228" lon="-0.83086">
        <ele>203.8</ele>
        <time>2022-09-10T10:51:41Z</time>
      </trkpt>
      <trkpt lat="43.22795" lon="-0.83084">
        <ele>204.4</ele>
        <time>2022-09-10T10:51:44Z</time>
      </trkpt>
      <trkpt lat="43.22789" lon="-0.83081">
        <ele>205</ele>
        <time>2022-09-10T10:51:48Z</time>
      </trkpt>
      <trkpt lat="43.22782" lon="-0.83076">
        <ele>205.6</ele>
        <time>2022-09-10T10:51:52Z</time>
      </trkpt>
      <trkpt lat="43.2278" lon="-0.83074">
        <ele>206.2</ele>
        <time>2022-09-10T10:51:54Z</time>
      </trkpt>
      <trkpt lat="43.22771" lon="-0.83067">
        <ele>207</ele>
        <time>2022-09-10T10:51:59Z</time>
      </trkpt>
      <trkpt lat="43.22766" lon="-0.83063">
        <ele>207.2</ele>
        <time>2022-09-10T10:52:02Z</time>
      </trkpt>
      <trkpt lat="43.22752" lon="-0.83052">
        <ele>207.6</ele>
        <time>2022-09-10T10:52:09Z</time>
      </trkpt>
      <trkpt lat="43.22744" lon="-0.83044">
        <ele>208.2</ele>
        <time>2022-09-10T10:52:13Z</time>
      </trkpt>
      <trkpt lat="43.22734" lon="-0.83039">
        <ele>208.6</ele>
        <time>2022-09-10T10:52:17Z</time>
      </trkpt>
      <trkpt lat="43.2272" lon="-0.83029">
        <ele>209.2</ele>
        <time>2022-09-10T10:52:23Z</time>
      </trkpt>
      <trkpt lat="43.22717" lon="-0.83028">
        <ele>209.2</ele>
        <time>2022-09-10T10:52:24Z</time>
      </trkpt>
      <trkpt lat="43.22701" lon="-0.83018">
        <ele>209.4</ele>
        <time>2022-09-10T10:52:30Z</time>
      </trkpt>
      <trkpt lat="43.22692" lon="-0.83014">
        <ele>209.4</ele>
        <time>2022-09-10T10:52:33Z</time>
      </trkpt>
      <trkpt lat="43.22669" lon="-0.83004">
        <ele>209</ele>
        <time>2022-09-10T10:52:40Z</time>
      </trkpt>
      <trkpt lat="43.22631" lon="-0.82993">
        <ele>208.4</ele>
        <time>2022-09-10T10:52:50Z</time>
      </trkpt>
      <trkpt lat="43.226" lon="-0.82989">
        <ele>208.6</ele>
        <time>2022-09-10T10:52:57Z</time>
      </trkpt>
      <trkpt lat="43.22562" lon="-0.82992">
        <ele>208.8</ele>
        <time>2022-09-10T10:53:06Z</time>
      </trkpt>
      <trkpt lat="43.22543" lon="-0.82995">
        <ele>208.2</ele>
        <time>2022-09-10T10:53:10Z</time>
      </trkpt>
      <trkpt lat="43.22538" lon="-0.82997">
        <ele>208</ele>
        <time>2022-09-10T10:53:11Z</time>
      </trkpt>
      <trkpt lat="43.22533" lon="-0.82999">
        <ele>207.8</ele>
        <time>2022-09-10T10:53:12Z</time>
      </trkpt>
      <trkpt lat="43.22505" lon="-0.83016">
        <ele>208</ele>
        <time>2022-09-10T10:53:18Z</time>
      </trkpt>
      <trkpt lat="43.22485" lon="-0.83033">
        <ele>209.4</ele>
        <time>2022-09-10T10:53:24Z</time>
      </trkpt>
      <trkpt lat="43.22462" lon="-0.83055">
        <ele>209.6</ele>
        <time>2022-09-10T10:53:31Z</time>
      </trkpt>
      <trkpt lat="43.22447" lon="-0.83065">
        <ele>209.6</ele>
        <time>2022-09-10T10:53:35Z</time>
      </trkpt>
      <trkpt lat="43.22438" lon="-0.83068">
        <ele>209.8</ele>
        <time>2022-09-10T10:53:37Z</time>
      </trkpt>
      <trkpt lat="43.22405" lon="-0.83074">
        <ele>209</ele>
        <time>2022-09-10T10:53:44Z</time>
      </trkpt>
      <trkpt lat="43.22401" lon="-0.83077">
        <ele>209</ele>
        <time>2022-09-10T10:53:45Z</time>
      </trkpt>
      <trkpt lat="43.22384" lon="-0.83088">
        <ele>209.2</ele>
        <time>2022-09-10T10:53:49Z</time>
      </trkpt>
      <trkpt lat="43.2237" lon="-0.83102">
        <ele>209.8</ele>
        <time>2022-09-10T10:53:53Z</time>
      </trkpt>
      <trkpt lat="43.22357" lon="-0.83116">
        <ele>210.6</ele>
        <time>2022-09-10T10:53:57Z</time>
      </trkpt>
      <trkpt lat="43.22349" lon="-0.83124">
        <ele>211.4</ele>
        <time>2022-09-10T10:54:00Z</time>
      </trkpt>
      <trkpt lat="43.22346" lon="-0.83127">
        <ele>211.6</ele>
        <time>2022-09-10T10:54:01Z</time>
      </trkpt>
      <trkpt lat="43.22337" lon="-0.83137">
        <ele>212.8</ele>
        <time>2022-09-10T10:54:05Z</time>
      </trkpt>
      <trkpt lat="43.22333" lon="-0.83142">
        <ele>213.4</ele>
        <time>2022-09-10T10:54:07Z</time>
      </trkpt>
      <trkpt lat="43.22329" lon="-0.83154">
        <ele>214</ele>
        <time>2022-09-10T10:54:11Z</time>
      </trkpt>
      <trkpt lat="43.22327" lon="-0.83164">
        <ele>214.8</ele>
        <time>2022-09-10T10:54:14Z</time>
      </trkpt>
      <trkpt lat="43.22328" lon="-0.83169">
        <ele>215.2</ele>
        <time>2022-09-10T10:54:16Z</time>
      </trkpt>
      <trkpt lat="43.22327" lon="-0.8318">
        <ele>215.8</ele>
        <time>2022-09-10T10:54:20Z</time>
      </trkpt>
      <trkpt lat="43.22326" lon="-0.83188">
        <ele>216.2</ele>
        <time>2022-09-10T10:54:23Z</time>
      </trkpt>
      <trkpt lat="43.22325" lon="-0.83198">
        <ele>215.8</ele>
        <time>2022-09-10T10:54:27Z</time>
      </trkpt>
      <trkpt lat="43.22324" lon="-0.83213">
        <ele>215</ele>
        <time>2022-09-10T10:54:30Z</time>
      </trkpt>
      <trkpt lat="43.22323" lon="-0.83219">
        <ele>214.6</ele>
        <time>2022-09-10T10:54:31Z</time>
      </trkpt>
      <trkpt lat="43.22323" lon="-0.83231">
        <ele>213.8</ele>
        <time>2022-09-10T10:54:33Z</time>
      </trkpt>
      <trkpt lat="43.22322" lon="-0.83248">
        <ele>212.2</ele>
        <time>2022-09-10T10:54:36Z</time>
      </trkpt>
      <trkpt lat="43.22321" lon="-0.8326">
        <ele>210.6</ele>
        <time>2022-09-10T10:54:38Z</time>
      </trkpt>
      <trkpt lat="43.2232" lon="-0.83271">
        <ele>209.4</ele>
        <time>2022-09-10T10:54:40Z</time>
      </trkpt>
      <trkpt lat="43.22318" lon="-0.83279">
        <ele>208.8</ele>
        <time>2022-09-10T10:54:42Z</time>
      </trkpt>
      <trkpt lat="43.22315" lon="-0.83284">
        <ele>208.4</ele>
        <time>2022-09-10T10:54:44Z</time>
      </trkpt>
      <trkpt lat="43.22308" lon="-0.83282">
        <ele>208.2</ele>
        <time>2022-09-10T10:54:46Z</time>
      </trkpt>
      <trkpt lat="43.22301" lon="-0.83275">
        <ele>207.4</ele>
        <time>2022-09-10T10:54:48Z</time>
      </trkpt>
      <trkpt lat="43.22297" lon="-0.83272">
        <ele>207.2</ele>
        <time>2022-09-10T10:54:49Z</time>
      </trkpt>
      <trkpt lat="43.22292" lon="-0.83269">
        <ele>207.2</ele>
        <time>2022-09-10T10:54:50Z</time>
      </trkpt>
      <trkpt lat="43.22264" lon="-0.83253">
        <ele>206.2</ele>
        <time>2022-09-10T10:54:55Z</time>
      </trkpt>
      <trkpt lat="43.22244" lon="-0.83249">
        <ele>205.2</ele>
        <time>2022-09-10T10:54:58Z</time>
      </trkpt>
      <trkpt lat="43.2223" lon="-0.83249">
        <ele>204.8</ele>
        <time>2022-09-10T10:55:00Z</time>
      </trkpt>
      <trkpt lat="43.22186" lon="-0.83253">
        <ele>204.2</ele>
        <time>2022-09-10T10:55:06Z</time>
      </trkpt>
      <trkpt lat="43.2214" lon="-0.83256">
        <ele>204.2</ele>
        <time>2022-09-10T10:55:13Z</time>
      </trkpt>
      <trkpt lat="43.22107" lon="-0.83259">
        <ele>205</ele>
        <time>2022-09-10T10:55:19Z</time>
      </trkpt>
      <trkpt lat="43.22098" lon="-0.83258">
        <ele>205.2</ele>
        <time>2022-09-10T10:55:21Z</time>
      </trkpt>
      <trkpt lat="43.2208" lon="-0.83261">
        <ele>205.6</ele>
        <time>2022-09-10T10:55:25Z</time>
      </trkpt>
      <trkpt lat="43.22057" lon="-0.83267">
        <ele>206.2</ele>
        <time>2022-09-10T10:55:31Z</time>
      </trkpt>
      <trkpt lat="43.22056" lon="-0.83271">
        <ele>206.2</ele>
        <time>2022-09-10T10:55:32Z</time>
      </trkpt>
      <trkpt lat="43.22055" lon="-0.83275">
        <ele>206.2</ele>
        <time>2022-09-10T10:55:33Z</time>
      </trkpt>
      <trkpt lat="43.22055" lon="-0.83279">
        <ele>206.2</ele>
        <time>2022-09-10T10:55:34Z</time>
      </trkpt>
      <trkpt lat="43.22057" lon="-0.83288">
        <ele>206.4</ele>
        <time>2022-09-10T10:55:36Z</time>
      </trkpt>
      <trkpt lat="43.22061" lon="-0.83306">
        <ele>206.8</ele>
        <time>2022-09-10T10:55:40Z</time>
      </trkpt>
      <trkpt lat="43.22064" lon="-0.8332">
        <ele>207.4</ele>
        <time>2022-09-10T10:55:43Z</time>
      </trkpt>
      <trkpt lat="43.22069" lon="-0.83341">
        <ele>208.6</ele>
        <time>2022-09-10T10:55:48Z</time>
      </trkpt>
      <trkpt lat="43.2207" lon="-0.83345">
        <ele>208.8</ele>
        <time>2022-09-10T10:55:49Z</time>
      </trkpt>
      <trkpt lat="43.22069" lon="-0.83358">
        <ele>209.6</ele>
        <time>2022-09-10T10:55:53Z</time>
      </trkpt>
      <trkpt lat="43.22066" lon="-0.83363">
        <ele>209.8</ele>
        <time>2022-09-10T10:55:55Z</time>
      </trkpt>
      <trkpt lat="43.22052" lon="-0.83374">
        <ele>210.6</ele>
        <time>2022-09-10T10:56:01Z</time>
      </trkpt>
      <trkpt lat="43.22026" lon="-0.83383">
        <ele>211.2</ele>
        <time>2022-09-10T10:56:10Z</time>
      </trkpt>
      <trkpt lat="43.21999" lon="-0.83392">
        <ele>211.2</ele>
        <time>2022-09-10T10:56:18Z</time>
      </trkpt>
      <trkpt lat="43.21966" lon="-0.83406">
        <ele>211.8</ele>
        <time>2022-09-10T10:56:28Z</time>
      </trkpt>
      <trkpt lat="43.21963" lon="-0.83406">
        <ele>211.8</ele>
        <time>2022-09-10T10:56:29Z</time>
      </trkpt>
      <trkpt lat="43.2195" lon="-0.83411">
        <ele>211.8</ele>
        <time>2022-09-10T10:56:33Z</time>
      </trkpt>
      <trkpt lat="43.21931" lon="-0.83413">
        <ele>211</ele>
        <time>2022-09-10T10:56:37Z</time>
      </trkpt>
      <trkpt lat="43.21925" lon="-0.83414">
        <ele>210.6</ele>
        <time>2022-09-10T10:56:38Z</time>
      </trkpt>
      <trkpt lat="43.21904" lon="-0.83416">
        <ele>209.2</ele>
        <time>2022-09-10T10:56:41Z</time>
      </trkpt>
      <trkpt lat="43.21887" lon="-0.83419">
        <ele>208.2</ele>
        <time>2022-09-10T10:56:43Z</time>
      </trkpt>
      <trkpt lat="43.21872" lon="-0.83425">
        <ele>207.8</ele>
        <time>2022-09-10T10:56:45Z</time>
      </trkpt>
      <trkpt lat="43.21865" lon="-0.83431">
        <ele>207.8</ele>
        <time>2022-09-10T10:56:46Z</time>
      </trkpt>
      <trkpt lat="43.21852" lon="-0.83451">
        <ele>208.4</ele>
        <time>2022-09-10T10:56:49Z</time>
      </trkpt>
      <trkpt lat="43.21847" lon="-0.83464">
        <ele>209.4</ele>
        <time>2022-09-10T10:56:51Z</time>
      </trkpt>
      <trkpt lat="43.21843" lon="-0.83476">
        <ele>210.4</ele>
        <time>2022-09-10T10:56:53Z</time>
      </trkpt>
      <trkpt lat="43.21842" lon="-0.83482">
        <ele>210.8</ele>
        <time>2022-09-10T10:56:54Z</time>
      </trkpt>
      <trkpt lat="43.2184" lon="-0.83492">
        <ele>211.2</ele>
        <time>2022-09-10T10:56:56Z</time>
      </trkpt>
      <trkpt lat="43.21839" lon="-0.83501">
        <ele>211.4</ele>
        <time>2022-09-10T10:56:58Z</time>
      </trkpt>
      <trkpt lat="43.21837" lon="-0.83531">
        <ele>211.8</ele>
        <time>2022-09-10T10:57:04Z</time>
      </trkpt>
      <trkpt lat="43.21837" lon="-0.83536">
        <ele>211.8</ele>
        <time>2022-09-10T10:57:05Z</time>
      </trkpt>
      <trkpt lat="43.21835" lon="-0.83562">
        <ele>212.4</ele>
        <time>2022-09-10T10:57:10Z</time>
      </trkpt>
      <trkpt lat="43.21835" lon="-0.83572">
        <ele>213</ele>
        <time>2022-09-10T10:57:12Z</time>
      </trkpt>
      <trkpt lat="43.21834" lon="-0.8359">
        <ele>214.2</ele>
        <time>2022-09-10T10:57:16Z</time>
      </trkpt>
      <trkpt lat="43.21834" lon="-0.83593">
        <ele>214.4</ele>
        <time>2022-09-10T10:57:17Z</time>
      </trkpt>
      <trkpt lat="43.21835" lon="-0.83603">
        <ele>215.2</ele>
        <time>2022-09-10T10:57:20Z</time>
      </trkpt>
      <trkpt lat="43.21837" lon="-0.83614">
        <ele>216.2</ele>
        <time>2022-09-10T10:57:24Z</time>
      </trkpt>
      <trkpt lat="43.21838" lon="-0.83617">
        <ele>216.4</ele>
        <time>2022-09-10T10:57:25Z</time>
      </trkpt>
      <trkpt lat="43.21842" lon="-0.83639">
        <ele>216.4</ele>
        <time>2022-09-10T10:57:31Z</time>
      </trkpt>
      <trkpt lat="43.2184" lon="-0.83657">
        <ele>216.2</ele>
        <time>2022-09-10T10:57:34Z</time>
      </trkpt>
      <trkpt lat="43.21838" lon="-0.83662">
        <ele>216.2</ele>
        <time>2022-09-10T10:57:35Z</time>
      </trkpt>
      <trkpt lat="43.21825" lon="-0.83688">
        <ele>217</ele>
        <time>2022-09-10T10:57:41Z</time>
      </trkpt>
      <trkpt lat="43.2182" lon="-0.83718">
        <ele>217.2</ele>
        <time>2022-09-10T10:57:48Z</time>
      </trkpt>
      <trkpt lat="43.21819" lon="-0.83741">
        <ele>216</ele>
        <time>2022-09-10T10:57:52Z</time>
      </trkpt>
      <trkpt lat="43.21819" lon="-0.83747">
        <ele>215.8</ele>
        <time>2022-09-10T10:57:53Z</time>
      </trkpt>
      <trkpt lat="43.21818" lon="-0.83753">
        <ele>215.4</ele>
        <time>2022-09-10T10:57:54Z</time>
      </trkpt>
      <trkpt lat="43.21806" lon="-0.83763">
        <ele>214.4</ele>
        <time>2022-09-10T10:57:57Z</time>
      </trkpt>
      <trkpt lat="43.21799" lon="-0.83765">
        <ele>214</ele>
        <time>2022-09-10T10:57:58Z</time>
      </trkpt>
      <trkpt lat="43.21786" lon="-0.83765">
        <ele>213</ele>
        <time>2022-09-10T10:58:00Z</time>
      </trkpt>
      <trkpt lat="43.2177" lon="-0.83762">
        <ele>211.4</ele>
        <time>2022-09-10T10:58:03Z</time>
      </trkpt>
      <trkpt lat="43.21766" lon="-0.83763">
        <ele>210.6</ele>
        <time>2022-09-10T10:58:04Z</time>
      </trkpt>
      <trkpt lat="43.21762" lon="-0.83767">
        <ele>210</ele>
        <time>2022-09-10T10:58:05Z</time>
      </trkpt>
      <trkpt lat="43.21758" lon="-0.83783">
        <ele>208.4</ele>
        <time>2022-09-10T10:58:07Z</time>
      </trkpt>
      <trkpt lat="43.21761" lon="-0.83798">
        <ele>207</ele>
        <time>2022-09-10T10:58:09Z</time>
      </trkpt>
      <trkpt lat="43.21765" lon="-0.83806">
        <ele>206.2</ele>
        <time>2022-09-10T10:58:10Z</time>
      </trkpt>
      <trkpt lat="43.2177" lon="-0.83814">
        <ele>205.4</ele>
        <time>2022-09-10T10:58:11Z</time>
      </trkpt>
      <trkpt lat="43.21775" lon="-0.83822">
        <ele>204.8</ele>
        <time>2022-09-10T10:58:12Z</time>
      </trkpt>
      <trkpt lat="43.21778" lon="-0.83831">
        <ele>204.4</ele>
        <time>2022-09-10T10:58:13Z</time>
      </trkpt>
      <trkpt lat="43.21778" lon="-0.83841">
        <ele>204.2</ele>
        <time>2022-09-10T10:58:14Z</time>
      </trkpt>
      <trkpt lat="43.21773" lon="-0.83851">
        <ele>204</ele>
        <time>2022-09-10T10:58:16Z</time>
      </trkpt>
      <trkpt lat="43.21768" lon="-0.83857">
        <ele>204.8</ele>
        <time>2022-09-10T10:58:18Z</time>
      </trkpt>
      <trkpt lat="43.21767" lon="-0.83859">
        <ele>205.6</ele>
        <time>2022-09-10T10:58:19Z</time>
      </trkpt>
      <trkpt lat="43.21766" lon="-0.83861">
        <ele>206</ele>
        <time>2022-09-10T10:58:20Z</time>
      </trkpt>
      <trkpt lat="43.21763" lon="-0.83865">
        <ele>207</ele>
        <time>2022-09-10T10:58:23Z</time>
      </trkpt>
      <trkpt lat="43.2176" lon="-0.83872">
        <ele>208</ele>
        <time>2022-09-10T10:58:27Z</time>
      </trkpt>
      <trkpt lat="43.21755" lon="-0.83883">
        <ele>209.4</ele>
        <time>2022-09-10T10:58:33Z</time>
      </trkpt>
      <trkpt lat="43.21754" lon="-0.83885">
        <ele>209.6</ele>
        <time>2022-09-10T10:58:34Z</time>
      </trkpt>
      <trkpt lat="43.2175" lon="-0.83894">
        <ele>210.4</ele>
        <time>2022-09-10T10:58:38Z</time>
      </trkpt>
      <trkpt lat="43.21747" lon="-0.83902">
        <ele>211.2</ele>
        <time>2022-09-10T10:58:41Z</time>
      </trkpt>
      <trkpt lat="43.21744" lon="-0.83909">
        <ele>211.4</ele>
        <time>2022-09-10T10:58:44Z</time>
      </trkpt>
      <trkpt lat="43.21741" lon="-0.83919">
        <ele>212.4</ele>
        <time>2022-09-10T10:58:48Z</time>
      </trkpt>
      <trkpt lat="43.2174" lon="-0.83921">
        <ele>212.6</ele>
        <time>2022-09-10T10:58:49Z</time>
      </trkpt>
      <trkpt lat="43.21736" lon="-0.83936">
        <ele>213.6</ele>
        <time>2022-09-10T10:58:55Z</time>
      </trkpt>
      <trkpt lat="43.21734" lon="-0.83944">
        <ele>213.8</ele>
        <time>2022-09-10T10:58:58Z</time>
      </trkpt>
      <trkpt lat="43.21732" lon="-0.83951">
        <ele>214.2</ele>
        <time>2022-09-10T10:59:01Z</time>
      </trkpt>
      <trkpt lat="43.21727" lon="-0.83973">
        <ele>214.8</ele>
        <time>2022-09-10T10:59:08Z</time>
      </trkpt>
      <trkpt lat="43.21722" lon="-0.83996">
        <ele>215.8</ele>
        <time>2022-09-10T10:59:16Z</time>
      </trkpt>
      <trkpt lat="43.21719" lon="-0.84019">
        <ele>216.8</ele>
        <time>2022-09-10T10:59:24Z</time>
      </trkpt>
      <trkpt lat="43.21718" lon="-0.84023">
        <ele>217</ele>
        <time>2022-09-10T10:59:25Z</time>
      </trkpt>
      <trkpt lat="43.21714" lon="-0.84037">
        <ele>217.8</ele>
        <time>2022-09-10T10:59:30Z</time>
      </trkpt>
      <trkpt lat="43.21713" lon="-0.84042">
        <ele>218.2</ele>
        <time>2022-09-10T10:59:32Z</time>
      </trkpt>
      <trkpt lat="43.2171" lon="-0.84061">
        <ele>219.2</ele>
        <time>2022-09-10T10:59:38Z</time>
      </trkpt>
      <trkpt lat="43.21707" lon="-0.84081">
        <ele>220</ele>
        <time>2022-09-10T10:59:45Z</time>
      </trkpt>
      <trkpt lat="43.21705" lon="-0.84087">
        <ele>220.4</ele>
        <time>2022-09-10T10:59:47Z</time>
      </trkpt>
      <trkpt lat="43.217" lon="-0.84103">
        <ele>220.4</ele>
        <time>2022-09-10T10:59:54Z</time>
      </trkpt>
      <trkpt lat="43.21693" lon="-0.84124">
        <ele>220.4</ele>
        <time>2022-09-10T11:00:02Z</time>
      </trkpt>
      <trkpt lat="43.21683" lon="-0.84144">
        <ele>220</ele>
        <time>2022-09-10T11:00:07Z</time>
      </trkpt>
      <trkpt lat="43.21668" lon="-0.84181">
        <ele>219.2</ele>
        <time>2022-09-10T11:00:13Z</time>
      </trkpt>
      <trkpt lat="43.2166" lon="-0.84215">
        <ele>218.2</ele>
        <time>2022-09-10T11:00:17Z</time>
      </trkpt>
      <trkpt lat="43.2166" lon="-0.84225">
        <ele>217.8</ele>
        <time>2022-09-10T11:00:18Z</time>
      </trkpt>
      <trkpt lat="43.21664" lon="-0.84266">
        <ele>217</ele>
        <time>2022-09-10T11:00:22Z</time>
      </trkpt>
      <trkpt lat="43.21661" lon="-0.84277">
        <ele>216.2</ele>
        <time>2022-09-10T11:00:23Z</time>
      </trkpt>
      <trkpt lat="43.21654" lon="-0.84293">
        <ele>216.2</ele>
        <time>2022-09-10T11:00:25Z</time>
      </trkpt>
      <trkpt lat="43.21636" lon="-0.84302">
        <ele>216</ele>
        <time>2022-09-10T11:00:28Z</time>
      </trkpt>
      <trkpt lat="43.21626" lon="-0.84295">
        <ele>217</ele>
        <time>2022-09-10T11:00:31Z</time>
      </trkpt>
      <trkpt lat="43.21624" lon="-0.84293">
        <ele>217.2</ele>
        <time>2022-09-10T11:00:32Z</time>
      </trkpt>
      <trkpt lat="43.2162" lon="-0.84288">
        <ele>218.4</ele>
        <time>2022-09-10T11:00:35Z</time>
      </trkpt>
      <trkpt lat="43.21619" lon="-0.84287">
        <ele>218.6</ele>
        <time>2022-09-10T11:00:36Z</time>
      </trkpt>
      <trkpt lat="43.21617" lon="-0.84283">
        <ele>219.4</ele>
        <time>2022-09-10T11:00:39Z</time>
      </trkpt>
      <trkpt lat="43.21616" lon="-0.84282">
        <ele>219.6</ele>
        <time>2022-09-10T11:00:40Z</time>
      </trkpt>
      <trkpt lat="43.21613" lon="-0.84276">
        <ele>220.2</ele>
        <time>2022-09-10T11:00:44Z</time>
      </trkpt>
      <trkpt lat="43.21606" lon="-0.84272">
        <ele>220.6</ele>
        <time>2022-09-10T11:01:31Z</time>
      </trkpt>
      <trkpt lat="43.21604" lon="-0.8427">
        <ele>220.8</ele>
        <time>2022-09-10T11:01:32Z</time>
      </trkpt>
      <trkpt lat="43.21588" lon="-0.84264">
        <ele>221.4</ele>
        <time>2022-09-10T11:01:38Z</time>
      </trkpt>
      <trkpt lat="43.21579" lon="-0.84263">
        <ele>221.8</ele>
        <time>2022-09-10T11:01:41Z</time>
      </trkpt>
      <trkpt lat="43.21571" lon="-0.84263">
        <ele>222.2</ele>
        <time>2022-09-10T11:01:44Z</time>
      </trkpt>
      <trkpt lat="43.21566" lon="-0.84263">
        <ele>222.4</ele>
        <time>2022-09-10T11:01:46Z</time>
      </trkpt>
      <trkpt lat="43.2154" lon="-0.84265">
        <ele>222.2</ele>
        <time>2022-09-10T11:01:54Z</time>
      </trkpt>
      <trkpt lat="43.21511" lon="-0.84269">
        <ele>222.8</ele>
        <time>2022-09-10T11:02:02Z</time>
      </trkpt>
      <trkpt lat="43.21503" lon="-0.84271">
        <ele>223</ele>
        <time>2022-09-10T11:02:04Z</time>
      </trkpt>
      <trkpt lat="43.21486" lon="-0.84273">
        <ele>223.8</ele>
        <time>2022-09-10T11:02:09Z</time>
      </trkpt>
      <trkpt lat="43.21476" lon="-0.84275">
        <ele>223.8</ele>
        <time>2022-09-10T11:02:12Z</time>
      </trkpt>
      <trkpt lat="43.21449" lon="-0.84279">
        <ele>223.2</ele>
        <time>2022-09-10T11:02:18Z</time>
      </trkpt>
      <trkpt lat="43.21434" lon="-0.84284">
        <ele>222.8</ele>
        <time>2022-09-10T11:02:21Z</time>
      </trkpt>
      <trkpt lat="43.21425" lon="-0.8429">
        <ele>222.6</ele>
        <time>2022-09-10T11:02:23Z</time>
      </trkpt>
      <trkpt lat="43.21421" lon="-0.84292">
        <ele>222.6</ele>
        <time>2022-09-10T11:02:24Z</time>
      </trkpt>
      <trkpt lat="43.21418" lon="-0.84296">
        <ele>223</ele>
        <time>2022-09-10T11:02:25Z</time>
      </trkpt>
      <trkpt lat="43.21408" lon="-0.84311">
        <ele>223</ele>
        <time>2022-09-10T11:02:29Z</time>
      </trkpt>
      <trkpt lat="43.21404" lon="-0.84328">
        <ele>224</ele>
        <time>2022-09-10T11:02:33Z</time>
      </trkpt>
      <trkpt lat="43.21403" lon="-0.84332">
        <ele>224.2</ele>
        <time>2022-09-10T11:02:34Z</time>
      </trkpt>
      <trkpt lat="43.21402" lon="-0.84343">
        <ele>225</ele>
        <time>2022-09-10T11:02:37Z</time>
      </trkpt>
      <trkpt lat="43.21399" lon="-0.84363">
        <ele>225.6</ele>
        <time>2022-09-10T11:02:42Z</time>
      </trkpt>
      <trkpt lat="43.21397" lon="-0.84371">
        <ele>226.2</ele>
        <time>2022-09-10T11:02:44Z</time>
      </trkpt>
      <trkpt lat="43.21394" lon="-0.84383">
        <ele>227</ele>
        <time>2022-09-10T11:02:48Z</time>
      </trkpt>
      <trkpt lat="43.2139" lon="-0.84399">
        <ele>226.8</ele>
        <time>2022-09-10T11:02:53Z</time>
      </trkpt>
      <trkpt lat="43.21381" lon="-0.84425">
        <ele>225.4</ele>
        <time>2022-09-10T11:02:57Z</time>
      </trkpt>
      <trkpt lat="43.21378" lon="-0.84434">
        <ele>225</ele>
        <time>2022-09-10T11:02:58Z</time>
      </trkpt>
      <trkpt lat="43.21366" lon="-0.84464">
        <ele>223.6</ele>
        <time>2022-09-10T11:03:01Z</time>
      </trkpt>
      <trkpt lat="43.21361" lon="-0.84473">
        <ele>223</ele>
        <time>2022-09-10T11:03:02Z</time>
      </trkpt>
      <trkpt lat="43.21356" lon="-0.84481">
        <ele>222.4</ele>
        <time>2022-09-10T11:03:03Z</time>
      </trkpt>
      <trkpt lat="43.21351" lon="-0.84488">
        <ele>221.4</ele>
        <time>2022-09-10T11:03:04Z</time>
      </trkpt>
      <trkpt lat="43.21345" lon="-0.84493">
        <ele>220.6</ele>
        <time>2022-09-10T11:03:05Z</time>
      </trkpt>
      <trkpt lat="43.2134" lon="-0.84497">
        <ele>219.8</ele>
        <time>2022-09-10T11:03:06Z</time>
      </trkpt>
      <trkpt lat="43.2133" lon="-0.84498">
        <ele>218.6</ele>
        <time>2022-09-10T11:03:08Z</time>
      </trkpt>
      <trkpt lat="43.21323" lon="-0.84486">
        <ele>217.4</ele>
        <time>2022-09-10T11:03:10Z</time>
      </trkpt>
      <trkpt lat="43.2132" lon="-0.84473">
        <ele>217.2</ele>
        <time>2022-09-10T11:03:12Z</time>
      </trkpt>
      <trkpt lat="43.21317" lon="-0.84452">
        <ele>217.4</ele>
        <time>2022-09-10T11:03:15Z</time>
      </trkpt>
      <trkpt lat="43.21311" lon="-0.84427">
        <ele>218.4</ele>
        <time>2022-09-10T11:03:19Z</time>
      </trkpt>
      <trkpt lat="43.21305" lon="-0.84406">
        <ele>219.6</ele>
        <time>2022-09-10T11:03:23Z</time>
      </trkpt>
      <trkpt lat="43.21295" lon="-0.84379">
        <ele>220.4</ele>
        <time>2022-09-10T11:03:29Z</time>
      </trkpt>
      <trkpt lat="43.21293" lon="-0.84376">
        <ele>220.6</ele>
        <time>2022-09-10T11:03:30Z</time>
      </trkpt>
      <trkpt lat="43.21285" lon="-0.84361">
        <ele>221.4</ele>
        <time>2022-09-10T11:03:35Z</time>
      </trkpt>
      <trkpt lat="43.21283" lon="-0.84358">
        <ele>222</ele>
        <time>2022-09-10T11:03:36Z</time>
      </trkpt>
      <trkpt lat="43.21269" lon="-0.8434">
        <ele>222.2</ele>
        <time>2022-09-10T11:03:42Z</time>
      </trkpt>
      <trkpt lat="43.21257" lon="-0.84337">
        <ele>223</ele>
        <time>2022-09-10T11:03:46Z</time>
      </trkpt>
      <trkpt lat="43.21255" lon="-0.84338">
        <ele>223.2</ele>
        <time>2022-09-10T11:03:47Z</time>
      </trkpt>
      <trkpt lat="43.21249" lon="-0.84342">
        <ele>224</ele>
        <time>2022-09-10T11:03:51Z</time>
      </trkpt>
      <trkpt lat="43.21244" lon="-0.84349">
        <ele>225.2</ele>
        <time>2022-09-10T11:03:55Z</time>
      </trkpt>
      <trkpt lat="43.2124" lon="-0.84351">
        <ele>225.6</ele>
        <time>2022-09-10T11:03:57Z</time>
      </trkpt>
      <trkpt lat="43.21235" lon="-0.84354">
        <ele>226.2</ele>
        <time>2022-09-10T11:04:00Z</time>
      </trkpt>
      <trkpt lat="43.21221" lon="-0.84366">
        <ele>226.8</ele>
        <time>2022-09-10T11:04:08Z</time>
      </trkpt>
      <trkpt lat="43.21203" lon="-0.8438">
        <ele>226.2</ele>
        <time>2022-09-10T11:04:14Z</time>
      </trkpt>
      <trkpt lat="43.21174" lon="-0.84405">
        <ele>225.8</ele>
        <time>2022-09-10T11:04:22Z</time>
      </trkpt>
      <trkpt lat="43.21151" lon="-0.8443">
        <ele>226</ele>
        <time>2022-09-10T11:04:30Z</time>
      </trkpt>
      <trkpt lat="43.21127" lon="-0.8446">
        <ele>226.2</ele>
        <time>2022-09-10T11:04:38Z</time>
      </trkpt>
      <trkpt lat="43.21119" lon="-0.84475">
        <ele>225.8</ele>
        <time>2022-09-10T11:04:41Z</time>
      </trkpt>
      <trkpt lat="43.21113" lon="-0.84492">
        <ele>225.8</ele>
        <time>2022-09-10T11:04:44Z</time>
      </trkpt>
      <trkpt lat="43.21106" lon="-0.84529">
        <ele>227.4</ele>
        <time>2022-09-10T11:04:51Z</time>
      </trkpt>
      <trkpt lat="43.21103" lon="-0.84543">
        <ele>228.4</ele>
        <time>2022-09-10T11:04:55Z</time>
      </trkpt>
      <trkpt lat="43.211" lon="-0.84552">
        <ele>229</ele>
        <time>2022-09-10T11:04:58Z</time>
      </trkpt>
      <trkpt lat="43.21098" lon="-0.84558">
        <ele>229.4</ele>
        <time>2022-09-10T11:05:00Z</time>
      </trkpt>
      <trkpt lat="43.21089" lon="-0.84575">
        <ele>230.4</ele>
        <time>2022-09-10T11:05:06Z</time>
      </trkpt>
      <trkpt lat="43.21088" lon="-0.84578">
        <ele>230.4</ele>
        <time>2022-09-10T11:05:07Z</time>
      </trkpt>
      <trkpt lat="43.2108" lon="-0.8459">
        <ele>231.6</ele>
        <time>2022-09-10T11:05:12Z</time>
      </trkpt>
      <trkpt lat="43.21078" lon="-0.84592">
        <ele>231.6</ele>
        <time>2022-09-10T11:05:13Z</time>
      </trkpt>
      <trkpt lat="43.21064" lon="-0.84611">
        <ele>231.6</ele>
        <time>2022-09-10T11:05:19Z</time>
      </trkpt>
      <trkpt lat="43.21053" lon="-0.84627">
        <ele>232.8</ele>
        <time>2022-09-10T11:05:24Z</time>
      </trkpt>
      <trkpt lat="43.2105" lon="-0.84633">
        <ele>233</ele>
        <time>2022-09-10T11:05:26Z</time>
      </trkpt>
      <trkpt lat="43.2104" lon="-0.84659">
        <ele>233.2</ele>
        <time>2022-09-10T11:05:34Z</time>
      </trkpt>
      <trkpt lat="43.21033" lon="-0.84688">
        <ele>232.6</ele>
        <time>2022-09-10T11:05:40Z</time>
      </trkpt>
      <trkpt lat="43.21033" lon="-0.84713">
        <ele>231.4</ele>
        <time>2022-09-10T11:05:43Z</time>
      </trkpt>
      <trkpt lat="43.21041" lon="-0.84741">
        <ele>230.2</ele>
        <time>2022-09-10T11:05:46Z</time>
      </trkpt>
      <trkpt lat="43.21052" lon="-0.84766">
        <ele>229.6</ele>
        <time>2022-09-10T11:05:49Z</time>
      </trkpt>
      <trkpt lat="43.21059" lon="-0.84777">
        <ele>229.8</ele>
        <time>2022-09-10T11:05:51Z</time>
      </trkpt>
      <trkpt lat="43.21074" lon="-0.84794">
        <ele>231.4</ele>
        <time>2022-09-10T11:05:56Z</time>
      </trkpt>
      <trkpt lat="43.21082" lon="-0.84801">
        <ele>232.8</ele>
        <time>2022-09-10T11:06:00Z</time>
      </trkpt>
      <trkpt lat="43.21084" lon="-0.84803">
        <ele>233</ele>
        <time>2022-09-10T11:06:01Z</time>
      </trkpt>
      <trkpt lat="43.2109" lon="-0.84809">
        <ele>233.8</ele>
        <time>2022-09-10T11:06:05Z</time>
      </trkpt>
      <trkpt lat="43.21096" lon="-0.84815">
        <ele>234.4</ele>
        <time>2022-09-10T11:06:08Z</time>
      </trkpt>
      <trkpt lat="43.211" lon="-0.8482">
        <ele>235</ele>
        <time>2022-09-10T11:06:11Z</time>
      </trkpt>
      <trkpt lat="43.21103" lon="-0.84824">
        <ele>235.4</ele>
        <time>2022-09-10T11:06:14Z</time>
      </trkpt>
      <trkpt lat="43.21108" lon="-0.84828">
        <ele>236</ele>
        <time>2022-09-10T11:06:17Z</time>
      </trkpt>
      <trkpt lat="43.21114" lon="-0.84834">
        <ele>236.6</ele>
        <time>2022-09-10T11:06:21Z</time>
      </trkpt>
      <trkpt lat="43.21118" lon="-0.84838">
        <ele>237.4</ele>
        <time>2022-09-10T11:06:24Z</time>
      </trkpt>
      <trkpt lat="43.21123" lon="-0.84843">
        <ele>237.6</ele>
        <time>2022-09-10T11:06:27Z</time>
      </trkpt>
      <trkpt lat="43.21129" lon="-0.84849">
        <ele>238.4</ele>
        <time>2022-09-10T11:06:31Z</time>
      </trkpt>
      <trkpt lat="43.21133" lon="-0.84852">
        <ele>238.6</ele>
        <time>2022-09-10T11:06:33Z</time>
      </trkpt>
      <trkpt lat="43.2114" lon="-0.8486">
        <ele>239.4</ele>
        <time>2022-09-10T11:06:38Z</time>
      </trkpt>
      <trkpt lat="43.21146" lon="-0.84866">
        <ele>240</ele>
        <time>2022-09-10T11:06:42Z</time>
      </trkpt>
      <trkpt lat="43.21149" lon="-0.84868">
        <ele>240.4</ele>
        <time>2022-09-10T11:06:44Z</time>
      </trkpt>
      <trkpt lat="43.21155" lon="-0.84875">
        <ele>241.2</ele>
        <time>2022-09-10T11:06:48Z</time>
      </trkpt>
      <trkpt lat="43.21158" lon="-0.84877">
        <ele>241.6</ele>
        <time>2022-09-10T11:06:50Z</time>
      </trkpt>
      <trkpt lat="43.21167" lon="-0.84887">
        <ele>242.2</ele>
        <time>2022-09-10T11:06:55Z</time>
      </trkpt>
      <trkpt lat="43.2117" lon="-0.8489">
        <ele>242.6</ele>
        <time>2022-09-10T11:06:57Z</time>
      </trkpt>
      <trkpt lat="43.21173" lon="-0.84893">
        <ele>242.8</ele>
        <time>2022-09-10T11:06:59Z</time>
      </trkpt>
      <trkpt lat="43.21174" lon="-0.84895">
        <ele>243</ele>
        <time>2022-09-10T11:07:00Z</time>
      </trkpt>
      <trkpt lat="43.21177" lon="-0.849">
        <ele>243.6</ele>
        <time>2022-09-10T11:07:03Z</time>
      </trkpt>
      <trkpt lat="43.21178" lon="-0.84902">
        <ele>243.6</ele>
        <time>2022-09-10T11:07:04Z</time>
      </trkpt>
      <trkpt lat="43.21179" lon="-0.84903">
        <ele>243.8</ele>
        <time>2022-09-10T11:07:05Z</time>
      </trkpt>
      <trkpt lat="43.21183" lon="-0.84907">
        <ele>244.4</ele>
        <time>2022-09-10T11:07:08Z</time>
      </trkpt>
      <trkpt lat="43.21185" lon="-0.84908">
        <ele>244.6</ele>
        <time>2022-09-10T11:07:09Z</time>
      </trkpt>
      <trkpt lat="43.21187" lon="-0.84908">
        <ele>244.8</ele>
        <time>2022-09-10T11:07:10Z</time>
      </trkpt>
      <trkpt lat="43.2119" lon="-0.84912">
        <ele>245.4</ele>
        <time>2022-09-10T11:07:13Z</time>
      </trkpt>
      <trkpt lat="43.21192" lon="-0.84913">
        <ele>245.6</ele>
        <time>2022-09-10T11:07:14Z</time>
      </trkpt>
      <trkpt lat="43.21194" lon="-0.84915">
        <ele>246</ele>
        <time>2022-09-10T11:07:16Z</time>
      </trkpt>
      <trkpt lat="43.21196" lon="-0.84917">
        <ele>246</ele>
        <time>2022-09-10T11:07:17Z</time>
      </trkpt>
      <trkpt lat="43.21199" lon="-0.84919">
        <ele>246.4</ele>
        <time>2022-09-10T11:07:20Z</time>
      </trkpt>
      <trkpt lat="43.21204" lon="-0.84922">
        <ele>247</ele>
        <time>2022-09-10T11:07:23Z</time>
      </trkpt>
      <trkpt lat="43.21213" lon="-0.84928">
        <ele>247.6</ele>
        <time>2022-09-10T11:07:29Z</time>
      </trkpt>
      <trkpt lat="43.21218" lon="-0.84931">
        <ele>248</ele>
        <time>2022-09-10T11:07:32Z</time>
      </trkpt>
      <trkpt lat="43.21226" lon="-0.84934">
        <ele>249</ele>
        <time>2022-09-10T11:07:37Z</time>
      </trkpt>
      <trkpt lat="43.21228" lon="-0.84935">
        <ele>249</ele>
        <time>2022-09-10T11:07:38Z</time>
      </trkpt>
      <trkpt lat="43.21239" lon="-0.84941">
        <ele>250</ele>
        <time>2022-09-10T11:07:45Z</time>
      </trkpt>
      <trkpt lat="43.21241" lon="-0.84941">
        <ele>250.2</ele>
        <time>2022-09-10T11:07:46Z</time>
      </trkpt>
      <trkpt lat="43.2125" lon="-0.84948">
        <ele>251.2</ele>
        <time>2022-09-10T11:07:52Z</time>
      </trkpt>
      <trkpt lat="43.21251" lon="-0.84949">
        <ele>251.2</ele>
        <time>2022-09-10T11:07:53Z</time>
      </trkpt>
      <trkpt lat="43.2126" lon="-0.84958">
        <ele>252.6</ele>
        <time>2022-09-10T11:08:00Z</time>
      </trkpt>
      <trkpt lat="43.21261" lon="-0.8496">
        <ele>252.6</ele>
        <time>2022-09-10T11:08:01Z</time>
      </trkpt>
      <trkpt lat="43.21269" lon="-0.84969">
        <ele>253.6</ele>
        <time>2022-09-10T11:08:08Z</time>
      </trkpt>
      <trkpt lat="43.2127" lon="-0.8497">
        <ele>253.6</ele>
        <time>2022-09-10T11:08:09Z</time>
      </trkpt>
      <trkpt lat="43.21279" lon="-0.84977">
        <ele>254.6</ele>
        <time>2022-09-10T11:08:16Z</time>
      </trkpt>
      <trkpt lat="43.2128" lon="-0.84977">
        <ele>254.8</ele>
        <time>2022-09-10T11:08:17Z</time>
      </trkpt>
      <trkpt lat="43.21289" lon="-0.84977">
        <ele>256</ele>
        <time>2022-09-10T11:08:23Z</time>
      </trkpt>
      <trkpt lat="43.21293" lon="-0.84974">
        <ele>257.2</ele>
        <time>2022-09-10T11:08:27Z</time>
      </trkpt>
      <trkpt lat="43.21297" lon="-0.84972">
        <ele>257.8</ele>
        <time>2022-09-10T11:08:30Z</time>
      </trkpt>
      <trkpt lat="43.213" lon="-0.84971">
        <ele>258.4</ele>
        <time>2022-09-10T11:08:32Z</time>
      </trkpt>
      <trkpt lat="43.21301" lon="-0.84971">
        <ele>258.6</ele>
        <time>2022-09-10T11:08:33Z</time>
      </trkpt>
      <trkpt lat="43.21304" lon="-0.84972">
        <ele>259.4</ele>
        <time>2022-09-10T11:08:36Z</time>
      </trkpt>
      <trkpt lat="43.21305" lon="-0.84972">
        <ele>259.4</ele>
        <time>2022-09-10T11:08:37Z</time>
      </trkpt>
      <trkpt lat="43.21307" lon="-0.84979">
        <ele>260.2</ele>
        <time>2022-09-10T11:08:41Z</time>
      </trkpt>
      <trkpt lat="43.21308" lon="-0.8498">
        <ele>260.4</ele>
        <time>2022-09-10T11:08:42Z</time>
      </trkpt>
      <trkpt lat="43.21309" lon="-0.84982">
        <ele>260.6</ele>
        <time>2022-09-10T11:08:43Z</time>
      </trkpt>
      <trkpt lat="43.21313" lon="-0.84993">
        <ele>261.6</ele>
        <time>2022-09-10T11:08:49Z</time>
      </trkpt>
      <trkpt lat="43.21316" lon="-0.85007">
        <ele>262.6</ele>
        <time>2022-09-10T11:08:57Z</time>
      </trkpt>
      <trkpt lat="43.21321" lon="-0.85022">
        <ele>263.6</ele>
        <time>2022-09-10T11:09:05Z</time>
      </trkpt>
      <trkpt lat="43.21321" lon="-0.85024">
        <ele>263.8</ele>
        <time>2022-09-10T11:09:06Z</time>
      </trkpt>
      <trkpt lat="43.21323" lon="-0.85031">
        <ele>264.8</ele>
        <time>2022-09-10T11:09:10Z</time>
      </trkpt>
      <trkpt lat="43.21325" lon="-0.85039">
        <ele>265.8</ele>
        <time>2022-09-10T11:09:14Z</time>
      </trkpt>
      <trkpt lat="43.21328" lon="-0.85052">
        <ele>266.8</ele>
        <time>2022-09-10T11:09:21Z</time>
      </trkpt>
      <trkpt lat="43.21329" lon="-0.85054">
        <ele>266.8</ele>
        <time>2022-09-10T11:09:22Z</time>
      </trkpt>
      <trkpt lat="43.21331" lon="-0.8506">
        <ele>267.2</ele>
        <time>2022-09-10T11:09:25Z</time>
      </trkpt>
      <trkpt lat="43.21331" lon="-0.85064">
        <ele>267.4</ele>
        <time>2022-09-10T11:09:27Z</time>
      </trkpt>
      <trkpt lat="43.21332" lon="-0.85067">
        <ele>267.8</ele>
        <time>2022-09-10T11:09:29Z</time>
      </trkpt>
      <trkpt lat="43.21333" lon="-0.85069">
        <ele>268</ele>
        <time>2022-09-10T11:09:30Z</time>
      </trkpt>
      <trkpt lat="43.21337" lon="-0.85076">
        <ele>268.6</ele>
        <time>2022-09-10T11:09:34Z</time>
      </trkpt>
      <trkpt lat="43.21337" lon="-0.85082">
        <ele>269</ele>
        <time>2022-09-10T11:09:37Z</time>
      </trkpt>
      <trkpt lat="43.21339" lon="-0.85085">
        <ele>269</ele>
        <time>2022-09-10T11:09:39Z</time>
      </trkpt>
      <trkpt lat="43.21341" lon="-0.85088">
        <ele>269.4</ele>
        <time>2022-09-10T11:09:41Z</time>
      </trkpt>
      <trkpt lat="43.21341" lon="-0.85095">
        <ele>269.8</ele>
        <time>2022-09-10T11:09:44Z</time>
      </trkpt>
      <trkpt lat="43.21344" lon="-0.85103">
        <ele>270</ele>
        <time>2022-09-10T11:09:48Z</time>
      </trkpt>
      <trkpt lat="43.21346" lon="-0.85106">
        <ele>270.4</ele>
        <time>2022-09-10T11:09:50Z</time>
      </trkpt>
      <trkpt lat="43.21351" lon="-0.85118">
        <ele>271</ele>
        <time>2022-09-10T11:09:56Z</time>
      </trkpt>
      <trkpt lat="43.21356" lon="-0.85137">
        <ele>272.2</ele>
        <time>2022-09-10T11:10:05Z</time>
      </trkpt>
      <trkpt lat="43.21358" lon="-0.85153">
        <ele>273.2</ele>
        <time>2022-09-10T11:10:12Z</time>
      </trkpt>
      <trkpt lat="43.21358" lon="-0.85154">
        <ele>273.2</ele>
        <time>2022-09-10T11:10:13Z</time>
      </trkpt>
      <trkpt lat="43.21357" lon="-0.85168">
        <ele>274.4</ele>
        <time>2022-09-10T11:10:19Z</time>
      </trkpt>
      <trkpt lat="43.21359" lon="-0.8518">
        <ele>275.4</ele>
        <time>2022-09-10T11:10:25Z</time>
      </trkpt>
      <trkpt lat="43.21358" lon="-0.85183">
        <ele>275.6</ele>
        <time>2022-09-10T11:10:26Z</time>
      </trkpt>
      <trkpt lat="43.21358" lon="-0.85187">
        <ele>275.8</ele>
        <time>2022-09-10T11:10:28Z</time>
      </trkpt>
      <trkpt lat="43.2136" lon="-0.85191">
        <ele>276.4</ele>
        <time>2022-09-10T11:10:30Z</time>
      </trkpt>
      <trkpt lat="43.21362" lon="-0.85194">
        <ele>276.8</ele>
        <time>2022-09-10T11:10:32Z</time>
      </trkpt>
      <trkpt lat="43.21362" lon="-0.852">
        <ele>277.2</ele>
        <time>2022-09-10T11:10:35Z</time>
      </trkpt>
      <trkpt lat="43.21362" lon="-0.85204">
        <ele>277.6</ele>
        <time>2022-09-10T11:10:37Z</time>
      </trkpt>
      <trkpt lat="43.21361" lon="-0.85208">
        <ele>277.8</ele>
        <time>2022-09-10T11:10:39Z</time>
      </trkpt>
      <trkpt lat="43.21365" lon="-0.8522">
        <ele>278.6</ele>
        <time>2022-09-10T11:10:46Z</time>
      </trkpt>
      <trkpt lat="43.21366" lon="-0.85221">
        <ele>278.6</ele>
        <time>2022-09-10T11:10:47Z</time>
      </trkpt>
      <trkpt lat="43.21369" lon="-0.8523">
        <ele>279.6</ele>
        <time>2022-09-10T11:10:52Z</time>
      </trkpt>
      <trkpt lat="43.21372" lon="-0.85236">
        <ele>280.4</ele>
        <time>2022-09-10T11:10:56Z</time>
      </trkpt>
      <trkpt lat="43.21374" lon="-0.85239">
        <ele>280.8</ele>
        <time>2022-09-10T11:10:58Z</time>
      </trkpt>
      <trkpt lat="43.21377" lon="-0.85247">
        <ele>281.8</ele>
        <time>2022-09-10T11:11:03Z</time>
      </trkpt>
      <trkpt lat="43.21378" lon="-0.85248">
        <ele>282</ele>
        <time>2022-09-10T11:11:04Z</time>
      </trkpt>
      <trkpt lat="43.21378" lon="-0.85249">
        <ele>282</ele>
        <time>2022-09-10T11:11:05Z</time>
      </trkpt>
      <trkpt lat="43.21381" lon="-0.85253">
        <ele>282.8</ele>
        <time>2022-09-10T11:11:08Z</time>
      </trkpt>
      <trkpt lat="43.21382" lon="-0.85257">
        <ele>283.2</ele>
        <time>2022-09-10T11:11:10Z</time>
      </trkpt>
      <trkpt lat="43.21387" lon="-0.85261">
        <ele>284.2</ele>
        <time>2022-09-10T11:11:14Z</time>
      </trkpt>
      <trkpt lat="43.21393" lon="-0.8527">
        <ele>285.2</ele>
        <time>2022-09-10T11:11:21Z</time>
      </trkpt>
      <trkpt lat="43.21397" lon="-0.85275">
        <ele>285.8</ele>
        <time>2022-09-10T11:11:25Z</time>
      </trkpt>
      <trkpt lat="43.21398" lon="-0.85276">
        <ele>286</ele>
        <time>2022-09-10T11:11:26Z</time>
      </trkpt>
      <trkpt lat="43.21399" lon="-0.85277">
        <ele>286.2</ele>
        <time>2022-09-10T11:11:27Z</time>
      </trkpt>
      <trkpt lat="43.214" lon="-0.85278">
        <ele>286.4</ele>
        <time>2022-09-10T11:11:28Z</time>
      </trkpt>
      <trkpt lat="43.21411" lon="-0.85285">
        <ele>287.4</ele>
        <time>2022-09-10T11:11:36Z</time>
      </trkpt>
      <trkpt lat="43.21412" lon="-0.85286">
        <ele>287.6</ele>
        <time>2022-09-10T11:11:37Z</time>
      </trkpt>
      <trkpt lat="43.21419" lon="-0.85287">
        <ele>288.2</ele>
        <time>2022-09-10T11:11:41Z</time>
      </trkpt>
      <trkpt lat="43.21422" lon="-0.85289">
        <ele>288.4</ele>
        <time>2022-09-10T11:11:43Z</time>
      </trkpt>
      <trkpt lat="43.21429" lon="-0.85291">
        <ele>288.8</ele>
        <time>2022-09-10T11:11:47Z</time>
      </trkpt>
      <trkpt lat="43.21437" lon="-0.85293">
        <ele>289.4</ele>
        <time>2022-09-10T11:11:52Z</time>
      </trkpt>
      <trkpt lat="43.21446" lon="-0.85297">
        <ele>290.2</ele>
        <time>2022-09-10T11:11:58Z</time>
      </trkpt>
      <trkpt lat="43.21448" lon="-0.85298">
        <ele>290.4</ele>
        <time>2022-09-10T11:11:59Z</time>
      </trkpt>
      <trkpt lat="43.2145" lon="-0.853">
        <ele>290.6</ele>
        <time>2022-09-10T11:12:01Z</time>
      </trkpt>
      <trkpt lat="43.21453" lon="-0.85301">
        <ele>290.8</ele>
        <time>2022-09-10T11:12:03Z</time>
      </trkpt>
      <trkpt lat="43.21458" lon="-0.85304">
        <ele>291.2</ele>
        <time>2022-09-10T11:12:06Z</time>
      </trkpt>
      <trkpt lat="43.21463" lon="-0.85309">
        <ele>291.8</ele>
        <time>2022-09-10T11:12:10Z</time>
      </trkpt>
      <trkpt lat="43.21471" lon="-0.85318">
        <ele>292.6</ele>
        <time>2022-09-10T11:12:16Z</time>
      </trkpt>
      <trkpt lat="43.21473" lon="-0.85321">
        <ele>292.8</ele>
        <time>2022-09-10T11:12:18Z</time>
      </trkpt>
      <trkpt lat="43.2148" lon="-0.8533">
        <ele>293.6</ele>
        <time>2022-09-10T11:12:24Z</time>
      </trkpt>
      <trkpt lat="43.21481" lon="-0.85331">
        <ele>294</ele>
        <time>2022-09-10T11:12:25Z</time>
      </trkpt>
      <trkpt lat="43.21488" lon="-0.85341">
        <ele>295.2</ele>
        <time>2022-09-10T11:12:31Z</time>
      </trkpt>
      <trkpt lat="43.21488" lon="-0.85343">
        <ele>295.2</ele>
        <time>2022-09-10T11:12:32Z</time>
      </trkpt>
      <trkpt lat="43.21491" lon="-0.85346">
        <ele>295.6</ele>
        <time>2022-09-10T11:12:34Z</time>
      </trkpt>
      <trkpt lat="43.21493" lon="-0.85347">
        <ele>296</ele>
        <time>2022-09-10T11:12:36Z</time>
      </trkpt>
      <trkpt lat="43.21494" lon="-0.85349">
        <ele>296.2</ele>
        <time>2022-09-10T11:12:37Z</time>
      </trkpt>
      <trkpt lat="43.21499" lon="-0.85356">
        <ele>297</ele>
        <time>2022-09-10T11:12:42Z</time>
      </trkpt>
      <trkpt lat="43.21501" lon="-0.85359">
        <ele>297.2</ele>
        <time>2022-09-10T11:12:44Z</time>
      </trkpt>
      <trkpt lat="43.21505" lon="-0.85363">
        <ele>297.8</ele>
        <time>2022-09-10T11:12:47Z</time>
      </trkpt>
      <trkpt lat="43.21506" lon="-0.85365">
        <ele>298</ele>
        <time>2022-09-10T11:12:48Z</time>
      </trkpt>
      <trkpt lat="43.21507" lon="-0.85366">
        <ele>298.4</ele>
        <time>2022-09-10T11:12:49Z</time>
      </trkpt>
      <trkpt lat="43.21512" lon="-0.85374">
        <ele>299.4</ele>
        <time>2022-09-10T11:12:54Z</time>
      </trkpt>
      <trkpt lat="43.21513" lon="-0.85376">
        <ele>299.6</ele>
        <time>2022-09-10T11:12:55Z</time>
      </trkpt>
      <trkpt lat="43.21517" lon="-0.85379">
        <ele>300.2</ele>
        <time>2022-09-10T11:12:58Z</time>
      </trkpt>
      <trkpt lat="43.21519" lon="-0.85382">
        <ele>300.4</ele>
        <time>2022-09-10T11:13:00Z</time>
      </trkpt>
      <trkpt lat="43.21521" lon="-0.85385">
        <ele>300.8</ele>
        <time>2022-09-10T11:13:02Z</time>
      </trkpt>
      <trkpt lat="43.21525" lon="-0.85392">
        <ele>301.4</ele>
        <time>2022-09-10T11:13:06Z</time>
      </trkpt>
      <trkpt lat="43.21529" lon="-0.85396">
        <ele>302</ele>
        <time>2022-09-10T11:13:09Z</time>
      </trkpt>
      <trkpt lat="43.21534" lon="-0.85404">
        <ele>302.6</ele>
        <time>2022-09-10T11:13:13Z</time>
      </trkpt>
      <trkpt lat="43.21538" lon="-0.85409">
        <ele>303</ele>
        <time>2022-09-10T11:13:16Z</time>
      </trkpt>
      <trkpt lat="43.21544" lon="-0.85419">
        <ele>303.8</ele>
        <time>2022-09-10T11:13:22Z</time>
      </trkpt>
      <trkpt lat="43.21545" lon="-0.85421">
        <ele>304</ele>
        <time>2022-09-10T11:13:23Z</time>
      </trkpt>
      <trkpt lat="43.21548" lon="-0.85431">
        <ele>304.6</ele>
        <time>2022-09-10T11:13:29Z</time>
      </trkpt>
      <trkpt lat="43.21549" lon="-0.85433">
        <ele>304.8</ele>
        <time>2022-09-10T11:13:30Z</time>
      </trkpt>
      <trkpt lat="43.21553" lon="-0.85445">
        <ele>305.6</ele>
        <time>2022-09-10T11:13:36Z</time>
      </trkpt>
      <trkpt lat="43.21554" lon="-0.85448">
        <ele>306</ele>
        <time>2022-09-10T11:13:38Z</time>
      </trkpt>
      <trkpt lat="43.21558" lon="-0.85455">
        <ele>306.2</ele>
        <time>2022-09-10T11:13:42Z</time>
      </trkpt>
      <trkpt lat="43.2156" lon="-0.85461">
        <ele>306.2</ele>
        <time>2022-09-10T11:13:44Z</time>
      </trkpt>
      <trkpt lat="43.21569" lon="-0.85488">
        <ele>306.8</ele>
        <time>2022-09-10T11:13:53Z</time>
      </trkpt>
      <trkpt lat="43.21571" lon="-0.85494">
        <ele>307</ele>
        <time>2022-09-10T11:13:55Z</time>
      </trkpt>
      <trkpt lat="43.21579" lon="-0.85514">
        <ele>307.2</ele>
        <time>2022-09-10T11:14:02Z</time>
      </trkpt>
      <trkpt lat="43.21585" lon="-0.85531">
        <ele>308</ele>
        <time>2022-09-10T11:14:08Z</time>
      </trkpt>
      <trkpt lat="43.21586" lon="-0.85534">
        <ele>308.4</ele>
        <time>2022-09-10T11:14:09Z</time>
      </trkpt>
      <trkpt lat="43.21589" lon="-0.85547">
        <ele>309.2</ele>
        <time>2022-09-10T11:14:14Z</time>
      </trkpt>
      <trkpt lat="43.21589" lon="-0.85553">
        <ele>309.4</ele>
        <time>2022-09-10T11:14:16Z</time>
      </trkpt>
      <trkpt lat="43.21591" lon="-0.85561">
        <ele>310.2</ele>
        <time>2022-09-10T11:14:19Z</time>
      </trkpt>
      <trkpt lat="43.21592" lon="-0.85569">
        <ele>311.4</ele>
        <time>2022-09-10T11:14:22Z</time>
      </trkpt>
      <trkpt lat="43.21595" lon="-0.85579">
        <ele>312.4</ele>
        <time>2022-09-10T11:14:26Z</time>
      </trkpt>
      <trkpt lat="43.21596" lon="-0.8559">
        <ele>313</ele>
        <time>2022-09-10T11:14:30Z</time>
      </trkpt>
      <trkpt lat="43.21596" lon="-0.85595">
        <ele>313.6</ele>
        <time>2022-09-10T11:14:33Z</time>
      </trkpt>
      <trkpt lat="43.21599" lon="-0.85603">
        <ele>313.6</ele>
        <time>2022-09-10T11:16:06Z</time>
      </trkpt>
      <trkpt lat="43.21601" lon="-0.85609">
        <ele>313.8</ele>
        <time>2022-09-10T11:16:08Z</time>
      </trkpt>
      <trkpt lat="43.21612" lon="-0.85637">
        <ele>314.2</ele>
        <time>2022-09-10T11:16:16Z</time>
      </trkpt>
      <trkpt lat="43.21617" lon="-0.85648">
        <ele>314.6</ele>
        <time>2022-09-10T11:16:20Z</time>
      </trkpt>
      <trkpt lat="43.21625" lon="-0.85661">
        <ele>315.4</ele>
        <time>2022-09-10T11:16:25Z</time>
      </trkpt>
      <trkpt lat="43.21629" lon="-0.85669">
        <ele>315.8</ele>
        <time>2022-09-10T11:16:28Z</time>
      </trkpt>
      <trkpt lat="43.21639" lon="-0.85686">
        <ele>316.6</ele>
        <time>2022-09-10T11:16:34Z</time>
      </trkpt>
      <trkpt lat="43.21641" lon="-0.85688">
        <ele>316.8</ele>
        <time>2022-09-10T11:16:35Z</time>
      </trkpt>
      <trkpt lat="43.21651" lon="-0.85705">
        <ele>317.4</ele>
        <time>2022-09-10T11:16:42Z</time>
      </trkpt>
      <trkpt lat="43.21656" lon="-0.85709">
        <ele>317.8</ele>
        <time>2022-09-10T11:16:45Z</time>
      </trkpt>
      <trkpt lat="43.21657" lon="-0.85711">
        <ele>318</ele>
        <time>2022-09-10T11:16:46Z</time>
      </trkpt>
      <trkpt lat="43.21659" lon="-0.85713">
        <ele>318.2</ele>
        <time>2022-09-10T11:16:47Z</time>
      </trkpt>
      <trkpt lat="43.21664" lon="-0.85722">
        <ele>318.8</ele>
        <time>2022-09-10T11:16:51Z</time>
      </trkpt>
      <trkpt lat="43.21666" lon="-0.85729">
        <ele>319.4</ele>
        <time>2022-09-10T11:16:54Z</time>
      </trkpt>
      <trkpt lat="43.21669" lon="-0.85738">
        <ele>319.8</ele>
        <time>2022-09-10T11:16:57Z</time>
      </trkpt>
      <trkpt lat="43.21672" lon="-0.85753">
        <ele>320.2</ele>
        <time>2022-09-10T11:17:01Z</time>
      </trkpt>
      <trkpt lat="43.21672" lon="-0.8578">
        <ele>320.8</ele>
        <time>2022-09-10T11:17:08Z</time>
      </trkpt>
      <trkpt lat="43.21672" lon="-0.85783">
        <ele>320.8</ele>
        <time>2022-09-10T11:17:09Z</time>
      </trkpt>
      <trkpt lat="43.21671" lon="-0.85807">
        <ele>321.8</ele>
        <time>2022-09-10T11:17:16Z</time>
      </trkpt>
      <trkpt lat="43.21672" lon="-0.8581">
        <ele>322</ele>
        <time>2022-09-10T11:17:17Z</time>
      </trkpt>
      <trkpt lat="43.21675" lon="-0.8583">
        <ele>322.6</ele>
        <time>2022-09-10T11:17:23Z</time>
      </trkpt>
      <trkpt lat="43.21679" lon="-0.85841">
        <ele>323</ele>
        <time>2022-09-10T11:17:27Z</time>
      </trkpt>
      <trkpt lat="43.21681" lon="-0.85847">
        <ele>323.2</ele>
        <time>2022-09-10T11:17:29Z</time>
      </trkpt>
      <trkpt lat="43.21686" lon="-0.85865">
        <ele>324</ele>
        <time>2022-09-10T11:17:35Z</time>
      </trkpt>
      <trkpt lat="43.21689" lon="-0.85872">
        <ele>324.4</ele>
        <time>2022-09-10T11:17:38Z</time>
      </trkpt>
      <trkpt lat="43.21692" lon="-0.8588">
        <ele>325.2</ele>
        <time>2022-09-10T11:17:42Z</time>
      </trkpt>
      <trkpt lat="43.21693" lon="-0.85883">
        <ele>325.4</ele>
        <time>2022-09-10T11:17:44Z</time>
      </trkpt>
      <trkpt lat="43.21695" lon="-0.85892">
        <ele>326.4</ele>
        <time>2022-09-10T11:17:49Z</time>
      </trkpt>
      <trkpt lat="43.21697" lon="-0.85903">
        <ele>327</ele>
        <time>2022-09-10T11:17:54Z</time>
      </trkpt>
      <trkpt lat="43.21698" lon="-0.8591">
        <ele>327.4</ele>
        <time>2022-09-10T11:17:57Z</time>
      </trkpt>
      <trkpt lat="43.21699" lon="-0.85922">
        <ele>328.2</ele>
        <time>2022-09-10T11:18:02Z</time>
      </trkpt>
      <trkpt lat="43.21698" lon="-0.85927">
        <ele>328.4</ele>
        <time>2022-09-10T11:18:04Z</time>
      </trkpt>
      <trkpt lat="43.21696" lon="-0.8594">
        <ele>329.4</ele>
        <time>2022-09-10T11:18:10Z</time>
      </trkpt>
      <trkpt lat="43.21696" lon="-0.85941">
        <ele>329.6</ele>
        <time>2022-09-10T11:18:12Z</time>
      </trkpt>
      <trkpt lat="43.21697" lon="-0.85958">
        <ele>330.4</ele>
        <time>2022-09-10T11:19:29Z</time>
      </trkpt>
      <trkpt lat="43.21697" lon="-0.8596">
        <ele>330.6</ele>
        <time>2022-09-10T11:19:30Z</time>
      </trkpt>
      <trkpt lat="43.21697" lon="-0.85962">
        <ele>330.6</ele>
        <time>2022-09-10T11:19:31Z</time>
      </trkpt>
      <trkpt lat="43.21697" lon="-0.85969">
        <ele>331.2</ele>
        <time>2022-09-10T11:19:34Z</time>
      </trkpt>
      <trkpt lat="43.21698" lon="-0.85974">
        <ele>331.6</ele>
        <time>2022-09-10T11:19:36Z</time>
      </trkpt>
      <trkpt lat="43.21701" lon="-0.85984">
        <ele>332.8</ele>
        <time>2022-09-10T11:19:41Z</time>
      </trkpt>
      <trkpt lat="43.21703" lon="-0.85988">
        <ele>333</ele>
        <time>2022-09-10T11:19:43Z</time>
      </trkpt>
      <trkpt lat="43.21707" lon="-0.86005">
        <ele>333.4</ele>
        <time>2022-09-10T11:19:50Z</time>
      </trkpt>
      <trkpt lat="43.21712" lon="-0.86015">
        <ele>333.8</ele>
        <time>2022-09-10T11:19:55Z</time>
      </trkpt>
      <trkpt lat="43.21717" lon="-0.86024">
        <ele>334.4</ele>
        <time>2022-09-10T11:20:00Z</time>
      </trkpt>
      <trkpt lat="43.21725" lon="-0.86035">
        <ele>334</ele>
        <time>2022-09-10T11:21:14Z</time>
      </trkpt>
      <trkpt lat="43.21728" lon="-0.86042">
        <ele>333.6</ele>
        <time>2022-09-10T11:21:16Z</time>
      </trkpt>
      <trkpt lat="43.21731" lon="-0.86054">
        <ele>332.8</ele>
        <time>2022-09-10T11:21:18Z</time>
      </trkpt>
      <trkpt lat="43.21734" lon="-0.86062">
        <ele>332</ele>
        <time>2022-09-10T11:21:19Z</time>
      </trkpt>
      <trkpt lat="43.21735" lon="-0.86071">
        <ele>330.8</ele>
        <time>2022-09-10T11:21:20Z</time>
      </trkpt>
      <trkpt lat="43.21736" lon="-0.86081">
        <ele>329.8</ele>
        <time>2022-09-10T11:21:21Z</time>
      </trkpt>
      <trkpt lat="43.21736" lon="-0.86093">
        <ele>328.8</ele>
        <time>2022-09-10T11:21:22Z</time>
      </trkpt>
      <trkpt lat="43.21735" lon="-0.86122">
        <ele>327.2</ele>
        <time>2022-09-10T11:21:24Z</time>
      </trkpt>
      <trkpt lat="43.21735" lon="-0.8615">
        <ele>325.6</ele>
        <time>2022-09-10T11:21:26Z</time>
      </trkpt>
      <trkpt lat="43.21737" lon="-0.86185">
        <ele>324.2</ele>
        <time>2022-09-10T11:21:29Z</time>
      </trkpt>
      <trkpt lat="43.21738" lon="-0.86195">
        <ele>323.8</ele>
        <time>2022-09-10T11:21:30Z</time>
      </trkpt>
      <trkpt lat="43.21738" lon="-0.86204">
        <ele>323.4</ele>
        <time>2022-09-10T11:21:31Z</time>
      </trkpt>
      <trkpt lat="43.21737" lon="-0.86214">
        <ele>323</ele>
        <time>2022-09-10T11:21:32Z</time>
      </trkpt>
      <trkpt lat="43.21733" lon="-0.86233">
        <ele>322.8</ele>
        <time>2022-09-10T11:21:34Z</time>
      </trkpt>
      <trkpt lat="43.21722" lon="-0.86261">
        <ele>321.6</ele>
        <time>2022-09-10T11:21:37Z</time>
      </trkpt>
      <trkpt lat="43.21718" lon="-0.8627">
        <ele>321.2</ele>
        <time>2022-09-10T11:21:38Z</time>
      </trkpt>
      <trkpt lat="43.21713" lon="-0.86277">
        <ele>321</ele>
        <time>2022-09-10T11:21:39Z</time>
      </trkpt>
      <trkpt lat="43.217" lon="-0.86299">
        <ele>320.8</ele>
        <time>2022-09-10T11:21:42Z</time>
      </trkpt>
      <trkpt lat="43.2169" lon="-0.86312">
        <ele>320.6</ele>
        <time>2022-09-10T11:21:44Z</time>
      </trkpt>
      <trkpt lat="43.21682" lon="-0.86326">
        <ele>320.4</ele>
        <time>2022-09-10T11:21:46Z</time>
      </trkpt>
      <trkpt lat="43.2167" lon="-0.86347">
        <ele>320.2</ele>
        <time>2022-09-10T11:21:49Z</time>
      </trkpt>
      <trkpt lat="43.21663" lon="-0.86383">
        <ele>320</ele>
        <time>2022-09-10T11:21:53Z</time>
      </trkpt>
      <trkpt lat="43.21662" lon="-0.864">
        <ele>320</ele>
        <time>2022-09-10T11:21:55Z</time>
      </trkpt>
      <trkpt lat="43.21664" lon="-0.86415">
        <ele>319.8</ele>
        <time>2022-09-10T11:21:57Z</time>
      </trkpt>
      <trkpt lat="43.21668" lon="-0.86434">
        <ele>320</ele>
        <time>2022-09-10T11:22:00Z</time>
      </trkpt>
      <trkpt lat="43.21672" lon="-0.86445">
        <ele>320.4</ele>
        <time>2022-09-10T11:22:02Z</time>
      </trkpt>
      <trkpt lat="43.21684" lon="-0.86463">
        <ele>321</ele>
        <time>2022-09-10T11:22:07Z</time>
      </trkpt>
      <trkpt lat="43.21706" lon="-0.8648">
        <ele>321</ele>
        <time>2022-09-10T11:22:14Z</time>
      </trkpt>
      <trkpt lat="43.21726" lon="-0.86496">
        <ele>320.2</ele>
        <time>2022-09-10T11:22:19Z</time>
      </trkpt>
      <trkpt lat="43.21739" lon="-0.8651">
        <ele>319.2</ele>
        <time>2022-09-10T11:22:22Z</time>
      </trkpt>
      <trkpt lat="43.21744" lon="-0.86516">
        <ele>319.2</ele>
        <time>2022-09-10T11:22:23Z</time>
      </trkpt>
      <trkpt lat="43.21751" lon="-0.86528">
        <ele>318.6</ele>
        <time>2022-09-10T11:22:25Z</time>
      </trkpt>
      <trkpt lat="43.21757" lon="-0.86543">
        <ele>318.2</ele>
        <time>2022-09-10T11:22:27Z</time>
      </trkpt>
      <trkpt lat="43.21763" lon="-0.86578">
        <ele>317.2</ele>
        <time>2022-09-10T11:22:31Z</time>
      </trkpt>
      <trkpt lat="43.21764" lon="-0.86588">
        <ele>317</ele>
        <time>2022-09-10T11:22:32Z</time>
      </trkpt>
      <trkpt lat="43.21764" lon="-0.86617">
        <ele>316.2</ele>
        <time>2022-09-10T11:22:35Z</time>
      </trkpt>
      <trkpt lat="43.21764" lon="-0.86637">
        <ele>315.4</ele>
        <time>2022-09-10T11:22:37Z</time>
      </trkpt>
      <trkpt lat="43.21765" lon="-0.86658">
        <ele>315</ele>
        <time>2022-09-10T11:22:39Z</time>
      </trkpt>
      <trkpt lat="43.21766" lon="-0.86691">
        <ele>314.4</ele>
        <time>2022-09-10T11:22:42Z</time>
      </trkpt>
      <trkpt lat="43.21768" lon="-0.86735">
        <ele>313.6</ele>
        <time>2022-09-10T11:22:46Z</time>
      </trkpt>
      <trkpt lat="43.21769" lon="-0.86745">
        <ele>313.4</ele>
        <time>2022-09-10T11:22:47Z</time>
      </trkpt>
      <trkpt lat="43.21771" lon="-0.86757">
        <ele>313.2</ele>
        <time>2022-09-10T11:22:48Z</time>
      </trkpt>
      <trkpt lat="43.21773" lon="-0.86767">
        <ele>312.4</ele>
        <time>2022-09-10T11:22:49Z</time>
      </trkpt>
      <trkpt lat="43.21779" lon="-0.86783">
        <ele>312</ele>
        <time>2022-09-10T11:22:51Z</time>
      </trkpt>
      <trkpt lat="43.2179" lon="-0.86798">
        <ele>311.2</ele>
        <time>2022-09-10T11:22:54Z</time>
      </trkpt>
      <trkpt lat="43.21797" lon="-0.86803">
        <ele>310.2</ele>
        <time>2022-09-10T11:22:55Z</time>
      </trkpt>
      <trkpt lat="43.21805" lon="-0.86808">
        <ele>309.6</ele>
        <time>2022-09-10T11:22:56Z</time>
      </trkpt>
      <trkpt lat="43.21814" lon="-0.86814">
        <ele>308.6</ele>
        <time>2022-09-10T11:22:57Z</time>
      </trkpt>
      <trkpt lat="43.21824" lon="-0.8682">
        <ele>307.8</ele>
        <time>2022-09-10T11:22:58Z</time>
      </trkpt>
      <trkpt lat="43.21847" lon="-0.8683">
        <ele>306.6</ele>
        <time>2022-09-10T11:23:00Z</time>
      </trkpt>
      <trkpt lat="43.21859" lon="-0.86834">
        <ele>306.2</ele>
        <time>2022-09-10T11:23:01Z</time>
      </trkpt>
      <trkpt lat="43.2187" lon="-0.86838">
        <ele>305.6</ele>
        <time>2022-09-10T11:23:02Z</time>
      </trkpt>
      <trkpt lat="43.2189" lon="-0.86846">
        <ele>304.4</ele>
        <time>2022-09-10T11:23:04Z</time>
      </trkpt>
      <trkpt lat="43.21907" lon="-0.86857">
        <ele>304.2</ele>
        <time>2022-09-10T11:23:06Z</time>
      </trkpt>
      <trkpt lat="43.21923" lon="-0.86872">
        <ele>303.2</ele>
        <time>2022-09-10T11:23:08Z</time>
      </trkpt>
      <trkpt lat="43.21929" lon="-0.8688">
        <ele>302</ele>
        <time>2022-09-10T11:23:09Z</time>
      </trkpt>
      <trkpt lat="43.21936" lon="-0.86886">
        <ele>300.8</ele>
        <time>2022-09-10T11:23:10Z</time>
      </trkpt>
      <trkpt lat="43.21943" lon="-0.86892">
        <ele>299.6</ele>
        <time>2022-09-10T11:23:11Z</time>
      </trkpt>
      <trkpt lat="43.21952" lon="-0.86898">
        <ele>298.4</ele>
        <time>2022-09-10T11:23:12Z</time>
      </trkpt>
      <trkpt lat="43.21961" lon="-0.86903">
        <ele>295.6</ele>
        <time>2022-09-10T11:23:13Z</time>
      </trkpt>
      <trkpt lat="43.21971" lon="-0.86907">
        <ele>294</ele>
        <time>2022-09-10T11:23:14Z</time>
      </trkpt>
      <trkpt lat="43.21981" lon="-0.86913">
        <ele>292.6</ele>
        <time>2022-09-10T11:23:15Z</time>
      </trkpt>
      <trkpt lat="43.2199" lon="-0.86919">
        <ele>291.2</ele>
        <time>2022-09-10T11:23:16Z</time>
      </trkpt>
      <trkpt lat="43.22" lon="-0.86927">
        <ele>290</ele>
        <time>2022-09-10T11:23:17Z</time>
      </trkpt>
      <trkpt lat="43.22009" lon="-0.86936">
        <ele>288.6</ele>
        <time>2022-09-10T11:23:18Z</time>
      </trkpt>
      <trkpt lat="43.22018" lon="-0.86945">
        <ele>287</ele>
        <time>2022-09-10T11:23:19Z</time>
      </trkpt>
      <trkpt lat="43.22026" lon="-0.86954">
        <ele>285.6</ele>
        <time>2022-09-10T11:23:20Z</time>
      </trkpt>
      <trkpt lat="43.22034" lon="-0.86961">
        <ele>284</ele>
        <time>2022-09-10T11:23:21Z</time>
      </trkpt>
      <trkpt lat="43.22042" lon="-0.86968">
        <ele>282.8</ele>
        <time>2022-09-10T11:23:22Z</time>
      </trkpt>
      <trkpt lat="43.22049" lon="-0.86974">
        <ele>281.8</ele>
        <time>2022-09-10T11:23:23Z</time>
      </trkpt>
      <trkpt lat="43.22055" lon="-0.86981">
        <ele>281</ele>
        <time>2022-09-10T11:23:24Z</time>
      </trkpt>
      <trkpt lat="43.2206" lon="-0.86989">
        <ele>280.4</ele>
        <time>2022-09-10T11:23:25Z</time>
      </trkpt>
      <trkpt lat="43.22062" lon="-0.87006">
        <ele>279.8</ele>
        <time>2022-09-10T11:23:27Z</time>
      </trkpt>
      <trkpt lat="43.2206" lon="-0.87034">
        <ele>280.2</ele>
        <time>2022-09-10T11:23:31Z</time>
      </trkpt>
      <trkpt lat="43.22059" lon="-0.8706">
        <ele>279.8</ele>
        <time>2022-09-10T11:23:34Z</time>
      </trkpt>
      <trkpt lat="43.2206" lon="-0.87069">
        <ele>279.2</ele>
        <time>2022-09-10T11:23:35Z</time>
      </trkpt>
      <trkpt lat="43.22063" lon="-0.87079">
        <ele>278</ele>
        <time>2022-09-10T11:23:36Z</time>
      </trkpt>
      <trkpt lat="43.22067" lon="-0.87087">
        <ele>275.6</ele>
        <time>2022-09-10T11:23:37Z</time>
      </trkpt>
      <trkpt lat="43.22072" lon="-0.87096">
        <ele>274.2</ele>
        <time>2022-09-10T11:23:38Z</time>
      </trkpt>
      <trkpt lat="43.22079" lon="-0.87105">
        <ele>272.8</ele>
        <time>2022-09-10T11:23:39Z</time>
      </trkpt>
      <trkpt lat="43.22087" lon="-0.87116">
        <ele>271.4</ele>
        <time>2022-09-10T11:23:40Z</time>
      </trkpt>
      <trkpt lat="43.22095" lon="-0.87127">
        <ele>269.8</ele>
        <time>2022-09-10T11:23:41Z</time>
      </trkpt>
      <trkpt lat="43.22102" lon="-0.87137">
        <ele>268</ele>
        <time>2022-09-10T11:23:42Z</time>
      </trkpt>
      <trkpt lat="43.22107" lon="-0.87147">
        <ele>266.4</ele>
        <time>2022-09-10T11:23:43Z</time>
      </trkpt>
      <trkpt lat="43.22112" lon="-0.87159">
        <ele>265.4</ele>
        <time>2022-09-10T11:23:44Z</time>
      </trkpt>
      <trkpt lat="43.22118" lon="-0.8718">
        <ele>263.6</ele>
        <time>2022-09-10T11:23:46Z</time>
      </trkpt>
      <trkpt lat="43.22121" lon="-0.87191">
        <ele>262.4</ele>
        <time>2022-09-10T11:23:47Z</time>
      </trkpt>
      <trkpt lat="43.22125" lon="-0.87202">
        <ele>261.2</ele>
        <time>2022-09-10T11:23:48Z</time>
      </trkpt>
      <trkpt lat="43.2213" lon="-0.87213">
        <ele>259.6</ele>
        <time>2022-09-10T11:23:49Z</time>
      </trkpt>
      <trkpt lat="43.22136" lon="-0.87226">
        <ele>257.8</ele>
        <time>2022-09-10T11:23:50Z</time>
      </trkpt>
      <trkpt lat="43.22142" lon="-0.87239">
        <ele>255.8</ele>
        <time>2022-09-10T11:23:51Z</time>
      </trkpt>
      <trkpt lat="43.22147" lon="-0.87253">
        <ele>254</ele>
        <time>2022-09-10T11:23:52Z</time>
      </trkpt>
      <trkpt lat="43.22152" lon="-0.87269">
        <ele>252.4</ele>
        <time>2022-09-10T11:23:53Z</time>
      </trkpt>
      <trkpt lat="43.22159" lon="-0.87282">
        <ele>251.2</ele>
        <time>2022-09-10T11:23:54Z</time>
      </trkpt>
      <trkpt lat="43.22173" lon="-0.87302">
        <ele>250</ele>
        <time>2022-09-10T11:23:56Z</time>
      </trkpt>
      <trkpt lat="43.22188" lon="-0.87331">
        <ele>249.6</ele>
        <time>2022-09-10T11:23:59Z</time>
      </trkpt>
      <trkpt lat="43.22192" lon="-0.87348">
        <ele>248.2</ele>
        <time>2022-09-10T11:24:01Z</time>
      </trkpt>
      <trkpt lat="43.22192" lon="-0.87357">
        <ele>247.4</ele>
        <time>2022-09-10T11:24:02Z</time>
      </trkpt>
      <trkpt lat="43.22191" lon="-0.87367">
        <ele>246.4</ele>
        <time>2022-09-10T11:24:03Z</time>
      </trkpt>
      <trkpt lat="43.22189" lon="-0.87378">
        <ele>245</ele>
        <time>2022-09-10T11:24:04Z</time>
      </trkpt>
      <trkpt lat="43.22187" lon="-0.8739">
        <ele>243.6</ele>
        <time>2022-09-10T11:24:05Z</time>
      </trkpt>
      <trkpt lat="43.22184" lon="-0.87402">
        <ele>242.2</ele>
        <time>2022-09-10T11:24:06Z</time>
      </trkpt>
      <trkpt lat="43.22181" lon="-0.87414">
        <ele>241</ele>
        <time>2022-09-10T11:24:07Z</time>
      </trkpt>
      <trkpt lat="43.22179" lon="-0.87426">
        <ele>239.8</ele>
        <time>2022-09-10T11:24:08Z</time>
      </trkpt>
      <trkpt lat="43.22181" lon="-0.8745">
        <ele>238.2</ele>
        <time>2022-09-10T11:24:10Z</time>
      </trkpt>
      <trkpt lat="43.2219" lon="-0.87475">
        <ele>237.6</ele>
        <time>2022-09-10T11:24:13Z</time>
      </trkpt>
      <trkpt lat="43.222" lon="-0.87487">
        <ele>237.2</ele>
        <time>2022-09-10T11:24:15Z</time>
      </trkpt>
      <trkpt lat="43.22206" lon="-0.87492">
        <ele>236.6</ele>
        <time>2022-09-10T11:24:16Z</time>
      </trkpt>
      <trkpt lat="43.22211" lon="-0.87498">
        <ele>235.6</ele>
        <time>2022-09-10T11:24:17Z</time>
      </trkpt>
      <trkpt lat="43.22215" lon="-0.87505">
        <ele>234.4</ele>
        <time>2022-09-10T11:24:18Z</time>
      </trkpt>
      <trkpt lat="43.2222" lon="-0.87523">
        <ele>232.4</ele>
        <time>2022-09-10T11:24:20Z</time>
      </trkpt>
      <trkpt lat="43.22221" lon="-0.87541">
        <ele>230.6</ele>
        <time>2022-09-10T11:24:22Z</time>
      </trkpt>
      <trkpt lat="43.22221" lon="-0.87559">
        <ele>228.8</ele>
        <time>2022-09-10T11:24:24Z</time>
      </trkpt>
      <trkpt lat="43.22221" lon="-0.87567">
        <ele>226.8</ele>
        <time>2022-09-10T11:24:25Z</time>
      </trkpt>
      <trkpt lat="43.2222" lon="-0.87574">
        <ele>225.6</ele>
        <time>2022-09-10T11:24:26Z</time>
      </trkpt>
      <trkpt lat="43.22219" lon="-0.87586">
        <ele>223.8</ele>
        <time>2022-09-10T11:24:28Z</time>
      </trkpt>
      <trkpt lat="43.22218" lon="-0.8759">
        <ele>223</ele>
        <time>2022-09-10T11:24:29Z</time>
      </trkpt>
      <trkpt lat="43.22218" lon="-0.87594">
        <ele>222.6</ele>
        <time>2022-09-10T11:24:30Z</time>
      </trkpt>
      <trkpt lat="43.22217" lon="-0.87597">
        <ele>221.8</ele>
        <time>2022-09-10T11:24:33Z</time>
      </trkpt>
      <trkpt lat="43.22215" lon="-0.8761">
        <ele>222.4</ele>
        <time>2022-09-10T11:28:10Z</time>
      </trkpt>
      <trkpt lat="43.22214" lon="-0.87617">
        <ele>222.2</ele>
        <time>2022-09-10T11:28:12Z</time>
      </trkpt>
      <trkpt lat="43.22213" lon="-0.87626">
        <ele>221.4</ele>
        <time>2022-09-10T11:28:14Z</time>
      </trkpt>
      <trkpt lat="43.22209" lon="-0.87641">
        <ele>219.8</ele>
        <time>2022-09-10T11:28:17Z</time>
      </trkpt>
      <trkpt lat="43.22205" lon="-0.87658">
        <ele>218.4</ele>
        <time>2022-09-10T11:28:19Z</time>
      </trkpt>
      <trkpt lat="43.222" lon="-0.87675">
        <ele>217.2</ele>
        <time>2022-09-10T11:28:21Z</time>
      </trkpt>
      <trkpt lat="43.22195" lon="-0.87692">
        <ele>215.2</ele>
        <time>2022-09-10T11:28:23Z</time>
      </trkpt>
      <trkpt lat="43.22189" lon="-0.87716">
        <ele>213.6</ele>
        <time>2022-09-10T11:28:26Z</time>
      </trkpt>
      <trkpt lat="43.22187" lon="-0.87724">
        <ele>211.8</ele>
        <time>2022-09-10T11:28:27Z</time>
      </trkpt>
      <trkpt lat="43.22184" lon="-0.87731">
        <ele>211</ele>
        <time>2022-09-10T11:28:28Z</time>
      </trkpt>
      <trkpt lat="43.22182" lon="-0.87739">
        <ele>210</ele>
        <time>2022-09-10T11:28:29Z</time>
      </trkpt>
      <trkpt lat="43.22179" lon="-0.87746">
        <ele>208.8</ele>
        <time>2022-09-10T11:28:30Z</time>
      </trkpt>
      <trkpt lat="43.22174" lon="-0.87761">
        <ele>207.2</ele>
        <time>2022-09-10T11:28:32Z</time>
      </trkpt>
      <trkpt lat="43.22169" lon="-0.87776">
        <ele>205.8</ele>
        <time>2022-09-10T11:28:34Z</time>
      </trkpt>
      <trkpt lat="43.22166" lon="-0.87784">
        <ele>204.6</ele>
        <time>2022-09-10T11:28:35Z</time>
      </trkpt>
      <trkpt lat="43.22164" lon="-0.87792">
        <ele>203.4</ele>
        <time>2022-09-10T11:28:36Z</time>
      </trkpt>
      <trkpt lat="43.22161" lon="-0.87802">
        <ele>202.2</ele>
        <time>2022-09-10T11:28:37Z</time>
      </trkpt>
      <trkpt lat="43.22158" lon="-0.87811">
        <ele>201</ele>
        <time>2022-09-10T11:28:38Z</time>
      </trkpt>
      <trkpt lat="43.22156" lon="-0.87821">
        <ele>199.8</ele>
        <time>2022-09-10T11:28:39Z</time>
      </trkpt>
      <trkpt lat="43.22153" lon="-0.87831">
        <ele>198.4</ele>
        <time>2022-09-10T11:28:40Z</time>
      </trkpt>
      <trkpt lat="43.22151" lon="-0.87841">
        <ele>197.2</ele>
        <time>2022-09-10T11:28:41Z</time>
      </trkpt>
      <trkpt lat="43.2215" lon="-0.87852">
        <ele>196.2</ele>
        <time>2022-09-10T11:28:42Z</time>
      </trkpt>
      <trkpt lat="43.22148" lon="-0.87863">
        <ele>195</ele>
        <time>2022-09-10T11:28:43Z</time>
      </trkpt>
      <trkpt lat="43.22145" lon="-0.87873">
        <ele>194.2</ele>
        <time>2022-09-10T11:28:44Z</time>
      </trkpt>
      <trkpt lat="43.22142" lon="-0.87883">
        <ele>193.2</ele>
        <time>2022-09-10T11:28:45Z</time>
      </trkpt>
      <trkpt lat="43.22135" lon="-0.87901">
        <ele>192.2</ele>
        <time>2022-09-10T11:28:47Z</time>
      </trkpt>
      <trkpt lat="43.22132" lon="-0.87919">
        <ele>191.6</ele>
        <time>2022-09-10T11:28:49Z</time>
      </trkpt>
      <trkpt lat="43.22131" lon="-0.87939">
        <ele>189.8</ele>
        <time>2022-09-10T11:28:51Z</time>
      </trkpt>
      <trkpt lat="43.22131" lon="-0.8795">
        <ele>188.8</ele>
        <time>2022-09-10T11:28:52Z</time>
      </trkpt>
      <trkpt lat="43.22132" lon="-0.8796">
        <ele>187.6</ele>
        <time>2022-09-10T11:28:53Z</time>
      </trkpt>
      <trkpt lat="43.22134" lon="-0.8797">
        <ele>186.4</ele>
        <time>2022-09-10T11:28:54Z</time>
      </trkpt>
      <trkpt lat="43.22137" lon="-0.8798">
        <ele>185.2</ele>
        <time>2022-09-10T11:28:55Z</time>
      </trkpt>
      <trkpt lat="43.22139" lon="-0.87988">
        <ele>183.8</ele>
        <time>2022-09-10T11:28:56Z</time>
      </trkpt>
      <trkpt lat="43.22142" lon="-0.87997">
        <ele>182.2</ele>
        <time>2022-09-10T11:28:57Z</time>
      </trkpt>
      <trkpt lat="43.22144" lon="-0.88004">
        <ele>180.6</ele>
        <time>2022-09-10T11:28:58Z</time>
      </trkpt>
      <trkpt lat="43.22149" lon="-0.8802">
        <ele>178.8</ele>
        <time>2022-09-10T11:29:00Z</time>
      </trkpt>
      <trkpt lat="43.2215" lon="-0.88027">
        <ele>178.4</ele>
        <time>2022-09-10T11:29:01Z</time>
      </trkpt>
      <trkpt lat="43.22151" lon="-0.88034">
        <ele>177.8</ele>
        <time>2022-09-10T11:29:02Z</time>
      </trkpt>
      <trkpt lat="43.22153" lon="-0.8805">
        <ele>177</ele>
        <time>2022-09-10T11:29:04Z</time>
      </trkpt>
      <trkpt lat="43.22152" lon="-0.88067">
        <ele>176.6</ele>
        <time>2022-09-10T11:29:06Z</time>
      </trkpt>
      <trkpt lat="43.2215" lon="-0.88083">
        <ele>175.2</ele>
        <time>2022-09-10T11:29:08Z</time>
      </trkpt>
      <trkpt lat="43.22144" lon="-0.88101">
        <ele>173.6</ele>
        <time>2022-09-10T11:29:10Z</time>
      </trkpt>
      <trkpt lat="43.2214" lon="-0.8811">
        <ele>172.6</ele>
        <time>2022-09-10T11:29:11Z</time>
      </trkpt>
      <trkpt lat="43.22136" lon="-0.88118">
        <ele>171.6</ele>
        <time>2022-09-10T11:29:12Z</time>
      </trkpt>
      <trkpt lat="43.22132" lon="-0.88126">
        <ele>170.2</ele>
        <time>2022-09-10T11:29:13Z</time>
      </trkpt>
      <trkpt lat="43.22128" lon="-0.88134">
        <ele>169</ele>
        <time>2022-09-10T11:29:14Z</time>
      </trkpt>
      <trkpt lat="43.22125" lon="-0.88144">
        <ele>166.2</ele>
        <time>2022-09-10T11:29:15Z</time>
      </trkpt>
      <trkpt lat="43.22123" lon="-0.88157">
        <ele>164.8</ele>
        <time>2022-09-10T11:29:16Z</time>
      </trkpt>
      <trkpt lat="43.22123" lon="-0.88182">
        <ele>164.2</ele>
        <time>2022-09-10T11:29:18Z</time>
      </trkpt>
      <trkpt lat="43.22121" lon="-0.88223">
        <ele>164</ele>
        <time>2022-09-10T11:29:22Z</time>
      </trkpt>
      <trkpt lat="43.22115" lon="-0.88241">
        <ele>164.2</ele>
        <time>2022-09-10T11:29:25Z</time>
      </trkpt>
      <trkpt lat="43.22109" lon="-0.88255">
        <ele>165.2</ele>
        <time>2022-09-10T11:29:29Z</time>
      </trkpt>
      <trkpt lat="43.22109" lon="-0.88262">
        <ele>166.2</ele>
        <time>2022-09-10T11:29:32Z</time>
      </trkpt>
      <trkpt lat="43.22109" lon="-0.88264">
        <ele>166.6</ele>
        <time>2022-09-10T11:29:33Z</time>
      </trkpt>
      <trkpt lat="43.2211" lon="-0.88265">
        <ele>166.8</ele>
        <time>2022-09-10T11:29:34Z</time>
      </trkpt>
      <trkpt lat="43.22112" lon="-0.88268">
        <ele>167.2</ele>
        <time>2022-09-10T11:29:36Z</time>
      </trkpt>
      <trkpt lat="43.22115" lon="-0.88269">
        <ele>167.8</ele>
        <time>2022-09-10T11:29:38Z</time>
      </trkpt>
      <trkpt lat="43.22125" lon="-0.88274">
        <ele>168.4</ele>
        <time>2022-09-10T11:29:43Z</time>
      </trkpt>
      <trkpt lat="43.22129" lon="-0.88275">
        <ele>168.6</ele>
        <time>2022-09-10T11:29:45Z</time>
      </trkpt>
      <trkpt lat="43.22139" lon="-0.88281">
        <ele>168.6</ele>
        <time>2022-09-10T11:29:51Z</time>
      </trkpt>
      <trkpt lat="43.22148" lon="-0.8829">
        <ele>168.6</ele>
        <time>2022-09-10T11:29:57Z</time>
      </trkpt>
      <trkpt lat="43.22148" lon="-0.88293">
        <ele>168.8</ele>
        <time>2022-09-10T11:29:58Z</time>
      </trkpt>
      <trkpt lat="43.22145" lon="-0.88307">
        <ele>169.2</ele>
        <time>2022-09-10T11:30:03Z</time>
      </trkpt>
      <trkpt lat="43.22145" lon="-0.8831">
        <ele>169.4</ele>
        <time>2022-09-10T11:30:04Z</time>
      </trkpt>
      <trkpt lat="43.22144" lon="-0.88327">
        <ele>170.6</ele>
        <time>2022-09-10T11:30:11Z</time>
      </trkpt>
      <trkpt lat="43.22144" lon="-0.88331">
        <ele>170.8</ele>
        <time>2022-09-10T11:30:13Z</time>
      </trkpt>
      <trkpt lat="43.22148" lon="-0.88335">
        <ele>171</ele>
        <time>2022-09-10T11:30:16Z</time>
      </trkpt>
      <trkpt lat="43.22161" lon="-0.88343">
        <ele>171.2</ele>
        <time>2022-09-10T11:30:24Z</time>
      </trkpt>
      <trkpt lat="43.22163" lon="-0.88348">
        <ele>171.6</ele>
        <time>2022-09-10T11:30:27Z</time>
      </trkpt>
      <trkpt lat="43.22162" lon="-0.88354">
        <ele>172</ele>
        <time>2022-09-10T11:30:30Z</time>
      </trkpt>
      <trkpt lat="43.22162" lon="-0.88357">
        <ele>172.2</ele>
        <time>2022-09-10T11:30:31Z</time>
      </trkpt>
      <trkpt lat="43.22158" lon="-0.88367">
        <ele>172.6</ele>
        <time>2022-09-10T11:30:36Z</time>
      </trkpt>
      <trkpt lat="43.22157" lon="-0.88371">
        <ele>173</ele>
        <time>2022-09-10T11:30:38Z</time>
      </trkpt>
      <trkpt lat="43.22149" lon="-0.88386">
        <ele>173.6</ele>
        <time>2022-09-10T11:30:46Z</time>
      </trkpt>
      <trkpt lat="43.22142" lon="-0.88394">
        <ele>174.8</ele>
        <time>2022-09-10T11:30:52Z</time>
      </trkpt>
      <trkpt lat="43.2214" lon="-0.88397">
        <ele>175.2</ele>
        <time>2022-09-10T11:30:54Z</time>
      </trkpt>
      <trkpt lat="43.22138" lon="-0.884">
        <ele>175.4</ele>
        <time>2022-09-10T11:30:56Z</time>
      </trkpt>
      <trkpt lat="43.22136" lon="-0.88403">
        <ele>175.8</ele>
        <time>2022-09-10T11:30:58Z</time>
      </trkpt>
      <trkpt lat="43.22135" lon="-0.88407">
        <ele>176.2</ele>
        <time>2022-09-10T11:31:00Z</time>
      </trkpt>
      <trkpt lat="43.22134" lon="-0.88408">
        <ele>176.4</ele>
        <time>2022-09-10T11:31:01Z</time>
      </trkpt>
      <trkpt lat="43.22131" lon="-0.88411">
        <ele>177</ele>
        <time>2022-09-10T11:31:04Z</time>
      </trkpt>
      <trkpt lat="43.2213" lon="-0.88416">
        <ele>177.4</ele>
        <time>2022-09-10T11:31:07Z</time>
      </trkpt>
      <trkpt lat="43.2213" lon="-0.88418">
        <ele>177.6</ele>
        <time>2022-09-10T11:31:08Z</time>
      </trkpt>
      <trkpt lat="43.22128" lon="-0.88421">
        <ele>178</ele>
        <time>2022-09-10T11:31:10Z</time>
      </trkpt>
      <trkpt lat="43.22123" lon="-0.88426">
        <ele>179</ele>
        <time>2022-09-10T11:31:15Z</time>
      </trkpt>
      <trkpt lat="43.22122" lon="-0.88427">
        <ele>179.2</ele>
        <time>2022-09-10T11:31:16Z</time>
      </trkpt>
      <trkpt lat="43.22117" lon="-0.88432">
        <ele>179.8</ele>
        <time>2022-09-10T11:31:21Z</time>
      </trkpt>
      <trkpt lat="43.22117" lon="-0.88433">
        <ele>180</ele>
        <time>2022-09-10T11:31:22Z</time>
      </trkpt>
      <trkpt lat="43.22117" lon="-0.88435">
        <ele>180.2</ele>
        <time>2022-09-10T11:31:23Z</time>
      </trkpt>
      <trkpt lat="43.22121" lon="-0.88443">
        <ele>180.8</ele>
        <time>2022-09-10T11:31:28Z</time>
      </trkpt>
      <trkpt lat="43.2212" lon="-0.88445">
        <ele>180.8</ele>
        <time>2022-09-10T11:31:29Z</time>
      </trkpt>
      <trkpt lat="43.22117" lon="-0.88447">
        <ele>181.4</ele>
        <time>2022-09-10T11:31:32Z</time>
      </trkpt>
      <trkpt lat="43.22112" lon="-0.88449">
        <ele>181.8</ele>
        <time>2022-09-10T11:31:37Z</time>
      </trkpt>
      <trkpt lat="43.22114" lon="-0.88452">
        <ele>182.4</ele>
        <time>2022-09-10T11:31:39Z</time>
      </trkpt>
      <trkpt lat="43.22115" lon="-0.88453">
        <ele>182.4</ele>
        <time>2022-09-10T11:31:40Z</time>
      </trkpt>
      <trkpt lat="43.22115" lon="-0.88455">
        <ele>182.6</ele>
        <time>2022-09-10T11:31:41Z</time>
      </trkpt>
      <trkpt lat="43.22111" lon="-0.88458">
        <ele>183.2</ele>
        <time>2022-09-10T11:31:45Z</time>
      </trkpt>
      <trkpt lat="43.22109" lon="-0.88462">
        <ele>183.6</ele>
        <time>2022-09-10T11:31:48Z</time>
      </trkpt>
      <trkpt lat="43.2211" lon="-0.88467">
        <ele>184.2</ele>
        <time>2022-09-10T11:31:51Z</time>
      </trkpt>
      <trkpt lat="43.22111" lon="-0.88468">
        <ele>184.2</ele>
        <time>2022-09-10T11:31:52Z</time>
      </trkpt>
      <trkpt lat="43.22111" lon="-0.8847">
        <ele>184.4</ele>
        <time>2022-09-10T11:31:53Z</time>
      </trkpt>
      <trkpt lat="43.2211" lon="-0.88473">
        <ele>184.6</ele>
        <time>2022-09-10T11:31:55Z</time>
      </trkpt>
      <trkpt lat="43.22109" lon="-0.88474">
        <ele>184.8</ele>
        <time>2022-09-10T11:31:56Z</time>
      </trkpt>
      <trkpt lat="43.22103" lon="-0.88477">
        <ele>185.6</ele>
        <time>2022-09-10T11:32:01Z</time>
      </trkpt>
      <trkpt lat="43.22105" lon="-0.88482">
        <ele>186.6</ele>
        <time>2022-09-10T11:32:05Z</time>
      </trkpt>
      <trkpt lat="43.22106" lon="-0.88484">
        <ele>186.6</ele>
        <time>2022-09-10T11:32:06Z</time>
      </trkpt>
      <trkpt lat="43.22105" lon="-0.88489">
        <ele>187.2</ele>
        <time>2022-09-10T11:32:09Z</time>
      </trkpt>
      <trkpt lat="43.22101" lon="-0.88492">
        <ele>187.8</ele>
        <time>2022-09-10T11:32:12Z</time>
      </trkpt>
      <trkpt lat="43.221" lon="-0.88495">
        <ele>188</ele>
        <time>2022-09-10T11:32:14Z</time>
      </trkpt>
      <trkpt lat="43.22104" lon="-0.885">
        <ele>188.8</ele>
        <time>2022-09-10T11:32:18Z</time>
      </trkpt>
      <trkpt lat="43.22104" lon="-0.88501">
        <ele>189</ele>
        <time>2022-09-10T11:32:19Z</time>
      </trkpt>
      <trkpt lat="43.22102" lon="-0.88508">
        <ele>189.6</ele>
        <time>2022-09-10T11:32:23Z</time>
      </trkpt>
      <trkpt lat="43.22101" lon="-0.8851">
        <ele>189.8</ele>
        <time>2022-09-10T11:32:24Z</time>
      </trkpt>
      <trkpt lat="43.22101" lon="-0.88512">
        <ele>190</ele>
        <time>2022-09-10T11:32:25Z</time>
      </trkpt>
      <trkpt lat="43.22104" lon="-0.88516">
        <ele>190.6</ele>
        <time>2022-09-10T11:32:28Z</time>
      </trkpt>
      <trkpt lat="43.22105" lon="-0.88519">
        <ele>191</ele>
        <time>2022-09-10T11:32:30Z</time>
      </trkpt>
      <trkpt lat="43.22104" lon="-0.88524">
        <ele>191.2</ele>
        <time>2022-09-10T11:32:33Z</time>
      </trkpt>
      <trkpt lat="43.22103" lon="-0.88528">
        <ele>191.6</ele>
        <time>2022-09-10T11:32:35Z</time>
      </trkpt>
      <trkpt lat="43.22105" lon="-0.88534">
        <ele>192</ele>
        <time>2022-09-10T11:32:39Z</time>
      </trkpt>
      <trkpt lat="43.22105" lon="-0.88536">
        <ele>192</ele>
        <time>2022-09-10T11:32:40Z</time>
      </trkpt>
      <trkpt lat="43.22108" lon="-0.88554">
        <ele>192.2</ele>
        <time>2022-09-10T11:32:48Z</time>
      </trkpt>
      <trkpt lat="43.22109" lon="-0.88564">
        <ele>192</ele>
        <time>2022-09-10T11:32:51Z</time>
      </trkpt>
      <trkpt lat="43.22107" lon="-0.88572">
        <ele>191.8</ele>
        <time>2022-09-10T11:32:53Z</time>
      </trkpt>
      <trkpt lat="43.22101" lon="-0.88589">
        <ele>191.2</ele>
        <time>2022-09-10T11:32:58Z</time>
      </trkpt>
      <trkpt lat="43.22099" lon="-0.88591">
        <ele>191</ele>
        <time>2022-09-10T11:32:59Z</time>
      </trkpt>
      <trkpt lat="43.22099" lon="-0.88593">
        <ele>191</ele>
        <time>2022-09-10T11:33:00Z</time>
      </trkpt>
      <trkpt lat="43.22098" lon="-0.88604">
        <ele>190.6</ele>
        <time>2022-09-10T11:33:03Z</time>
      </trkpt>
      <trkpt lat="43.22096" lon="-0.88613">
        <ele>190.2</ele>
        <time>2022-09-10T11:33:05Z</time>
      </trkpt>
      <trkpt lat="43.22095" lon="-0.88618">
        <ele>189.8</ele>
        <time>2022-09-10T11:33:06Z</time>
      </trkpt>
      <trkpt lat="43.22091" lon="-0.88631">
        <ele>188.6</ele>
        <time>2022-09-10T11:33:09Z</time>
      </trkpt>
      <trkpt lat="43.22086" lon="-0.88643">
        <ele>187.6</ele>
        <time>2022-09-10T11:33:14Z</time>
      </trkpt>
      <trkpt lat="43.22086" lon="-0.88644">
        <ele>187.6</ele>
        <time>2022-09-10T11:33:15Z</time>
      </trkpt>
      <trkpt lat="43.22081" lon="-0.88649">
        <ele>187.4</ele>
        <time>2022-09-10T11:33:31Z</time>
      </trkpt>
      <trkpt lat="43.22076" lon="-0.88656">
        <ele>186.6</ele>
        <time>2022-09-10T11:34:03Z</time>
      </trkpt>
      <trkpt lat="43.22074" lon="-0.88659">
        <ele>186.6</ele>
        <time>2022-09-10T11:34:04Z</time>
      </trkpt>
      <trkpt lat="43.22068" lon="-0.88672">
        <ele>186</ele>
        <time>2022-09-10T11:34:07Z</time>
      </trkpt>
      <trkpt lat="43.22065" lon="-0.88678">
        <ele>185.4</ele>
        <time>2022-09-10T11:34:08Z</time>
      </trkpt>
      <trkpt lat="43.22059" lon="-0.8869">
        <ele>184</ele>
        <time>2022-09-10T11:34:10Z</time>
      </trkpt>
      <trkpt lat="43.22053" lon="-0.887">
        <ele>182.4</ele>
        <time>2022-09-10T11:34:12Z</time>
      </trkpt>
      <trkpt lat="43.22046" lon="-0.8871">
        <ele>181</ele>
        <time>2022-09-10T11:34:14Z</time>
      </trkpt>
      <trkpt lat="43.22039" lon="-0.88718">
        <ele>179.6</ele>
        <time>2022-09-10T11:34:16Z</time>
      </trkpt>
      <trkpt lat="43.22034" lon="-0.88724">
        <ele>178</ele>
        <time>2022-09-10T11:34:18Z</time>
      </trkpt>
      <trkpt lat="43.22028" lon="-0.88731">
        <ele>176.4</ele>
        <time>2022-09-10T11:34:20Z</time>
      </trkpt>
      <trkpt lat="43.22022" lon="-0.88738">
        <ele>174.8</ele>
        <time>2022-09-10T11:34:22Z</time>
      </trkpt>
      <trkpt lat="43.22018" lon="-0.88743">
        <ele>174</ele>
        <time>2022-09-10T11:34:23Z</time>
      </trkpt>
      <trkpt lat="43.22015" lon="-0.88748">
        <ele>173.4</ele>
        <time>2022-09-10T11:34:24Z</time>
      </trkpt>
      <trkpt lat="43.22008" lon="-0.88757">
        <ele>171.8</ele>
        <time>2022-09-10T11:34:26Z</time>
      </trkpt>
      <trkpt lat="43.22006" lon="-0.88761">
        <ele>170</ele>
        <time>2022-09-10T11:34:27Z</time>
      </trkpt>
      <trkpt lat="43.22003" lon="-0.88764">
        <ele>169.2</ele>
        <time>2022-09-10T11:34:28Z</time>
      </trkpt>
      <trkpt lat="43.22001" lon="-0.88766">
        <ele>168.6</ele>
        <time>2022-09-10T11:34:29Z</time>
      </trkpt>
      <trkpt lat="43.21997" lon="-0.88771">
        <ele>167.4</ele>
        <time>2022-09-10T11:34:31Z</time>
      </trkpt>
      <trkpt lat="43.21994" lon="-0.88778">
        <ele>166.4</ele>
        <time>2022-09-10T11:34:33Z</time>
      </trkpt>
      <trkpt lat="43.21993" lon="-0.88782">
        <ele>166</ele>
        <time>2022-09-10T11:34:34Z</time>
      </trkpt>
      <trkpt lat="43.21989" lon="-0.8879">
        <ele>165</ele>
        <time>2022-09-10T11:34:36Z</time>
      </trkpt>
      <trkpt lat="43.21984" lon="-0.88799">
        <ele>164</ele>
        <time>2022-09-10T11:34:38Z</time>
      </trkpt>
      <trkpt lat="43.21982" lon="-0.88803">
        <ele>163.6</ele>
        <time>2022-09-10T11:34:39Z</time>
      </trkpt>
      <trkpt lat="43.21977" lon="-0.88811">
        <ele>162</ele>
        <time>2022-09-10T11:34:41Z</time>
      </trkpt>
      <trkpt lat="43.21971" lon="-0.88823">
        <ele>160.8</ele>
        <time>2022-09-10T11:34:43Z</time>
      </trkpt>
      <trkpt lat="43.21965" lon="-0.88832">
        <ele>159.8</ele>
        <time>2022-09-10T11:34:46Z</time>
      </trkpt>
      <trkpt lat="43.21962" lon="-0.88836">
        <ele>158.6</ele>
        <time>2022-09-10T11:34:48Z</time>
      </trkpt>
      <trkpt lat="43.2196" lon="-0.88843">
        <ele>157.6</ele>
        <time>2022-09-10T11:34:51Z</time>
      </trkpt>
      <trkpt lat="43.2196" lon="-0.88846">
        <ele>157.6</ele>
        <time>2022-09-10T11:34:52Z</time>
      </trkpt>
      <trkpt lat="43.21961" lon="-0.88849">
        <ele>157.6</ele>
        <time>2022-09-10T11:34:53Z</time>
      </trkpt>
      <trkpt lat="43.21965" lon="-0.88864">
        <ele>157.2</ele>
        <time>2022-09-10T11:34:56Z</time>
      </trkpt>
      <trkpt lat="43.21966" lon="-0.88867">
        <ele>157</ele>
        <time>2022-09-10T11:34:57Z</time>
      </trkpt>
      <trkpt lat="43.21969" lon="-0.88876">
        <ele>156.4</ele>
        <time>2022-09-10T11:35:00Z</time>
      </trkpt>
      <trkpt lat="43.21969" lon="-0.88879">
        <ele>156.2</ele>
        <time>2022-09-10T11:35:01Z</time>
      </trkpt>
      <trkpt lat="43.21968" lon="-0.88904">
        <ele>156.4</ele>
        <time>2022-09-10T11:35:07Z</time>
      </trkpt>
      <trkpt lat="43.21974" lon="-0.8892">
        <ele>156.8</ele>
        <time>2022-09-10T11:35:13Z</time>
      </trkpt>
      <trkpt lat="43.21981" lon="-0.88944">
        <ele>156.6</ele>
        <time>2022-09-10T11:35:19Z</time>
      </trkpt>
      <trkpt lat="43.21989" lon="-0.88967">
        <ele>156.2</ele>
        <time>2022-09-10T11:35:26Z</time>
      </trkpt>
      <trkpt lat="43.21998" lon="-0.88985">
        <ele>156.4</ele>
        <time>2022-09-10T11:35:33Z</time>
      </trkpt>
      <trkpt lat="43.22008" lon="-0.88986">
        <ele>156.8</ele>
        <time>2022-09-10T11:35:38Z</time>
      </trkpt>
      <trkpt lat="43.22016" lon="-0.88985">
        <ele>157</ele>
        <time>2022-09-10T11:35:44Z</time>
      </trkpt>
      <trkpt lat="43.22019" lon="-0.88998">
        <ele>156.8</ele>
        <time>2022-09-10T11:35:49Z</time>
      </trkpt>
      <trkpt lat="43.22012" lon="-0.89013">
        <ele>156.6</ele>
        <time>2022-09-10T11:35:55Z</time>
      </trkpt>
      <trkpt lat="43.22005" lon="-0.89023">
        <ele>156.4</ele>
        <time>2022-09-10T11:36:00Z</time>
      </trkpt>
      <trkpt lat="43.22002" lon="-0.89039">
        <ele>156.4</ele>
        <time>2022-09-10T11:36:06Z</time>
      </trkpt>
      <trkpt lat="43.22002" lon="-0.89043">
        <ele>156.6</ele>
        <time>2022-09-10T11:36:08Z</time>
      </trkpt>
      <trkpt lat="43.22004" lon="-0.89046">
        <ele>156.6</ele>
        <time>2022-09-10T11:36:10Z</time>
      </trkpt>
      <trkpt lat="43.2201" lon="-0.89057">
        <ele>156.4</ele>
        <time>2022-09-10T11:38:38Z</time>
      </trkpt>
      <trkpt lat="43.22017" lon="-0.89053">
        <ele>159.4</ele>
        <time>2022-09-10T12:22:16Z</time>
      </trkpt>
      <trkpt lat="43.22027" lon="-0.89055">
        <ele>159.6</ele>
        <time>2022-09-10T12:22:23Z</time>
      </trkpt>
      <trkpt lat="43.22036" lon="-0.89051">
        <ele>159.6</ele>
        <time>2022-09-10T12:22:30Z</time>
      </trkpt>
      <trkpt lat="43.22037" lon="-0.89049">
        <ele>159.8</ele>
        <time>2022-09-10T12:22:32Z</time>
      </trkpt>
      <trkpt lat="43.22039" lon="-0.89045">
        <ele>159.8</ele>
        <time>2022-09-10T12:22:36Z</time>
      </trkpt>
      <trkpt lat="43.22044" lon="-0.89049">
        <ele>160</ele>
        <time>2022-09-10T12:22:41Z</time>
      </trkpt>
      <trkpt lat="43.22053" lon="-0.89057">
        <ele>160</ele>
        <time>2022-09-10T12:22:48Z</time>
      </trkpt>
      <trkpt lat="43.22054" lon="-0.89059">
        <ele>160</ele>
        <time>2022-09-10T12:22:49Z</time>
      </trkpt>
      <trkpt lat="43.22059" lon="-0.89076">
        <ele>160</ele>
        <time>2022-09-10T12:22:56Z</time>
      </trkpt>
      <trkpt lat="43.22066" lon="-0.89096">
        <ele>160.2</ele>
        <time>2022-09-10T12:23:05Z</time>
      </trkpt>
      <trkpt lat="43.2207" lon="-0.89109">
        <ele>160.4</ele>
        <time>2022-09-10T12:23:11Z</time>
      </trkpt>
      <trkpt lat="43.22072" lon="-0.89113">
        <ele>160.4</ele>
        <time>2022-09-10T12:23:13Z</time>
      </trkpt>
      <trkpt lat="43.22078" lon="-0.89128">
        <ele>160.8</ele>
        <time>2022-09-10T12:23:21Z</time>
      </trkpt>
      <trkpt lat="43.2208" lon="-0.89132">
        <ele>160.8</ele>
        <time>2022-09-10T12:23:24Z</time>
      </trkpt>
      <trkpt lat="43.22082" lon="-0.89137">
        <ele>161</ele>
        <time>2022-09-10T12:23:27Z</time>
      </trkpt>
      <trkpt lat="43.22082" lon="-0.89138">
        <ele>161</ele>
        <time>2022-09-10T12:23:28Z</time>
      </trkpt>
      <trkpt lat="43.22068" lon="-0.89146">
        <ele>161</ele>
        <time>2022-09-10T12:24:38Z</time>
      </trkpt>
      <trkpt lat="43.22066" lon="-0.89146">
        <ele>161</ele>
        <time>2022-09-10T12:24:39Z</time>
      </trkpt>
      <trkpt lat="43.22057" lon="-0.89149">
        <ele>161</ele>
        <time>2022-09-10T12:24:48Z</time>
      </trkpt>
      <trkpt lat="43.22086" lon="-0.89167">
        <ele>160.6</ele>
        <time>2022-09-10T12:25:47Z</time>
      </trkpt>
      <trkpt lat="43.22087" lon="-0.89168">
        <ele>160.6</ele>
        <time>2022-09-10T12:25:48Z</time>
      </trkpt>
      <trkpt lat="43.22092" lon="-0.8918">
        <ele>160.8</ele>
        <time>2022-09-10T12:25:54Z</time>
      </trkpt>
      <trkpt lat="43.22098" lon="-0.89192">
        <ele>161</ele>
        <time>2022-09-10T12:26:02Z</time>
      </trkpt>
      <trkpt lat="43.22103" lon="-0.89208">
        <ele>161</ele>
        <time>2022-09-10T12:26:09Z</time>
      </trkpt>
      <trkpt lat="43.22103" lon="-0.8921">
        <ele>161.2</ele>
        <time>2022-09-10T12:26:10Z</time>
      </trkpt>
      <trkpt lat="43.221" lon="-0.89214">
        <ele>161</ele>
        <time>2022-09-10T12:26:13Z</time>
      </trkpt>
      <trkpt lat="43.22101" lon="-0.89211">
        <ele>160.8</ele>
        <time>2022-09-10T12:26:16Z</time>
      </trkpt>
      <trkpt lat="43.22099" lon="-0.89196">
        <ele>160.8</ele>
        <time>2022-09-10T12:26:22Z</time>
      </trkpt>
      <trkpt lat="43.22094" lon="-0.89176">
        <ele>160.6</ele>
        <time>2022-09-10T12:26:28Z</time>
      </trkpt>
      <trkpt lat="43.22088" lon="-0.89156">
        <ele>160.6</ele>
        <time>2022-09-10T12:26:34Z</time>
      </trkpt>
      <trkpt lat="43.22082" lon="-0.89135">
        <ele>160.8</ele>
        <time>2022-09-10T12:26:40Z</time>
      </trkpt>
      <trkpt lat="43.22083" lon="-0.89132">
        <ele>161</ele>
        <time>2022-09-10T12:26:41Z</time>
      </trkpt>
      <trkpt lat="43.22085" lon="-0.89126">
        <ele>160.6</ele>
        <time>2022-09-10T12:26:44Z</time>
      </trkpt>
      <trkpt lat="43.22088" lon="-0.89124">
        <ele>160.6</ele>
        <time>2022-09-10T12:26:46Z</time>
      </trkpt>
      <trkpt lat="43.22101" lon="-0.89112">
        <ele>160.6</ele>
        <time>2022-09-10T12:26:53Z</time>
      </trkpt>
      <trkpt lat="43.22112" lon="-0.89104">
        <ele>160.8</ele>
        <time>2022-09-10T12:27:00Z</time>
      </trkpt>
      <trkpt lat="43.2212" lon="-0.89095">
        <ele>160.8</ele>
        <time>2022-09-10T12:27:07Z</time>
      </trkpt>
      <trkpt lat="43.2212" lon="-0.89092">
        <ele>160.8</ele>
        <time>2022-09-10T12:27:09Z</time>
      </trkpt>
      <trkpt lat="43.22119" lon="-0.89085">
        <ele>160.6</ele>
        <time>2022-09-10T12:27:12Z</time>
      </trkpt>
      <trkpt lat="43.22116" lon="-0.89073">
        <ele>160.4</ele>
        <time>2022-09-10T12:27:18Z</time>
      </trkpt>
      <trkpt lat="43.2211" lon="-0.89053">
        <ele>159.8</ele>
        <time>2022-09-10T12:27:24Z</time>
      </trkpt>
      <trkpt lat="43.221" lon="-0.89026">
        <ele>159.6</ele>
        <time>2022-09-10T12:27:31Z</time>
      </trkpt>
      <trkpt lat="43.22094" lon="-0.89004">
        <ele>159.8</ele>
        <time>2022-09-10T12:27:37Z</time>
      </trkpt>
      <trkpt lat="43.22088" lon="-0.88983">
        <ele>159.6</ele>
        <time>2022-09-10T12:27:43Z</time>
      </trkpt>
      <trkpt lat="43.2209" lon="-0.88976">
        <ele>159.8</ele>
        <time>2022-09-10T12:27:45Z</time>
      </trkpt>
      <trkpt lat="43.22094" lon="-0.88972">
        <ele>159.8</ele>
        <time>2022-09-10T12:27:47Z</time>
      </trkpt>
      <trkpt lat="43.22106" lon="-0.88961">
        <ele>160</ele>
        <time>2022-09-10T12:27:54Z</time>
      </trkpt>
      <trkpt lat="43.22126" lon="-0.88947">
        <ele>160.2</ele>
        <time>2022-09-10T12:28:03Z</time>
      </trkpt>
      <trkpt lat="43.22135" lon="-0.88938">
        <ele>160</ele>
        <time>2022-09-10T12:28:09Z</time>
      </trkpt>
      <trkpt lat="43.22134" lon="-0.88927">
        <ele>160</ele>
        <time>2022-09-10T12:28:14Z</time>
      </trkpt>
      <trkpt lat="43.22129" lon="-0.88918">
        <ele>160.2</ele>
        <time>2022-09-10T12:28:19Z</time>
      </trkpt>
      <trkpt lat="43.22129" lon="-0.88917">
        <ele>160.2</ele>
        <time>2022-09-10T12:28:20Z</time>
      </trkpt>
      <trkpt lat="43.22129" lon="-0.88915">
        <ele>160.2</ele>
        <time>2022-09-10T12:28:21Z</time>
      </trkpt>
      <trkpt lat="43.22134" lon="-0.88908">
        <ele>160</ele>
        <time>2022-09-10T12:28:24Z</time>
      </trkpt>
      <trkpt lat="43.22136" lon="-0.88905">
        <ele>160</ele>
        <time>2022-09-10T12:28:25Z</time>
      </trkpt>
      <trkpt lat="43.22149" lon="-0.88892">
        <ele>160.4</ele>
        <time>2022-09-10T12:28:32Z</time>
      </trkpt>
      <trkpt lat="43.22164" lon="-0.88879">
        <ele>160.4</ele>
        <time>2022-09-10T12:28:40Z</time>
      </trkpt>
      <trkpt lat="43.22176" lon="-0.88875">
        <ele>160.4</ele>
        <time>2022-09-10T12:28:45Z</time>
      </trkpt>
      <trkpt lat="43.22187" lon="-0.88885">
        <ele>160.2</ele>
        <time>2022-09-10T12:28:50Z</time>
      </trkpt>
      <trkpt lat="43.22196" lon="-0.88907">
        <ele>160.2</ele>
        <time>2022-09-10T12:28:57Z</time>
      </trkpt>
      <trkpt lat="43.22206" lon="-0.8893">
        <ele>160.2</ele>
        <time>2022-09-10T12:29:05Z</time>
      </trkpt>
      <trkpt lat="43.22216" lon="-0.8895">
        <ele>160.2</ele>
        <time>2022-09-10T12:29:12Z</time>
      </trkpt>
      <trkpt lat="43.22224" lon="-0.88971">
        <ele>160.4</ele>
        <time>2022-09-10T12:29:18Z</time>
      </trkpt>
      <trkpt lat="43.22234" lon="-0.88994">
        <ele>160.4</ele>
        <time>2022-09-10T12:29:25Z</time>
      </trkpt>
      <trkpt lat="43.22245" lon="-0.89022">
        <ele>160</ele>
        <time>2022-09-10T12:29:34Z</time>
      </trkpt>
      <trkpt lat="43.22257" lon="-0.89049">
        <ele>160.4</ele>
        <time>2022-09-10T12:29:43Z</time>
      </trkpt>
      <trkpt lat="43.22267" lon="-0.89071">
        <ele>160.4</ele>
        <time>2022-09-10T12:29:50Z</time>
      </trkpt>
      <trkpt lat="43.2227" lon="-0.89076">
        <ele>160.6</ele>
        <time>2022-09-10T12:29:52Z</time>
      </trkpt>
      <trkpt lat="43.22281" lon="-0.891">
        <ele>160.6</ele>
        <time>2022-09-10T12:30:00Z</time>
      </trkpt>
      <trkpt lat="43.2229" lon="-0.89117">
        <ele>160.8</ele>
        <time>2022-09-10T12:30:08Z</time>
      </trkpt>
      <trkpt lat="43.22296" lon="-0.89116">
        <ele>160.8</ele>
        <time>2022-09-10T12:31:04Z</time>
      </trkpt>
      <trkpt lat="43.22299" lon="-0.89111">
        <ele>161</ele>
        <time>2022-09-10T12:31:06Z</time>
      </trkpt>
      <trkpt lat="43.22309" lon="-0.89096">
        <ele>160.8</ele>
        <time>2022-09-10T12:31:12Z</time>
      </trkpt>
      <trkpt lat="43.22326" lon="-0.89071">
        <ele>160.6</ele>
        <time>2022-09-10T12:31:20Z</time>
      </trkpt>
      <trkpt lat="43.22344" lon="-0.89042">
        <ele>160.6</ele>
        <time>2022-09-10T12:31:29Z</time>
      </trkpt>
      <trkpt lat="43.22357" lon="-0.89021">
        <ele>160.4</ele>
        <time>2022-09-10T12:31:35Z</time>
      </trkpt>
      <trkpt lat="43.22367" lon="-0.89009">
        <ele>160.4</ele>
        <time>2022-09-10T12:31:39Z</time>
      </trkpt>
      <trkpt lat="43.22388" lon="-0.88978">
        <ele>160.2</ele>
        <time>2022-09-10T12:31:48Z</time>
      </trkpt>
      <trkpt lat="43.22405" lon="-0.88952">
        <ele>160.4</ele>
        <time>2022-09-10T12:31:56Z</time>
      </trkpt>
      <trkpt lat="43.22421" lon="-0.88928">
        <ele>160.2</ele>
        <time>2022-09-10T12:32:03Z</time>
      </trkpt>
      <trkpt lat="43.22438" lon="-0.88896">
        <ele>160</ele>
        <time>2022-09-10T12:32:12Z</time>
      </trkpt>
      <trkpt lat="43.22448" lon="-0.88879">
        <ele>159.8</ele>
        <time>2022-09-10T12:32:17Z</time>
      </trkpt>
      <trkpt lat="43.22466" lon="-0.88843">
        <ele>159.6</ele>
        <time>2022-09-10T12:32:28Z</time>
      </trkpt>
      <trkpt lat="43.22474" lon="-0.88832">
        <ele>159.6</ele>
        <time>2022-09-10T12:32:33Z</time>
      </trkpt>
      <trkpt lat="43.22477" lon="-0.88832">
        <ele>159.6</ele>
        <time>2022-09-10T12:32:34Z</time>
      </trkpt>
      <trkpt lat="43.22482" lon="-0.88837">
        <ele>159.4</ele>
        <time>2022-09-10T12:32:36Z</time>
      </trkpt>
      <trkpt lat="43.22484" lon="-0.8884">
        <ele>159.4</ele>
        <time>2022-09-10T12:32:37Z</time>
      </trkpt>
      <trkpt lat="43.225" lon="-0.88856">
        <ele>159.8</ele>
        <time>2022-09-10T12:32:44Z</time>
      </trkpt>
      <trkpt lat="43.22512" lon="-0.8886">
        <ele>160</ele>
        <time>2022-09-10T12:32:50Z</time>
      </trkpt>
      <trkpt lat="43.22519" lon="-0.88863">
        <ele>160</ele>
        <time>2022-09-10T12:32:53Z</time>
      </trkpt>
      <trkpt lat="43.22521" lon="-0.88868">
        <ele>160</ele>
        <time>2022-09-10T12:32:55Z</time>
      </trkpt>
      <trkpt lat="43.22529" lon="-0.88874">
        <ele>160</ele>
        <time>2022-09-10T12:33:01Z</time>
      </trkpt>
      <trkpt lat="43.22531" lon="-0.88874">
        <ele>160</ele>
        <time>2022-09-10T12:33:03Z</time>
      </trkpt>
      <trkpt lat="43.22535" lon="-0.88877">
        <ele>160</ele>
        <time>2022-09-10T12:33:06Z</time>
      </trkpt>
      <trkpt lat="43.22546" lon="-0.8888">
        <ele>160</ele>
        <time>2022-09-10T12:33:58Z</time>
      </trkpt>
      <trkpt lat="43.22548" lon="-0.88879">
        <ele>160</ele>
        <time>2022-09-10T12:33:59Z</time>
      </trkpt>
      <trkpt lat="43.22557" lon="-0.88875">
        <ele>159.8</ele>
        <time>2022-09-10T12:34:04Z</time>
      </trkpt>
      <trkpt lat="43.22559" lon="-0.88876">
        <ele>159.6</ele>
        <time>2022-09-10T12:34:05Z</time>
      </trkpt>
      <trkpt lat="43.22568" lon="-0.88882">
        <ele>159.4</ele>
        <time>2022-09-10T12:34:10Z</time>
      </trkpt>
      <trkpt lat="43.22572" lon="-0.88883">
        <ele>159.4</ele>
        <time>2022-09-10T12:34:12Z</time>
      </trkpt>
      <trkpt lat="43.22574" lon="-0.88882">
        <ele>159.4</ele>
        <time>2022-09-10T12:34:13Z</time>
      </trkpt>
      <trkpt lat="43.22577" lon="-0.8888">
        <ele>159.4</ele>
        <time>2022-09-10T12:34:15Z</time>
      </trkpt>
      <trkpt lat="43.22579" lon="-0.88883">
        <ele>159.2</ele>
        <time>2022-09-10T12:34:20Z</time>
      </trkpt>
      <trkpt lat="43.2258" lon="-0.88889">
        <ele>159.4</ele>
        <time>2022-09-10T12:34:33Z</time>
      </trkpt>
      <trkpt lat="43.22579" lon="-0.88892">
        <ele>159.4</ele>
        <time>2022-09-10T12:34:34Z</time>
      </trkpt>
      <trkpt lat="43.22571" lon="-0.88907">
        <ele>159.4</ele>
        <time>2022-09-10T12:34:39Z</time>
      </trkpt>
      <trkpt lat="43.22555" lon="-0.88938">
        <ele>159.6</ele>
        <time>2022-09-10T12:34:47Z</time>
      </trkpt>
      <trkpt lat="43.22534" lon="-0.8897">
        <ele>159.6</ele>
        <time>2022-09-10T12:34:55Z</time>
      </trkpt>
      <trkpt lat="43.22517" lon="-0.89005">
        <ele>159.6</ele>
        <time>2022-09-10T12:35:03Z</time>
      </trkpt>
      <trkpt lat="43.22498" lon="-0.89043">
        <ele>159.8</ele>
        <time>2022-09-10T12:35:12Z</time>
      </trkpt>
      <trkpt lat="43.22479" lon="-0.8908">
        <ele>159.8</ele>
        <time>2022-09-10T12:35:21Z</time>
      </trkpt>
      <trkpt lat="43.22458" lon="-0.89119">
        <ele>159.8</ele>
        <time>2022-09-10T12:35:30Z</time>
      </trkpt>
      <trkpt lat="43.22439" lon="-0.89155">
        <ele>160</ele>
        <time>2022-09-10T12:35:39Z</time>
      </trkpt>
      <trkpt lat="43.22422" lon="-0.89188">
        <ele>160.4</ele>
        <time>2022-09-10T12:35:48Z</time>
      </trkpt>
      <trkpt lat="43.2242" lon="-0.89192">
        <ele>160.4</ele>
        <time>2022-09-10T12:35:49Z</time>
      </trkpt>
      <trkpt lat="43.22412" lon="-0.89221">
        <ele>161</ele>
        <time>2022-09-10T12:35:57Z</time>
      </trkpt>
      <trkpt lat="43.22419" lon="-0.89234">
        <ele>161.2</ele>
        <time>2022-09-10T12:36:01Z</time>
      </trkpt>
      <trkpt lat="43.22424" lon="-0.89238">
        <ele>161.6</ele>
        <time>2022-09-10T12:36:03Z</time>
      </trkpt>
      <trkpt lat="43.22432" lon="-0.89244">
        <ele>162.2</ele>
        <time>2022-09-10T12:36:07Z</time>
      </trkpt>
      <trkpt lat="43.22436" lon="-0.89247">
        <ele>162.8</ele>
        <time>2022-09-10T12:36:09Z</time>
      </trkpt>
      <trkpt lat="43.22444" lon="-0.89253">
        <ele>163.4</ele>
        <time>2022-09-10T12:36:14Z</time>
      </trkpt>
      <trkpt lat="43.22449" lon="-0.89256">
        <ele>163.8</ele>
        <time>2022-09-10T12:36:17Z</time>
      </trkpt>
      <trkpt lat="43.22455" lon="-0.89261">
        <ele>164.4</ele>
        <time>2022-09-10T12:36:21Z</time>
      </trkpt>
      <trkpt lat="43.2246" lon="-0.89261">
        <ele>164.8</ele>
        <time>2022-09-10T12:36:24Z</time>
      </trkpt>
      <trkpt lat="43.22464" lon="-0.89261">
        <ele>165</ele>
        <time>2022-09-10T12:36:26Z</time>
      </trkpt>
      <trkpt lat="43.22475" lon="-0.89254">
        <ele>166</ele>
        <time>2022-09-10T12:36:33Z</time>
      </trkpt>
      <trkpt lat="43.22488" lon="-0.89244">
        <ele>167</ele>
        <time>2022-09-10T12:36:41Z</time>
      </trkpt>
      <trkpt lat="43.22491" lon="-0.89241">
        <ele>167.2</ele>
        <time>2022-09-10T12:36:43Z</time>
      </trkpt>
      <trkpt lat="43.22502" lon="-0.89234">
        <ele>168.2</ele>
        <time>2022-09-10T12:36:49Z</time>
      </trkpt>
      <trkpt lat="43.22505" lon="-0.89232">
        <ele>168.6</ele>
        <time>2022-09-10T12:36:51Z</time>
      </trkpt>
      <trkpt lat="43.22513" lon="-0.89229">
        <ele>169.4</ele>
        <time>2022-09-10T12:36:56Z</time>
      </trkpt>
      <trkpt lat="43.22519" lon="-0.89227">
        <ele>170</ele>
        <time>2022-09-10T12:37:00Z</time>
      </trkpt>
      <trkpt lat="43.22522" lon="-0.89227">
        <ele>170.4</ele>
        <time>2022-09-10T12:37:02Z</time>
      </trkpt>
      <trkpt lat="43.22534" lon="-0.8923">
        <ele>171.2</ele>
        <time>2022-09-10T12:37:10Z</time>
      </trkpt>
      <trkpt lat="43.22536" lon="-0.89231">
        <ele>171.4</ele>
        <time>2022-09-10T12:37:11Z</time>
      </trkpt>
      <trkpt lat="43.22544" lon="-0.8924">
        <ele>172.2</ele>
        <time>2022-09-10T12:37:17Z</time>
      </trkpt>
      <trkpt lat="43.22545" lon="-0.89245">
        <ele>172.6</ele>
        <time>2022-09-10T12:37:19Z</time>
      </trkpt>
      <trkpt lat="43.22549" lon="-0.89252">
        <ele>173.2</ele>
        <time>2022-09-10T12:37:23Z</time>
      </trkpt>
      <trkpt lat="43.22552" lon="-0.89264">
        <ele>173.8</ele>
        <time>2022-09-10T12:37:28Z</time>
      </trkpt>
      <trkpt lat="43.22553" lon="-0.89269">
        <ele>174.2</ele>
        <time>2022-09-10T12:37:31Z</time>
      </trkpt>
      <trkpt lat="43.22556" lon="-0.89281">
        <ele>174.8</ele>
        <time>2022-09-10T12:37:38Z</time>
      </trkpt>
      <trkpt lat="43.22559" lon="-0.89294">
        <ele>176</ele>
        <time>2022-09-10T12:37:45Z</time>
      </trkpt>
      <trkpt lat="43.22563" lon="-0.89308">
        <ele>176.8</ele>
        <time>2022-09-10T12:37:52Z</time>
      </trkpt>
      <trkpt lat="43.22564" lon="-0.8931">
        <ele>177</ele>
        <time>2022-09-10T12:37:53Z</time>
      </trkpt>
      <trkpt lat="43.22568" lon="-0.8932">
        <ele>177.6</ele>
        <time>2022-09-10T12:37:58Z</time>
      </trkpt>
      <trkpt lat="43.22576" lon="-0.89337">
        <ele>178</ele>
        <time>2022-09-10T12:38:05Z</time>
      </trkpt>
      <trkpt lat="43.22577" lon="-0.89339">
        <ele>178.2</ele>
        <time>2022-09-10T12:38:06Z</time>
      </trkpt>
      <trkpt lat="43.22585" lon="-0.89357">
        <ele>178.8</ele>
        <time>2022-09-10T12:38:13Z</time>
      </trkpt>
      <trkpt lat="43.2259" lon="-0.89367">
        <ele>179.2</ele>
        <time>2022-09-10T12:38:17Z</time>
      </trkpt>
      <trkpt lat="43.22597" lon="-0.89379">
        <ele>179.8</ele>
        <time>2022-09-10T12:38:22Z</time>
      </trkpt>
      <trkpt lat="43.22609" lon="-0.89382">
        <ele>180.2</ele>
        <time>2022-09-10T12:38:28Z</time>
      </trkpt>
      <trkpt lat="43.2261" lon="-0.8938">
        <ele>180.2</ele>
        <time>2022-09-10T12:38:29Z</time>
      </trkpt>
      <trkpt lat="43.22614" lon="-0.89369">
        <ele>181.2</ele>
        <time>2022-09-10T12:38:34Z</time>
      </trkpt>
      <trkpt lat="43.22616" lon="-0.89359">
        <ele>182</ele>
        <time>2022-09-10T12:38:40Z</time>
      </trkpt>
      <trkpt lat="43.22616" lon="-0.89355">
        <ele>182.2</ele>
        <time>2022-09-10T12:38:42Z</time>
      </trkpt>
      <trkpt lat="43.22616" lon="-0.89352">
        <ele>182.4</ele>
        <time>2022-09-10T12:38:43Z</time>
      </trkpt>
      <trkpt lat="43.22618" lon="-0.89344">
        <ele>182.8</ele>
        <time>2022-09-10T12:38:47Z</time>
      </trkpt>
      <trkpt lat="43.22621" lon="-0.89334">
        <ele>183.4</ele>
        <time>2022-09-10T12:38:51Z</time>
      </trkpt>
      <trkpt lat="43.22626" lon="-0.89322">
        <ele>184.8</ele>
        <time>2022-09-10T12:38:57Z</time>
      </trkpt>
      <trkpt lat="43.22632" lon="-0.8931">
        <ele>186</ele>
        <time>2022-09-10T12:39:03Z</time>
      </trkpt>
      <trkpt lat="43.22635" lon="-0.89306">
        <ele>186.4</ele>
        <time>2022-09-10T12:39:05Z</time>
      </trkpt>
      <trkpt lat="43.22641" lon="-0.89301">
        <ele>187</ele>
        <time>2022-09-10T12:39:09Z</time>
      </trkpt>
      <trkpt lat="43.22647" lon="-0.89294">
        <ele>187.8</ele>
        <time>2022-09-10T12:39:13Z</time>
      </trkpt>
      <trkpt lat="43.22648" lon="-0.89293">
        <ele>188.2</ele>
        <time>2022-09-10T12:39:14Z</time>
      </trkpt>
      <trkpt lat="43.22657" lon="-0.89285">
        <ele>188.8</ele>
        <time>2022-09-10T12:39:20Z</time>
      </trkpt>
      <trkpt lat="43.22658" lon="-0.89283">
        <ele>189.4</ele>
        <time>2022-09-10T12:39:21Z</time>
      </trkpt>
      <trkpt lat="43.22662" lon="-0.8928">
        <ele>189.6</ele>
        <time>2022-09-10T12:39:23Z</time>
      </trkpt>
      <trkpt lat="43.22667" lon="-0.89276">
        <ele>189.8</ele>
        <time>2022-09-10T12:39:26Z</time>
      </trkpt>
      <trkpt lat="43.22677" lon="-0.89268">
        <ele>190.6</ele>
        <time>2022-09-10T12:39:32Z</time>
      </trkpt>
      <trkpt lat="43.22681" lon="-0.89264">
        <ele>190.6</ele>
        <time>2022-09-10T12:39:35Z</time>
      </trkpt>
      <trkpt lat="43.2269" lon="-0.89257">
        <ele>191.6</ele>
        <time>2022-09-10T12:39:40Z</time>
      </trkpt>
      <trkpt lat="43.22694" lon="-0.89251">
        <ele>192</ele>
        <time>2022-09-10T12:39:43Z</time>
      </trkpt>
      <trkpt lat="43.22704" lon="-0.89243">
        <ele>192.6</ele>
        <time>2022-09-10T12:39:48Z</time>
      </trkpt>
      <trkpt lat="43.22711" lon="-0.89237">
        <ele>193.2</ele>
        <time>2022-09-10T12:39:52Z</time>
      </trkpt>
      <trkpt lat="43.22725" lon="-0.89223">
        <ele>193.4</ele>
        <time>2022-09-10T12:40:00Z</time>
      </trkpt>
      <trkpt lat="43.22745" lon="-0.89206">
        <ele>193.2</ele>
        <time>2022-09-10T12:40:09Z</time>
      </trkpt>
      <trkpt lat="43.22772" lon="-0.89192">
        <ele>192.4</ele>
        <time>2022-09-10T12:40:17Z</time>
      </trkpt>
      <trkpt lat="43.228" lon="-0.89182">
        <ele>192.6</ele>
        <time>2022-09-10T12:40:25Z</time>
      </trkpt>
      <trkpt lat="43.2283" lon="-0.89179">
        <ele>192</ele>
        <time>2022-09-10T12:40:32Z</time>
      </trkpt>
      <trkpt lat="43.22835" lon="-0.8918">
        <ele>191.6</ele>
        <time>2022-09-10T12:40:33Z</time>
      </trkpt>
      <trkpt lat="43.22847" lon="-0.89183">
        <ele>191.2</ele>
        <time>2022-09-10T12:40:35Z</time>
      </trkpt>
      <trkpt lat="43.22859" lon="-0.89188">
        <ele>190.6</ele>
        <time>2022-09-10T12:40:37Z</time>
      </trkpt>
      <trkpt lat="43.22878" lon="-0.89195">
        <ele>189</ele>
        <time>2022-09-10T12:40:40Z</time>
      </trkpt>
      <trkpt lat="43.22885" lon="-0.89193">
        <ele>188.8</ele>
        <time>2022-09-10T12:40:41Z</time>
      </trkpt>
      <trkpt lat="43.22892" lon="-0.89188">
        <ele>188.6</ele>
        <time>2022-09-10T12:40:42Z</time>
      </trkpt>
      <trkpt lat="43.22903" lon="-0.89164">
        <ele>189</ele>
        <time>2022-09-10T12:40:45Z</time>
      </trkpt>
      <trkpt lat="43.22906" lon="-0.89157">
        <ele>189.4</ele>
        <time>2022-09-10T12:40:46Z</time>
      </trkpt>
      <trkpt lat="43.2291" lon="-0.89146">
        <ele>190</ele>
        <time>2022-09-10T12:40:48Z</time>
      </trkpt>
      <trkpt lat="43.22912" lon="-0.89142">
        <ele>190.6</ele>
        <time>2022-09-10T12:40:49Z</time>
      </trkpt>
      <trkpt lat="43.22915" lon="-0.89135">
        <ele>191.2</ele>
        <time>2022-09-10T12:40:51Z</time>
      </trkpt>
      <trkpt lat="43.22918" lon="-0.89128">
        <ele>191.6</ele>
        <time>2022-09-10T12:40:54Z</time>
      </trkpt>
      <trkpt lat="43.22922" lon="-0.89122">
        <ele>192.4</ele>
        <time>2022-09-10T12:40:57Z</time>
      </trkpt>
      <trkpt lat="43.22928" lon="-0.89112">
        <ele>193.6</ele>
        <time>2022-09-10T12:41:02Z</time>
      </trkpt>
      <trkpt lat="43.22934" lon="-0.891">
        <ele>194.6</ele>
        <time>2022-09-10T12:41:08Z</time>
      </trkpt>
      <trkpt lat="43.22938" lon="-0.89095">
        <ele>195</ele>
        <time>2022-09-10T12:41:11Z</time>
      </trkpt>
      <trkpt lat="43.22943" lon="-0.89091">
        <ele>195.6</ele>
        <time>2022-09-10T12:41:14Z</time>
      </trkpt>
      <trkpt lat="43.2295" lon="-0.89086">
        <ele>196.8</ele>
        <time>2022-09-10T12:41:19Z</time>
      </trkpt>
      <trkpt lat="43.22958" lon="-0.89082">
        <ele>197.8</ele>
        <time>2022-09-10T12:41:24Z</time>
      </trkpt>
      <trkpt lat="43.2296" lon="-0.89082">
        <ele>198</ele>
        <time>2022-09-10T12:41:25Z</time>
      </trkpt>
      <trkpt lat="43.22969" lon="-0.89079">
        <ele>198.8</ele>
        <time>2022-09-10T12:41:31Z</time>
      </trkpt>
      <trkpt lat="43.22974" lon="-0.89077">
        <ele>199.2</ele>
        <time>2022-09-10T12:41:34Z</time>
      </trkpt>
      <trkpt lat="43.2298" lon="-0.89077">
        <ele>199.8</ele>
        <time>2022-09-10T12:41:38Z</time>
      </trkpt>
      <trkpt lat="43.22989" lon="-0.89075">
        <ele>200.8</ele>
        <time>2022-09-10T12:41:44Z</time>
      </trkpt>
      <trkpt lat="43.22997" lon="-0.89075">
        <ele>201.8</ele>
        <time>2022-09-10T12:41:49Z</time>
      </trkpt>
      <trkpt lat="43.23001" lon="-0.89075">
        <ele>202.6</ele>
        <time>2022-09-10T12:41:52Z</time>
      </trkpt>
      <trkpt lat="43.23003" lon="-0.89075">
        <ele>202.8</ele>
        <time>2022-09-10T12:41:53Z</time>
      </trkpt>
      <trkpt lat="43.23004" lon="-0.89074">
        <ele>203</ele>
        <time>2022-09-10T12:41:54Z</time>
      </trkpt>
      <trkpt lat="43.23008" lon="-0.89074">
        <ele>203.2</ele>
        <time>2022-09-10T12:41:56Z</time>
      </trkpt>
      <trkpt lat="43.2301" lon="-0.89075">
        <ele>203.6</ele>
        <time>2022-09-10T12:41:58Z</time>
      </trkpt>
      <trkpt lat="43.23017" lon="-0.89073">
        <ele>204.2</ele>
        <time>2022-09-10T12:42:02Z</time>
      </trkpt>
      <trkpt lat="43.23019" lon="-0.89074">
        <ele>204.4</ele>
        <time>2022-09-10T12:42:04Z</time>
      </trkpt>
      <trkpt lat="43.23027" lon="-0.89072">
        <ele>205.2</ele>
        <time>2022-09-10T12:42:09Z</time>
      </trkpt>
      <trkpt lat="43.23032" lon="-0.89072">
        <ele>205.8</ele>
        <time>2022-09-10T12:42:12Z</time>
      </trkpt>
      <trkpt lat="43.23038" lon="-0.89071">
        <ele>206.4</ele>
        <time>2022-09-10T12:42:16Z</time>
      </trkpt>
      <trkpt lat="43.23044" lon="-0.89071">
        <ele>207</ele>
        <time>2022-09-10T12:42:20Z</time>
      </trkpt>
      <trkpt lat="43.2305" lon="-0.89069">
        <ele>207.4</ele>
        <time>2022-09-10T12:42:24Z</time>
      </trkpt>
      <trkpt lat="43.23053" lon="-0.89069">
        <ele>207.8</ele>
        <time>2022-09-10T12:42:26Z</time>
      </trkpt>
      <trkpt lat="43.23061" lon="-0.89068">
        <ele>208.6</ele>
        <time>2022-09-10T12:42:31Z</time>
      </trkpt>
      <trkpt lat="43.23062" lon="-0.89068">
        <ele>208.6</ele>
        <time>2022-09-10T12:42:32Z</time>
      </trkpt>
      <trkpt lat="43.23071" lon="-0.89067">
        <ele>209.6</ele>
        <time>2022-09-10T12:42:37Z</time>
      </trkpt>
      <trkpt lat="43.23072" lon="-0.89067">
        <ele>209.8</ele>
        <time>2022-09-10T12:42:38Z</time>
      </trkpt>
      <trkpt lat="43.23083" lon="-0.89067">
        <ele>210.6</ele>
        <time>2022-09-10T12:42:44Z</time>
      </trkpt>
      <trkpt lat="43.23086" lon="-0.89065">
        <ele>211.2</ele>
        <time>2022-09-10T12:42:46Z</time>
      </trkpt>
      <trkpt lat="43.23095" lon="-0.89065">
        <ele>211.8</ele>
        <time>2022-09-10T12:42:51Z</time>
      </trkpt>
      <trkpt lat="43.23098" lon="-0.89064">
        <ele>212</ele>
        <time>2022-09-10T12:42:53Z</time>
      </trkpt>
      <trkpt lat="43.23109" lon="-0.89063">
        <ele>212.8</ele>
        <time>2022-09-10T12:42:59Z</time>
      </trkpt>
      <trkpt lat="43.23115" lon="-0.89062">
        <ele>213.2</ele>
        <time>2022-09-10T12:43:02Z</time>
      </trkpt>
      <trkpt lat="43.23125" lon="-0.89061">
        <ele>213.8</ele>
        <time>2022-09-10T12:43:07Z</time>
      </trkpt>
      <trkpt lat="43.23129" lon="-0.8906">
        <ele>213.8</ele>
        <time>2022-09-10T12:43:09Z</time>
      </trkpt>
      <trkpt lat="43.23147" lon="-0.89058">
        <ele>214.6</ele>
        <time>2022-09-10T12:43:17Z</time>
      </trkpt>
      <trkpt lat="43.2315" lon="-0.89057">
        <ele>214.8</ele>
        <time>2022-09-10T12:43:18Z</time>
      </trkpt>
      <trkpt lat="43.23166" lon="-0.89055">
        <ele>215.8</ele>
        <time>2022-09-10T12:43:25Z</time>
      </trkpt>
      <trkpt lat="43.23169" lon="-0.89055">
        <ele>215.8</ele>
        <time>2022-09-10T12:43:26Z</time>
      </trkpt>
      <trkpt lat="43.23188" lon="-0.89053">
        <ele>216.8</ele>
        <time>2022-09-10T12:43:34Z</time>
      </trkpt>
      <trkpt lat="43.23195" lon="-0.89052">
        <ele>217.2</ele>
        <time>2022-09-10T12:43:37Z</time>
      </trkpt>
      <trkpt lat="43.23216" lon="-0.89051">
        <ele>217.2</ele>
        <time>2022-09-10T12:43:45Z</time>
      </trkpt>
      <trkpt lat="43.23235" lon="-0.89053">
        <ele>216.6</ele>
        <time>2022-09-10T12:43:50Z</time>
      </trkpt>
      <trkpt lat="43.2325" lon="-0.89058">
        <ele>215.8</ele>
        <time>2022-09-10T12:43:53Z</time>
      </trkpt>
      <trkpt lat="43.23268" lon="-0.89063">
        <ele>215.2</ele>
        <time>2022-09-10T12:43:56Z</time>
      </trkpt>
      <trkpt lat="43.23275" lon="-0.89064">
        <ele>214.8</ele>
        <time>2022-09-10T12:43:57Z</time>
      </trkpt>
      <trkpt lat="43.23296" lon="-0.89069">
        <ele>213.8</ele>
        <time>2022-09-10T12:44:00Z</time>
      </trkpt>
      <trkpt lat="43.2331" lon="-0.89073">
        <ele>213.2</ele>
        <time>2022-09-10T12:44:02Z</time>
      </trkpt>
      <trkpt lat="43.23316" lon="-0.89077">
        <ele>213</ele>
        <time>2022-09-10T12:44:03Z</time>
      </trkpt>
      <trkpt lat="43.23334" lon="-0.89091">
        <ele>213</ele>
        <time>2022-09-10T12:44:06Z</time>
      </trkpt>
      <trkpt lat="43.23339" lon="-0.89096">
        <ele>213</ele>
        <time>2022-09-10T12:44:07Z</time>
      </trkpt>
      <trkpt lat="43.23361" lon="-0.89116">
        <ele>214</ele>
        <time>2022-09-10T12:44:12Z</time>
      </trkpt>
      <trkpt lat="43.23372" lon="-0.89125">
        <ele>215</ele>
        <time>2022-09-10T12:44:16Z</time>
      </trkpt>
      <trkpt lat="43.23374" lon="-0.89127">
        <ele>215</ele>
        <time>2022-09-10T12:44:17Z</time>
      </trkpt>
      <trkpt lat="43.23381" lon="-0.89134">
        <ele>216</ele>
        <time>2022-09-10T12:44:21Z</time>
      </trkpt>
      <trkpt lat="43.23385" lon="-0.89137">
        <ele>216.6</ele>
        <time>2022-09-10T12:44:24Z</time>
      </trkpt>
      <trkpt lat="43.23389" lon="-0.8914">
        <ele>217.2</ele>
        <time>2022-09-10T12:44:27Z</time>
      </trkpt>
      <trkpt lat="43.23395" lon="-0.89145">
        <ele>218</ele>
        <time>2022-09-10T12:44:31Z</time>
      </trkpt>
      <trkpt lat="43.23398" lon="-0.89147">
        <ele>218.4</ele>
        <time>2022-09-10T12:44:33Z</time>
      </trkpt>
      <trkpt lat="43.23407" lon="-0.89155">
        <ele>219.4</ele>
        <time>2022-09-10T12:44:39Z</time>
      </trkpt>
      <trkpt lat="43.23415" lon="-0.89163">
        <ele>220.6</ele>
        <time>2022-09-10T12:44:45Z</time>
      </trkpt>
      <trkpt lat="43.23418" lon="-0.89165">
        <ele>221</ele>
        <time>2022-09-10T12:44:47Z</time>
      </trkpt>
      <trkpt lat="43.23425" lon="-0.8917">
        <ele>221.8</ele>
        <time>2022-09-10T12:44:52Z</time>
      </trkpt>
      <trkpt lat="43.23429" lon="-0.89175">
        <ele>222.6</ele>
        <time>2022-09-10T12:44:56Z</time>
      </trkpt>
      <trkpt lat="43.23431" lon="-0.89176">
        <ele>222.8</ele>
        <time>2022-09-10T12:44:57Z</time>
      </trkpt>
      <trkpt lat="43.23436" lon="-0.89179">
        <ele>223.4</ele>
        <time>2022-09-10T12:45:01Z</time>
      </trkpt>
      <trkpt lat="43.23437" lon="-0.8918">
        <ele>223.6</ele>
        <time>2022-09-10T12:45:02Z</time>
      </trkpt>
      <trkpt lat="43.23439" lon="-0.89183">
        <ele>224</ele>
        <time>2022-09-10T12:45:04Z</time>
      </trkpt>
      <trkpt lat="43.23443" lon="-0.89185">
        <ele>224.4</ele>
        <time>2022-09-10T12:45:07Z</time>
      </trkpt>
      <trkpt lat="43.23445" lon="-0.89188">
        <ele>224.8</ele>
        <time>2022-09-10T12:45:09Z</time>
      </trkpt>
      <trkpt lat="43.23448" lon="-0.8919">
        <ele>225</ele>
        <time>2022-09-10T12:45:11Z</time>
      </trkpt>
      <trkpt lat="43.23455" lon="-0.89196">
        <ele>226</ele>
        <time>2022-09-10T12:45:17Z</time>
      </trkpt>
      <trkpt lat="43.23456" lon="-0.89197">
        <ele>226.2</ele>
        <time>2022-09-10T12:45:18Z</time>
      </trkpt>
      <trkpt lat="43.23465" lon="-0.89202">
        <ele>227.2</ele>
        <time>2022-09-10T12:45:25Z</time>
      </trkpt>
      <trkpt lat="43.23466" lon="-0.89204">
        <ele>227.4</ele>
        <time>2022-09-10T12:45:26Z</time>
      </trkpt>
      <trkpt lat="43.23474" lon="-0.89209">
        <ele>228.4</ele>
        <time>2022-09-10T12:45:32Z</time>
      </trkpt>
      <trkpt lat="43.23479" lon="-0.8921">
        <ele>229</ele>
        <time>2022-09-10T12:45:35Z</time>
      </trkpt>
      <trkpt lat="43.23483" lon="-0.89213">
        <ele>229.4</ele>
        <time>2022-09-10T12:45:38Z</time>
      </trkpt>
      <trkpt lat="43.23489" lon="-0.8922">
        <ele>230.4</ele>
        <time>2022-09-10T12:45:44Z</time>
      </trkpt>
      <trkpt lat="43.23491" lon="-0.8922">
        <ele>230.4</ele>
        <time>2022-09-10T12:45:45Z</time>
      </trkpt>
      <trkpt lat="43.23495" lon="-0.89222">
        <ele>231</ele>
        <time>2022-09-10T12:45:48Z</time>
      </trkpt>
      <trkpt lat="43.23498" lon="-0.89227">
        <ele>231.6</ele>
        <time>2022-09-10T12:45:51Z</time>
      </trkpt>
      <trkpt lat="43.23499" lon="-0.89228">
        <ele>231.6</ele>
        <time>2022-09-10T12:45:52Z</time>
      </trkpt>
      <trkpt lat="43.23505" lon="-0.89239">
        <ele>232.6</ele>
        <time>2022-09-10T12:45:59Z</time>
      </trkpt>
      <trkpt lat="43.23506" lon="-0.89241">
        <ele>232.8</ele>
        <time>2022-09-10T12:46:00Z</time>
      </trkpt>
      <trkpt lat="43.23514" lon="-0.89261">
        <ele>233.6</ele>
        <time>2022-09-10T12:46:10Z</time>
      </trkpt>
      <trkpt lat="43.23521" lon="-0.89282">
        <ele>234.2</ele>
        <time>2022-09-10T12:46:19Z</time>
      </trkpt>
      <trkpt lat="43.23527" lon="-0.89297">
        <ele>234.6</ele>
        <time>2022-09-10T12:46:24Z</time>
      </trkpt>
      <trkpt lat="43.2353" lon="-0.89306">
        <ele>235</ele>
        <time>2022-09-10T12:46:27Z</time>
      </trkpt>
      <trkpt lat="43.23541" lon="-0.89325">
        <ele>235.8</ele>
        <time>2022-09-10T12:46:34Z</time>
      </trkpt>
      <trkpt lat="43.23545" lon="-0.89331">
        <ele>236</ele>
        <time>2022-09-10T12:46:36Z</time>
      </trkpt>
      <trkpt lat="43.23559" lon="-0.89351">
        <ele>236.6</ele>
        <time>2022-09-10T12:46:43Z</time>
      </trkpt>
      <trkpt lat="43.23563" lon="-0.89357">
        <ele>236.8</ele>
        <time>2022-09-10T12:46:45Z</time>
      </trkpt>
      <trkpt lat="43.23572" lon="-0.89376">
        <ele>237.4</ele>
        <time>2022-09-10T12:46:50Z</time>
      </trkpt>
      <trkpt lat="43.23578" lon="-0.89395">
        <ele>237.8</ele>
        <time>2022-09-10T12:46:55Z</time>
      </trkpt>
      <trkpt lat="43.23581" lon="-0.89407">
        <ele>238.6</ele>
        <time>2022-09-10T12:46:58Z</time>
      </trkpt>
      <trkpt lat="43.23582" lon="-0.89419">
        <ele>238.8</ele>
        <time>2022-09-10T12:47:01Z</time>
      </trkpt>
      <trkpt lat="43.23582" lon="-0.89431">
        <ele>239.2</ele>
        <time>2022-09-10T12:47:04Z</time>
      </trkpt>
      <trkpt lat="43.23581" lon="-0.89461">
        <ele>240</ele>
        <time>2022-09-10T12:47:11Z</time>
      </trkpt>
      <trkpt lat="43.2358" lon="-0.89469">
        <ele>240.4</ele>
        <time>2022-09-10T12:47:13Z</time>
      </trkpt>
      <trkpt lat="43.23576" lon="-0.89493">
        <ele>241</ele>
        <time>2022-09-10T12:47:19Z</time>
      </trkpt>
      <trkpt lat="43.23571" lon="-0.89507">
        <ele>241.6</ele>
        <time>2022-09-10T12:47:23Z</time>
      </trkpt>
      <trkpt lat="43.23565" lon="-0.89521">
        <ele>242</ele>
        <time>2022-09-10T12:47:27Z</time>
      </trkpt>
      <trkpt lat="43.23559" lon="-0.8953">
        <ele>242.6</ele>
        <time>2022-09-10T12:47:30Z</time>
      </trkpt>
      <trkpt lat="43.23548" lon="-0.89543">
        <ele>243.2</ele>
        <time>2022-09-10T12:47:35Z</time>
      </trkpt>
      <trkpt lat="43.23541" lon="-0.8955">
        <ele>243.6</ele>
        <time>2022-09-10T12:47:38Z</time>
      </trkpt>
      <trkpt lat="43.23528" lon="-0.89559">
        <ele>244.4</ele>
        <time>2022-09-10T12:47:43Z</time>
      </trkpt>
      <trkpt lat="43.23517" lon="-0.89564">
        <ele>245.2</ele>
        <time>2022-09-10T12:47:47Z</time>
      </trkpt>
      <trkpt lat="43.23505" lon="-0.89569">
        <ele>245.4</ele>
        <time>2022-09-10T12:47:51Z</time>
      </trkpt>
      <trkpt lat="43.23494" lon="-0.89574">
        <ele>246</ele>
        <time>2022-09-10T12:47:55Z</time>
      </trkpt>
      <trkpt lat="43.23485" lon="-0.89578">
        <ele>246.4</ele>
        <time>2022-09-10T12:47:58Z</time>
      </trkpt>
      <trkpt lat="43.23475" lon="-0.89586">
        <ele>246.8</ele>
        <time>2022-09-10T12:48:02Z</time>
      </trkpt>
      <trkpt lat="43.23451" lon="-0.8961">
        <ele>247.4</ele>
        <time>2022-09-10T12:48:11Z</time>
      </trkpt>
      <trkpt lat="43.23432" lon="-0.89624">
        <ele>247.8</ele>
        <time>2022-09-10T12:48:17Z</time>
      </trkpt>
      <trkpt lat="43.23409" lon="-0.89635">
        <ele>248.2</ele>
        <time>2022-09-10T12:48:24Z</time>
      </trkpt>
      <trkpt lat="43.23391" lon="-0.89642">
        <ele>248.4</ele>
        <time>2022-09-10T12:48:30Z</time>
      </trkpt>
      <trkpt lat="43.23388" lon="-0.89643">
        <ele>248.6</ele>
        <time>2022-09-10T12:48:31Z</time>
      </trkpt>
      <trkpt lat="43.23373" lon="-0.89649">
        <ele>249</ele>
        <time>2022-09-10T12:48:36Z</time>
      </trkpt>
      <trkpt lat="43.23355" lon="-0.89654">
        <ele>249.6</ele>
        <time>2022-09-10T12:48:42Z</time>
      </trkpt>
      <trkpt lat="43.23352" lon="-0.89655">
        <ele>249.6</ele>
        <time>2022-09-10T12:48:43Z</time>
      </trkpt>
      <trkpt lat="43.23336" lon="-0.89663">
        <ele>249.8</ele>
        <time>2022-09-10T12:48:48Z</time>
      </trkpt>
      <trkpt lat="43.23315" lon="-0.89681">
        <ele>250.6</ele>
        <time>2022-09-10T12:48:54Z</time>
      </trkpt>
      <trkpt lat="43.23312" lon="-0.89684">
        <ele>250.8</ele>
        <time>2022-09-10T12:48:55Z</time>
      </trkpt>
      <trkpt lat="43.23285" lon="-0.8971">
        <ele>251.6</ele>
        <time>2022-09-10T12:49:04Z</time>
      </trkpt>
      <trkpt lat="43.23275" lon="-0.89718">
        <ele>251.6</ele>
        <time>2022-09-10T12:49:07Z</time>
      </trkpt>
      <trkpt lat="43.23258" lon="-0.89737">
        <ele>252</ele>
        <time>2022-09-10T12:49:13Z</time>
      </trkpt>
      <trkpt lat="43.23238" lon="-0.89756">
        <ele>252.6</ele>
        <time>2022-09-10T12:49:20Z</time>
      </trkpt>
      <trkpt lat="43.23232" lon="-0.89763">
        <ele>252.8</ele>
        <time>2022-09-10T12:49:22Z</time>
      </trkpt>
      <trkpt lat="43.23219" lon="-0.89786">
        <ele>253</ele>
        <time>2022-09-10T12:49:28Z</time>
      </trkpt>
      <trkpt lat="43.23212" lon="-0.89812">
        <ele>253.6</ele>
        <time>2022-09-10T12:49:34Z</time>
      </trkpt>
      <trkpt lat="43.23212" lon="-0.89817">
        <ele>253.8</ele>
        <time>2022-09-10T12:49:35Z</time>
      </trkpt>
      <trkpt lat="43.23214" lon="-0.89848">
        <ele>254.2</ele>
        <time>2022-09-10T12:49:41Z</time>
      </trkpt>
      <trkpt lat="43.23224" lon="-0.89864">
        <ele>254.2</ele>
        <time>2022-09-10T12:49:45Z</time>
      </trkpt>
      <trkpt lat="43.23227" lon="-0.89867">
        <ele>254.6</ele>
        <time>2022-09-10T12:49:46Z</time>
      </trkpt>
      <trkpt lat="43.23233" lon="-0.89874">
        <ele>255</ele>
        <time>2022-09-10T12:49:48Z</time>
      </trkpt>
      <trkpt lat="43.23242" lon="-0.89892">
        <ele>255.4</ele>
        <time>2022-09-10T12:49:52Z</time>
      </trkpt>
      <trkpt lat="43.23249" lon="-0.89929">
        <ele>255.8</ele>
        <time>2022-09-10T12:49:59Z</time>
      </trkpt>
      <trkpt lat="43.2325" lon="-0.89934">
        <ele>256</ele>
        <time>2022-09-10T12:50:00Z</time>
      </trkpt>
      <trkpt lat="43.23249" lon="-0.89966">
        <ele>256.6</ele>
        <time>2022-09-10T12:50:06Z</time>
      </trkpt>
      <trkpt lat="43.23245" lon="-0.89982">
        <ele>256.8</ele>
        <time>2022-09-10T12:50:09Z</time>
      </trkpt>
      <trkpt lat="43.23241" lon="-0.89992">
        <ele>257</ele>
        <time>2022-09-10T12:50:11Z</time>
      </trkpt>
      <trkpt lat="43.23239" lon="-0.89997">
        <ele>257</ele>
        <time>2022-09-10T12:50:12Z</time>
      </trkpt>
      <trkpt lat="43.2322" lon="-0.90027">
        <ele>257.8</ele>
        <time>2022-09-10T12:50:19Z</time>
      </trkpt>
      <trkpt lat="43.23211" lon="-0.90044">
        <ele>258</ele>
        <time>2022-09-10T12:50:23Z</time>
      </trkpt>
      <trkpt lat="43.2321" lon="-0.9005">
        <ele>258.2</ele>
        <time>2022-09-10T12:50:24Z</time>
      </trkpt>
      <trkpt lat="43.2321" lon="-0.90056">
        <ele>258.2</ele>
        <time>2022-09-10T12:50:25Z</time>
      </trkpt>
      <trkpt lat="43.23216" lon="-0.90073">
        <ele>258.6</ele>
        <time>2022-09-10T12:50:29Z</time>
      </trkpt>
      <trkpt lat="43.23219" lon="-0.90079">
        <ele>259</ele>
        <time>2022-09-10T12:50:31Z</time>
      </trkpt>
      <trkpt lat="43.23232" lon="-0.90101">
        <ele>259.6</ele>
        <time>2022-09-10T12:50:37Z</time>
      </trkpt>
      <trkpt lat="43.23248" lon="-0.90133">
        <ele>260</ele>
        <time>2022-09-10T12:50:45Z</time>
      </trkpt>
      <trkpt lat="43.2325" lon="-0.90138">
        <ele>260.2</ele>
        <time>2022-09-10T12:50:46Z</time>
      </trkpt>
      <trkpt lat="43.23252" lon="-0.90142">
        <ele>260.2</ele>
        <time>2022-09-10T12:50:47Z</time>
      </trkpt>
      <trkpt lat="43.23257" lon="-0.90164">
        <ele>260.4</ele>
        <time>2022-09-10T12:50:52Z</time>
      </trkpt>
      <trkpt lat="43.23265" lon="-0.9019">
        <ele>261.2</ele>
        <time>2022-09-10T12:50:58Z</time>
      </trkpt>
      <trkpt lat="43.23266" lon="-0.90194">
        <ele>261.2</ele>
        <time>2022-09-10T12:50:59Z</time>
      </trkpt>
      <trkpt lat="43.2327" lon="-0.90224">
        <ele>261.4</ele>
        <time>2022-09-10T12:51:05Z</time>
      </trkpt>
      <trkpt lat="43.23268" lon="-0.90271">
        <ele>262.4</ele>
        <time>2022-09-10T12:51:13Z</time>
      </trkpt>
      <trkpt lat="43.23268" lon="-0.90277">
        <ele>262.6</ele>
        <time>2022-09-10T12:51:14Z</time>
      </trkpt>
      <trkpt lat="43.23261" lon="-0.90301">
        <ele>263</ele>
        <time>2022-09-10T12:51:19Z</time>
      </trkpt>
      <trkpt lat="43.23247" lon="-0.90333">
        <ele>262.8</ele>
        <time>2022-09-10T12:51:27Z</time>
      </trkpt>
      <trkpt lat="43.23249" lon="-0.90351">
        <ele>263</ele>
        <time>2022-09-10T12:51:31Z</time>
      </trkpt>
      <trkpt lat="43.23251" lon="-0.90353">
        <ele>263.2</ele>
        <time>2022-09-10T12:51:32Z</time>
      </trkpt>
      <trkpt lat="43.23258" lon="-0.90352">
        <ele>263.4</ele>
        <time>2022-09-10T12:51:34Z</time>
      </trkpt>
      <trkpt lat="43.23261" lon="-0.90352">
        <ele>263.4</ele>
        <time>2022-09-10T12:51:35Z</time>
      </trkpt>
      <trkpt lat="43.23282" lon="-0.90352">
        <ele>264</ele>
        <time>2022-09-10T12:51:41Z</time>
      </trkpt>
      <trkpt lat="43.23307" lon="-0.90362">
        <ele>264.6</ele>
        <time>2022-09-10T12:51:48Z</time>
      </trkpt>
      <trkpt lat="43.23329" lon="-0.90377">
        <ele>265</ele>
        <time>2022-09-10T12:51:54Z</time>
      </trkpt>
      <trkpt lat="43.23346" lon="-0.90399">
        <ele>265.4</ele>
        <time>2022-09-10T12:52:00Z</time>
      </trkpt>
      <trkpt lat="43.23356" lon="-0.90415">
        <ele>265.6</ele>
        <time>2022-09-10T12:52:04Z</time>
      </trkpt>
      <trkpt lat="43.23361" lon="-0.90429">
        <ele>266</ele>
        <time>2022-09-10T12:52:07Z</time>
      </trkpt>
      <trkpt lat="43.23363" lon="-0.9046">
        <ele>266.6</ele>
        <time>2022-09-10T12:52:13Z</time>
      </trkpt>
      <trkpt lat="43.23362" lon="-0.90471">
        <ele>266.8</ele>
        <time>2022-09-10T12:52:15Z</time>
      </trkpt>
      <trkpt lat="43.23357" lon="-0.90508">
        <ele>267.2</ele>
        <time>2022-09-10T12:52:22Z</time>
      </trkpt>
      <trkpt lat="43.23353" lon="-0.90543">
        <ele>267.8</ele>
        <time>2022-09-10T12:52:29Z</time>
      </trkpt>
      <trkpt lat="43.23355" lon="-0.9058">
        <ele>268.6</ele>
        <time>2022-09-10T12:52:36Z</time>
      </trkpt>
      <trkpt lat="43.23359" lon="-0.90595">
        <ele>268.8</ele>
        <time>2022-09-10T12:52:39Z</time>
      </trkpt>
      <trkpt lat="43.23366" lon="-0.90612">
        <ele>269</ele>
        <time>2022-09-10T12:52:43Z</time>
      </trkpt>
      <trkpt lat="43.2337" lon="-0.90614">
        <ele>269</ele>
        <time>2022-09-10T12:52:44Z</time>
      </trkpt>
      <trkpt lat="43.23373" lon="-0.90615">
        <ele>269</ele>
        <time>2022-09-10T12:52:45Z</time>
      </trkpt>
      <trkpt lat="43.23377" lon="-0.90614">
        <ele>269.2</ele>
        <time>2022-09-10T12:52:46Z</time>
      </trkpt>
      <trkpt lat="43.23391" lon="-0.90604">
        <ele>269.8</ele>
        <time>2022-09-10T12:52:50Z</time>
      </trkpt>
      <trkpt lat="43.23395" lon="-0.90601">
        <ele>270</ele>
        <time>2022-09-10T12:52:51Z</time>
      </trkpt>
      <trkpt lat="43.23422" lon="-0.90581">
        <ele>270.6</ele>
        <time>2022-09-10T12:52:59Z</time>
      </trkpt>
      <trkpt lat="43.23433" lon="-0.90573">
        <ele>271</ele>
        <time>2022-09-10T12:53:02Z</time>
      </trkpt>
      <trkpt lat="43.23447" lon="-0.90564">
        <ele>271</ele>
        <time>2022-09-10T12:53:06Z</time>
      </trkpt>
      <trkpt lat="43.23476" lon="-0.90548">
        <ele>271.8</ele>
        <time>2022-09-10T12:53:14Z</time>
      </trkpt>
      <trkpt lat="43.23495" lon="-0.90537">
        <ele>272</ele>
        <time>2022-09-10T12:53:19Z</time>
      </trkpt>
      <trkpt lat="43.23503" lon="-0.90534">
        <ele>272.2</ele>
        <time>2022-09-10T12:53:21Z</time>
      </trkpt>
      <trkpt lat="43.23528" lon="-0.90526">
        <ele>273</ele>
        <time>2022-09-10T12:53:28Z</time>
      </trkpt>
      <trkpt lat="43.23535" lon="-0.90526">
        <ele>273.2</ele>
        <time>2022-09-10T12:53:30Z</time>
      </trkpt>
      <trkpt lat="43.23548" lon="-0.90526">
        <ele>273.6</ele>
        <time>2022-09-10T12:53:34Z</time>
      </trkpt>
      <trkpt lat="43.23557" lon="-0.90528">
        <ele>274.2</ele>
        <time>2022-09-10T12:53:37Z</time>
      </trkpt>
      <trkpt lat="43.23569" lon="-0.90531">
        <ele>274.8</ele>
        <time>2022-09-10T12:53:41Z</time>
      </trkpt>
      <trkpt lat="43.23582" lon="-0.90534">
        <ele>275.4</ele>
        <time>2022-09-10T12:53:46Z</time>
      </trkpt>
      <trkpt lat="43.23588" lon="-0.90534">
        <ele>275.8</ele>
        <time>2022-09-10T12:53:48Z</time>
      </trkpt>
      <trkpt lat="43.23607" lon="-0.90528">
        <ele>276.4</ele>
        <time>2022-09-10T12:53:55Z</time>
      </trkpt>
      <trkpt lat="43.23623" lon="-0.90522">
        <ele>277.4</ele>
        <time>2022-09-10T12:54:01Z</time>
      </trkpt>
      <trkpt lat="43.23628" lon="-0.90519">
        <ele>277.4</ele>
        <time>2022-09-10T12:54:03Z</time>
      </trkpt>
      <trkpt lat="43.23646" lon="-0.90512">
        <ele>278.6</ele>
        <time>2022-09-10T12:54:10Z</time>
      </trkpt>
      <trkpt lat="43.23661" lon="-0.90507">
        <ele>279.4</ele>
        <time>2022-09-10T12:54:16Z</time>
      </trkpt>
      <trkpt lat="43.23669" lon="-0.90505">
        <ele>279.8</ele>
        <time>2022-09-10T12:54:19Z</time>
      </trkpt>
      <trkpt lat="43.23677" lon="-0.90502">
        <ele>280.2</ele>
        <time>2022-09-10T12:54:22Z</time>
      </trkpt>
      <trkpt lat="43.23689" lon="-0.905">
        <ele>280.8</ele>
        <time>2022-09-10T12:54:27Z</time>
      </trkpt>
      <trkpt lat="43.23694" lon="-0.90499">
        <ele>281</ele>
        <time>2022-09-10T12:54:29Z</time>
      </trkpt>
      <trkpt lat="43.23709" lon="-0.905">
        <ele>281.8</ele>
        <time>2022-09-10T12:54:35Z</time>
      </trkpt>
      <trkpt lat="43.23712" lon="-0.90501">
        <ele>282</ele>
        <time>2022-09-10T12:54:36Z</time>
      </trkpt>
      <trkpt lat="43.23731" lon="-0.90508">
        <ele>283</ele>
        <time>2022-09-10T12:54:44Z</time>
      </trkpt>
      <trkpt lat="43.23733" lon="-0.90509">
        <ele>283</ele>
        <time>2022-09-10T12:54:45Z</time>
      </trkpt>
      <trkpt lat="43.23745" lon="-0.90518">
        <ele>283.6</ele>
        <time>2022-09-10T12:54:50Z</time>
      </trkpt>
      <trkpt lat="43.23756" lon="-0.90531">
        <ele>284</ele>
        <time>2022-09-10T12:54:55Z</time>
      </trkpt>
      <trkpt lat="43.23761" lon="-0.90539">
        <ele>284.4</ele>
        <time>2022-09-10T12:54:58Z</time>
      </trkpt>
      <trkpt lat="43.23767" lon="-0.90551">
        <ele>285.2</ele>
        <time>2022-09-10T12:55:02Z</time>
      </trkpt>
      <trkpt lat="43.23774" lon="-0.90564">
        <ele>285.4</ele>
        <time>2022-09-10T12:55:06Z</time>
      </trkpt>
      <trkpt lat="43.2378" lon="-0.90587">
        <ele>286.2</ele>
        <time>2022-09-10T12:55:13Z</time>
      </trkpt>
      <trkpt lat="43.23781" lon="-0.90591">
        <ele>286.4</ele>
        <time>2022-09-10T12:55:14Z</time>
      </trkpt>
      <trkpt lat="43.23785" lon="-0.90617">
        <ele>287</ele>
        <time>2022-09-10T12:55:21Z</time>
      </trkpt>
      <trkpt lat="43.23786" lon="-0.90621">
        <ele>287.4</ele>
        <time>2022-09-10T12:55:22Z</time>
      </trkpt>
      <trkpt lat="43.23789" lon="-0.90655">
        <ele>288.2</ele>
        <time>2022-09-10T12:55:30Z</time>
      </trkpt>
      <trkpt lat="43.2379" lon="-0.90686">
        <ele>288.2</ele>
        <time>2022-09-10T12:55:38Z</time>
      </trkpt>
      <trkpt lat="43.23792" lon="-0.90718">
        <ele>287.6</ele>
        <time>2022-09-10T12:55:44Z</time>
      </trkpt>
      <trkpt lat="43.23792" lon="-0.90769">
        <ele>286.8</ele>
        <time>2022-09-10T12:55:51Z</time>
      </trkpt>
      <trkpt lat="43.23792" lon="-0.90792">
        <ele>286.4</ele>
        <time>2022-09-10T12:55:54Z</time>
      </trkpt>
      <trkpt lat="43.23788" lon="-0.9082">
        <ele>286</ele>
        <time>2022-09-10T12:55:58Z</time>
      </trkpt>
      <trkpt lat="43.23787" lon="-0.90827">
        <ele>286</ele>
        <time>2022-09-10T12:55:59Z</time>
      </trkpt>
      <trkpt lat="43.23779" lon="-0.90865">
        <ele>286.4</ele>
        <time>2022-09-10T12:56:05Z</time>
      </trkpt>
      <trkpt lat="43.23778" lon="-0.9087">
        <ele>286.6</ele>
        <time>2022-09-10T12:56:06Z</time>
      </trkpt>
      <trkpt lat="43.23771" lon="-0.90891">
        <ele>287.6</ele>
        <time>2022-09-10T12:56:10Z</time>
      </trkpt>
      <trkpt lat="43.23767" lon="-0.90904">
        <ele>288.2</ele>
        <time>2022-09-10T12:56:13Z</time>
      </trkpt>
      <trkpt lat="43.23753" lon="-0.90928">
        <ele>288.6</ele>
        <time>2022-09-10T12:56:20Z</time>
      </trkpt>
      <trkpt lat="43.23739" lon="-0.9095">
        <ele>289.6</ele>
        <time>2022-09-10T12:56:27Z</time>
      </trkpt>
      <trkpt lat="43.23737" lon="-0.90953">
        <ele>289.8</ele>
        <time>2022-09-10T12:56:28Z</time>
      </trkpt>
      <trkpt lat="43.23724" lon="-0.90968">
        <ele>290.6</ele>
        <time>2022-09-10T12:56:34Z</time>
      </trkpt>
      <trkpt lat="43.23722" lon="-0.9097">
        <ele>290.8</ele>
        <time>2022-09-10T12:56:35Z</time>
      </trkpt>
      <trkpt lat="43.23711" lon="-0.90983">
        <ele>291.4</ele>
        <time>2022-09-10T12:56:40Z</time>
      </trkpt>
      <trkpt lat="43.23706" lon="-0.90987">
        <ele>291.8</ele>
        <time>2022-09-10T12:56:42Z</time>
      </trkpt>
      <trkpt lat="43.23697" lon="-0.90994">
        <ele>292.2</ele>
        <time>2022-09-10T12:56:46Z</time>
      </trkpt>
      <trkpt lat="43.23682" lon="-0.91003">
        <ele>292.4</ele>
        <time>2022-09-10T12:56:52Z</time>
      </trkpt>
      <trkpt lat="43.23669" lon="-0.91009">
        <ele>292.8</ele>
        <time>2022-09-10T12:56:57Z</time>
      </trkpt>
      <trkpt lat="43.23666" lon="-0.9101">
        <ele>292.8</ele>
        <time>2022-09-10T12:56:58Z</time>
      </trkpt>
      <trkpt lat="43.23648" lon="-0.91018">
        <ele>293.2</ele>
        <time>2022-09-10T12:57:05Z</time>
      </trkpt>
      <trkpt lat="43.23631" lon="-0.91029">
        <ele>293.6</ele>
        <time>2022-09-10T12:57:11Z</time>
      </trkpt>
      <trkpt lat="43.23619" lon="-0.91042">
        <ele>293.8</ele>
        <time>2022-09-10T12:57:16Z</time>
      </trkpt>
      <trkpt lat="43.23611" lon="-0.91051">
        <ele>294</ele>
        <time>2022-09-10T12:57:19Z</time>
      </trkpt>
      <trkpt lat="43.23601" lon="-0.91063">
        <ele>294.4</ele>
        <time>2022-09-10T12:57:23Z</time>
      </trkpt>
      <trkpt lat="43.23596" lon="-0.91084">
        <ele>294.6</ele>
        <time>2022-09-10T12:57:28Z</time>
      </trkpt>
      <trkpt lat="43.23598" lon="-0.91092">
        <ele>295</ele>
        <time>2022-09-10T12:57:30Z</time>
      </trkpt>
      <trkpt lat="43.23602" lon="-0.91097">
        <ele>295.4</ele>
        <time>2022-09-10T12:57:32Z</time>
      </trkpt>
      <trkpt lat="43.23619" lon="-0.91117">
        <ele>295.8</ele>
        <time>2022-09-10T12:57:40Z</time>
      </trkpt>
      <trkpt lat="43.23632" lon="-0.91129">
        <ele>296</ele>
        <time>2022-09-10T12:57:45Z</time>
      </trkpt>
      <trkpt lat="43.23634" lon="-0.91132">
        <ele>296</ele>
        <time>2022-09-10T12:57:46Z</time>
      </trkpt>
      <trkpt lat="43.23641" lon="-0.91152">
        <ele>296.4</ele>
        <time>2022-09-10T12:57:51Z</time>
      </trkpt>
      <trkpt lat="43.23642" lon="-0.91177">
        <ele>296.8</ele>
        <time>2022-09-10T12:57:57Z</time>
      </trkpt>
      <trkpt lat="43.23638" lon="-0.91202">
        <ele>297</ele>
        <time>2022-09-10T12:58:02Z</time>
      </trkpt>
      <trkpt lat="43.23635" lon="-0.91212">
        <ele>297.4</ele>
        <time>2022-09-10T12:58:04Z</time>
      </trkpt>
      <trkpt lat="43.23626" lon="-0.91246">
        <ele>298.2</ele>
        <time>2022-09-10T12:58:11Z</time>
      </trkpt>
      <trkpt lat="43.23614" lon="-0.91284">
        <ele>298.6</ele>
        <time>2022-09-10T12:58:19Z</time>
      </trkpt>
      <trkpt lat="43.23604" lon="-0.91324">
        <ele>299.2</ele>
        <time>2022-09-10T12:58:27Z</time>
      </trkpt>
      <trkpt lat="43.2359" lon="-0.91374">
        <ele>300</ele>
        <time>2022-09-10T12:58:37Z</time>
      </trkpt>
      <trkpt lat="43.23586" lon="-0.91388">
        <ele>300.4</ele>
        <time>2022-09-10T12:58:40Z</time>
      </trkpt>
      <trkpt lat="43.23582" lon="-0.91403">
        <ele>300.6</ele>
        <time>2022-09-10T12:58:43Z</time>
      </trkpt>
      <trkpt lat="43.2357" lon="-0.91442">
        <ele>301.4</ele>
        <time>2022-09-10T12:58:51Z</time>
      </trkpt>
      <trkpt lat="43.23567" lon="-0.91452">
        <ele>301.6</ele>
        <time>2022-09-10T12:58:53Z</time>
      </trkpt>
      <trkpt lat="43.23558" lon="-0.91486">
        <ele>302.4</ele>
        <time>2022-09-10T12:59:00Z</time>
      </trkpt>
      <trkpt lat="43.23557" lon="-0.9149">
        <ele>302.4</ele>
        <time>2022-09-10T12:59:01Z</time>
      </trkpt>
      <trkpt lat="43.23547" lon="-0.91516">
        <ele>303.2</ele>
        <time>2022-09-10T12:59:07Z</time>
      </trkpt>
      <trkpt lat="43.23541" lon="-0.91534">
        <ele>303.6</ele>
        <time>2022-09-10T12:59:11Z</time>
      </trkpt>
      <trkpt lat="43.23539" lon="-0.91543">
        <ele>303.8</ele>
        <time>2022-09-10T12:59:13Z</time>
      </trkpt>
      <trkpt lat="43.23535" lon="-0.91562">
        <ele>304</ele>
        <time>2022-09-10T12:59:19Z</time>
      </trkpt>
      <trkpt lat="43.23541" lon="-0.91579">
        <ele>304.4</ele>
        <time>2022-09-10T12:59:24Z</time>
      </trkpt>
      <trkpt lat="43.23543" lon="-0.9158">
        <ele>304.6</ele>
        <time>2022-09-10T12:59:25Z</time>
      </trkpt>
      <trkpt lat="43.23555" lon="-0.9158">
        <ele>305</ele>
        <time>2022-09-10T12:59:29Z</time>
      </trkpt>
      <trkpt lat="43.23558" lon="-0.91579">
        <ele>305.2</ele>
        <time>2022-09-10T12:59:30Z</time>
      </trkpt>
      <trkpt lat="43.23577" lon="-0.91576">
        <ele>305.6</ele>
        <time>2022-09-10T12:59:37Z</time>
      </trkpt>
      <trkpt lat="43.23598" lon="-0.91573">
        <ele>306.2</ele>
        <time>2022-09-10T12:59:44Z</time>
      </trkpt>
      <trkpt lat="43.23613" lon="-0.91572">
        <ele>306.6</ele>
        <time>2022-09-10T12:59:49Z</time>
      </trkpt>
      <trkpt lat="43.23622" lon="-0.91571">
        <ele>307</ele>
        <time>2022-09-10T12:59:52Z</time>
      </trkpt>
      <trkpt lat="43.23646" lon="-0.91567">
        <ele>307.4</ele>
        <time>2022-09-10T12:59:59Z</time>
      </trkpt>
      <trkpt lat="43.23654" lon="-0.91566">
        <ele>307.6</ele>
        <time>2022-09-10T13:00:01Z</time>
      </trkpt>
      <trkpt lat="43.23682" lon="-0.91564">
        <ele>308.4</ele>
        <time>2022-09-10T13:00:09Z</time>
      </trkpt>
      <trkpt lat="43.23688" lon="-0.91566">
        <ele>308.8</ele>
        <time>2022-09-10T13:00:11Z</time>
      </trkpt>
      <trkpt lat="43.237" lon="-0.91572">
        <ele>309.2</ele>
        <time>2022-09-10T13:00:15Z</time>
      </trkpt>
      <trkpt lat="43.2372" lon="-0.91592">
        <ele>309.8</ele>
        <time>2022-09-10T13:00:22Z</time>
      </trkpt>
      <trkpt lat="43.23723" lon="-0.91595">
        <ele>309.8</ele>
        <time>2022-09-10T13:00:23Z</time>
      </trkpt>
      <trkpt lat="43.23736" lon="-0.91622">
        <ele>310.4</ele>
        <time>2022-09-10T13:00:30Z</time>
      </trkpt>
      <trkpt lat="43.2374" lon="-0.91639">
        <ele>310.8</ele>
        <time>2022-09-10T13:00:34Z</time>
      </trkpt>
      <trkpt lat="43.23743" lon="-0.91653">
        <ele>310.8</ele>
        <time>2022-09-10T13:00:37Z</time>
      </trkpt>
      <trkpt lat="43.23745" lon="-0.91681">
        <ele>311.4</ele>
        <time>2022-09-10T13:00:43Z</time>
      </trkpt>
      <trkpt lat="43.23745" lon="-0.917">
        <ele>312</ele>
        <time>2022-09-10T13:00:47Z</time>
      </trkpt>
      <trkpt lat="43.23743" lon="-0.9172">
        <ele>312</ele>
        <time>2022-09-10T13:00:51Z</time>
      </trkpt>
      <trkpt lat="43.23749" lon="-0.91742">
        <ele>312.4</ele>
        <time>2022-09-10T13:00:56Z</time>
      </trkpt>
      <trkpt lat="43.23752" lon="-0.91744">
        <ele>312.4</ele>
        <time>2022-09-10T13:00:57Z</time>
      </trkpt>
      <trkpt lat="43.23759" lon="-0.91746">
        <ele>312.6</ele>
        <time>2022-09-10T13:00:59Z</time>
      </trkpt>
      <trkpt lat="43.23777" lon="-0.91739">
        <ele>313</ele>
        <time>2022-09-10T13:01:04Z</time>
      </trkpt>
      <trkpt lat="43.23801" lon="-0.9173">
        <ele>313.2</ele>
        <time>2022-09-10T13:01:10Z</time>
      </trkpt>
      <trkpt lat="43.23821" lon="-0.91725">
        <ele>313.2</ele>
        <time>2022-09-10T13:01:15Z</time>
      </trkpt>
      <trkpt lat="43.23829" lon="-0.91724">
        <ele>313.4</ele>
        <time>2022-09-10T13:01:17Z</time>
      </trkpt>
      <trkpt lat="43.23842" lon="-0.91726">
        <ele>313.8</ele>
        <time>2022-09-10T13:01:20Z</time>
      </trkpt>
      <trkpt lat="43.23849" lon="-0.9173">
        <ele>314</ele>
        <time>2022-09-10T13:01:22Z</time>
      </trkpt>
      <trkpt lat="43.23857" lon="-0.91734">
        <ele>314</ele>
        <time>2022-09-10T13:01:24Z</time>
      </trkpt>
      <trkpt lat="43.23867" lon="-0.91741">
        <ele>314.2</ele>
        <time>2022-09-10T13:01:27Z</time>
      </trkpt>
      <trkpt lat="43.2389" lon="-0.91748">
        <ele>314.6</ele>
        <time>2022-09-10T13:01:33Z</time>
      </trkpt>
      <trkpt lat="43.23895" lon="-0.91748">
        <ele>314.8</ele>
        <time>2022-09-10T13:01:34Z</time>
      </trkpt>
      <trkpt lat="43.23905" lon="-0.91742">
        <ele>315.2</ele>
        <time>2022-09-10T13:01:37Z</time>
      </trkpt>
      <trkpt lat="43.23908" lon="-0.9174">
        <ele>315.2</ele>
        <time>2022-09-10T13:01:38Z</time>
      </trkpt>
      <trkpt lat="43.23931" lon="-0.91724">
        <ele>315.8</ele>
        <time>2022-09-10T13:01:45Z</time>
      </trkpt>
      <trkpt lat="43.23937" lon="-0.91721">
        <ele>316.2</ele>
        <time>2022-09-10T13:01:47Z</time>
      </trkpt>
      <trkpt lat="43.23951" lon="-0.91719">
        <ele>316.6</ele>
        <time>2022-09-10T13:01:51Z</time>
      </trkpt>
      <trkpt lat="43.23967" lon="-0.91727">
        <ele>317.2</ele>
        <time>2022-09-10T13:01:56Z</time>
      </trkpt>
      <trkpt lat="43.23969" lon="-0.9173">
        <ele>317.6</ele>
        <time>2022-09-10T13:01:57Z</time>
      </trkpt>
      <trkpt lat="43.23988" lon="-0.91741">
        <ele>318.4</ele>
        <time>2022-09-10T13:02:04Z</time>
      </trkpt>
      <trkpt lat="43.24003" lon="-0.91754">
        <ele>319.4</ele>
        <time>2022-09-10T13:02:11Z</time>
      </trkpt>
      <trkpt lat="43.24006" lon="-0.91756">
        <ele>319.6</ele>
        <time>2022-09-10T13:02:12Z</time>
      </trkpt>
      <trkpt lat="43.24017" lon="-0.91778">
        <ele>320.6</ele>
        <time>2022-09-10T13:02:19Z</time>
      </trkpt>
      <trkpt lat="43.24021" lon="-0.91787">
        <ele>321</ele>
        <time>2022-09-10T13:02:22Z</time>
      </trkpt>
      <trkpt lat="43.24031" lon="-0.91803">
        <ele>321.6</ele>
        <time>2022-09-10T13:02:28Z</time>
      </trkpt>
      <trkpt lat="43.24035" lon="-0.91807">
        <ele>321.8</ele>
        <time>2022-09-10T13:02:30Z</time>
      </trkpt>
      <trkpt lat="43.24047" lon="-0.91817">
        <ele>322.6</ele>
        <time>2022-09-10T13:02:35Z</time>
      </trkpt>
      <trkpt lat="43.24054" lon="-0.91825">
        <ele>322.8</ele>
        <time>2022-09-10T13:02:38Z</time>
      </trkpt>
      <trkpt lat="43.24071" lon="-0.91855">
        <ele>323.2</ele>
        <time>2022-09-10T13:02:46Z</time>
      </trkpt>
      <trkpt lat="43.24084" lon="-0.91885">
        <ele>323.2</ele>
        <time>2022-09-10T13:02:53Z</time>
      </trkpt>
      <trkpt lat="43.24094" lon="-0.91895">
        <ele>322.8</ele>
        <time>2022-09-10T13:02:56Z</time>
      </trkpt>
      <trkpt lat="43.24102" lon="-0.919">
        <ele>323</ele>
        <time>2022-09-10T13:02:58Z</time>
      </trkpt>
      <trkpt lat="43.24128" lon="-0.9192">
        <ele>323.6</ele>
        <time>2022-09-10T13:03:06Z</time>
      </trkpt>
      <trkpt lat="43.2415" lon="-0.91933">
        <ele>323.4</ele>
        <time>2022-09-10T13:03:13Z</time>
      </trkpt>
      <trkpt lat="43.24176" lon="-0.91954">
        <ele>323</ele>
        <time>2022-09-10T13:03:22Z</time>
      </trkpt>
      <trkpt lat="43.24179" lon="-0.9196">
        <ele>322.4</ele>
        <time>2022-09-10T13:03:26Z</time>
      </trkpt>
      <trkpt lat="43.24182" lon="-0.91961">
        <ele>322.6</ele>
        <time>2022-09-10T13:04:34Z</time>
      </trkpt>
      <trkpt lat="43.24187" lon="-0.91962">
        <ele>322.4</ele>
        <time>2022-09-10T13:04:36Z</time>
      </trkpt>
      <trkpt lat="43.24192" lon="-0.91967">
        <ele>322.2</ele>
        <time>2022-09-10T13:04:38Z</time>
      </trkpt>
      <trkpt lat="43.24201" lon="-0.91976">
        <ele>322</ele>
        <time>2022-09-10T13:04:41Z</time>
      </trkpt>
      <trkpt lat="43.24213" lon="-0.91988">
        <ele>321.6</ele>
        <time>2022-09-10T13:04:44Z</time>
      </trkpt>
      <trkpt lat="43.24227" lon="-0.92001">
        <ele>321</ele>
        <time>2022-09-10T13:04:47Z</time>
      </trkpt>
      <trkpt lat="43.24236" lon="-0.92011">
        <ele>320.6</ele>
        <time>2022-09-10T13:04:49Z</time>
      </trkpt>
      <trkpt lat="43.2426" lon="-0.9204">
        <ele>319.6</ele>
        <time>2022-09-10T13:04:54Z</time>
      </trkpt>
      <trkpt lat="43.24281" lon="-0.92069">
        <ele>318.6</ele>
        <time>2022-09-10T13:04:58Z</time>
      </trkpt>
      <trkpt lat="43.24291" lon="-0.92085">
        <ele>318.2</ele>
        <time>2022-09-10T13:05:00Z</time>
      </trkpt>
      <trkpt lat="43.24301" lon="-0.92101">
        <ele>317.4</ele>
        <time>2022-09-10T13:05:02Z</time>
      </trkpt>
      <trkpt lat="43.2432" lon="-0.92122">
        <ele>316.8</ele>
        <time>2022-09-10T13:05:05Z</time>
      </trkpt>
      <trkpt lat="43.24327" lon="-0.92128">
        <ele>316.2</ele>
        <time>2022-09-10T13:05:06Z</time>
      </trkpt>
      <trkpt lat="43.24343" lon="-0.92138">
        <ele>315.2</ele>
        <time>2022-09-10T13:05:08Z</time>
      </trkpt>
      <trkpt lat="43.2436" lon="-0.92145">
        <ele>314.6</ele>
        <time>2022-09-10T13:05:10Z</time>
      </trkpt>
      <trkpt lat="43.24377" lon="-0.92149">
        <ele>314</ele>
        <time>2022-09-10T13:05:12Z</time>
      </trkpt>
      <trkpt lat="43.24402" lon="-0.92156">
        <ele>314</ele>
        <time>2022-09-10T13:05:15Z</time>
      </trkpt>
      <trkpt lat="43.24424" lon="-0.92162">
        <ele>313.6</ele>
        <time>2022-09-10T13:05:18Z</time>
      </trkpt>
      <trkpt lat="43.24437" lon="-0.92171">
        <ele>313.6</ele>
        <time>2022-09-10T13:05:20Z</time>
      </trkpt>
      <trkpt lat="43.24463" lon="-0.92188">
        <ele>314.6</ele>
        <time>2022-09-10T13:05:25Z</time>
      </trkpt>
      <trkpt lat="43.24489" lon="-0.92205">
        <ele>314.6</ele>
        <time>2022-09-10T13:05:31Z</time>
      </trkpt>
      <trkpt lat="43.24503" lon="-0.92216">
        <ele>315</ele>
        <time>2022-09-10T13:05:35Z</time>
      </trkpt>
      <trkpt lat="43.24511" lon="-0.92223">
        <ele>315.2</ele>
        <time>2022-09-10T13:05:38Z</time>
      </trkpt>
      <trkpt lat="43.24526" lon="-0.92235">
        <ele>316</ele>
        <time>2022-09-10T13:05:44Z</time>
      </trkpt>
      <trkpt lat="43.24529" lon="-0.92236">
        <ele>316</ele>
        <time>2022-09-10T13:05:45Z</time>
      </trkpt>
      <trkpt lat="43.2455" lon="-0.92249">
        <ele>316.6</ele>
        <time>2022-09-10T13:05:52Z</time>
      </trkpt>
      <trkpt lat="43.24553" lon="-0.92251">
        <ele>316.6</ele>
        <time>2022-09-10T13:05:53Z</time>
      </trkpt>
      <trkpt lat="43.24569" lon="-0.9226">
        <ele>317.2</ele>
        <time>2022-09-10T13:05:58Z</time>
      </trkpt>
      <trkpt lat="43.24578" lon="-0.92265">
        <ele>317.4</ele>
        <time>2022-09-10T13:06:01Z</time>
      </trkpt>
      <trkpt lat="43.24601" lon="-0.92278">
        <ele>318.2</ele>
        <time>2022-09-10T13:06:08Z</time>
      </trkpt>
      <trkpt lat="43.24613" lon="-0.92282">
        <ele>318.2</ele>
        <time>2022-09-10T13:06:11Z</time>
      </trkpt>
      <trkpt lat="43.24638" lon="-0.92291">
        <ele>318</ele>
        <time>2022-09-10T13:06:17Z</time>
      </trkpt>
      <trkpt lat="43.24684" lon="-0.92297">
        <ele>318.2</ele>
        <time>2022-09-10T13:06:27Z</time>
      </trkpt>
      <trkpt lat="43.24719" lon="-0.92306">
        <ele>318.2</ele>
        <time>2022-09-10T13:06:34Z</time>
      </trkpt>
      <trkpt lat="43.24755" lon="-0.92322">
        <ele>318.4</ele>
        <time>2022-09-10T13:06:41Z</time>
      </trkpt>
      <trkpt lat="43.24789" lon="-0.92347">
        <ele>318.6</ele>
        <time>2022-09-10T13:06:48Z</time>
      </trkpt>
      <trkpt lat="43.2483" lon="-0.92383">
        <ele>318.8</ele>
        <time>2022-09-10T13:06:58Z</time>
      </trkpt>
      <trkpt lat="43.24854" lon="-0.9241">
        <ele>318.6</ele>
        <time>2022-09-10T13:07:04Z</time>
      </trkpt>
      <trkpt lat="43.24863" lon="-0.92417">
        <ele>318.8</ele>
        <time>2022-09-10T13:07:06Z</time>
      </trkpt>
      <trkpt lat="43.24872" lon="-0.92423">
        <ele>318.6</ele>
        <time>2022-09-10T13:07:08Z</time>
      </trkpt>
      <trkpt lat="43.24885" lon="-0.92432">
        <ele>318.6</ele>
        <time>2022-09-10T13:07:11Z</time>
      </trkpt>
      <trkpt lat="43.24921" lon="-0.92457">
        <ele>318.6</ele>
        <time>2022-09-10T13:07:19Z</time>
      </trkpt>
      <trkpt lat="43.24955" lon="-0.92484">
        <ele>318.6</ele>
        <time>2022-09-10T13:07:27Z</time>
      </trkpt>
      <trkpt lat="43.24959" lon="-0.92504">
        <ele>318.4</ele>
        <time>2022-09-10T13:07:30Z</time>
      </trkpt>
      <trkpt lat="43.2495" lon="-0.92519">
        <ele>318.6</ele>
        <time>2022-09-10T13:07:33Z</time>
      </trkpt>
      <trkpt lat="43.24947" lon="-0.92524">
        <ele>318.6</ele>
        <time>2022-09-10T13:07:34Z</time>
      </trkpt>
      <trkpt lat="43.24922" lon="-0.92556">
        <ele>319.2</ele>
        <time>2022-09-10T13:07:41Z</time>
      </trkpt>
      <trkpt lat="43.24912" lon="-0.9257">
        <ele>319.4</ele>
        <time>2022-09-10T13:07:44Z</time>
      </trkpt>
      <trkpt lat="43.24903" lon="-0.92586">
        <ele>319.6</ele>
        <time>2022-09-10T13:07:47Z</time>
      </trkpt>
      <trkpt lat="43.24891" lon="-0.92608">
        <ele>320.2</ele>
        <time>2022-09-10T13:07:51Z</time>
      </trkpt>
      <trkpt lat="43.24887" lon="-0.9262">
        <ele>320.4</ele>
        <time>2022-09-10T13:07:53Z</time>
      </trkpt>
      <trkpt lat="43.24884" lon="-0.92626">
        <ele>320.4</ele>
        <time>2022-09-10T13:07:54Z</time>
      </trkpt>
      <trkpt lat="43.24868" lon="-0.92668">
        <ele>320.8</ele>
        <time>2022-09-10T13:08:01Z</time>
      </trkpt>
      <trkpt lat="43.24844" lon="-0.92712">
        <ele>321.2</ele>
        <time>2022-09-10T13:08:09Z</time>
      </trkpt>
      <trkpt lat="43.24835" lon="-0.9273">
        <ele>321.4</ele>
        <time>2022-09-10T13:08:12Z</time>
      </trkpt>
      <trkpt lat="43.24823" lon="-0.92759">
        <ele>321.8</ele>
        <time>2022-09-10T13:08:17Z</time>
      </trkpt>
      <trkpt lat="43.24822" lon="-0.92766">
        <ele>321.8</ele>
        <time>2022-09-10T13:08:18Z</time>
      </trkpt>
      <trkpt lat="43.24822" lon="-0.92787">
        <ele>321.8</ele>
        <time>2022-09-10T13:08:21Z</time>
      </trkpt>
      <trkpt lat="43.24831" lon="-0.92819">
        <ele>322</ele>
        <time>2022-09-10T13:08:26Z</time>
      </trkpt>
      <trkpt lat="43.24844" lon="-0.92854">
        <ele>322.4</ele>
        <time>2022-09-10T13:08:32Z</time>
      </trkpt>
      <trkpt lat="43.24847" lon="-0.9286">
        <ele>322.6</ele>
        <time>2022-09-10T13:08:33Z</time>
      </trkpt>
      <trkpt lat="43.24865" lon="-0.92906">
        <ele>323</ele>
        <time>2022-09-10T13:08:41Z</time>
      </trkpt>
      <trkpt lat="43.24874" lon="-0.92921">
        <ele>323.2</ele>
        <time>2022-09-10T13:08:44Z</time>
      </trkpt>
      <trkpt lat="43.24885" lon="-0.92935">
        <ele>323.4</ele>
        <time>2022-09-10T13:08:47Z</time>
      </trkpt>
      <trkpt lat="43.24889" lon="-0.92939">
        <ele>323.2</ele>
        <time>2022-09-10T13:08:48Z</time>
      </trkpt>
      <trkpt lat="43.24911" lon="-0.92957">
        <ele>323.4</ele>
        <time>2022-09-10T13:08:54Z</time>
      </trkpt>
      <trkpt lat="43.24918" lon="-0.92964">
        <ele>323.6</ele>
        <time>2022-09-10T13:08:56Z</time>
      </trkpt>
      <trkpt lat="43.24945" lon="-0.92986">
        <ele>324.4</ele>
        <time>2022-09-10T13:09:03Z</time>
      </trkpt>
      <trkpt lat="43.24952" lon="-0.92993">
        <ele>324.6</ele>
        <time>2022-09-10T13:09:05Z</time>
      </trkpt>
      <trkpt lat="43.24969" lon="-0.9301">
        <ele>325.4</ele>
        <time>2022-09-10T13:09:11Z</time>
      </trkpt>
      <trkpt lat="43.24975" lon="-0.93016">
        <ele>325.6</ele>
        <time>2022-09-10T13:09:13Z</time>
      </trkpt>
      <trkpt lat="43.2499" lon="-0.93034">
        <ele>326.2</ele>
        <time>2022-09-10T13:09:19Z</time>
      </trkpt>
      <trkpt lat="43.24998" lon="-0.93041">
        <ele>326.6</ele>
        <time>2022-09-10T13:09:22Z</time>
      </trkpt>
      <trkpt lat="43.25007" lon="-0.93051">
        <ele>327.2</ele>
        <time>2022-09-10T13:09:26Z</time>
      </trkpt>
      <trkpt lat="43.25018" lon="-0.93065">
        <ele>327.6</ele>
        <time>2022-09-10T13:09:31Z</time>
      </trkpt>
      <trkpt lat="43.25026" lon="-0.93076">
        <ele>328.2</ele>
        <time>2022-09-10T13:09:35Z</time>
      </trkpt>
      <trkpt lat="43.25033" lon="-0.93089">
        <ele>328.8</ele>
        <time>2022-09-10T13:09:39Z</time>
      </trkpt>
      <trkpt lat="43.2504" lon="-0.93101">
        <ele>329.2</ele>
        <time>2022-09-10T13:09:43Z</time>
      </trkpt>
      <trkpt lat="43.25048" lon="-0.93116">
        <ele>330</ele>
        <time>2022-09-10T13:09:48Z</time>
      </trkpt>
      <trkpt lat="43.25054" lon="-0.93129">
        <ele>330.4</ele>
        <time>2022-09-10T13:09:52Z</time>
      </trkpt>
      <trkpt lat="43.25062" lon="-0.93144">
        <ele>331.2</ele>
        <time>2022-09-10T13:09:57Z</time>
      </trkpt>
      <trkpt lat="43.25063" lon="-0.93146">
        <ele>331.2</ele>
        <time>2022-09-10T13:09:58Z</time>
      </trkpt>
      <trkpt lat="43.25076" lon="-0.93173">
        <ele>332.2</ele>
        <time>2022-09-10T13:10:06Z</time>
      </trkpt>
      <trkpt lat="43.25078" lon="-0.9318">
        <ele>332.8</ele>
        <time>2022-09-10T13:10:08Z</time>
      </trkpt>
      <trkpt lat="43.25086" lon="-0.93197">
        <ele>333.4</ele>
        <time>2022-09-10T13:10:13Z</time>
      </trkpt>
      <trkpt lat="43.25088" lon="-0.932">
        <ele>333.6</ele>
        <time>2022-09-10T13:10:14Z</time>
      </trkpt>
      <trkpt lat="43.251" lon="-0.93231">
        <ele>334.6</ele>
        <time>2022-09-10T13:10:23Z</time>
      </trkpt>
      <trkpt lat="43.25119" lon="-0.9327">
        <ele>335.6</ele>
        <time>2022-09-10T13:10:35Z</time>
      </trkpt>
      <trkpt lat="43.25132" lon="-0.93294">
        <ele>336.6</ele>
        <time>2022-09-10T13:10:43Z</time>
      </trkpt>
      <trkpt lat="43.25137" lon="-0.93299">
        <ele>336.6</ele>
        <time>2022-09-10T13:10:45Z</time>
      </trkpt>
      <trkpt lat="43.25144" lon="-0.9331">
        <ele>337.2</ele>
        <time>2022-09-10T13:10:49Z</time>
      </trkpt>
      <trkpt lat="43.25151" lon="-0.93322">
        <ele>337.8</ele>
        <time>2022-09-10T13:10:53Z</time>
      </trkpt>
      <trkpt lat="43.25161" lon="-0.93336">
        <ele>338.4</ele>
        <time>2022-09-10T13:10:58Z</time>
      </trkpt>
      <trkpt lat="43.25167" lon="-0.93344">
        <ele>338.8</ele>
        <time>2022-09-10T13:11:01Z</time>
      </trkpt>
      <trkpt lat="43.25178" lon="-0.93356">
        <ele>339.6</ele>
        <time>2022-09-10T13:11:06Z</time>
      </trkpt>
      <trkpt lat="43.25184" lon="-0.93364">
        <ele>339.8</ele>
        <time>2022-09-10T13:11:09Z</time>
      </trkpt>
      <trkpt lat="43.25199" lon="-0.9338">
        <ele>340.6</ele>
        <time>2022-09-10T13:11:16Z</time>
      </trkpt>
      <trkpt lat="43.25208" lon="-0.9339">
        <ele>341</ele>
        <time>2022-09-10T13:11:20Z</time>
      </trkpt>
      <trkpt lat="43.25216" lon="-0.93401">
        <ele>341.6</ele>
        <time>2022-09-10T13:11:24Z</time>
      </trkpt>
      <trkpt lat="43.25224" lon="-0.93411">
        <ele>342.2</ele>
        <time>2022-09-10T13:11:28Z</time>
      </trkpt>
      <trkpt lat="43.25235" lon="-0.93423">
        <ele>342.8</ele>
        <time>2022-09-10T13:11:33Z</time>
      </trkpt>
      <trkpt lat="43.25239" lon="-0.93428">
        <ele>343.2</ele>
        <time>2022-09-10T13:11:35Z</time>
      </trkpt>
      <trkpt lat="43.25254" lon="-0.93439">
        <ele>343.8</ele>
        <time>2022-09-10T13:11:41Z</time>
      </trkpt>
      <trkpt lat="43.25262" lon="-0.93444">
        <ele>344.2</ele>
        <time>2022-09-10T13:11:45Z</time>
      </trkpt>
      <trkpt lat="43.25265" lon="-0.93447">
        <ele>344.4</ele>
        <time>2022-09-10T13:11:47Z</time>
      </trkpt>
      <trkpt lat="43.25275" lon="-0.93453">
        <ele>344.8</ele>
        <time>2022-09-10T13:11:53Z</time>
      </trkpt>
      <trkpt lat="43.25279" lon="-0.93455">
        <ele>345</ele>
        <time>2022-09-10T13:12:34Z</time>
      </trkpt>
      <trkpt lat="43.25281" lon="-0.93455">
        <ele>345</ele>
        <time>2022-09-10T13:12:35Z</time>
      </trkpt>
      <trkpt lat="43.25285" lon="-0.93456">
        <ele>345.2</ele>
        <time>2022-09-10T13:12:37Z</time>
      </trkpt>
      <trkpt lat="43.25295" lon="-0.9346">
        <ele>345.4</ele>
        <time>2022-09-10T13:12:41Z</time>
      </trkpt>
      <trkpt lat="43.25307" lon="-0.93464">
        <ele>346.2</ele>
        <time>2022-09-10T13:12:46Z</time>
      </trkpt>
      <trkpt lat="43.25312" lon="-0.93466">
        <ele>346.4</ele>
        <time>2022-09-10T13:12:48Z</time>
      </trkpt>
      <trkpt lat="43.25336" lon="-0.93474">
        <ele>347.2</ele>
        <time>2022-09-10T13:12:57Z</time>
      </trkpt>
      <trkpt lat="43.25338" lon="-0.93475">
        <ele>347.2</ele>
        <time>2022-09-10T13:12:58Z</time>
      </trkpt>
      <trkpt lat="43.25354" lon="-0.9348">
        <ele>347.2</ele>
        <time>2022-09-10T13:13:05Z</time>
      </trkpt>
      <trkpt lat="43.2536" lon="-0.93479">
        <ele>347.4</ele>
        <time>2022-09-10T13:14:45Z</time>
      </trkpt>
      <trkpt lat="43.25374" lon="-0.93476">
        <ele>347.6</ele>
        <time>2022-09-10T13:14:51Z</time>
      </trkpt>
      <trkpt lat="43.25391" lon="-0.9348">
        <ele>347.8</ele>
        <time>2022-09-10T13:14:58Z</time>
      </trkpt>
      <trkpt lat="43.25416" lon="-0.93486">
        <ele>346.8</ele>
        <time>2022-09-10T13:15:04Z</time>
      </trkpt>
      <trkpt lat="43.25451" lon="-0.93493">
        <ele>346.4</ele>
        <time>2022-09-10T13:15:11Z</time>
      </trkpt>
      <trkpt lat="43.25457" lon="-0.93493">
        <ele>346</ele>
        <time>2022-09-10T13:15:12Z</time>
      </trkpt>
      <trkpt lat="43.25476" lon="-0.93497">
        <ele>344.8</ele>
        <time>2022-09-10T13:15:15Z</time>
      </trkpt>
      <trkpt lat="43.25489" lon="-0.935">
        <ele>344.2</ele>
        <time>2022-09-10T13:15:17Z</time>
      </trkpt>
      <trkpt lat="43.25503" lon="-0.93501">
        <ele>343.8</ele>
        <time>2022-09-10T13:15:19Z</time>
      </trkpt>
      <trkpt lat="43.2554" lon="-0.93507">
        <ele>342.4</ele>
        <time>2022-09-10T13:15:24Z</time>
      </trkpt>
      <trkpt lat="43.25548" lon="-0.93507">
        <ele>342</ele>
        <time>2022-09-10T13:15:25Z</time>
      </trkpt>
      <trkpt lat="43.25569" lon="-0.93502">
        <ele>341.6</ele>
        <time>2022-09-10T13:15:28Z</time>
      </trkpt>
      <trkpt lat="43.25577" lon="-0.93501">
        <ele>340.8</ele>
        <time>2022-09-10T13:15:29Z</time>
      </trkpt>
      <trkpt lat="43.25606" lon="-0.93491">
        <ele>339.8</ele>
        <time>2022-09-10T13:15:33Z</time>
      </trkpt>
      <trkpt lat="43.25629" lon="-0.93484">
        <ele>338.8</ele>
        <time>2022-09-10T13:15:36Z</time>
      </trkpt>
      <trkpt lat="43.25637" lon="-0.93481">
        <ele>338.4</ele>
        <time>2022-09-10T13:15:37Z</time>
      </trkpt>
      <trkpt lat="43.2566" lon="-0.93479">
        <ele>337.8</ele>
        <time>2022-09-10T13:15:40Z</time>
      </trkpt>
      <trkpt lat="43.25668" lon="-0.93484">
        <ele>337.4</ele>
        <time>2022-09-10T13:15:41Z</time>
      </trkpt>
      <trkpt lat="43.25675" lon="-0.9349">
        <ele>337.2</ele>
        <time>2022-09-10T13:15:42Z</time>
      </trkpt>
      <trkpt lat="43.25688" lon="-0.93503">
        <ele>336.4</ele>
        <time>2022-09-10T13:15:44Z</time>
      </trkpt>
      <trkpt lat="43.25696" lon="-0.93508">
        <ele>336</ele>
        <time>2022-09-10T13:15:45Z</time>
      </trkpt>
      <trkpt lat="43.25727" lon="-0.93524">
        <ele>334.4</ele>
        <time>2022-09-10T13:15:49Z</time>
      </trkpt>
      <trkpt lat="43.25735" lon="-0.93528">
        <ele>334</ele>
        <time>2022-09-10T13:15:50Z</time>
      </trkpt>
      <trkpt lat="43.25759" lon="-0.93542">
        <ele>333</ele>
        <time>2022-09-10T13:15:53Z</time>
      </trkpt>
      <trkpt lat="43.25783" lon="-0.9356">
        <ele>332</ele>
        <time>2022-09-10T13:15:56Z</time>
      </trkpt>
      <trkpt lat="43.25805" lon="-0.93582">
        <ele>331</ele>
        <time>2022-09-10T13:15:59Z</time>
      </trkpt>
      <trkpt lat="43.25818" lon="-0.93601">
        <ele>330.4</ele>
        <time>2022-09-10T13:16:01Z</time>
      </trkpt>
      <trkpt lat="43.25828" lon="-0.93621">
        <ele>330</ele>
        <time>2022-09-10T13:16:03Z</time>
      </trkpt>
      <trkpt lat="43.25846" lon="-0.93651">
        <ele>328.8</ele>
        <time>2022-09-10T13:16:06Z</time>
      </trkpt>
      <trkpt lat="43.25864" lon="-0.9368">
        <ele>327.6</ele>
        <time>2022-09-10T13:16:09Z</time>
      </trkpt>
      <trkpt lat="43.25876" lon="-0.937">
        <ele>326.6</ele>
        <time>2022-09-10T13:16:11Z</time>
      </trkpt>
      <trkpt lat="43.25887" lon="-0.93722">
        <ele>325.2</ele>
        <time>2022-09-10T13:16:13Z</time>
      </trkpt>
      <trkpt lat="43.25902" lon="-0.93759">
        <ele>324</ele>
        <time>2022-09-10T13:16:16Z</time>
      </trkpt>
      <trkpt lat="43.25914" lon="-0.93781">
        <ele>323.8</ele>
        <time>2022-09-10T13:16:18Z</time>
      </trkpt>
      <trkpt lat="43.25926" lon="-0.93803">
        <ele>322.6</ele>
        <time>2022-09-10T13:16:20Z</time>
      </trkpt>
      <trkpt lat="43.25939" lon="-0.93825">
        <ele>321.4</ele>
        <time>2022-09-10T13:16:22Z</time>
      </trkpt>
      <trkpt lat="43.25961" lon="-0.93856">
        <ele>320</ele>
        <time>2022-09-10T13:16:25Z</time>
      </trkpt>
      <trkpt lat="43.25987" lon="-0.93881">
        <ele>319</ele>
        <time>2022-09-10T13:16:28Z</time>
      </trkpt>
      <trkpt lat="43.25997" lon="-0.93887">
        <ele>318.8</ele>
        <time>2022-09-10T13:16:29Z</time>
      </trkpt>
      <trkpt lat="43.26025" lon="-0.93904">
        <ele>318</ele>
        <time>2022-09-10T13:16:32Z</time>
      </trkpt>
      <trkpt lat="43.26053" lon="-0.93921">
        <ele>316.4</ele>
        <time>2022-09-10T13:16:35Z</time>
      </trkpt>
      <trkpt lat="43.26061" lon="-0.93926">
        <ele>316</ele>
        <time>2022-09-10T13:16:36Z</time>
      </trkpt>
      <trkpt lat="43.26068" lon="-0.93932">
        <ele>315.2</ele>
        <time>2022-09-10T13:16:37Z</time>
      </trkpt>
      <trkpt lat="43.26074" lon="-0.93938">
        <ele>314.8</ele>
        <time>2022-09-10T13:16:38Z</time>
      </trkpt>
      <trkpt lat="43.26078" lon="-0.93944">
        <ele>314.4</ele>
        <time>2022-09-10T13:16:39Z</time>
      </trkpt>
      <trkpt lat="43.26081" lon="-0.93949">
        <ele>314.2</ele>
        <time>2022-09-10T13:16:40Z</time>
      </trkpt>
      <trkpt lat="43.26086" lon="-0.93956">
        <ele>313.2</ele>
        <time>2022-09-10T13:16:42Z</time>
      </trkpt>
      <trkpt lat="43.26088" lon="-0.93959">
        <ele>313</ele>
        <time>2022-09-10T13:16:43Z</time>
      </trkpt>
      <trkpt lat="43.26095" lon="-0.9397">
        <ele>312.6</ele>
        <time>2022-09-10T13:16:48Z</time>
      </trkpt>
      <trkpt lat="43.26108" lon="-0.93982">
        <ele>312.6</ele>
        <time>2022-09-10T13:18:43Z</time>
      </trkpt>
      <trkpt lat="43.26127" lon="-0.93999">
        <ele>312.4</ele>
        <time>2022-09-10T13:18:49Z</time>
      </trkpt>
      <trkpt lat="43.26148" lon="-0.94014">
        <ele>312.4</ele>
        <time>2022-09-10T13:18:54Z</time>
      </trkpt>
      <trkpt lat="43.26152" lon="-0.94016">
        <ele>312.4</ele>
        <time>2022-09-10T13:18:55Z</time>
      </trkpt>
      <trkpt lat="43.26179" lon="-0.94021">
        <ele>311.8</ele>
        <time>2022-09-10T13:19:01Z</time>
      </trkpt>
      <trkpt lat="43.26183" lon="-0.94021">
        <ele>311.8</ele>
        <time>2022-09-10T13:19:02Z</time>
      </trkpt>
      <trkpt lat="43.26217" lon="-0.94021">
        <ele>311.2</ele>
        <time>2022-09-10T13:19:09Z</time>
      </trkpt>
      <trkpt lat="43.26228" lon="-0.94018">
        <ele>311.2</ele>
        <time>2022-09-10T13:19:12Z</time>
      </trkpt>
      <trkpt lat="43.26229" lon="-0.94014">
        <ele>311.4</ele>
        <time>2022-09-10T13:19:13Z</time>
      </trkpt>
      <trkpt lat="43.26234" lon="-0.94015">
        <ele>311.2</ele>
        <time>2022-09-10T13:19:16Z</time>
      </trkpt>
      <trkpt lat="43.26235" lon="-0.94017">
        <ele>310.8</ele>
        <time>2022-09-10T13:19:18Z</time>
      </trkpt>
      <trkpt lat="43.26237" lon="-0.94022">
        <ele>310.6</ele>
        <time>2022-09-10T13:21:57Z</time>
      </trkpt>
      <trkpt lat="43.26241" lon="-0.94026">
        <ele>310.6</ele>
        <time>2022-09-10T13:21:59Z</time>
      </trkpt>
      <trkpt lat="43.26254" lon="-0.9404">
        <ele>309.8</ele>
        <time>2022-09-10T13:22:03Z</time>
      </trkpt>
      <trkpt lat="43.26258" lon="-0.94045">
        <ele>309.6</ele>
        <time>2022-09-10T13:22:04Z</time>
      </trkpt>
      <trkpt lat="43.2627" lon="-0.94066">
        <ele>308.8</ele>
        <time>2022-09-10T13:22:07Z</time>
      </trkpt>
      <trkpt lat="43.26275" lon="-0.94074">
        <ele>308.2</ele>
        <time>2022-09-10T13:22:08Z</time>
      </trkpt>
      <trkpt lat="43.26285" lon="-0.94091">
        <ele>307</ele>
        <time>2022-09-10T13:22:10Z</time>
      </trkpt>
      <trkpt lat="43.26295" lon="-0.9411">
        <ele>306</ele>
        <time>2022-09-10T13:22:12Z</time>
      </trkpt>
      <trkpt lat="43.26307" lon="-0.9413">
        <ele>304.8</ele>
        <time>2022-09-10T13:22:14Z</time>
      </trkpt>
      <trkpt lat="43.26319" lon="-0.94153">
        <ele>303.4</ele>
        <time>2022-09-10T13:22:16Z</time>
      </trkpt>
      <trkpt lat="43.26326" lon="-0.94164">
        <ele>303</ele>
        <time>2022-09-10T13:22:17Z</time>
      </trkpt>
      <trkpt lat="43.26332" lon="-0.94176">
        <ele>302.4</ele>
        <time>2022-09-10T13:22:18Z</time>
      </trkpt>
      <trkpt lat="43.26358" lon="-0.94219">
        <ele>301.4</ele>
        <time>2022-09-10T13:22:22Z</time>
      </trkpt>
      <trkpt lat="43.26371" lon="-0.9424">
        <ele>301.4</ele>
        <time>2022-09-10T13:22:24Z</time>
      </trkpt>
      <trkpt lat="43.26406" lon="-0.94297">
        <ele>301.4</ele>
        <time>2022-09-10T13:22:30Z</time>
      </trkpt>
      <trkpt lat="43.26428" lon="-0.94334">
        <ele>302.4</ele>
        <time>2022-09-10T13:22:35Z</time>
      </trkpt>
      <trkpt lat="43.26437" lon="-0.94351">
        <ele>303.6</ele>
        <time>2022-09-10T13:22:38Z</time>
      </trkpt>
      <trkpt lat="43.26443" lon="-0.94362">
        <ele>304</ele>
        <time>2022-09-10T13:22:40Z</time>
      </trkpt>
      <trkpt lat="43.26455" lon="-0.94387">
        <ele>304.8</ele>
        <time>2022-09-10T13:22:45Z</time>
      </trkpt>
      <trkpt lat="43.26462" lon="-0.94401">
        <ele>305.2</ele>
        <time>2022-09-10T13:22:48Z</time>
      </trkpt>
      <trkpt lat="43.26475" lon="-0.94428">
        <ele>306</ele>
        <time>2022-09-10T13:22:54Z</time>
      </trkpt>
      <trkpt lat="43.26481" lon="-0.9444">
        <ele>306.4</ele>
        <time>2022-09-10T13:22:57Z</time>
      </trkpt>
      <trkpt lat="43.26489" lon="-0.94458">
        <ele>307</ele>
        <time>2022-09-10T13:23:01Z</time>
      </trkpt>
      <trkpt lat="43.26496" lon="-0.94474">
        <ele>307.8</ele>
        <time>2022-09-10T13:23:05Z</time>
      </trkpt>
      <trkpt lat="43.26497" lon="-0.94477">
        <ele>308</ele>
        <time>2022-09-10T13:23:06Z</time>
      </trkpt>
      <trkpt lat="43.26504" lon="-0.94494">
        <ele>309.2</ele>
        <time>2022-09-10T13:23:11Z</time>
      </trkpt>
      <trkpt lat="43.26509" lon="-0.94505">
        <ele>310.2</ele>
        <time>2022-09-10T13:23:15Z</time>
      </trkpt>
      <trkpt lat="43.2651" lon="-0.94507">
        <ele>310.4</ele>
        <time>2022-09-10T13:23:16Z</time>
      </trkpt>
      <trkpt lat="43.26514" lon="-0.94519">
        <ele>311.2</ele>
        <time>2022-09-10T13:23:22Z</time>
      </trkpt>
      <trkpt lat="43.26516" lon="-0.94522">
        <ele>311.4</ele>
        <time>2022-09-10T13:23:23Z</time>
      </trkpt>
      <trkpt lat="43.26521" lon="-0.94535">
        <ele>312.2</ele>
        <time>2022-09-10T13:23:28Z</time>
      </trkpt>
      <trkpt lat="43.26523" lon="-0.94544">
        <ele>312.6</ele>
        <time>2022-09-10T13:23:31Z</time>
      </trkpt>
      <trkpt lat="43.26528" lon="-0.94556">
        <ele>313.4</ele>
        <time>2022-09-10T13:23:36Z</time>
      </trkpt>
      <trkpt lat="43.26528" lon="-0.94559">
        <ele>313.6</ele>
        <time>2022-09-10T13:23:37Z</time>
      </trkpt>
      <trkpt lat="43.26535" lon="-0.94572">
        <ele>314.2</ele>
        <time>2022-09-10T13:23:42Z</time>
      </trkpt>
      <trkpt lat="43.26536" lon="-0.94577">
        <ele>314.4</ele>
        <time>2022-09-10T13:23:44Z</time>
      </trkpt>
      <trkpt lat="43.2654" lon="-0.94589">
        <ele>315</ele>
        <time>2022-09-10T13:23:49Z</time>
      </trkpt>
      <trkpt lat="43.26544" lon="-0.94598">
        <ele>315.4</ele>
        <time>2022-09-10T13:23:52Z</time>
      </trkpt>
      <trkpt lat="43.26547" lon="-0.94609">
        <ele>315.6</ele>
        <time>2022-09-10T13:23:56Z</time>
      </trkpt>
      <trkpt lat="43.26556" lon="-0.94631">
        <ele>316.4</ele>
        <time>2022-09-10T13:24:04Z</time>
      </trkpt>
      <trkpt lat="43.2656" lon="-0.94643">
        <ele>316.6</ele>
        <time>2022-09-10T13:24:08Z</time>
      </trkpt>
      <trkpt lat="43.26564" lon="-0.94653">
        <ele>316.4</ele>
        <time>2022-09-10T13:24:11Z</time>
      </trkpt>
      <trkpt lat="43.26573" lon="-0.94676">
        <ele>315.8</ele>
        <time>2022-09-10T13:24:17Z</time>
      </trkpt>
      <trkpt lat="43.2658" lon="-0.94692">
        <ele>315.4</ele>
        <time>2022-09-10T13:24:20Z</time>
      </trkpt>
      <trkpt lat="43.26585" lon="-0.94705">
        <ele>315</ele>
        <time>2022-09-10T13:24:22Z</time>
      </trkpt>
      <trkpt lat="43.26591" lon="-0.9472">
        <ele>314.4</ele>
        <time>2022-09-10T13:24:24Z</time>
      </trkpt>
      <trkpt lat="43.26604" lon="-0.94746">
        <ele>313</ele>
        <time>2022-09-10T13:24:27Z</time>
      </trkpt>
      <trkpt lat="43.26621" lon="-0.94773">
        <ele>311.8</ele>
        <time>2022-09-10T13:24:30Z</time>
      </trkpt>
      <trkpt lat="43.26628" lon="-0.9478">
        <ele>311.4</ele>
        <time>2022-09-10T13:24:31Z</time>
      </trkpt>
      <trkpt lat="43.26647" lon="-0.94787">
        <ele>310.6</ele>
        <time>2022-09-10T13:24:33Z</time>
      </trkpt>
      <trkpt lat="43.26657" lon="-0.94789">
        <ele>310.6</ele>
        <time>2022-09-10T13:24:34Z</time>
      </trkpt>
      <trkpt lat="43.26677" lon="-0.94787">
        <ele>309.4</ele>
        <time>2022-09-10T13:24:36Z</time>
      </trkpt>
      <trkpt lat="43.26686" lon="-0.94781">
        <ele>307.4</ele>
        <time>2022-09-10T13:24:37Z</time>
      </trkpt>
      <trkpt lat="43.26701" lon="-0.94766">
        <ele>306.6</ele>
        <time>2022-09-10T13:24:39Z</time>
      </trkpt>
      <trkpt lat="43.26709" lon="-0.94763">
        <ele>306</ele>
        <time>2022-09-10T13:24:40Z</time>
      </trkpt>
      <trkpt lat="43.26724" lon="-0.94771">
        <ele>304.4</ele>
        <time>2022-09-10T13:24:42Z</time>
      </trkpt>
      <trkpt lat="43.26732" lon="-0.94792">
        <ele>302.8</ele>
        <time>2022-09-10T13:24:44Z</time>
      </trkpt>
      <trkpt lat="43.26733" lon="-0.94815">
        <ele>301.4</ele>
        <time>2022-09-10T13:24:46Z</time>
      </trkpt>
      <trkpt lat="43.26733" lon="-0.94826">
        <ele>300.6</ele>
        <time>2022-09-10T13:24:47Z</time>
      </trkpt>
      <trkpt lat="43.26734" lon="-0.94836">
        <ele>300</ele>
        <time>2022-09-10T13:24:48Z</time>
      </trkpt>
      <trkpt lat="43.26735" lon="-0.9487">
        <ele>299</ele>
        <time>2022-09-10T13:24:51Z</time>
      </trkpt>
      <trkpt lat="43.26737" lon="-0.94881">
        <ele>298.4</ele>
        <time>2022-09-10T13:24:52Z</time>
      </trkpt>
      <trkpt lat="43.2674" lon="-0.94905">
        <ele>297.6</ele>
        <time>2022-09-10T13:24:54Z</time>
      </trkpt>
      <trkpt lat="43.26747" lon="-0.94943">
        <ele>296.4</ele>
        <time>2022-09-10T13:24:57Z</time>
      </trkpt>
      <trkpt lat="43.26754" lon="-0.9497">
        <ele>295.4</ele>
        <time>2022-09-10T13:24:59Z</time>
      </trkpt>
      <trkpt lat="43.26758" lon="-0.94984">
        <ele>294.8</ele>
        <time>2022-09-10T13:25:00Z</time>
      </trkpt>
      <trkpt lat="43.26764" lon="-0.94997">
        <ele>293.4</ele>
        <time>2022-09-10T13:25:01Z</time>
      </trkpt>
      <trkpt lat="43.26774" lon="-0.95025">
        <ele>291.8</ele>
        <time>2022-09-10T13:25:03Z</time>
      </trkpt>
      <trkpt lat="43.26786" lon="-0.95052">
        <ele>290.6</ele>
        <time>2022-09-10T13:25:05Z</time>
      </trkpt>
      <trkpt lat="43.26798" lon="-0.95078">
        <ele>289.6</ele>
        <time>2022-09-10T13:25:07Z</time>
      </trkpt>
      <trkpt lat="43.26804" lon="-0.95091">
        <ele>289.4</ele>
        <time>2022-09-10T13:25:08Z</time>
      </trkpt>
      <trkpt lat="43.26816" lon="-0.95113">
        <ele>289.6</ele>
        <time>2022-09-10T13:25:10Z</time>
      </trkpt>
      <trkpt lat="43.26823" lon="-0.95122">
        <ele>289.4</ele>
        <time>2022-09-10T13:25:11Z</time>
      </trkpt>
      <trkpt lat="43.26857" lon="-0.95165">
        <ele>289</ele>
        <time>2022-09-10T13:25:16Z</time>
      </trkpt>
      <trkpt lat="43.26868" lon="-0.95182">
        <ele>289.4</ele>
        <time>2022-09-10T13:25:18Z</time>
      </trkpt>
      <trkpt lat="43.26874" lon="-0.95203">
        <ele>289.4</ele>
        <time>2022-09-10T13:25:20Z</time>
      </trkpt>
      <trkpt lat="43.2687" lon="-0.95234">
        <ele>288.6</ele>
        <time>2022-09-10T13:25:23Z</time>
      </trkpt>
      <trkpt lat="43.26868" lon="-0.95244">
        <ele>288.2</ele>
        <time>2022-09-10T13:25:24Z</time>
      </trkpt>
      <trkpt lat="43.26857" lon="-0.95292">
        <ele>287.2</ele>
        <time>2022-09-10T13:25:29Z</time>
      </trkpt>
      <trkpt lat="43.26855" lon="-0.95301">
        <ele>287.2</ele>
        <time>2022-09-10T13:25:30Z</time>
      </trkpt>
      <trkpt lat="43.26844" lon="-0.95372">
        <ele>286.8</ele>
        <time>2022-09-10T13:25:38Z</time>
      </trkpt>
      <trkpt lat="43.26838" lon="-0.95427">
        <ele>286</ele>
        <time>2022-09-10T13:25:45Z</time>
      </trkpt>
      <trkpt lat="43.26836" lon="-0.95456">
        <ele>285.6</ele>
        <time>2022-09-10T13:25:50Z</time>
      </trkpt>
      <trkpt lat="43.26836" lon="-0.95468">
        <ele>285</ele>
        <time>2022-09-10T13:25:54Z</time>
      </trkpt>
      <trkpt lat="43.26836" lon="-0.9547">
        <ele>285</ele>
        <time>2022-09-10T13:25:55Z</time>
      </trkpt>
      <trkpt lat="43.26834" lon="-0.95481">
        <ele>284.6</ele>
        <time>2022-09-10T13:26:00Z</time>
      </trkpt>
      <trkpt lat="43.26835" lon="-0.95493">
        <ele>284.2</ele>
        <time>2022-09-10T13:30:42Z</time>
      </trkpt>
      <trkpt lat="43.26835" lon="-0.95514">
        <ele>284.2</ele>
        <time>2022-09-10T13:30:47Z</time>
      </trkpt>
      <trkpt lat="43.26838" lon="-0.9555">
        <ele>284.2</ele>
        <time>2022-09-10T13:30:54Z</time>
      </trkpt>
      <trkpt lat="43.26839" lon="-0.95567">
        <ele>284</ele>
        <time>2022-09-10T13:30:57Z</time>
      </trkpt>
      <trkpt lat="43.26839" lon="-0.95584">
        <ele>284.2</ele>
        <time>2022-09-10T13:31:00Z</time>
      </trkpt>
      <trkpt lat="43.26838" lon="-0.95591">
        <ele>284.2</ele>
        <time>2022-09-10T13:31:01Z</time>
      </trkpt>
      <trkpt lat="43.26834" lon="-0.95606">
        <ele>284.8</ele>
        <time>2022-09-10T13:31:04Z</time>
      </trkpt>
      <trkpt lat="43.26834" lon="-0.95611">
        <ele>284.8</ele>
        <time>2022-09-10T13:31:05Z</time>
      </trkpt>
      <trkpt lat="43.26827" lon="-0.95641">
        <ele>285.6</ele>
        <time>2022-09-10T13:31:11Z</time>
      </trkpt>
      <trkpt lat="43.26821" lon="-0.95655">
        <ele>286</ele>
        <time>2022-09-10T13:31:14Z</time>
      </trkpt>
      <trkpt lat="43.26818" lon="-0.95665">
        <ele>286.4</ele>
        <time>2022-09-10T13:31:16Z</time>
      </trkpt>
      <trkpt lat="43.26813" lon="-0.95685">
        <ele>287</ele>
        <time>2022-09-10T13:31:20Z</time>
      </trkpt>
      <trkpt lat="43.2681" lon="-0.95704">
        <ele>287.8</ele>
        <time>2022-09-10T13:31:24Z</time>
      </trkpt>
      <trkpt lat="43.26809" lon="-0.95709">
        <ele>288</ele>
        <time>2022-09-10T13:31:25Z</time>
      </trkpt>
      <trkpt lat="43.26805" lon="-0.95738">
        <ele>289</ele>
        <time>2022-09-10T13:31:31Z</time>
      </trkpt>
      <trkpt lat="43.26805" lon="-0.95742">
        <ele>289.2</ele>
        <time>2022-09-10T13:31:32Z</time>
      </trkpt>
      <trkpt lat="43.26803" lon="-0.95768">
        <ele>289.4</ele>
        <time>2022-09-10T13:31:38Z</time>
      </trkpt>
      <trkpt lat="43.268" lon="-0.95793">
        <ele>289.6</ele>
        <time>2022-09-10T13:31:44Z</time>
      </trkpt>
      <trkpt lat="43.26798" lon="-0.95816">
        <ele>289.4</ele>
        <time>2022-09-10T13:31:50Z</time>
      </trkpt>
      <trkpt lat="43.26793" lon="-0.95847">
        <ele>289.6</ele>
        <time>2022-09-10T13:31:57Z</time>
      </trkpt>
      <trkpt lat="43.26791" lon="-0.95871">
        <ele>289.8</ele>
        <time>2022-09-10T13:32:02Z</time>
      </trkpt>
      <trkpt lat="43.26789" lon="-0.95904">
        <ele>289.4</ele>
        <time>2022-09-10T13:32:08Z</time>
      </trkpt>
      <trkpt lat="43.26787" lon="-0.95943">
        <ele>289</ele>
        <time>2022-09-10T13:32:14Z</time>
      </trkpt>
      <trkpt lat="43.26786" lon="-0.95957">
        <ele>288.8</ele>
        <time>2022-09-10T13:32:16Z</time>
      </trkpt>
      <trkpt lat="43.26787" lon="-0.95994">
        <ele>288.6</ele>
        <time>2022-09-10T13:32:21Z</time>
      </trkpt>
      <trkpt lat="43.26789" lon="-0.96008">
        <ele>288.4</ele>
        <time>2022-09-10T13:32:23Z</time>
      </trkpt>
      <trkpt lat="43.2679" lon="-0.96023">
        <ele>288</ele>
        <time>2022-09-10T13:32:25Z</time>
      </trkpt>
      <trkpt lat="43.26795" lon="-0.96061">
        <ele>287.6</ele>
        <time>2022-09-10T13:32:30Z</time>
      </trkpt>
      <trkpt lat="43.26806" lon="-0.96105">
        <ele>287.2</ele>
        <time>2022-09-10T13:32:36Z</time>
      </trkpt>
      <trkpt lat="43.26809" lon="-0.96112">
        <ele>287</ele>
        <time>2022-09-10T13:32:37Z</time>
      </trkpt>
      <trkpt lat="43.26813" lon="-0.96125">
        <ele>287</ele>
        <time>2022-09-10T13:32:39Z</time>
      </trkpt>
      <trkpt lat="43.26826" lon="-0.96154">
        <ele>286.8</ele>
        <time>2022-09-10T13:32:44Z</time>
      </trkpt>
      <trkpt lat="43.26846" lon="-0.96191">
        <ele>286.4</ele>
        <time>2022-09-10T13:32:51Z</time>
      </trkpt>
      <trkpt lat="43.26859" lon="-0.96212">
        <ele>286</ele>
        <time>2022-09-10T13:32:55Z</time>
      </trkpt>
      <trkpt lat="43.2687" lon="-0.96229">
        <ele>285.8</ele>
        <time>2022-09-10T13:32:58Z</time>
      </trkpt>
      <trkpt lat="43.26874" lon="-0.96234">
        <ele>286</ele>
        <time>2022-09-10T13:32:59Z</time>
      </trkpt>
      <trkpt lat="43.26904" lon="-0.96268">
        <ele>284.8</ele>
        <time>2022-09-10T13:33:06Z</time>
      </trkpt>
      <trkpt lat="43.26908" lon="-0.96272">
        <ele>284.8</ele>
        <time>2022-09-10T13:33:07Z</time>
      </trkpt>
      <trkpt lat="43.26946" lon="-0.96308">
        <ele>283.8</ele>
        <time>2022-09-10T13:33:15Z</time>
      </trkpt>
      <trkpt lat="43.26984" lon="-0.96343">
        <ele>283</ele>
        <time>2022-09-10T13:33:22Z</time>
      </trkpt>
      <trkpt lat="43.2699" lon="-0.9635">
        <ele>282.4</ele>
        <time>2022-09-10T13:33:23Z</time>
      </trkpt>
      <trkpt lat="43.27004" lon="-0.96363">
        <ele>281.2</ele>
        <time>2022-09-10T13:33:25Z</time>
      </trkpt>
      <trkpt lat="43.27012" lon="-0.9637">
        <ele>280.2</ele>
        <time>2022-09-10T13:33:26Z</time>
      </trkpt>
      <trkpt lat="43.2702" lon="-0.96378">
        <ele>279.6</ele>
        <time>2022-09-10T13:33:27Z</time>
      </trkpt>
      <trkpt lat="43.27028" lon="-0.96385">
        <ele>279</ele>
        <time>2022-09-10T13:33:28Z</time>
      </trkpt>
      <trkpt lat="43.27045" lon="-0.964">
        <ele>278</ele>
        <time>2022-09-10T13:33:30Z</time>
      </trkpt>
      <trkpt lat="43.27064" lon="-0.96416">
        <ele>276.4</ele>
        <time>2022-09-10T13:33:32Z</time>
      </trkpt>
      <trkpt lat="43.27073" lon="-0.96424">
        <ele>275.8</ele>
        <time>2022-09-10T13:33:33Z</time>
      </trkpt>
      <trkpt lat="43.27083" lon="-0.96432">
        <ele>275</ele>
        <time>2022-09-10T13:33:34Z</time>
      </trkpt>
      <trkpt lat="43.27102" lon="-0.96448">
        <ele>273.6</ele>
        <time>2022-09-10T13:33:36Z</time>
      </trkpt>
      <trkpt lat="43.27122" lon="-0.96465">
        <ele>272</ele>
        <time>2022-09-10T13:33:38Z</time>
      </trkpt>
      <trkpt lat="43.27142" lon="-0.96483">
        <ele>270.4</ele>
        <time>2022-09-10T13:33:40Z</time>
      </trkpt>
      <trkpt lat="43.27151" lon="-0.96493">
        <ele>270</ele>
        <time>2022-09-10T13:33:41Z</time>
      </trkpt>
      <trkpt lat="43.2716" lon="-0.96504">
        <ele>269.4</ele>
        <time>2022-09-10T13:33:42Z</time>
      </trkpt>
      <trkpt lat="43.27176" lon="-0.96527">
        <ele>267.8</ele>
        <time>2022-09-10T13:33:44Z</time>
      </trkpt>
      <trkpt lat="43.27184" lon="-0.96538">
        <ele>266.8</ele>
        <time>2022-09-10T13:33:45Z</time>
      </trkpt>
      <trkpt lat="43.27208" lon="-0.96571">
        <ele>265.6</ele>
        <time>2022-09-10T13:33:48Z</time>
      </trkpt>
      <trkpt lat="43.27224" lon="-0.9659">
        <ele>263.8</ele>
        <time>2022-09-10T13:33:50Z</time>
      </trkpt>
      <trkpt lat="43.27233" lon="-0.96598">
        <ele>263.4</ele>
        <time>2022-09-10T13:33:51Z</time>
      </trkpt>
      <trkpt lat="43.27243" lon="-0.96604">
        <ele>263</ele>
        <time>2022-09-10T13:33:52Z</time>
      </trkpt>
      <trkpt lat="43.27252" lon="-0.9661">
        <ele>262.6</ele>
        <time>2022-09-10T13:33:53Z</time>
      </trkpt>
      <trkpt lat="43.27261" lon="-0.96613">
        <ele>262.2</ele>
        <time>2022-09-10T13:33:54Z</time>
      </trkpt>
      <trkpt lat="43.27279" lon="-0.96619">
        <ele>261.6</ele>
        <time>2022-09-10T13:33:56Z</time>
      </trkpt>
      <trkpt lat="43.27297" lon="-0.96624">
        <ele>260.6</ele>
        <time>2022-09-10T13:33:58Z</time>
      </trkpt>
      <trkpt lat="43.27305" lon="-0.96628">
        <ele>260.2</ele>
        <time>2022-09-10T13:33:59Z</time>
      </trkpt>
      <trkpt lat="43.27317" lon="-0.96643">
        <ele>259.8</ele>
        <time>2022-09-10T13:34:01Z</time>
      </trkpt>
      <trkpt lat="43.27325" lon="-0.96677">
        <ele>259</ele>
        <time>2022-09-10T13:34:04Z</time>
      </trkpt>
      <trkpt lat="43.27324" lon="-0.96712">
        <ele>259</ele>
        <time>2022-09-10T13:34:07Z</time>
      </trkpt>
      <trkpt lat="43.27319" lon="-0.96736">
        <ele>258</ele>
        <time>2022-09-10T13:34:09Z</time>
      </trkpt>
      <trkpt lat="43.27314" lon="-0.96762">
        <ele>256.6</ele>
        <time>2022-09-10T13:34:11Z</time>
      </trkpt>
      <trkpt lat="43.27308" lon="-0.9679">
        <ele>254.8</ele>
        <time>2022-09-10T13:34:13Z</time>
      </trkpt>
      <trkpt lat="43.27305" lon="-0.96805">
        <ele>253.4</ele>
        <time>2022-09-10T13:34:14Z</time>
      </trkpt>
      <trkpt lat="43.27303" lon="-0.9682">
        <ele>253</ele>
        <time>2022-09-10T13:34:15Z</time>
      </trkpt>
      <trkpt lat="43.27302" lon="-0.96835">
        <ele>252.4</ele>
        <time>2022-09-10T13:34:16Z</time>
      </trkpt>
      <trkpt lat="43.27301" lon="-0.96867">
        <ele>251</ele>
        <time>2022-09-10T13:34:18Z</time>
      </trkpt>
      <trkpt lat="43.27301" lon="-0.96883">
        <ele>250.4</ele>
        <time>2022-09-10T13:34:19Z</time>
      </trkpt>
      <trkpt lat="43.27301" lon="-0.969">
        <ele>249.6</ele>
        <time>2022-09-10T13:34:20Z</time>
      </trkpt>
      <trkpt lat="43.27304" lon="-0.96933">
        <ele>247.6</ele>
        <time>2022-09-10T13:34:22Z</time>
      </trkpt>
      <trkpt lat="43.27307" lon="-0.96966">
        <ele>246</ele>
        <time>2022-09-10T13:34:24Z</time>
      </trkpt>
      <trkpt lat="43.27311" lon="-0.96997">
        <ele>244</ele>
        <time>2022-09-10T13:34:26Z</time>
      </trkpt>
      <trkpt lat="43.27316" lon="-0.97029">
        <ele>241.8</ele>
        <time>2022-09-10T13:34:28Z</time>
      </trkpt>
      <trkpt lat="43.27322" lon="-0.97061">
        <ele>240.2</ele>
        <time>2022-09-10T13:34:30Z</time>
      </trkpt>
      <trkpt lat="43.27331" lon="-0.97092">
        <ele>238.4</ele>
        <time>2022-09-10T13:34:32Z</time>
      </trkpt>
      <trkpt lat="43.2734" lon="-0.97122">
        <ele>236.4</ele>
        <time>2022-09-10T13:34:34Z</time>
      </trkpt>
      <trkpt lat="43.27345" lon="-0.97135">
        <ele>235.2</ele>
        <time>2022-09-10T13:34:35Z</time>
      </trkpt>
      <trkpt lat="43.2735" lon="-0.97148">
        <ele>234.2</ele>
        <time>2022-09-10T13:34:36Z</time>
      </trkpt>
      <trkpt lat="43.27356" lon="-0.97159">
        <ele>233.2</ele>
        <time>2022-09-10T13:34:37Z</time>
      </trkpt>
      <trkpt lat="43.27364" lon="-0.97168">
        <ele>231</ele>
        <time>2022-09-10T13:34:38Z</time>
      </trkpt>
      <trkpt lat="43.27371" lon="-0.97176">
        <ele>230</ele>
        <time>2022-09-10T13:34:39Z</time>
      </trkpt>
      <trkpt lat="43.27385" lon="-0.97191">
        <ele>228.6</ele>
        <time>2022-09-10T13:34:41Z</time>
      </trkpt>
      <trkpt lat="43.27394" lon="-0.97197">
        <ele>228</ele>
        <time>2022-09-10T13:34:42Z</time>
      </trkpt>
      <trkpt lat="43.27402" lon="-0.97204">
        <ele>227.2</ele>
        <time>2022-09-10T13:34:43Z</time>
      </trkpt>
      <trkpt lat="43.27411" lon="-0.97209">
        <ele>226.4</ele>
        <time>2022-09-10T13:34:44Z</time>
      </trkpt>
      <trkpt lat="43.2742" lon="-0.97213">
        <ele>225.6</ele>
        <time>2022-09-10T13:34:45Z</time>
      </trkpt>
      <trkpt lat="43.27443" lon="-0.97221">
        <ele>224.2</ele>
        <time>2022-09-10T13:34:47Z</time>
      </trkpt>
      <trkpt lat="43.27465" lon="-0.97228">
        <ele>223</ele>
        <time>2022-09-10T13:34:49Z</time>
      </trkpt>
      <trkpt lat="43.27488" lon="-0.97236">
        <ele>221.6</ele>
        <time>2022-09-10T13:34:51Z</time>
      </trkpt>
      <trkpt lat="43.275" lon="-0.97239">
        <ele>220.4</ele>
        <time>2022-09-10T13:34:52Z</time>
      </trkpt>
      <trkpt lat="43.27512" lon="-0.97242">
        <ele>219.2</ele>
        <time>2022-09-10T13:34:53Z</time>
      </trkpt>
      <trkpt lat="43.27535" lon="-0.97246">
        <ele>217.4</ele>
        <time>2022-09-10T13:34:55Z</time>
      </trkpt>
      <trkpt lat="43.27558" lon="-0.9725">
        <ele>215.6</ele>
        <time>2022-09-10T13:34:57Z</time>
      </trkpt>
      <trkpt lat="43.2757" lon="-0.97254">
        <ele>214.8</ele>
        <time>2022-09-10T13:34:58Z</time>
      </trkpt>
      <trkpt lat="43.27581" lon="-0.97259">
        <ele>213.8</ele>
        <time>2022-09-10T13:34:59Z</time>
      </trkpt>
      <trkpt lat="43.27591" lon="-0.9727">
        <ele>213</ele>
        <time>2022-09-10T13:35:00Z</time>
      </trkpt>
      <trkpt lat="43.27599" lon="-0.97284">
        <ele>212.2</ele>
        <time>2022-09-10T13:35:01Z</time>
      </trkpt>
      <trkpt lat="43.27605" lon="-0.97299">
        <ele>210.8</ele>
        <time>2022-09-10T13:35:02Z</time>
      </trkpt>
      <trkpt lat="43.27616" lon="-0.9733">
        <ele>209.2</ele>
        <time>2022-09-10T13:35:04Z</time>
      </trkpt>
      <trkpt lat="43.2763" lon="-0.97359">
        <ele>207.6</ele>
        <time>2022-09-10T13:35:06Z</time>
      </trkpt>
      <trkpt lat="43.27636" lon="-0.97373">
        <ele>206.4</ele>
        <time>2022-09-10T13:35:07Z</time>
      </trkpt>
      <trkpt lat="43.27642" lon="-0.97387">
        <ele>205.2</ele>
        <time>2022-09-10T13:35:08Z</time>
      </trkpt>
      <trkpt lat="43.27647" lon="-0.97401">
        <ele>204</ele>
        <time>2022-09-10T13:35:09Z</time>
      </trkpt>
      <trkpt lat="43.27651" lon="-0.97415">
        <ele>203</ele>
        <time>2022-09-10T13:35:10Z</time>
      </trkpt>
      <trkpt lat="43.27653" lon="-0.9743">
        <ele>202.2</ele>
        <time>2022-09-10T13:35:11Z</time>
      </trkpt>
      <trkpt lat="43.27653" lon="-0.97445">
        <ele>201.4</ele>
        <time>2022-09-10T13:35:12Z</time>
      </trkpt>
      <trkpt lat="43.27651" lon="-0.9746">
        <ele>200.8</ele>
        <time>2022-09-10T13:35:13Z</time>
      </trkpt>
      <trkpt lat="43.27646" lon="-0.97475">
        <ele>200</ele>
        <time>2022-09-10T13:35:14Z</time>
      </trkpt>
      <trkpt lat="43.27642" lon="-0.9749">
        <ele>198.8</ele>
        <time>2022-09-10T13:35:15Z</time>
      </trkpt>
      <trkpt lat="43.27638" lon="-0.97504">
        <ele>197.6</ele>
        <time>2022-09-10T13:35:16Z</time>
      </trkpt>
      <trkpt lat="43.27632" lon="-0.97534">
        <ele>196</ele>
        <time>2022-09-10T13:35:18Z</time>
      </trkpt>
      <trkpt lat="43.27625" lon="-0.97563">
        <ele>193.8</ele>
        <time>2022-09-10T13:35:20Z</time>
      </trkpt>
      <trkpt lat="43.2762" lon="-0.97593">
        <ele>192.2</ele>
        <time>2022-09-10T13:35:22Z</time>
      </trkpt>
      <trkpt lat="43.27615" lon="-0.97619">
        <ele>190</ele>
        <time>2022-09-10T13:35:24Z</time>
      </trkpt>
      <trkpt lat="43.27612" lon="-0.97631">
        <ele>188.8</ele>
        <time>2022-09-10T13:35:25Z</time>
      </trkpt>
      <trkpt lat="43.2761" lon="-0.97643">
        <ele>186.8</ele>
        <time>2022-09-10T13:35:26Z</time>
      </trkpt>
      <trkpt lat="43.27608" lon="-0.97653">
        <ele>185.6</ele>
        <time>2022-09-10T13:35:27Z</time>
      </trkpt>
      <trkpt lat="43.27604" lon="-0.97671">
        <ele>184.2</ele>
        <time>2022-09-10T13:35:29Z</time>
      </trkpt>
      <trkpt lat="43.27599" lon="-0.97694">
        <ele>183</ele>
        <time>2022-09-10T13:35:32Z</time>
      </trkpt>
      <trkpt lat="43.27599" lon="-0.97702">
        <ele>182.8</ele>
        <time>2022-09-10T13:35:33Z</time>
      </trkpt>
      <trkpt lat="43.27598" lon="-0.97715">
        <ele>183</ele>
        <time>2022-09-10T13:35:35Z</time>
      </trkpt>
      <trkpt lat="43.27599" lon="-0.9772">
        <ele>183</ele>
        <time>2022-09-10T13:35:36Z</time>
      </trkpt>
      <trkpt lat="43.27602" lon="-0.97733">
        <ele>183.2</ele>
        <time>2022-09-10T13:35:39Z</time>
      </trkpt>
      <trkpt lat="43.27607" lon="-0.97755">
        <ele>183.2</ele>
        <time>2022-09-10T13:35:46Z</time>
      </trkpt>
      <trkpt lat="43.27612" lon="-0.97778">
        <ele>182.4</ele>
        <time>2022-09-10T13:35:53Z</time>
      </trkpt>
      <trkpt lat="43.27614" lon="-0.97784">
        <ele>182.2</ele>
        <time>2022-09-10T13:35:55Z</time>
      </trkpt>
      <trkpt lat="43.27612" lon="-0.97792">
        <ele>182</ele>
        <time>2022-09-10T13:35:58Z</time>
      </trkpt>
      <trkpt lat="43.27612" lon="-0.97795">
        <ele>182</ele>
        <time>2022-09-10T13:35:59Z</time>
      </trkpt>
      <trkpt lat="43.27609" lon="-0.97803">
        <ele>182</ele>
        <time>2022-09-10T13:36:03Z</time>
      </trkpt>
      <trkpt lat="43.27609" lon="-0.97804">
        <ele>182</ele>
        <time>2022-09-10T13:36:04Z</time>
      </trkpt>
      <trkpt lat="43.27606" lon="-0.97804">
        <ele>182</ele>
        <time>2022-09-10T13:36:07Z</time>
      </trkpt>
      <trkpt lat="43.27602" lon="-0.97801">
        <ele>182</ele>
        <time>2022-09-10T13:36:10Z</time>
      </trkpt>
      <trkpt lat="43.27603" lon="-0.97793">
        <ele>182</ele>
        <time>2022-09-10T13:36:13Z</time>
      </trkpt>
      <trkpt lat="43.27604" lon="-0.97788">
        <ele>182</ele>
        <time>2022-09-10T13:36:15Z</time>
      </trkpt>
      <trkpt lat="43.27608" lon="-0.97791">
        <ele>182.8</ele>
        <time>2022-09-10T13:48:11Z</time>
      </trkpt>
      <trkpt lat="43.27607" lon="-0.97785">
        <ele>183</ele>
        <time>2022-09-10T13:48:13Z</time>
      </trkpt>
      <trkpt lat="43.27606" lon="-0.97776">
        <ele>183.4</ele>
        <time>2022-09-10T13:48:16Z</time>
      </trkpt>
      <trkpt lat="43.27606" lon="-0.97764">
        <ele>184</ele>
        <time>2022-09-10T13:48:20Z</time>
      </trkpt>
      <trkpt lat="43.27603" lon="-0.97752">
        <ele>184.4</ele>
        <time>2022-09-10T13:48:24Z</time>
      </trkpt>
      <trkpt lat="43.27599" lon="-0.97736">
        <ele>184.6</ele>
        <time>2022-09-10T13:48:31Z</time>
      </trkpt>
      <trkpt lat="43.27593" lon="-0.9772">
        <ele>184.6</ele>
        <time>2022-09-10T13:48:39Z</time>
      </trkpt>
      <trkpt lat="43.27591" lon="-0.97698">
        <ele>184</ele>
        <time>2022-09-10T13:48:45Z</time>
      </trkpt>
      <trkpt lat="43.27582" lon="-0.97685">
        <ele>183.2</ele>
        <time>2022-09-10T13:48:50Z</time>
      </trkpt>
      <trkpt lat="43.27573" lon="-0.9768">
        <ele>182.6</ele>
        <time>2022-09-10T13:48:52Z</time>
      </trkpt>
      <trkpt lat="43.27561" lon="-0.97674">
        <ele>181.8</ele>
        <time>2022-09-10T13:48:54Z</time>
      </trkpt>
      <trkpt lat="43.27555" lon="-0.9767">
        <ele>181.4</ele>
        <time>2022-09-10T13:48:55Z</time>
      </trkpt>
      <trkpt lat="43.27549" lon="-0.97665">
        <ele>181</ele>
        <time>2022-09-10T13:48:56Z</time>
      </trkpt>
      <trkpt lat="43.27537" lon="-0.9765">
        <ele>180.6</ele>
        <time>2022-09-10T13:48:58Z</time>
      </trkpt>
      <trkpt lat="43.27531" lon="-0.97641">
        <ele>180.4</ele>
        <time>2022-09-10T13:48:59Z</time>
      </trkpt>
      <trkpt lat="43.27519" lon="-0.97624">
        <ele>179.2</ele>
        <time>2022-09-10T13:49:01Z</time>
      </trkpt>
      <trkpt lat="43.27512" lon="-0.97616">
        <ele>178.8</ele>
        <time>2022-09-10T13:49:02Z</time>
      </trkpt>
      <trkpt lat="43.27504" lon="-0.9761">
        <ele>178</ele>
        <time>2022-09-10T13:49:03Z</time>
      </trkpt>
      <trkpt lat="43.27489" lon="-0.97608">
        <ele>178.4</ele>
        <time>2022-09-10T13:49:05Z</time>
      </trkpt>
      <trkpt lat="43.27477" lon="-0.97612">
        <ele>179.2</ele>
        <time>2022-09-10T13:49:07Z</time>
      </trkpt>
      <trkpt lat="43.27473" lon="-0.97613">
        <ele>179.2</ele>
        <time>2022-09-10T13:49:08Z</time>
      </trkpt>
      <trkpt lat="43.27461" lon="-0.97617">
        <ele>180.4</ele>
        <time>2022-09-10T13:49:12Z</time>
      </trkpt>
      <trkpt lat="43.27458" lon="-0.97618">
        <ele>180.6</ele>
        <time>2022-09-10T13:49:13Z</time>
      </trkpt>
      <trkpt lat="43.27444" lon="-0.9762">
        <ele>181.4</ele>
        <time>2022-09-10T13:49:18Z</time>
      </trkpt>
      <trkpt lat="43.27441" lon="-0.9762">
        <ele>181.6</ele>
        <time>2022-09-10T13:49:19Z</time>
      </trkpt>
      <trkpt lat="43.27428" lon="-0.97622">
        <ele>182.4</ele>
        <time>2022-09-10T13:49:24Z</time>
      </trkpt>
      <trkpt lat="43.27423" lon="-0.97622">
        <ele>182.6</ele>
        <time>2022-09-10T13:49:26Z</time>
      </trkpt>
      <trkpt lat="43.27412" lon="-0.97627">
        <ele>183.6</ele>
        <time>2022-09-10T13:49:32Z</time>
      </trkpt>
      <trkpt lat="43.27394" lon="-0.97633">
        <ele>184.4</ele>
        <time>2022-09-10T13:49:41Z</time>
      </trkpt>
      <trkpt lat="43.27392" lon="-0.97634">
        <ele>184.6</ele>
        <time>2022-09-10T13:49:42Z</time>
      </trkpt>
      <trkpt lat="43.27382" lon="-0.97639">
        <ele>185.6</ele>
        <time>2022-09-10T13:49:47Z</time>
      </trkpt>
      <trkpt lat="43.27379" lon="-0.9764">
        <ele>186</ele>
        <time>2022-09-10T13:49:49Z</time>
      </trkpt>
      <trkpt lat="43.27371" lon="-0.97642">
        <ele>186.6</ele>
        <time>2022-09-10T13:49:53Z</time>
      </trkpt>
      <trkpt lat="43.27368" lon="-0.97645">
        <ele>187</ele>
        <time>2022-09-10T13:49:55Z</time>
      </trkpt>
      <trkpt lat="43.27359" lon="-0.97649">
        <ele>187.6</ele>
        <time>2022-09-10T13:50:00Z</time>
      </trkpt>
      <trkpt lat="43.27357" lon="-0.97649">
        <ele>187.8</ele>
        <time>2022-09-10T13:50:01Z</time>
      </trkpt>
      <trkpt lat="43.27343" lon="-0.97652">
        <ele>188.6</ele>
        <time>2022-09-10T13:50:08Z</time>
      </trkpt>
      <trkpt lat="43.27339" lon="-0.97652">
        <ele>188.8</ele>
        <time>2022-09-10T13:50:10Z</time>
      </trkpt>
      <trkpt lat="43.27329" lon="-0.97651">
        <ele>189.4</ele>
        <time>2022-09-10T13:50:15Z</time>
      </trkpt>
      <trkpt lat="43.2732" lon="-0.9765">
        <ele>189.8</ele>
        <time>2022-09-10T13:50:19Z</time>
      </trkpt>
      <trkpt lat="43.27309" lon="-0.97647">
        <ele>190.2</ele>
        <time>2022-09-10T13:50:24Z</time>
      </trkpt>
      <trkpt lat="43.27289" lon="-0.97641">
        <ele>191</ele>
        <time>2022-09-10T13:50:32Z</time>
      </trkpt>
      <trkpt lat="43.27269" lon="-0.97633">
        <ele>191.6</ele>
        <time>2022-09-10T13:50:40Z</time>
      </trkpt>
      <trkpt lat="43.27243" lon="-0.97629">
        <ele>192</ele>
        <time>2022-09-10T13:50:49Z</time>
      </trkpt>
      <trkpt lat="43.27221" lon="-0.97629">
        <ele>192.4</ele>
        <time>2022-09-10T13:50:57Z</time>
      </trkpt>
      <trkpt lat="43.27205" lon="-0.9763">
        <ele>192.6</ele>
        <time>2022-09-10T13:51:04Z</time>
      </trkpt>
      <trkpt lat="43.27203" lon="-0.97631">
        <ele>192.6</ele>
        <time>2022-09-10T13:51:05Z</time>
      </trkpt>
      <trkpt lat="43.27185" lon="-0.97633">
        <ele>192</ele>
        <time>2022-09-10T13:51:11Z</time>
      </trkpt>
      <trkpt lat="43.27176" lon="-0.9763">
        <ele>191.6</ele>
        <time>2022-09-10T13:51:13Z</time>
      </trkpt>
      <trkpt lat="43.2716" lon="-0.97623">
        <ele>190.8</ele>
        <time>2022-09-10T13:51:16Z</time>
      </trkpt>
      <trkpt lat="43.27135" lon="-0.97611">
        <ele>189.8</ele>
        <time>2022-09-10T13:51:20Z</time>
      </trkpt>
      <trkpt lat="43.2712" lon="-0.97605">
        <ele>189.2</ele>
        <time>2022-09-10T13:51:22Z</time>
      </trkpt>
      <trkpt lat="43.27113" lon="-0.97602">
        <ele>188.8</ele>
        <time>2022-09-10T13:51:23Z</time>
      </trkpt>
      <trkpt lat="43.27083" lon="-0.97593">
        <ele>187</ele>
        <time>2022-09-10T13:51:27Z</time>
      </trkpt>
      <trkpt lat="43.27076" lon="-0.97593">
        <ele>186.6</ele>
        <time>2022-09-10T13:51:28Z</time>
      </trkpt>
      <trkpt lat="43.27062" lon="-0.97598">
        <ele>186</ele>
        <time>2022-09-10T13:51:30Z</time>
      </trkpt>
      <trkpt lat="43.27055" lon="-0.97601">
        <ele>185.4</ele>
        <time>2022-09-10T13:51:31Z</time>
      </trkpt>
      <trkpt lat="43.27047" lon="-0.97605">
        <ele>184.8</ele>
        <time>2022-09-10T13:51:32Z</time>
      </trkpt>
      <trkpt lat="43.27032" lon="-0.97613">
        <ele>183.6</ele>
        <time>2022-09-10T13:51:34Z</time>
      </trkpt>
      <trkpt lat="43.27017" lon="-0.97622">
        <ele>182</ele>
        <time>2022-09-10T13:51:36Z</time>
      </trkpt>
      <trkpt lat="43.2701" lon="-0.97628">
        <ele>181.2</ele>
        <time>2022-09-10T13:51:37Z</time>
      </trkpt>
      <trkpt lat="43.27003" lon="-0.97635">
        <ele>180.4</ele>
        <time>2022-09-10T13:51:38Z</time>
      </trkpt>
      <trkpt lat="43.26991" lon="-0.97651">
        <ele>179.2</ele>
        <time>2022-09-10T13:51:40Z</time>
      </trkpt>
      <trkpt lat="43.2698" lon="-0.97669">
        <ele>178</ele>
        <time>2022-09-10T13:51:42Z</time>
      </trkpt>
      <trkpt lat="43.26968" lon="-0.97691">
        <ele>176.4</ele>
        <time>2022-09-10T13:51:44Z</time>
      </trkpt>
      <trkpt lat="43.26956" lon="-0.97715">
        <ele>174.8</ele>
        <time>2022-09-10T13:51:46Z</time>
      </trkpt>
      <trkpt lat="43.2694" lon="-0.97737">
        <ele>173.8</ele>
        <time>2022-09-10T13:51:48Z</time>
      </trkpt>
      <trkpt lat="43.26931" lon="-0.97747">
        <ele>173.2</ele>
        <time>2022-09-10T13:51:49Z</time>
      </trkpt>
      <trkpt lat="43.26922" lon="-0.97755">
        <ele>172.4</ele>
        <time>2022-09-10T13:51:50Z</time>
      </trkpt>
      <trkpt lat="43.26911" lon="-0.9776">
        <ele>170.6</ele>
        <time>2022-09-10T13:51:51Z</time>
      </trkpt>
      <trkpt lat="43.269" lon="-0.97763">
        <ele>170</ele>
        <time>2022-09-10T13:51:52Z</time>
      </trkpt>
      <trkpt lat="43.26889" lon="-0.97764">
        <ele>169.4</ele>
        <time>2022-09-10T13:51:53Z</time>
      </trkpt>
      <trkpt lat="43.26878" lon="-0.97764">
        <ele>168.8</ele>
        <time>2022-09-10T13:51:54Z</time>
      </trkpt>
      <trkpt lat="43.26867" lon="-0.97763">
        <ele>168.4</ele>
        <time>2022-09-10T13:51:55Z</time>
      </trkpt>
      <trkpt lat="43.26845" lon="-0.97762">
        <ele>167</ele>
        <time>2022-09-10T13:51:57Z</time>
      </trkpt>
      <trkpt lat="43.26824" lon="-0.97762">
        <ele>165.6</ele>
        <time>2022-09-10T13:51:59Z</time>
      </trkpt>
      <trkpt lat="43.26813" lon="-0.97764">
        <ele>165</ele>
        <time>2022-09-10T13:52:00Z</time>
      </trkpt>
      <trkpt lat="43.26792" lon="-0.9777">
        <ele>164.2</ele>
        <time>2022-09-10T13:52:02Z</time>
      </trkpt>
      <trkpt lat="43.2677" lon="-0.97777">
        <ele>163.6</ele>
        <time>2022-09-10T13:52:04Z</time>
      </trkpt>
      <trkpt lat="43.2675" lon="-0.97786">
        <ele>162.6</ele>
        <time>2022-09-10T13:52:06Z</time>
      </trkpt>
      <trkpt lat="43.26731" lon="-0.97799">
        <ele>161.8</ele>
        <time>2022-09-10T13:52:08Z</time>
      </trkpt>
      <trkpt lat="43.26723" lon="-0.97806">
        <ele>161.6</ele>
        <time>2022-09-10T13:52:09Z</time>
      </trkpt>
      <trkpt lat="43.26688" lon="-0.9785">
        <ele>160.6</ele>
        <time>2022-09-10T13:52:14Z</time>
      </trkpt>
      <trkpt lat="43.26681" lon="-0.97859">
        <ele>159.8</ele>
        <time>2022-09-10T13:52:15Z</time>
      </trkpt>
      <trkpt lat="43.26662" lon="-0.97887">
        <ele>158.4</ele>
        <time>2022-09-10T13:52:18Z</time>
      </trkpt>
      <trkpt lat="43.26648" lon="-0.97903">
        <ele>158.2</ele>
        <time>2022-09-10T13:52:20Z</time>
      </trkpt>
      <trkpt lat="43.26618" lon="-0.97926">
        <ele>158.2</ele>
        <time>2022-09-10T13:52:24Z</time>
      </trkpt>
      <trkpt lat="43.2659" lon="-0.97947">
        <ele>157.4</ele>
        <time>2022-09-10T13:52:28Z</time>
      </trkpt>
      <trkpt lat="43.26576" lon="-0.97959">
        <ele>156.6</ele>
        <time>2022-09-10T13:52:30Z</time>
      </trkpt>
      <trkpt lat="43.26569" lon="-0.97965">
        <ele>156.2</ele>
        <time>2022-09-10T13:52:31Z</time>
      </trkpt>
      <trkpt lat="43.26549" lon="-0.97987">
        <ele>155.6</ele>
        <time>2022-09-10T13:52:34Z</time>
      </trkpt>
      <trkpt lat="43.26543" lon="-0.97996">
        <ele>155.4</ele>
        <time>2022-09-10T13:52:35Z</time>
      </trkpt>
      <trkpt lat="43.26536" lon="-0.98004">
        <ele>155.2</ele>
        <time>2022-09-10T13:52:36Z</time>
      </trkpt>
      <trkpt lat="43.26524" lon="-0.98023">
        <ele>154</ele>
        <time>2022-09-10T13:52:38Z</time>
      </trkpt>
      <trkpt lat="43.26511" lon="-0.98041">
        <ele>152.8</ele>
        <time>2022-09-10T13:52:40Z</time>
      </trkpt>
      <trkpt lat="43.26504" lon="-0.9805">
        <ele>152.2</ele>
        <time>2022-09-10T13:52:41Z</time>
      </trkpt>
      <trkpt lat="43.26491" lon="-0.98069">
        <ele>151.4</ele>
        <time>2022-09-10T13:52:43Z</time>
      </trkpt>
      <trkpt lat="43.26478" lon="-0.9809">
        <ele>150.4</ele>
        <time>2022-09-10T13:52:45Z</time>
      </trkpt>
      <trkpt lat="43.26464" lon="-0.98112">
        <ele>149.4</ele>
        <time>2022-09-10T13:52:47Z</time>
      </trkpt>
      <trkpt lat="43.26458" lon="-0.98122">
        <ele>148.8</ele>
        <time>2022-09-10T13:52:48Z</time>
      </trkpt>
      <trkpt lat="43.26444" lon="-0.98142">
        <ele>148.4</ele>
        <time>2022-09-10T13:52:50Z</time>
      </trkpt>
      <trkpt lat="43.26421" lon="-0.98184">
        <ele>147.6</ele>
        <time>2022-09-10T13:52:54Z</time>
      </trkpt>
      <trkpt lat="43.26411" lon="-0.98207">
        <ele>147.2</ele>
        <time>2022-09-10T13:52:56Z</time>
      </trkpt>
      <trkpt lat="43.26408" lon="-0.98219">
        <ele>146.6</ele>
        <time>2022-09-10T13:52:57Z</time>
      </trkpt>
      <trkpt lat="43.26405" lon="-0.98232">
        <ele>146</ele>
        <time>2022-09-10T13:52:58Z</time>
      </trkpt>
      <trkpt lat="43.26398" lon="-0.98271">
        <ele>144.6</ele>
        <time>2022-09-10T13:53:01Z</time>
      </trkpt>
      <trkpt lat="43.26395" lon="-0.98296">
        <ele>143.6</ele>
        <time>2022-09-10T13:53:03Z</time>
      </trkpt>
      <trkpt lat="43.26391" lon="-0.98321">
        <ele>143.2</ele>
        <time>2022-09-10T13:53:05Z</time>
      </trkpt>
      <trkpt lat="43.26384" lon="-0.98343">
        <ele>142.8</ele>
        <time>2022-09-10T13:53:07Z</time>
      </trkpt>
      <trkpt lat="43.26379" lon="-0.98353">
        <ele>142.6</ele>
        <time>2022-09-10T13:53:08Z</time>
      </trkpt>
      <trkpt lat="43.26374" lon="-0.98363">
        <ele>142.4</ele>
        <time>2022-09-10T13:53:09Z</time>
      </trkpt>
      <trkpt lat="43.26347" lon="-0.9839">
        <ele>141.6</ele>
        <time>2022-09-10T13:53:13Z</time>
      </trkpt>
      <trkpt lat="43.26339" lon="-0.98393">
        <ele>141.6</ele>
        <time>2022-09-10T13:53:14Z</time>
      </trkpt>
      <trkpt lat="43.26324" lon="-0.984">
        <ele>141.4</ele>
        <time>2022-09-10T13:53:16Z</time>
      </trkpt>
      <trkpt lat="43.26317" lon="-0.98405">
        <ele>141</ele>
        <time>2022-09-10T13:53:17Z</time>
      </trkpt>
      <trkpt lat="43.2631" lon="-0.9841">
        <ele>140.8</ele>
        <time>2022-09-10T13:53:18Z</time>
      </trkpt>
      <trkpt lat="43.26297" lon="-0.98423">
        <ele>140.4</ele>
        <time>2022-09-10T13:53:20Z</time>
      </trkpt>
      <trkpt lat="43.26292" lon="-0.9843">
        <ele>140.4</ele>
        <time>2022-09-10T13:53:21Z</time>
      </trkpt>
      <trkpt lat="43.26281" lon="-0.98445">
        <ele>140</ele>
        <time>2022-09-10T13:53:23Z</time>
      </trkpt>
      <trkpt lat="43.26268" lon="-0.98461">
        <ele>139.2</ele>
        <time>2022-09-10T13:53:25Z</time>
      </trkpt>
      <trkpt lat="43.26262" lon="-0.9847">
        <ele>138.8</ele>
        <time>2022-09-10T13:53:26Z</time>
      </trkpt>
      <trkpt lat="43.26256" lon="-0.98479">
        <ele>137.6</ele>
        <time>2022-09-10T13:53:27Z</time>
      </trkpt>
      <trkpt lat="43.26244" lon="-0.985">
        <ele>136.4</ele>
        <time>2022-09-10T13:53:29Z</time>
      </trkpt>
      <trkpt lat="43.26237" lon="-0.9851">
        <ele>135.8</ele>
        <time>2022-09-10T13:53:30Z</time>
      </trkpt>
      <trkpt lat="43.26229" lon="-0.98518">
        <ele>135.4</ele>
        <time>2022-09-10T13:53:31Z</time>
      </trkpt>
      <trkpt lat="43.26221" lon="-0.98526">
        <ele>135</ele>
        <time>2022-09-10T13:53:32Z</time>
      </trkpt>
      <trkpt lat="43.26208" lon="-0.98542">
        <ele>134.8</ele>
        <time>2022-09-10T13:53:34Z</time>
      </trkpt>
      <trkpt lat="43.26203" lon="-0.98551">
        <ele>135</ele>
        <time>2022-09-10T13:53:35Z</time>
      </trkpt>
      <trkpt lat="43.2619" lon="-0.98581">
        <ele>136.2</ele>
        <time>2022-09-10T13:53:39Z</time>
      </trkpt>
      <trkpt lat="43.2618" lon="-0.98597">
        <ele>137.2</ele>
        <time>2022-09-10T13:53:42Z</time>
      </trkpt>
      <trkpt lat="43.26176" lon="-0.98602">
        <ele>137.4</ele>
        <time>2022-09-10T13:53:43Z</time>
      </trkpt>
      <trkpt lat="43.26172" lon="-0.98605">
        <ele>137.4</ele>
        <time>2022-09-10T13:53:44Z</time>
      </trkpt>
      <trkpt lat="43.26158" lon="-0.98614">
        <ele>137.6</ele>
        <time>2022-09-10T13:53:47Z</time>
      </trkpt>
      <trkpt lat="43.2614" lon="-0.98623">
        <ele>137.6</ele>
        <time>2022-09-10T13:53:51Z</time>
      </trkpt>
      <trkpt lat="43.26136" lon="-0.98625">
        <ele>137.6</ele>
        <time>2022-09-10T13:53:52Z</time>
      </trkpt>
      <trkpt lat="43.26103" lon="-0.98638">
        <ele>137.2</ele>
        <time>2022-09-10T13:53:59Z</time>
      </trkpt>
      <trkpt lat="43.26091" lon="-0.9864">
        <ele>136.8</ele>
        <time>2022-09-10T13:54:01Z</time>
      </trkpt>
      <trkpt lat="43.26071" lon="-0.98639">
        <ele>136</ele>
        <time>2022-09-10T13:54:04Z</time>
      </trkpt>
      <trkpt lat="43.26058" lon="-0.98634">
        <ele>135.6</ele>
        <time>2022-09-10T13:54:06Z</time>
      </trkpt>
      <trkpt lat="43.26052" lon="-0.98631">
        <ele>135.6</ele>
        <time>2022-09-10T13:54:07Z</time>
      </trkpt>
      <trkpt lat="43.26041" lon="-0.98622">
        <ele>135</ele>
        <time>2022-09-10T13:54:09Z</time>
      </trkpt>
      <trkpt lat="43.26027" lon="-0.98605">
        <ele>135.2</ele>
        <time>2022-09-10T13:54:12Z</time>
      </trkpt>
      <trkpt lat="43.26024" lon="-0.986">
        <ele>135.2</ele>
        <time>2022-09-10T13:54:13Z</time>
      </trkpt>
      <trkpt lat="43.26006" lon="-0.98576">
        <ele>135.6</ele>
        <time>2022-09-10T13:54:18Z</time>
      </trkpt>
      <trkpt lat="43.25999" lon="-0.98568">
        <ele>135.6</ele>
        <time>2022-09-10T13:54:20Z</time>
      </trkpt>
      <trkpt lat="43.25993" lon="-0.9856">
        <ele>135.8</ele>
        <time>2022-09-10T13:54:22Z</time>
      </trkpt>
      <trkpt lat="43.2599" lon="-0.98556">
        <ele>136</ele>
        <time>2022-09-10T13:54:23Z</time>
      </trkpt>
      <trkpt lat="43.25981" lon="-0.98542">
        <ele>136.4</ele>
        <time>2022-09-10T13:54:26Z</time>
      </trkpt>
      <trkpt lat="43.25969" lon="-0.98522">
        <ele>136.6</ele>
        <time>2022-09-10T13:54:31Z</time>
      </trkpt>
      <trkpt lat="43.25958" lon="-0.98512">
        <ele>136.8</ele>
        <time>2022-09-10T13:54:35Z</time>
      </trkpt>
      <trkpt lat="43.25955" lon="-0.98513">
        <ele>137</ele>
        <time>2022-09-10T13:54:36Z</time>
      </trkpt>
      <trkpt lat="43.25952" lon="-0.98514">
        <ele>137</ele>
        <time>2022-09-10T13:54:37Z</time>
      </trkpt>
      <trkpt lat="43.25945" lon="-0.98519">
        <ele>137</ele>
        <time>2022-09-10T13:54:39Z</time>
      </trkpt>
      <trkpt lat="43.25938" lon="-0.98523">
        <ele>137</ele>
        <time>2022-09-10T13:54:41Z</time>
      </trkpt>
      <trkpt lat="43.25897" lon="-0.98551">
        <ele>137.6</ele>
        <time>2022-09-10T13:54:52Z</time>
      </trkpt>
      <trkpt lat="43.25887" lon="-0.98558">
        <ele>138.2</ele>
        <time>2022-09-10T13:54:55Z</time>
      </trkpt>
      <trkpt lat="43.25875" lon="-0.98568">
        <ele>138.6</ele>
        <time>2022-09-10T13:54:59Z</time>
      </trkpt>
      <trkpt lat="43.25868" lon="-0.98575">
        <ele>139.2</ele>
        <time>2022-09-10T13:55:02Z</time>
      </trkpt>
      <trkpt lat="43.25859" lon="-0.98589">
        <ele>139.6</ele>
        <time>2022-09-10T13:55:07Z</time>
      </trkpt>
      <trkpt lat="43.25847" lon="-0.98612">
        <ele>140.2</ele>
        <time>2022-09-10T13:55:14Z</time>
      </trkpt>
      <trkpt lat="43.25845" lon="-0.98615">
        <ele>140.4</ele>
        <time>2022-09-10T13:55:15Z</time>
      </trkpt>
      <trkpt lat="43.25832" lon="-0.98642">
        <ele>141.4</ele>
        <time>2022-09-10T13:55:23Z</time>
      </trkpt>
      <trkpt lat="43.25822" lon="-0.98665">
        <ele>142</ele>
        <time>2022-09-10T13:55:30Z</time>
      </trkpt>
      <trkpt lat="43.25811" lon="-0.98689">
        <ele>142.2</ele>
        <time>2022-09-10T13:55:37Z</time>
      </trkpt>
      <trkpt lat="43.25797" lon="-0.98717">
        <ele>141.4</ele>
        <time>2022-09-10T13:55:43Z</time>
      </trkpt>
      <trkpt lat="43.25788" lon="-0.98745">
        <ele>140.6</ele>
        <time>2022-09-10T13:55:47Z</time>
      </trkpt>
      <trkpt lat="43.25786" lon="-0.98754">
        <ele>140.2</ele>
        <time>2022-09-10T13:55:48Z</time>
      </trkpt>
      <trkpt lat="43.25789" lon="-0.98786">
        <ele>139</ele>
        <time>2022-09-10T13:55:51Z</time>
      </trkpt>
      <trkpt lat="43.25802" lon="-0.98816">
        <ele>138</ele>
        <time>2022-09-10T13:55:54Z</time>
      </trkpt>
      <trkpt lat="43.25806" lon="-0.98825">
        <ele>137.6</ele>
        <time>2022-09-10T13:55:55Z</time>
      </trkpt>
      <trkpt lat="43.2581" lon="-0.98835">
        <ele>137</ele>
        <time>2022-09-10T13:55:56Z</time>
      </trkpt>
      <trkpt lat="43.25815" lon="-0.98856">
        <ele>136.6</ele>
        <time>2022-09-10T13:55:58Z</time>
      </trkpt>
      <trkpt lat="43.2581" lon="-0.98874">
        <ele>136.4</ele>
        <time>2022-09-10T13:56:00Z</time>
      </trkpt>
      <trkpt lat="43.25794" lon="-0.98892">
        <ele>136.8</ele>
        <time>2022-09-10T13:56:03Z</time>
      </trkpt>
      <trkpt lat="43.25773" lon="-0.98914">
        <ele>137.8</ele>
        <time>2022-09-10T13:56:08Z</time>
      </trkpt>
      <trkpt lat="43.2577" lon="-0.98918">
        <ele>138</ele>
        <time>2022-09-10T13:56:09Z</time>
      </trkpt>
      <trkpt lat="43.25759" lon="-0.98928">
        <ele>138.8</ele>
        <time>2022-09-10T13:56:13Z</time>
      </trkpt>
      <trkpt lat="43.25755" lon="-0.98933">
        <ele>139</ele>
        <time>2022-09-10T13:56:15Z</time>
      </trkpt>
      <trkpt lat="43.2575" lon="-0.9894">
        <ele>140</ele>
        <time>2022-09-10T13:56:18Z</time>
      </trkpt>
      <trkpt lat="43.25747" lon="-0.98945">
        <ele>140.6</ele>
        <time>2022-09-10T13:56:21Z</time>
      </trkpt>
      <trkpt lat="43.25748" lon="-0.98946">
        <ele>141.2</ele>
        <time>2022-09-10T13:56:24Z</time>
      </trkpt>
      <trkpt lat="43.25746" lon="-0.9895">
        <ele>141.6</ele>
        <time>2022-09-10T13:56:34Z</time>
      </trkpt>
      <trkpt lat="43.25743" lon="-0.98952">
        <ele>141.8</ele>
        <time>2022-09-10T13:56:36Z</time>
      </trkpt>
      <trkpt lat="43.25732" lon="-0.98959">
        <ele>142.2</ele>
        <time>2022-09-10T13:56:41Z</time>
      </trkpt>
      <trkpt lat="43.25714" lon="-0.98964">
        <ele>142.4</ele>
        <time>2022-09-10T13:56:48Z</time>
      </trkpt>
      <trkpt lat="43.25686" lon="-0.98971">
        <ele>142.2</ele>
        <time>2022-09-10T13:56:56Z</time>
      </trkpt>
      <trkpt lat="43.25655" lon="-0.98975">
        <ele>142.6</ele>
        <time>2022-09-10T13:57:04Z</time>
      </trkpt>
      <trkpt lat="43.25623" lon="-0.98976">
        <ele>143.2</ele>
        <time>2022-09-10T13:57:12Z</time>
      </trkpt>
      <trkpt lat="43.25615" lon="-0.98976">
        <ele>143.4</ele>
        <time>2022-09-10T13:57:14Z</time>
      </trkpt>
      <trkpt lat="43.25589" lon="-0.98975">
        <ele>144.4</ele>
        <time>2022-09-10T13:57:21Z</time>
      </trkpt>
      <trkpt lat="43.25586" lon="-0.98974">
        <ele>144.4</ele>
        <time>2022-09-10T13:57:22Z</time>
      </trkpt>
      <trkpt lat="43.2557" lon="-0.98974">
        <ele>145.4</ele>
        <time>2022-09-10T13:57:27Z</time>
      </trkpt>
      <trkpt lat="43.25563" lon="-0.98974">
        <ele>145.8</ele>
        <time>2022-09-10T13:57:29Z</time>
      </trkpt>
      <trkpt lat="43.25537" lon="-0.98971">
        <ele>146</ele>
        <time>2022-09-10T13:57:37Z</time>
      </trkpt>
      <trkpt lat="43.25508" lon="-0.98967">
        <ele>145.4</ele>
        <time>2022-09-10T13:57:44Z</time>
      </trkpt>
      <trkpt lat="43.25496" lon="-0.98963">
        <ele>144.8</ele>
        <time>2022-09-10T13:57:46Z</time>
      </trkpt>
      <trkpt lat="43.25485" lon="-0.98954">
        <ele>144.4</ele>
        <time>2022-09-10T13:57:48Z</time>
      </trkpt>
      <trkpt lat="43.25481" lon="-0.98948">
        <ele>144</ele>
        <time>2022-09-10T13:57:49Z</time>
      </trkpt>
      <trkpt lat="43.25471" lon="-0.98927">
        <ele>144.2</ele>
        <time>2022-09-10T13:57:52Z</time>
      </trkpt>
      <trkpt lat="43.25464" lon="-0.98917">
        <ele>144.2</ele>
        <time>2022-09-10T13:57:54Z</time>
      </trkpt>
      <trkpt lat="43.25451" lon="-0.98903">
        <ele>144.6</ele>
        <time>2022-09-10T13:57:57Z</time>
      </trkpt>
      <trkpt lat="43.25447" lon="-0.989">
        <ele>144.6</ele>
        <time>2022-09-10T13:57:58Z</time>
      </trkpt>
      <trkpt lat="43.25424" lon="-0.98885">
        <ele>144.8</ele>
        <time>2022-09-10T13:58:03Z</time>
      </trkpt>
      <trkpt lat="43.25391" lon="-0.98868">
        <ele>145</ele>
        <time>2022-09-10T13:58:10Z</time>
      </trkpt>
      <trkpt lat="43.25369" lon="-0.98862">
        <ele>145.2</ele>
        <time>2022-09-10T13:58:16Z</time>
      </trkpt>
      <trkpt lat="43.25364" lon="-0.98864">
        <ele>145.4</ele>
        <time>2022-09-10T13:58:17Z</time>
      </trkpt>
      <trkpt lat="43.25345" lon="-0.98875">
        <ele>145.4</ele>
        <time>2022-09-10T13:58:21Z</time>
      </trkpt>
      <trkpt lat="43.25341" lon="-0.98879">
        <ele>145.4</ele>
        <time>2022-09-10T13:58:22Z</time>
      </trkpt>
      <trkpt lat="43.25307" lon="-0.98913">
        <ele>146</ele>
        <time>2022-09-10T13:58:31Z</time>
      </trkpt>
      <trkpt lat="43.25299" lon="-0.9892">
        <ele>146</ele>
        <time>2022-09-10T13:58:33Z</time>
      </trkpt>
      <trkpt lat="43.25277" lon="-0.98937">
        <ele>146.8</ele>
        <time>2022-09-10T13:58:39Z</time>
      </trkpt>
      <trkpt lat="43.25269" lon="-0.98939">
        <ele>146.8</ele>
        <time>2022-09-10T13:58:41Z</time>
      </trkpt>
      <trkpt lat="43.25256" lon="-0.98939">
        <ele>147.2</ele>
        <time>2022-09-10T13:58:44Z</time>
      </trkpt>
      <trkpt lat="43.25252" lon="-0.98938">
        <ele>147.4</ele>
        <time>2022-09-10T13:58:45Z</time>
      </trkpt>
      <trkpt lat="43.25242" lon="-0.98933">
        <ele>148</ele>
        <time>2022-09-10T13:58:48Z</time>
      </trkpt>
      <trkpt lat="43.25232" lon="-0.98926">
        <ele>148</ele>
        <time>2022-09-10T13:58:51Z</time>
      </trkpt>
      <trkpt lat="43.2521" lon="-0.98909">
        <ele>148</ele>
        <time>2022-09-10T13:58:57Z</time>
      </trkpt>
      <trkpt lat="43.25186" lon="-0.9889">
        <ele>147.2</ele>
        <time>2022-09-10T13:59:02Z</time>
      </trkpt>
      <trkpt lat="43.2518" lon="-0.98885">
        <ele>147</ele>
        <time>2022-09-10T13:59:03Z</time>
      </trkpt>
      <trkpt lat="43.25165" lon="-0.98869">
        <ele>146.2</ele>
        <time>2022-09-10T13:59:06Z</time>
      </trkpt>
      <trkpt lat="43.2516" lon="-0.98862">
        <ele>146</ele>
        <time>2022-09-10T13:59:07Z</time>
      </trkpt>
      <trkpt lat="43.25146" lon="-0.98836">
        <ele>145.2</ele>
        <time>2022-09-10T13:59:11Z</time>
      </trkpt>
      <trkpt lat="43.25127" lon="-0.98824">
        <ele>145.8</ele>
        <time>2022-09-10T13:59:15Z</time>
      </trkpt>
      <trkpt lat="43.25113" lon="-0.98831">
        <ele>146.2</ele>
        <time>2022-09-10T13:59:18Z</time>
      </trkpt>
      <trkpt lat="43.25109" lon="-0.98834">
        <ele>146.4</ele>
        <time>2022-09-10T13:59:19Z</time>
      </trkpt>
      <trkpt lat="43.25077" lon="-0.98864">
        <ele>145.8</ele>
        <time>2022-09-10T13:59:26Z</time>
      </trkpt>
      <trkpt lat="43.25032" lon="-0.98908">
        <ele>145.4</ele>
        <time>2022-09-10T13:59:36Z</time>
      </trkpt>
      <trkpt lat="43.25006" lon="-0.98932">
        <ele>145.6</ele>
        <time>2022-09-10T13:59:42Z</time>
      </trkpt>
      <trkpt lat="43.24963" lon="-0.98973">
        <ele>146</ele>
        <time>2022-09-10T13:59:52Z</time>
      </trkpt>
      <trkpt lat="43.2494" lon="-0.98994">
        <ele>146</ele>
        <time>2022-09-10T13:59:58Z</time>
      </trkpt>
      <trkpt lat="43.24932" lon="-0.99002">
        <ele>146</ele>
        <time>2022-09-10T14:00:00Z</time>
      </trkpt>
      <trkpt lat="43.24894" lon="-0.99044">
        <ele>146</ele>
        <time>2022-09-10T14:00:09Z</time>
      </trkpt>
      <trkpt lat="43.24868" lon="-0.99077">
        <ele>146</ele>
        <time>2022-09-10T14:00:16Z</time>
      </trkpt>
      <trkpt lat="43.24855" lon="-0.99087">
        <ele>146.2</ele>
        <time>2022-09-10T14:00:19Z</time>
      </trkpt>
      <trkpt lat="43.24845" lon="-0.99089">
        <ele>146.2</ele>
        <time>2022-09-10T14:00:21Z</time>
      </trkpt>
      <trkpt lat="43.24832" lon="-0.99087">
        <ele>146.8</ele>
        <time>2022-09-10T14:00:24Z</time>
      </trkpt>
      <trkpt lat="43.24824" lon="-0.99084">
        <ele>147.2</ele>
        <time>2022-09-10T14:00:26Z</time>
      </trkpt>
      <trkpt lat="43.24806" lon="-0.99076">
        <ele>148</ele>
        <time>2022-09-10T14:00:32Z</time>
      </trkpt>
      <trkpt lat="43.24804" lon="-0.99075">
        <ele>148.2</ele>
        <time>2022-09-10T14:00:33Z</time>
      </trkpt>
      <trkpt lat="43.24789" lon="-0.99071">
        <ele>149.2</ele>
        <time>2022-09-10T14:00:39Z</time>
      </trkpt>
      <trkpt lat="43.24787" lon="-0.9907">
        <ele>149.4</ele>
        <time>2022-09-10T14:00:40Z</time>
      </trkpt>
      <trkpt lat="43.24775" lon="-0.9907">
        <ele>150.4</ele>
        <time>2022-09-10T14:00:45Z</time>
      </trkpt>
      <trkpt lat="43.24762" lon="-0.99073">
        <ele>151.6</ele>
        <time>2022-09-10T14:00:50Z</time>
      </trkpt>
      <trkpt lat="43.24752" lon="-0.99077">
        <ele>152.4</ele>
        <time>2022-09-10T14:00:54Z</time>
      </trkpt>
      <trkpt lat="43.2475" lon="-0.99079">
        <ele>152.6</ele>
        <time>2022-09-10T14:00:55Z</time>
      </trkpt>
      <trkpt lat="43.24738" lon="-0.99086">
        <ele>153.2</ele>
        <time>2022-09-10T14:01:00Z</time>
      </trkpt>
      <trkpt lat="43.24724" lon="-0.99095">
        <ele>153.6</ele>
        <time>2022-09-10T14:01:07Z</time>
      </trkpt>
      <trkpt lat="43.24705" lon="-0.99107">
        <ele>154</ele>
        <time>2022-09-10T14:01:15Z</time>
      </trkpt>
      <trkpt lat="43.24686" lon="-0.9912">
        <ele>154.2</ele>
        <time>2022-09-10T14:01:22Z</time>
      </trkpt>
      <trkpt lat="43.24672" lon="-0.99128">
        <ele>154.6</ele>
        <time>2022-09-10T14:01:27Z</time>
      </trkpt>
      <trkpt lat="43.24665" lon="-0.99133">
        <ele>154.8</ele>
        <time>2022-09-10T14:01:29Z</time>
      </trkpt>
      <trkpt lat="43.24635" lon="-0.99156">
        <ele>155</ele>
        <time>2022-09-10T14:01:38Z</time>
      </trkpt>
      <trkpt lat="43.24604" lon="-0.99184">
        <ele>154.8</ele>
        <time>2022-09-10T14:01:47Z</time>
      </trkpt>
      <trkpt lat="43.24576" lon="-0.9921">
        <ele>154.8</ele>
        <time>2022-09-10T14:01:55Z</time>
      </trkpt>
      <trkpt lat="43.24545" lon="-0.9925">
        <ele>154</ele>
        <time>2022-09-10T14:02:04Z</time>
      </trkpt>
      <trkpt lat="43.24527" lon="-0.99277">
        <ele>153.6</ele>
        <time>2022-09-10T14:02:09Z</time>
      </trkpt>
      <trkpt lat="43.2452" lon="-0.99289">
        <ele>153.6</ele>
        <time>2022-09-10T14:02:11Z</time>
      </trkpt>
      <trkpt lat="43.24498" lon="-0.99322">
        <ele>152.4</ele>
        <time>2022-09-10T14:02:17Z</time>
      </trkpt>
      <trkpt lat="43.24489" lon="-0.99331">
        <ele>152.6</ele>
        <time>2022-09-10T14:02:19Z</time>
      </trkpt>
      <trkpt lat="43.24471" lon="-0.99348">
        <ele>152.8</ele>
        <time>2022-09-10T14:02:23Z</time>
      </trkpt>
      <trkpt lat="43.24457" lon="-0.99358">
        <ele>153.2</ele>
        <time>2022-09-10T14:02:26Z</time>
      </trkpt>
      <trkpt lat="43.24427" lon="-0.99374">
        <ele>153.6</ele>
        <time>2022-09-10T14:02:32Z</time>
      </trkpt>
      <trkpt lat="43.24422" lon="-0.99377">
        <ele>153.6</ele>
        <time>2022-09-10T14:02:33Z</time>
      </trkpt>
      <trkpt lat="43.24397" lon="-0.99385">
        <ele>154.2</ele>
        <time>2022-09-10T14:02:39Z</time>
      </trkpt>
      <trkpt lat="43.24375" lon="-0.99387">
        <ele>154.6</ele>
        <time>2022-09-10T14:02:45Z</time>
      </trkpt>
      <trkpt lat="43.24371" lon="-0.99387">
        <ele>154.8</ele>
        <time>2022-09-10T14:02:46Z</time>
      </trkpt>
      <trkpt lat="43.24343" lon="-0.99379">
        <ele>155.2</ele>
        <time>2022-09-10T14:02:53Z</time>
      </trkpt>
      <trkpt lat="43.24326" lon="-0.99366">
        <ele>155.6</ele>
        <time>2022-09-10T14:02:58Z</time>
      </trkpt>
      <trkpt lat="43.24319" lon="-0.9936">
        <ele>155.8</ele>
        <time>2022-09-10T14:03:00Z</time>
      </trkpt>
      <trkpt lat="43.24295" lon="-0.99333">
        <ele>155.4</ele>
        <time>2022-09-10T14:03:07Z</time>
      </trkpt>
      <trkpt lat="43.24282" lon="-0.99321">
        <ele>154.6</ele>
        <time>2022-09-10T14:03:10Z</time>
      </trkpt>
      <trkpt lat="43.24267" lon="-0.99309">
        <ele>154.4</ele>
        <time>2022-09-10T14:03:13Z</time>
      </trkpt>
      <trkpt lat="43.24263" lon="-0.99304">
        <ele>154.4</ele>
        <time>2022-09-10T14:03:14Z</time>
      </trkpt>
      <trkpt lat="43.24242" lon="-0.99281">
        <ele>155.2</ele>
        <time>2022-09-10T14:03:19Z</time>
      </trkpt>
      <trkpt lat="43.24203" lon="-0.99238">
        <ele>154.6</ele>
        <time>2022-09-10T14:03:28Z</time>
      </trkpt>
      <trkpt lat="43.24179" lon="-0.99223">
        <ele>155</ele>
        <time>2022-09-10T14:03:33Z</time>
      </trkpt>
      <trkpt lat="43.24173" lon="-0.99221">
        <ele>155.2</ele>
        <time>2022-09-10T14:03:34Z</time>
      </trkpt>
      <trkpt lat="43.24156" lon="-0.99217">
        <ele>155.8</ele>
        <time>2022-09-10T14:03:38Z</time>
      </trkpt>
      <trkpt lat="43.24153" lon="-0.99216">
        <ele>156.4</ele>
        <time>2022-09-10T14:03:39Z</time>
      </trkpt>
      <trkpt lat="43.24147" lon="-0.99216">
        <ele>157</ele>
        <time>2022-09-10T14:03:41Z</time>
      </trkpt>
      <trkpt lat="43.24135" lon="-0.99211">
        <ele>158</ele>
        <time>2022-09-10T14:03:45Z</time>
      </trkpt>
      <trkpt lat="43.24118" lon="-0.99201">
        <ele>159</ele>
        <time>2022-09-10T14:03:51Z</time>
      </trkpt>
      <trkpt lat="43.24092" lon="-0.99186">
        <ele>159.4</ele>
        <time>2022-09-10T14:04:00Z</time>
      </trkpt>
      <trkpt lat="43.24062" lon="-0.99171">
        <ele>159.6</ele>
        <time>2022-09-10T14:04:09Z</time>
      </trkpt>
      <trkpt lat="43.24047" lon="-0.99164">
        <ele>159.2</ele>
        <time>2022-09-10T14:04:13Z</time>
      </trkpt>
      <trkpt lat="43.24037" lon="-0.99158">
        <ele>158.8</ele>
        <time>2022-09-10T14:04:15Z</time>
      </trkpt>
      <trkpt lat="43.24026" lon="-0.99153">
        <ele>157.6</ele>
        <time>2022-09-10T14:04:17Z</time>
      </trkpt>
      <trkpt lat="43.24008" lon="-0.99145">
        <ele>157.2</ele>
        <time>2022-09-10T14:04:20Z</time>
      </trkpt>
      <trkpt lat="43.23979" lon="-0.99141">
        <ele>157</ele>
        <time>2022-09-10T14:04:25Z</time>
      </trkpt>
      <trkpt lat="43.23937" lon="-0.99145">
        <ele>156.8</ele>
        <time>2022-09-10T14:04:33Z</time>
      </trkpt>
      <trkpt lat="43.23903" lon="-0.99148">
        <ele>157.4</ele>
        <time>2022-09-10T14:04:40Z</time>
      </trkpt>
      <trkpt lat="43.23867" lon="-0.99147">
        <ele>158.2</ele>
        <time>2022-09-10T14:04:48Z</time>
      </trkpt>
      <trkpt lat="43.23832" lon="-0.99138">
        <ele>158.4</ele>
        <time>2022-09-10T14:04:56Z</time>
      </trkpt>
      <trkpt lat="43.2382" lon="-0.99133">
        <ele>158.8</ele>
        <time>2022-09-10T14:04:59Z</time>
      </trkpt>
      <trkpt lat="43.23806" lon="-0.99124">
        <ele>158.8</ele>
        <time>2022-09-10T14:05:03Z</time>
      </trkpt>
      <trkpt lat="43.23786" lon="-0.99103">
        <ele>159.2</ele>
        <time>2022-09-10T14:05:09Z</time>
      </trkpt>
      <trkpt lat="43.23772" lon="-0.99091">
        <ele>160.2</ele>
        <time>2022-09-10T14:05:13Z</time>
      </trkpt>
      <trkpt lat="43.23762" lon="-0.99086">
        <ele>160.6</ele>
        <time>2022-09-10T14:05:16Z</time>
      </trkpt>
      <trkpt lat="43.23756" lon="-0.99083">
        <ele>161.2</ele>
        <time>2022-09-10T14:05:18Z</time>
      </trkpt>
      <trkpt lat="43.23745" lon="-0.99078">
        <ele>162</ele>
        <time>2022-09-10T14:05:22Z</time>
      </trkpt>
      <trkpt lat="43.23739" lon="-0.99076">
        <ele>162.2</ele>
        <time>2022-09-10T14:05:24Z</time>
      </trkpt>
      <trkpt lat="43.23725" lon="-0.99069">
        <ele>163.4</ele>
        <time>2022-09-10T14:05:29Z</time>
      </trkpt>
      <trkpt lat="43.23723" lon="-0.99068">
        <ele>163.6</ele>
        <time>2022-09-10T14:05:30Z</time>
      </trkpt>
      <trkpt lat="43.23707" lon="-0.99061">
        <ele>164.6</ele>
        <time>2022-09-10T14:05:36Z</time>
      </trkpt>
      <trkpt lat="43.23686" lon="-0.99051">
        <ele>164</ele>
        <time>2022-09-10T14:05:44Z</time>
      </trkpt>
      <trkpt lat="43.23655" lon="-0.99038">
        <ele>163.8</ele>
        <time>2022-09-10T14:05:53Z</time>
      </trkpt>
      <trkpt lat="43.23639" lon="-0.99032">
        <ele>163.4</ele>
        <time>2022-09-10T14:05:57Z</time>
      </trkpt>
      <trkpt lat="43.23625" lon="-0.99027">
        <ele>163.2</ele>
        <time>2022-09-10T14:06:00Z</time>
      </trkpt>
      <trkpt lat="43.23621" lon="-0.99025">
        <ele>163</ele>
        <time>2022-09-10T14:06:01Z</time>
      </trkpt>
      <trkpt lat="43.23582" lon="-0.99016">
        <ele>163</ele>
        <time>2022-09-10T14:06:09Z</time>
      </trkpt>
      <trkpt lat="43.23539" lon="-0.99006">
        <ele>162.6</ele>
        <time>2022-09-10T14:06:17Z</time>
      </trkpt>
      <trkpt lat="43.23493" lon="-0.98998">
        <ele>162.6</ele>
        <time>2022-09-10T14:06:26Z</time>
      </trkpt>
      <trkpt lat="43.23448" lon="-0.98988">
        <ele>162.8</ele>
        <time>2022-09-10T14:06:35Z</time>
      </trkpt>
      <trkpt lat="43.23426" lon="-0.98982">
        <ele>163.6</ele>
        <time>2022-09-10T14:06:40Z</time>
      </trkpt>
      <trkpt lat="43.23422" lon="-0.9898">
        <ele>164.2</ele>
        <time>2022-09-10T14:06:41Z</time>
      </trkpt>
      <trkpt lat="43.23414" lon="-0.98977">
        <ele>164.6</ele>
        <time>2022-09-10T14:06:43Z</time>
      </trkpt>
      <trkpt lat="43.23397" lon="-0.98971">
        <ele>165.8</ele>
        <time>2022-09-10T14:06:48Z</time>
      </trkpt>
      <trkpt lat="43.23375" lon="-0.98963">
        <ele>166.8</ele>
        <time>2022-09-10T14:06:55Z</time>
      </trkpt>
      <trkpt lat="43.23361" lon="-0.98958">
        <ele>166.8</ele>
        <time>2022-09-10T14:06:59Z</time>
      </trkpt>
      <trkpt lat="43.23324" lon="-0.98942">
        <ele>167.6</ele>
        <time>2022-09-10T14:07:08Z</time>
      </trkpt>
      <trkpt lat="43.23284" lon="-0.98924">
        <ele>167.6</ele>
        <time>2022-09-10T14:07:17Z</time>
      </trkpt>
      <trkpt lat="43.23267" lon="-0.98917">
        <ele>168</ele>
        <time>2022-09-10T14:07:21Z</time>
      </trkpt>
      <trkpt lat="43.23246" lon="-0.98905">
        <ele>168.2</ele>
        <time>2022-09-10T14:07:26Z</time>
      </trkpt>
      <trkpt lat="43.2323" lon="-0.98894">
        <ele>169</ele>
        <time>2022-09-10T14:07:30Z</time>
      </trkpt>
      <trkpt lat="43.23215" lon="-0.98884">
        <ele>169.6</ele>
        <time>2022-09-10T14:07:34Z</time>
      </trkpt>
      <trkpt lat="43.23209" lon="-0.98879">
        <ele>170</ele>
        <time>2022-09-10T14:07:36Z</time>
      </trkpt>
      <trkpt lat="43.23194" lon="-0.98868">
        <ele>170.4</ele>
        <time>2022-09-10T14:07:41Z</time>
      </trkpt>
      <trkpt lat="43.2317" lon="-0.9885">
        <ele>170.8</ele>
        <time>2022-09-10T14:07:49Z</time>
      </trkpt>
      <trkpt lat="43.23165" lon="-0.98846">
        <ele>171</ele>
        <time>2022-09-10T14:07:51Z</time>
      </trkpt>
      <trkpt lat="43.23146" lon="-0.9883">
        <ele>171.8</ele>
        <time>2022-09-10T14:07:58Z</time>
      </trkpt>
      <trkpt lat="43.23137" lon="-0.98825">
        <ele>172.2</ele>
        <time>2022-09-10T14:08:01Z</time>
      </trkpt>
      <trkpt lat="43.23127" lon="-0.98821">
        <ele>172.4</ele>
        <time>2022-09-10T14:08:04Z</time>
      </trkpt>
      <trkpt lat="43.23104" lon="-0.98822">
        <ele>172.8</ele>
        <time>2022-09-10T14:08:11Z</time>
      </trkpt>
      <trkpt lat="43.23094" lon="-0.98825">
        <ele>173.2</ele>
        <time>2022-09-10T14:08:14Z</time>
      </trkpt>
      <trkpt lat="43.23079" lon="-0.98831">
        <ele>173</ele>
        <time>2022-09-10T14:08:18Z</time>
      </trkpt>
      <trkpt lat="43.23054" lon="-0.98844">
        <ele>172.4</ele>
        <time>2022-09-10T14:08:24Z</time>
      </trkpt>
      <trkpt lat="43.23018" lon="-0.9886">
        <ele>172.4</ele>
        <time>2022-09-10T14:08:31Z</time>
      </trkpt>
      <trkpt lat="43.22976" lon="-0.98878">
        <ele>172.6</ele>
        <time>2022-09-10T14:08:39Z</time>
      </trkpt>
      <trkpt lat="43.22937" lon="-0.98896">
        <ele>173.6</ele>
        <time>2022-09-10T14:08:47Z</time>
      </trkpt>
      <trkpt lat="43.22909" lon="-0.9891">
        <ele>174.2</ele>
        <time>2022-09-10T14:08:53Z</time>
      </trkpt>
      <trkpt lat="43.22895" lon="-0.98916">
        <ele>174.2</ele>
        <time>2022-09-10T14:08:56Z</time>
      </trkpt>
      <trkpt lat="43.2285" lon="-0.98932">
        <ele>174.2</ele>
        <time>2022-09-10T14:09:05Z</time>
      </trkpt>
      <trkpt lat="43.22819" lon="-0.98941">
        <ele>175.2</ele>
        <time>2022-09-10T14:09:12Z</time>
      </trkpt>
      <trkpt lat="43.22778" lon="-0.98954">
        <ele>175.8</ele>
        <time>2022-09-10T14:09:22Z</time>
      </trkpt>
      <trkpt lat="43.22755" lon="-0.98965">
        <ele>175.8</ele>
        <time>2022-09-10T14:09:28Z</time>
      </trkpt>
      <trkpt lat="43.22717" lon="-0.98978">
        <ele>175.8</ele>
        <time>2022-09-10T14:09:37Z</time>
      </trkpt>
      <trkpt lat="43.22705" lon="-0.9898">
        <ele>175.6</ele>
        <time>2022-09-10T14:09:40Z</time>
      </trkpt>
      <trkpt lat="43.22688" lon="-0.98982">
        <ele>175.4</ele>
        <time>2022-09-10T14:09:44Z</time>
      </trkpt>
      <trkpt lat="43.22659" lon="-0.98986">
        <ele>175</ele>
        <time>2022-09-10T14:09:51Z</time>
      </trkpt>
      <trkpt lat="43.22624" lon="-0.98991">
        <ele>174.2</ele>
        <time>2022-09-10T14:09:59Z</time>
      </trkpt>
      <trkpt lat="43.22615" lon="-0.98992">
        <ele>174.2</ele>
        <time>2022-09-10T14:10:01Z</time>
      </trkpt>
      <trkpt lat="43.22587" lon="-0.98995">
        <ele>174</ele>
        <time>2022-09-10T14:10:08Z</time>
      </trkpt>
      <trkpt lat="43.22562" lon="-0.99">
        <ele>174.2</ele>
        <time>2022-09-10T14:10:16Z</time>
      </trkpt>
      <trkpt lat="43.22546" lon="-0.99004">
        <ele>174.2</ele>
        <time>2022-09-10T14:10:23Z</time>
      </trkpt>
      <trkpt lat="43.22529" lon="-0.99006">
        <ele>174.4</ele>
        <time>2022-09-10T14:10:30Z</time>
      </trkpt>
      <trkpt lat="43.2251" lon="-0.99009">
        <ele>174.8</ele>
        <time>2022-09-10T14:10:37Z</time>
      </trkpt>
      <trkpt lat="43.2249" lon="-0.99012">
        <ele>174.6</ele>
        <time>2022-09-10T14:10:43Z</time>
      </trkpt>
      <trkpt lat="43.22475" lon="-0.99007">
        <ele>174.4</ele>
        <time>2022-09-10T14:10:49Z</time>
      </trkpt>
      <trkpt lat="43.22458" lon="-0.98994">
        <ele>175.2</ele>
        <time>2022-09-10T14:10:57Z</time>
      </trkpt>
      <trkpt lat="43.22457" lon="-0.98991">
        <ele>175.2</ele>
        <time>2022-09-10T14:10:58Z</time>
      </trkpt>
      <trkpt lat="43.22457" lon="-0.98988">
        <ele>175.2</ele>
        <time>2022-09-10T14:10:59Z</time>
      </trkpt>
      <trkpt lat="43.22458" lon="-0.9898">
        <ele>174.8</ele>
        <time>2022-09-10T14:11:01Z</time>
      </trkpt>
      <trkpt lat="43.22464" lon="-0.98962">
        <ele>175</ele>
        <time>2022-09-10T14:11:06Z</time>
      </trkpt>
      <trkpt lat="43.22465" lon="-0.98959">
        <ele>175</ele>
        <time>2022-09-10T14:11:07Z</time>
      </trkpt>
      <trkpt lat="43.22471" lon="-0.98938">
        <ele>174.8</ele>
        <time>2022-09-10T14:11:14Z</time>
      </trkpt>
      <trkpt lat="43.22475" lon="-0.98923">
        <ele>174.8</ele>
        <time>2022-09-10T14:11:21Z</time>
      </trkpt>
    </trkseg>
  </trk>
</gpx>